XML Sitemap

This is a XML Sitemap which is supposed to be processed by search engines which follow the XML Sitemap standard like Ask.com, Bing, Google and Yahoo.
It was generated using the Blogging-Software WordPress and the Google Sitemap Generator Plugin by Arne Brachhold.
You can find more information about XML sitemaps on sitemaps.org and Google's list of sitemap programs.

URLPriorityChange frequencyLast modified (GMT)
http://www.hotnewdeal.com/2019/01/31/281167_Lifx_A19_color_bulbs_3199_at_Amazon/20%Monthly2019-01-31 23:51
http://www.hotnewdeal.com/2019/01/31/281166_ANDORRA_Thinsulate_Cotton_Touchscreen_Snow_Gloves_/20%Monthly2019-01-31 23:22
http://www.hotnewdeal.com/2019/01/31/281165_Adorama_via_Google_Express_has_500GB_Crucial_MX500/20%Monthly2019-01-31 23:15
http://www.hotnewdeal.com/2019/01/31/281164_3Piece_Mia_Toro_Italy_Illeso_Hardside_Luggage_Set/20%Monthly2019-01-31 22:56
http://www.hotnewdeal.com/2019/01/31/281163_1799_Vday_Gifts_A_Little_Romance_Adjustable_7/20%Monthly2019-01-31 22:53
http://www.hotnewdeal.com/2019/01/31/281162_32_Degrees_Mens_Power_stretch_knit_gloves_699_w/20%Monthly2019-01-31 22:53
http://www.hotnewdeal.com/2019/01/31/281161_LEGO_Marvel_Super_Heroes_Avengers_Infinity_War_Ou/20%Monthly2019-01-31 22:09
http://www.hotnewdeal.com/2019/01/31/281160_Livh_Blue_Light_Blocking_Computer_Glasses_Tablet/20%Monthly2019-01-31 22:09
http://www.hotnewdeal.com/2019/01/31/281159_OralB_Pro_Advantage_8000_Rechargeable_Toothbrush_/20%Monthly2019-01-31 22:09
http://www.hotnewdeal.com/2019/01/31/281158_624_CHANNELLOCK_4Piece_Household_Tool_Set__Low/20%Monthly2019-01-31 21:43
http://www.hotnewdeal.com/2019/01/31/281157_MSI_GL63_8RE629_156_FHD_IPS_i78750H_16_DDR/20%Monthly2019-01-31 21:43
http://www.hotnewdeal.com/2019/01/31/281156_Belmint_Rotating_Rechargeable_Bath_Brush_4199/20%Monthly2019-01-31 21:19
http://www.hotnewdeal.com/2019/01/31/281155_Roku_TV_Wireless_Speakers__14999_wfree_shippin/20%Monthly2019-01-31 21:19
http://www.hotnewdeal.com/2019/01/31/281154_Free_any_single_soda_up_to_200/20%Monthly2019-01-31 21:09
http://www.hotnewdeal.com/2019/01/31/281153_Universal_Travel_Power_Adapter_w_4_Port_USB_Charg/20%Monthly2019-01-31 20:54
http://www.hotnewdeal.com/2019/01/31/281152_24Pack_of_8oz_V8_Energy_Drinks_Diet_Strawberry_/20%Monthly2019-01-31 20:44
http://www.hotnewdeal.com/2019/01/31/281151_Halter_ED257_Preassembled_Height_Adjustable_Desk_/20%Monthly2019-01-31 20:44
http://www.hotnewdeal.com/2019/01/31/281149_PNY__240GB_Internal_SATA_Solid_State_Drive_for_La/20%Monthly2019-01-31 20:23
http://www.hotnewdeal.com/2019/01/31/281148_Home_Depot_Select_Hampton_Bay_Ceiling_Fans_from_/20%Monthly2019-01-31 20:23
http://www.hotnewdeal.com/2019/01/31/281147_Nintendo_Switch_Digital_Games_Disgaea_5_Complete_/20%Monthly2019-01-31 20:15
http://www.hotnewdeal.com/2019/01/31/281146_The_Witcher_ebooks_on_sale_299/20%Monthly2019-01-31 20:02
http://www.hotnewdeal.com/2019/01/31/281145_Dollar_General_5_off_on_purchases_of_25pretax/20%Monthly2019-01-31 19:55
http://www.hotnewdeal.com/2019/01/31/281144_Nintendo_Switch_Digital_Games_Pool_Panic_509_S/20%Monthly2019-01-31 19:45
http://www.hotnewdeal.com/2019/01/31/281143_Sceptre_55_Class_4K_Ultra_HD_2160P_LED_TV_U550/20%Monthly2019-01-31 19:38
http://www.hotnewdeal.com/2019/01/31/281142_UNiDAYS_members_35_off_Garmin_fitness_trackers_a/20%Monthly2019-01-31 19:30
http://www.hotnewdeal.com/2019/01/31/281141_11_Inch_Wireless_Keyboard_and_Mouse_with_Bonus_Mou/20%Monthly2019-01-31 19:30
http://www.hotnewdeal.com/2019/01/31/281140_Champion_Power_Equipment_2000Watt_Gasoline_Porta/20%Monthly2019-01-31 19:13
http://www.hotnewdeal.com/2019/01/31/281139_Dockers_Mens_Signature_Pleated_Classic_Fit_Pants_/20%Monthly2019-01-31 18:59
http://www.hotnewdeal.com/2019/01/31/281138_Converse_Kids_Chuck_Taylor_All_Star_2018_Seasonal/20%Monthly2019-01-31 18:53
http://www.hotnewdeal.com/2019/01/31/281137_SwissGear_Bags_Skywalk_16_Laptop_Backpack_30_R/20%Monthly2019-01-31 18:53
http://www.hotnewdeal.com/2019/01/31/281136_Belmint_Portable_Pure_Calf__Foot_Spa_Massager_59/20%Monthly2019-01-31 18:46
http://www.hotnewdeal.com/2019/01/31/281135_HR_Block_Tax_Software__15_Office_Depot_Merchand/20%Monthly2019-01-31 18:37
http://www.hotnewdeal.com/2019/01/31/281134_Kate_Spade_Additional_Savings_on_Sale_Items_30_O/20%Monthly2019-01-31 18:37
http://www.hotnewdeal.com/2019/01/31/281133_Kingdom_Hearts_III__PS4__XBOX_One__Target__/20%Monthly2019-01-31 18:01
http://www.hotnewdeal.com/2019/01/31/281132_Dragon_ball_fighter_z_xbox_24/20%Monthly2019-01-31 18:01
http://www.hotnewdeal.com/2019/01/31/281131_Gap_Mens_Hybrid_Khakis_in_Straight_Fit_w_GapFlex/20%Monthly2019-01-31 18:00
http://www.hotnewdeal.com/2019/01/31/281130_Logitech_M510_Wireless_Computer_Mouse_Amazon_Deal_/20%Monthly2019-01-31 17:44
http://www.hotnewdeal.com/2019/01/31/281129_MSI_MPG_Z390_Gaming_Edge_AC_motherboard_160_AC_/20%Monthly2019-01-31 17:44
http://www.hotnewdeal.com/2019/01/31/281128_Hp_ex920_m2_1TB_NVMe_SSD_150fs/20%Monthly2019-01-31 17:29
http://www.hotnewdeal.com/2019/01/31/281127_Bosch_9_Gallon_Dust_Extractor_with_Auto_Filter_Cle/20%Monthly2019-01-31 17:29
http://www.hotnewdeal.com/2019/01/31/281126_Arcade1Up_Asteroids_14999/20%Monthly2019-01-31 17:29
http://www.hotnewdeal.com/2019/01/31/281125_ONKYO_TXSR383_72Channel_AV_Receiver__120_gif/20%Monthly2019-01-31 17:29
http://www.hotnewdeal.com/2019/01/31/281124_MOUSEPAD_SteelSeries_All_Mouse_pads_50_off_with/20%Monthly2019-01-31 17:14
http://www.hotnewdeal.com/2019/01/31/281123_Microsoft_Xbox_One_X_1TB_NBA_2K19_Bundle_Black_C/20%Monthly2019-01-31 17:07
http://www.hotnewdeal.com/2019/01/31/281122_Vornado_2_Setting_Whole_Room_Vortex_Circulation_Sp/20%Monthly2019-01-31 17:07
http://www.hotnewdeal.com/2019/01/31/281121_Vornado_1500_Watt_Compact_Whole_Room_Vortex_Elect/20%Monthly2019-01-31 17:04
http://www.hotnewdeal.com/2019/01/31/281120_ASUS_ROG_CROSSHAIR_VI_HERO_WIFI_AC_was25999_Y/20%Monthly2019-01-31 17:01
http://www.hotnewdeal.com/2019/01/31/281119_RCA_Voyager_7_16GB_Android_Tablet_wKeyboard_Case/20%Monthly2019-01-31 17:01
http://www.hotnewdeal.com/2019/01/31/281118_Planters_Fruit_and_Nut_Trail_Mix_2_oz_Single_Ser/20%Monthly2019-01-31 17:01
http://www.hotnewdeal.com/2019/01/31/281117_Polk_Audio_Monitor60_Series_II_Floorstanding_Louds/20%Monthly2019-01-31 17:01
http://www.hotnewdeal.com/2019/01/31/281116_75_Samsung_UN75NU7100_4K_UHD_TV_1049/20%Monthly2019-01-31 17:01
http://www.hotnewdeal.com/2019/01/31/281115_Zinus_Taylan_Metal_and_Wood_Platform_Bed_Full_14/20%Monthly2019-01-31 16:52
http://www.hotnewdeal.com/2019/01/31/281114_Sams_Club_Online_Price_only_Intuit_QuickBooks_Pro/20%Monthly2019-01-31 16:52
http://www.hotnewdeal.com/2019/01/31/281113_MintMobile__3_Months_of_8_GB_Plan_for_20_total_/20%Monthly2019-01-31 16:38
http://www.hotnewdeal.com/2019/01/31/281112_Sperry_Mens_Coast_Line_Blucher_Sneaker_2798_Ca/20%Monthly2019-01-31 16:31
http://www.hotnewdeal.com/2019/01/31/281111_MSI_Gaming_Desktop_i5_8th_Gen_8GB_DDR4_2TB_HDD/20%Monthly2019-01-31 16:24
http://www.hotnewdeal.com/2019/01/31/281109_Wera_Zyklop_8000B_38_Drive_Ratchet_50_Wera_Too/20%Monthly2019-01-31 16:02
http://www.hotnewdeal.com/2019/01/31/281108_VPX_Bang_48_cans_6238__FS/20%Monthly2019-01-31 16:02
http://www.hotnewdeal.com/2019/01/31/281107_refurb_Cuisinart_Small_Appliances_Double_Belgia/20%Monthly2019-01-31 16:02
http://www.hotnewdeal.com/2019/01/31/281106_Pokemon_Lets_Go_Eevee__Nintendo_Switch_4949/20%Monthly2019-01-31 15:47
http://www.hotnewdeal.com/2019/01/31/281105_HP_124A_Q6000A_Black_Toner_Cartridge__OEM_at_Wo/20%Monthly2019-01-31 15:46
http://www.hotnewdeal.com/2019/01/31/281104_Brooks_PureCadence_7_Running_Shoe_5498_Brooks_R/20%Monthly2019-01-31 15:35
http://www.hotnewdeal.com/2019/01/31/281102_Corsair_K70_RGB_MK2_Mechanical_Gaming_Keyboard__/20%Monthly2019-01-31 15:35
http://www.hotnewdeal.com/2019/01/31/281101_Orange_Amplifiers_FS2_TwoButton_Dual_Guitar_Foot/20%Monthly2019-01-31 15:35
http://www.hotnewdeal.com/2019/01/31/281100_500GB_Crucial_P1_3D_NAND_M2_NVMe_PCIe_SSD_71_AC_/20%Monthly2019-01-31 15:34
http://www.hotnewdeal.com/2019/01/31/281099_Tribest_Ultrasonic_Cool_Mist_Humidifier_and_Night_/20%Monthly2019-01-31 15:08
http://www.hotnewdeal.com/2019/01/31/281098_Nintendo_Switch_Console_with_Neon_Joycon_Controlle/20%Monthly2019-01-31 15:08
http://www.hotnewdeal.com/2019/01/31/281097_LG_E8_65_OLED_TV__OLED65E8PUA_2279__Authorized/20%Monthly2019-01-31 14:52
http://www.hotnewdeal.com/2019/01/31/281096_AMD_Ryzen_7_1700_3_GHz_8Core_Processor__16_MB__/20%Monthly2019-01-31 14:52
http://www.hotnewdeal.com/2019/01/31/281095_DLink_DIR867US_AC1750_Smart_DualBand_Gaming4K/20%Monthly2019-01-31 14:52
http://www.hotnewdeal.com/2019/01/31/281094_3509_oz_SNICKERS_Variety_Mix_Fun_Size_520_AC_w/20%Monthly2019-01-31 14:40
http://www.hotnewdeal.com/2019/01/31/281093_Sams_Club__Sams_Cafe_Pizza_2_off_during_Feb_2n/20%Monthly2019-01-31 14:14
http://www.hotnewdeal.com/2019/01/31/281092_Werner_6_ft_Rolling_Scaffold_15675_at_Lowes/20%Monthly2019-01-31 14:14
http://www.hotnewdeal.com/2019/01/31/281090_22lb_Lavazza_Caffe_Espresso_Whole_Bean_Coffee_Bl/20%Monthly2019-01-31 14:00
http://www.hotnewdeal.com/2019/01/31/281089_Moscow_mule_mug_for_5_pickup_in_store_at_Pier_1_I/20%Monthly2019-01-31 14:00
http://www.hotnewdeal.com/2019/01/31/281088_Fender_fe1225_electric_guitar_gig_bag_4802/20%Monthly2019-01-31 13:43
http://www.hotnewdeal.com/2019/01/31/281087_ASUS_ROG_Strix_Radeon_RX_570_4Gb_Gaming_OC__120/20%Monthly2019-01-31 13:28
http://www.hotnewdeal.com/2019/01/31/281086_960GB_SanDisk_SSD_PLUS_25_Solid_State_Drive_119/20%Monthly2019-01-31 13:27
http://www.hotnewdeal.com/2019/01/31/281085_Martha_Stewart_Dutch_Oven_28_Quart_26246824/20%Monthly2019-01-31 13:12
http://www.hotnewdeal.com/2019/01/31/281084_Scosche_GPS__HeadsUp_MultiColor_LED_Display_25/20%Monthly2019-01-31 12:52
http://www.hotnewdeal.com/2019/01/31/281083_LG_B8PUA_55_inch_OLED_TV_OLED55B8PUA_1175/20%Monthly2019-01-31 12:22
http://www.hotnewdeal.com/2019/01/31/281082_RYOBI_18Volt_ONE_LithiumIon_Cordless_AirStrike_/20%Monthly2019-01-31 12:15
http://www.hotnewdeal.com/2019/01/31/281080_Amazon_Echo_Owners_4Month_Amazon_Music_Unlimited/20%Monthly2019-01-31 12:09
http://www.hotnewdeal.com/2019/01/31/281079_Qi_Wireless_Charging_Stand_Compatible_For_Phone_1/20%Monthly2019-01-31 12:09
http://www.hotnewdeal.com/2019/01/31/281078_Foscam_R2C_Lightining_Deal_is_back_4199_4199/20%Monthly2019-01-31 12:09
http://www.hotnewdeal.com/2019/01/31/281077_Persona_5_PS4_or_Sonic_Force_Bonus_Edition_PS4/20%Monthly2019-01-31 12:09
http://www.hotnewdeal.com/2019/01/31/281076_Total_HomeFX_800_Series_Plus_Projector_Window_Deco/20%Monthly2019-01-31 12:08
http://www.hotnewdeal.com/2019/01/31/281075_Milwaukee_M18_FUEL_18Volt_Liion_Brushless_Cordle/20%Monthly2019-01-31 12:08
http://www.hotnewdeal.com/2019/01/31/281074_29Piece_Milwaukee_Cobalt_Drill_Bit_Set_65_or_Les/20%Monthly2019-01-31 12:08
http://www.hotnewdeal.com/2019/01/31/281073_Ubiquiti_Networks_24Port_UniFi_Switch_Managed_Po/20%Monthly2019-01-31 12:08
http://www.hotnewdeal.com/2019/01/31/281072_DLink_HD_WiFi_Camera_Connected_Home_Series_DCS/20%Monthly2019-01-31 11:36
http://www.hotnewdeal.com/2019/01/31/281071_374_Craftsman_9_piece_set_12_point_SAE_or_metric/20%Monthly2019-01-31 11:36
http://www.hotnewdeal.com/2019/01/31/281070_Craftsman_tshirt_199_Sweatshirt_499_Lowes_ym/20%Monthly2019-01-31 11:36
http://www.hotnewdeal.com/2019/01/31/281069_shopDisney_Clearance_from_499__Free_SH/20%Monthly2019-01-31 11:35
http://www.hotnewdeal.com/2019/01/31/281068_Chefs_Star_AF15_1350W_Premium_42L_XL_Air_Fryer_/20%Monthly2019-01-31 11:35
http://www.hotnewdeal.com/2019/01/31/281067_Monoprice_Strata_Home_20_High_Suction_Robotic_Vac/20%Monthly2019-01-31 11:34
http://www.hotnewdeal.com/2019/01/31/281066_Hellblade_Senuas_Sacrifice_PS4_1999__Free_In/20%Monthly2019-01-31 11:18
http://www.hotnewdeal.com/2019/01/31/281065_Belmint_18Node_Deep_Shiatsu_Foot_Massager_4399/20%Monthly2019-01-31 11:17
http://www.hotnewdeal.com/2019/01/31/281064_75_LG_75UK6570PUB_4K_HDR_TV_1050__free_sh/20%Monthly2019-01-31 11:17
http://www.hotnewdeal.com/2019/01/31/281062_Reolink_8CH_5MP_PoE_Home_Security_Camera_System__/20%Monthly2019-01-31 10:51
http://www.hotnewdeal.com/2019/01/31/281061_40Packs_Juicy_Fruit_Original_Bubble_Gum_678/20%Monthly2019-01-31 10:51
http://www.hotnewdeal.com/2019/01/31/281059_Patriot_Memory_128GB_EP_Series_MicroSDXC_U3_A1_V/20%Monthly2019-01-31 10:50
http://www.hotnewdeal.com/2019/01/31/281058_30_Off_Gander_Outdoors__No_Minimum/20%Monthly2019-01-31 10:30
http://www.hotnewdeal.com/2019/01/31/281057_LaView_IP_POE_1080P_Dome_camera_woptional_WiFi_LV/20%Monthly2019-01-31 10:02
http://www.hotnewdeal.com/2019/01/31/281056_TPLink__OnHub_AC1900_Router_70_AC_Newegg/20%Monthly2019-01-31 10:01
http://www.hotnewdeal.com/2019/01/31/281055_15_off_60_on_Amazon_when_using_Chase_Ultimate_Re/20%Monthly2019-01-31 10:01
http://www.hotnewdeal.com/2019/01/31/281054_Kobalt_33Piece_1in_2_Phillips8_Slotted_Set_Hi/20%Monthly2019-01-31 09:37
http://www.hotnewdeal.com/2019/01/31/281053_Select_Lowes__WorkPro_3Piece_Snip_Set_for_249/20%Monthly2019-01-31 09:28
http://www.hotnewdeal.com/2019/01/31/281052_LG_75UK6190PUB_75_Class_745_Diag_4K_Ultra_HD/20%Monthly2019-01-31 09:28
http://www.hotnewdeal.com/2019/01/31/281051_Call_of_Duty_Black_Ops_4_PC_20/20%Monthly2019-01-31 09:28
http://www.hotnewdeal.com/2019/01/31/281049_6Quart_Instant_Pot_Duo_Plus_60_Pressure_Cooker_8/20%Monthly2019-01-31 09:28
http://www.hotnewdeal.com/2019/01/31/281048_PSA_UltraViolet_shutdown/20%Monthly2019-01-31 09:12
http://www.hotnewdeal.com/2019/01/31/281047_Fall_Decorations_Lights__650_freeshipping_wPr/20%Monthly2019-01-31 09:12
http://www.hotnewdeal.com/2019/01/31/281046_Lenovo_IdeaPad_530S_156_i78550U_16_GB_RAM_5/20%Monthly2019-01-31 09:06
http://www.hotnewdeal.com/2019/01/31/281045_Acer_Aspire_S7393_133_Touch_i7_8GB_256GB_SSD_Wi/20%Monthly2019-01-31 08:59
http://www.hotnewdeal.com/2019/01/31/281044_Zyllion_Shiatsu_Back__Neck_Massager_26__Free_Sh/20%Monthly2019-01-31 08:12
http://www.hotnewdeal.com/2019/01/31/281043_AMD_RYZEN_7_2700_8Core_CPU_Processor__Division_/20%Monthly2019-01-31 08:12
http://www.hotnewdeal.com/2019/01/31/281042_Yamaha_61Key_Portable_Keyboard_PSRF51HS__w_Ya/20%Monthly2019-01-31 08:12
http://www.hotnewdeal.com/2019/01/31/281041_Arcteryx_Cerium_LT_188/20%Monthly2019-01-31 08:00
http://www.hotnewdeal.com/2019/01/31/281040_Logitech_g602_wireless_gaming_mouse_with_11_progra/20%Monthly2019-01-31 08:00
http://www.hotnewdeal.com/2019/01/31/281039_Feiyu_G5_Handheld_Gimbal_for_GoPro_HERO_7654__/20%Monthly2019-01-31 08:00
http://www.hotnewdeal.com/2019/01/31/281038_1TB_Microsoft_Xbox_One_S_Console_w_Battlefield_V_/20%Monthly2019-01-31 07:16
http://www.hotnewdeal.com/2019/01/31/281037_Copper__Metal_Collection_Owl_Moscow_Mule_Mug_49/20%Monthly2019-01-31 06:56
http://www.hotnewdeal.com/2019/01/31/281036_Milwaukee_M18_18Volt_Liion_Cordless_Combo_Kit_6/20%Monthly2019-01-31 06:32
http://www.hotnewdeal.com/2019/01/31/281035_ANTI_SHOCK_CLEAR_CASES_FOR_SAMSUNG_GALAXY_S8_S9_PL/20%Monthly2019-01-31 05:34
http://www.hotnewdeal.com/2019/01/31/281034_Mini_MagLite__Gerber_US1_Everyday_Carry_Series_Co/20%Monthly2019-01-31 05:00
http://www.hotnewdeal.com/2019/01/31/281033_Logitech_PC_Gaming__Productivity_G910_Orion_Spar/20%Monthly2019-01-31 04:07
http://www.hotnewdeal.com/2019/01/31/281032_Weber_Genesis_II_E310_3Burner_Propane_Gas_Grill_/20%Monthly2019-01-31 04:07
http://www.hotnewdeal.com/2019/01/31/281031_Join_Origin_Access_Basic_Jan_29Feb_4_to_get_your_/20%Monthly2019-01-31 04:07
http://www.hotnewdeal.com/2019/01/31/281030_Planters_Nuts_DoTD_Up_to_50_Off_1525oz_Plante/20%Monthly2019-01-31 03:40
http://www.hotnewdeal.com/2019/01/31/281029_Metro_PCS_By_TMOBILE_iPhone_SE_free_after_port_in/20%Monthly2019-01-31 02:47
http://www.hotnewdeal.com/2019/01/31/281028_Amazon_Braided_Fishing_Line_8_Strands_Multiple_Co/20%Monthly2019-01-31 02:47
http://www.hotnewdeal.com/2019/01/31/281027_RYZEN_5_2600_WITH_The_Division_2_16499/20%Monthly2019-01-31 02:41
http://www.hotnewdeal.com/2019/01/31/281026_50_Jiffy_Lube_Gift_Card_for_3750_Email_Deliver/20%Monthly2019-01-31 02:41
http://www.hotnewdeal.com/2019/01/31/281024_First_Aid_Kit_Emergency_Survival_Bag_50_off_Ama/20%Monthly2019-01-31 01:09
http://www.hotnewdeal.com/2019/01/31/281023_EVGA_GeForce_RTX_2080_Ti_BLACK_EDITION_GAMING_with/20%Monthly2019-01-31 00:18
http://www.hotnewdeal.com/2019/01/31/281022_879_AR__Freeship_MSI_Gaming_laptop_i78750H_15/20%Monthly2019-01-31 00:18
http://www.hotnewdeal.com/2019/01/31/281021_Pei_Wei_Asian_Diner_Online_Coupon_5_off_10/20%Monthly2019-01-31 00:18
http://www.hotnewdeal.com/2019/01/30/281020_Shutterfly_8_x_11_Personalized_Photo_Wall_Calend/20%Monthly2019-01-30 23:59
http://www.hotnewdeal.com/2019/01/30/281019_Phillips_LED_Dimmable_A19_Light_Bulb_with_Warm_Glo/20%Monthly2019-01-30 23:41
http://www.hotnewdeal.com/2019/01/30/281018_CabelasBass_Pro_Shops_42_Coffee_Pods_for_397/20%Monthly2019-01-30 23:27
http://www.hotnewdeal.com/2019/01/30/281017_Bosch_30ft_Beam_SelfLeveling_CrossLine_Laser_Le/20%Monthly2019-01-30 23:27
http://www.hotnewdeal.com/2019/01/30/281016_Resident_Evil_Afterlife_4K_Ultra_HD__Bluray_/20%Monthly2019-01-30 22:58
http://www.hotnewdeal.com/2019/01/30/281015_Naztech_Ultimate_Wireless_Power_Station_4999_Fr/20%Monthly2019-01-30 22:42
http://www.hotnewdeal.com/2019/01/30/281014_Set_of_8_Approved_Stainless_Steel_Straws_399/20%Monthly2019-01-30 22:42
http://www.hotnewdeal.com/2019/01/30/281013_Expresscom_Additional_50_OFF_Clearance_Footwear/20%Monthly2019-01-30 22:28
http://www.hotnewdeal.com/2019/01/30/281012_Hitachi_29Pack_Gold_Oxide_Twist_Drill_Bit_Set_7/20%Monthly2019-01-30 22:28
http://www.hotnewdeal.com/2019/01/30/281011_Vornado_1500_Watt_Whole_Room_Vortex_Heater_5999_/20%Monthly2019-01-30 22:06
http://www.hotnewdeal.com/2019/01/30/281010_128Count_4_pks_of_32_Tampax_Radiant_Pearl_or_/20%Monthly2019-01-30 21:46
http://www.hotnewdeal.com/2019/01/30/281008_Xbox_One_X_1TB_Console__NBA_2K19_Bundle_399/20%Monthly2019-01-30 20:56
http://www.hotnewdeal.com/2019/01/30/281007_Charlotte_Russe_Extra_10_Off__30_Off_Sale_Dres/20%Monthly2019-01-30 20:55
http://www.hotnewdeal.com/2019/01/30/281006_LululemonWomens_Speed_Up_Bra_CD_29_Moment_to_/20%Monthly2019-01-30 20:47
http://www.hotnewdeal.com/2019/01/30/281005_Nikon_Neoprene_Camera_or_Accessory_Case_099_or_K/20%Monthly2019-01-30 20:24
http://www.hotnewdeal.com/2019/01/30/281004_Sony_WH1000XM3_Wireless_Noise_Canceling_Overthe/20%Monthly2019-01-30 20:08
http://www.hotnewdeal.com/2019/01/30/281003_CRAFTSMAN_95Piece_Standard_SAE_and_Metric_Polis/20%Monthly2019-01-30 19:58
http://www.hotnewdeal.com/2019/01/30/281002_Kobalt_89Piece_Standard_SAE_Polished_Chrome_Mec/20%Monthly2019-01-30 19:58
http://www.hotnewdeal.com/2019/01/30/281001_Scotch_35in_Stainless_Steel_Soft_Touch_Overmold_/20%Monthly2019-01-30 19:47
http://www.hotnewdeal.com/2019/01/30/281000_Addon_Item_Revlon_1875W_Compact__Lightweight_Ha/20%Monthly2019-01-30 19:47
http://www.hotnewdeal.com/2019/01/30/280999_2Set_Mainstays_Scroll_Wall_Sconce_Candleholders_/20%Monthly2019-01-30 19:47
http://www.hotnewdeal.com/2019/01/30/280998_1500W_Portable_Ceramic_Space_Heater_From_2589/20%Monthly2019-01-30 19:39
http://www.hotnewdeal.com/2019/01/30/280997_True_Temper_4_cu_ft_Poly_Wheelbarrow_35/20%Monthly2019-01-30 19:31
http://www.hotnewdeal.com/2019/01/30/280996_100_off__Free_50_eGift_Card_Sonos_PLAYBASE_Wire/20%Monthly2019-01-30 19:31
http://www.hotnewdeal.com/2019/01/30/280994_Marvels_Agents_of_SHIELD_Season_2_BluRay_6/20%Monthly2019-01-30 18:35
http://www.hotnewdeal.com/2019/01/30/280993_Moto_Mod_Style_Shell/20%Monthly2019-01-30 18:23
http://www.hotnewdeal.com/2019/01/30/280992_LG_HF80JA_1080p_Laser_Smart_Home_Theater_Projector/20%Monthly2019-01-30 18:22
http://www.hotnewdeal.com/2019/01/30/280991_Nintendo_Switch_Games_New_Super_Mario_Bros_U_Delu/20%Monthly2019-01-30 17:59
http://www.hotnewdeal.com/2019/01/30/280990_Craftsman_Digital_Multimeter_7piece_Universal_Ra/20%Monthly2019-01-30 17:42
http://www.hotnewdeal.com/2019/01/30/280989_Tascam_DR10L_Digital_Audio_Recorder_w_Lavalier_M/20%Monthly2019-01-30 17:42
http://www.hotnewdeal.com/2019/01/30/280988_Sperry_Womens_Walker_Turf_Olive_Rain_Boot_2599_/20%Monthly2019-01-30 17:42
http://www.hotnewdeal.com/2019/01/30/280987_Buy_Trolls_HD_Amazon_Prime_Video__499/20%Monthly2019-01-30 17:28
http://www.hotnewdeal.com/2019/01/30/280986_costcocom_Super_expensive_Fragrances_on_clearance/20%Monthly2019-01-30 17:13
http://www.hotnewdeal.com/2019/01/30/280985_LaView_4CH_NVR_1080P_IP_PoE_Dome_Security_Camera_S/20%Monthly2019-01-30 17:06
http://www.hotnewdeal.com/2019/01/30/280984_2_Vudu_Credit_When_You_Watch_Select_Free_Movie_St/20%Monthly2019-01-30 17:04
http://www.hotnewdeal.com/2019/01/30/280983_Bose_QuietComfort_35_Series_II_Wireless_Noise_Canc/20%Monthly2019-01-30 17:04
http://www.hotnewdeal.com/2019/01/30/280982_Addon_Item_25Ounce_Osteo_BiFlex_Pain_Relievin/20%Monthly2019-01-30 17:04
http://www.hotnewdeal.com/2019/01/30/280981_CYZ_Mens_3PK_Cotton_Stretch_Briefs_For_649__F/20%Monthly2019-01-30 16:53
http://www.hotnewdeal.com/2019/01/30/280980_Seagate_Expansion_8TB_USB_30_35_Desktop_Externa/20%Monthly2019-01-30 16:53
http://www.hotnewdeal.com/2019/01/30/280979_Nintendo_Switch_Console_with_Neon_Joycon_Controlle/20%Monthly2019-01-30 16:44
http://www.hotnewdeal.com/2019/01/30/280978_120GB_HP_S700_25_Solid_State_Drive_1999__Free/20%Monthly2019-01-30 16:36
http://www.hotnewdeal.com/2019/01/30/280977_Sams_Club_43_TCL_43S403_4K_UHD_HDR_Roku_Smart_L/20%Monthly2019-01-30 16:36
http://www.hotnewdeal.com/2019/01/30/280976_20XX_Xbox_One__PS4_Digital_1079__Mega_Man_X_/20%Monthly2019-01-30 16:36
http://www.hotnewdeal.com/2019/01/30/280975_BOISE_X9_MultiUse_Copy_Paper__Case_of_10_Reams/20%Monthly2019-01-30 16:36
http://www.hotnewdeal.com/2019/01/30/280974_Nintendo_Switch_Neon_Console__Pro_Controller__Sa/20%Monthly2019-01-30 16:24
http://www.hotnewdeal.com/2019/01/30/280973_Rakuten_Loungie_Microplush_Recliner_Chair_47_free/20%Monthly2019-01-30 16:24
http://www.hotnewdeal.com/2019/01/30/280972_PUMA_Hat_Sale_Hats_for_715__Free_Shipping/20%Monthly2019-01-30 16:13
http://www.hotnewdeal.com/2019/01/30/280971_ASUS_VivoBook_Flip_14_14_Thin_and_Lightweight_lap/20%Monthly2019-01-30 16:04
http://www.hotnewdeal.com/2019/01/30/280970_10Count_3_x_3_Custom_Die_Cut_Vinyl_Stickers_1_/20%Monthly2019-01-30 16:00
http://www.hotnewdeal.com/2019/01/30/280969_Greenworks_20Inch_40V_Twin_Force_Cordless_Lawn_Mo/20%Monthly2019-01-30 15:59
http://www.hotnewdeal.com/2019/01/30/280968_Fosmon_Sale_HDTV_Antenna_or_Wii_U_GamePad_Charger/20%Monthly2019-01-30 15:59
http://www.hotnewdeal.com/2019/01/30/280967_Black__Decker_12Cup_Programmable_Coffee_Maker_B/20%Monthly2019-01-30 15:59
http://www.hotnewdeal.com/2019/01/30/280966_Bermuda_Triangle_The_New_Secrets_Season_1_Digit/20%Monthly2019-01-30 15:59
http://www.hotnewdeal.com/2019/01/30/280965_Aukey_Cables_33ft_USB_30_A_to_C_Cable_160_2/20%Monthly2019-01-30 15:42
http://www.hotnewdeal.com/2019/01/30/280964_2lb_32oz_Sheet_Kelloggs_Rice_Krispies_Treats/20%Monthly2019-01-30 15:26
http://www.hotnewdeal.com/2019/01/30/280963_Alpine_Swiss_Beck_Mens_Genuine_Suede_Chukka_Boots_/20%Monthly2019-01-30 15:26
http://www.hotnewdeal.com/2019/01/30/280962_Costco_Members_Roku_Ultra_streaming_player_model/20%Monthly2019-01-30 15:03
http://www.hotnewdeal.com/2019/01/30/280961_AmazonBasics_Microwave_Small_07_Cu_Ft_700W_W/20%Monthly2019-01-30 14:48
http://www.hotnewdeal.com/2019/01/30/280960_Aukey_10000mAh_Power_Bank_12_20000mAh_Power_Ban/20%Monthly2019-01-30 14:48
http://www.hotnewdeal.com/2019/01/30/280959_Amazon_378_Smackfat_Ketone_Strips__Perfect_for/20%Monthly2019-01-30 14:37
http://www.hotnewdeal.com/2019/01/30/280958_Maximus_Smart_Security_Coach_Light_with_Camera_Cos/20%Monthly2019-01-30 14:22
http://www.hotnewdeal.com/2019/01/30/280957_HR_Block_2018_Tax_Software_Deluxe__State_WinMac/20%Monthly2019-01-30 14:00
http://www.hotnewdeal.com/2019/01/30/280956_Jssmst_Small_Cash_Box_with_Combination_Lock__Dura/20%Monthly2019-01-30 14:00
http://www.hotnewdeal.com/2019/01/30/280955_3_pcs_10_blades_Kobalt_13Blade_Folding_Utility_Kn/20%Monthly2019-01-30 14:00
http://www.hotnewdeal.com/2019/01/30/280954_American_Tourister_Sunset_Cruise_Hardside_Spinner_/20%Monthly2019-01-30 13:52
http://www.hotnewdeal.com/2019/01/30/280953_Motorola_Moto_G6_32GB_Unlocked_Smartphone_Refurbi/20%Monthly2019-01-30 13:42
http://www.hotnewdeal.com/2019/01/30/280952_Alienware_Aurora_R7_Desktop_i7_8700_8GB_GTX_1080/20%Monthly2019-01-30 13:42
http://www.hotnewdeal.com/2019/01/30/280951_Newegg_2_x_Seagate_NAS_IronWolf_12TB_660__7200_R/20%Monthly2019-01-30 13:42
http://www.hotnewdeal.com/2019/01/30/280950_Kobalt_precision_26_piece_ratchet_screwdriver_set_/20%Monthly2019-01-30 13:42
http://www.hotnewdeal.com/2019/01/30/280949_DEWALT_68Piece_Screwdriver_Bit_Set_749_YMMV/20%Monthly2019-01-30 13:42
http://www.hotnewdeal.com/2019/01/30/280948_Kobalt_29Piece_Magnetic_MultiBit_Screwdriver_Set/20%Monthly2019-01-30 13:41
http://www.hotnewdeal.com/2019/01/30/280947_a_few_knife_deal_at_lowes_249374_YMMY/20%Monthly2019-01-30 13:27
http://www.hotnewdeal.com/2019/01/30/280946_CRAFTSMAN_Pen_Light_80Lumen_LED_Flashlight_Batte/20%Monthly2019-01-30 13:27
http://www.hotnewdeal.com/2019/01/30/280945_1Ct_Neutrogena_Pink_Grapefruit_Acne_Prone_Skin_Pe/20%Monthly2019-01-30 13:27
http://www.hotnewdeal.com/2019/01/30/280944_Hitachi_60Piece_Shank_Screwdriver_Bit_Set_374_/20%Monthly2019-01-30 13:00
http://www.hotnewdeal.com/2019/01/30/280943_Monopoly_Board_Games_BoJack_Horseman_Edition_94/20%Monthly2019-01-30 13:00
http://www.hotnewdeal.com/2019/01/30/280942_Lenovo_Ideapad_530s_156_FHD_IPS_i78550U_16G/20%Monthly2019-01-30 12:54
http://www.hotnewdeal.com/2019/01/30/280941_16oz_Golf_Bag_Beer_Mug_893__Walmart/20%Monthly2019-01-30 12:36
http://www.hotnewdeal.com/2019/01/30/280940_Final_Fantasy_XV_Royal_Edition_PS4_or_Xbox_One_/20%Monthly2019-01-30 12:35
http://www.hotnewdeal.com/2019/01/30/280939_10Pc_Corningware_Bakeware_Set_or_22Pc_Pyrex_Set_/20%Monthly2019-01-30 12:35
http://www.hotnewdeal.com/2019/01/30/280938_Eton_Rugged_Rukus_Xtreme_IPX4_70_FRX5BT_Emergen/20%Monthly2019-01-30 12:35
http://www.hotnewdeal.com/2019/01/30/280937_bObsweep__Bob_PetHair_SelfCharging_Robot_Vacuum_/20%Monthly2019-01-30 12:35
http://www.hotnewdeal.com/2019/01/30/280936_Lacie_Thunderbolt_3_2TB_ssd_drive_599/20%Monthly2019-01-30 12:35
http://www.hotnewdeal.com/2019/01/30/280935_Reebok_Girls_Mesh_Back_Jersey_Jacket_for_799_w/20%Monthly2019-01-30 12:23
http://www.hotnewdeal.com/2019/01/30/280934_Mario__Rabbids_Kingdom_Battle_Nintendo_Switch_/20%Monthly2019-01-30 12:15
http://www.hotnewdeal.com/2019/01/30/280933_Microsoft_Surface_Pro_6_i5_256_GB_w_TypeCover_Bl/20%Monthly2019-01-30 12:15
http://www.hotnewdeal.com/2019/01/30/280932_Eureka_The_Complete_Series_Region_Free_Bluray_/20%Monthly2019-01-30 12:15
http://www.hotnewdeal.com/2019/01/30/280931_Corsair_Carbide_Series_SPEC06_White_Tempered_Glas/20%Monthly2019-01-30 12:14
http://www.hotnewdeal.com/2019/01/30/280930_Minecraft_Java_Edition_Key__2241/20%Monthly2019-01-30 12:14
http://www.hotnewdeal.com/2019/01/30/280929_Padlock_for_bicycle_or_motorcycle_with_110bd_alarm/20%Monthly2019-01-30 11:48
http://www.hotnewdeal.com/2019/01/30/280928_Free_Medium_2_Topping_Pizza_at_Dominos_with_app/20%Monthly2019-01-30 11:28
http://www.hotnewdeal.com/2019/01/30/280927_American_Eagle_Dont_Ask_Why_Black_Velvet_Jumpsuit/20%Monthly2019-01-30 11:28
http://www.hotnewdeal.com/2019/01/30/280926_DEEBOT_OZMO_610_Appcontrolled_Selfcharging_Robot/20%Monthly2019-01-30 11:28
http://www.hotnewdeal.com/2019/01/30/280925_Monster_Brand_Mood_Lighting_Kits__YMMV__starting/20%Monthly2019-01-30 11:27
http://www.hotnewdeal.com/2019/01/30/280924_Addon_Item_32oz_Nature_Nates_100_Pure_Raw_amp/20%Monthly2019-01-30 11:12
http://www.hotnewdeal.com/2019/01/30/280923_lenovo_Thinkpad_X1_Carbon_6th_Gen_30_off_on_top_o/20%Monthly2019-01-30 11:12
http://www.hotnewdeal.com/2019/01/30/280921_Cents_of_Style_Blanket_Scarves_599_Various_Color/20%Monthly2019-01-30 11:00
http://www.hotnewdeal.com/2019/01/30/280920_12Piece_Martha_Stewart_Essentials_Glassware_Sets_/20%Monthly2019-01-30 11:00
http://www.hotnewdeal.com/2019/01/30/280919_6Pair_Nike_Mens_Cotton_Socks_various_styles_1/20%Monthly2019-01-30 10:31
http://www.hotnewdeal.com/2019/01/30/280918_Logitech_Wireless_Keyboard_and_Mouse_Combo_1488_/20%Monthly2019-01-30 10:30
http://www.hotnewdeal.com/2019/01/30/280917_Reebok_Mens_Print_Run_Ultraknit_Running_Shoes_30/20%Monthly2019-01-30 10:10
http://www.hotnewdeal.com/2019/01/30/280916_WD__Easystore_10TB_External_USB_30_Hard_Drive_wi/20%Monthly2019-01-30 10:00
http://www.hotnewdeal.com/2019/01/30/280915_Keto_Cookbook_2_Manuscripts_in_1_Book__Keto_Croc/20%Monthly2019-01-30 09:59
http://www.hotnewdeal.com/2019/01/30/280914_30_Off_for_4_Days_Only__Amtrak_Across_America/20%Monthly2019-01-30 09:59
http://www.hotnewdeal.com/2019/01/30/280913_Cookware_Victoria_12_Cast_Iron_Skillet_Tools_of/20%Monthly2019-01-30 09:33
http://www.hotnewdeal.com/2019/01/30/280912_Venture_Pal_Large_Hiking_Backpack__Packable_Durab/20%Monthly2019-01-30 08:54
http://www.hotnewdeal.com/2019/01/30/280911_Lucky__Son_Manual_Coffee_Grinder_13/20%Monthly2019-01-30 08:50
http://www.hotnewdeal.com/2019/01/30/280910_Chefs_Star_Professional_Grade_Stainless_Steel_14_/20%Monthly2019-01-30 08:37
http://www.hotnewdeal.com/2019/01/30/280909_New_Balance_Mens_Fresh_Foam_Lazr_Sport_Shoes_26/20%Monthly2019-01-30 08:37
http://www.hotnewdeal.com/2019/01/30/280908_CRAFTSMAN_LED_Focusing_Flashlight_and_Headlamp_Set/20%Monthly2019-01-30 08:37
http://www.hotnewdeal.com/2019/01/30/280907_Erligpowht_11in1_Cell_Phone_Lens_Kit_for_iPhone_/20%Monthly2019-01-30 08:25
http://www.hotnewdeal.com/2019/01/30/280906_Vudu_Mix__Match_Valentines_Sale_Choose_2_Movies/20%Monthly2019-01-30 08:16
http://www.hotnewdeal.com/2019/01/30/280905_Lowes__Kobalt_12in_and_10in_Home_Repair_Tongue/20%Monthly2019-01-30 08:00
http://www.hotnewdeal.com/2019/01/30/280904_Bella_12Qt_Air_Fryer_5_Qt_Programmable_Slow_C/20%Monthly2019-01-30 07:43
http://www.hotnewdeal.com/2019/01/30/280903_Lowes__Kobalt_3in_Serrated_Molded_Grip_Heavy_Dut/20%Monthly2019-01-30 07:01
http://www.hotnewdeal.com/2019/01/30/280902_TracFone_16GB_Samsung_Galaxy_J7_Sky_Pro_Reconditi/20%Monthly2019-01-30 07:00
http://www.hotnewdeal.com/2019/01/30/280901_Kobalt_204Piece_Household_Tool_Set_with_Hard_Case/20%Monthly2019-01-30 06:43
http://www.hotnewdeal.com/2019/01/30/280900_Levis_Warehouse_Sale_Mens_541_Tac_Cargo_Pants_/20%Monthly2019-01-30 04:44
http://www.hotnewdeal.com/2019/01/30/280899_Lenovo_IdeaPad_530S_14_89999_AMD_Ryzen_7_2700U_/20%Monthly2019-01-30 04:14
http://www.hotnewdeal.com/2019/01/30/280898_Walmart_Baby_Welcome_Box_Free__Free_Shipping/20%Monthly2019-01-30 04:05
http://www.hotnewdeal.com/2019/01/30/280897_Lowes_Kobalt_63Piece_Standard_SAE_and_Metric_Po/20%Monthly2019-01-30 03:49
http://www.hotnewdeal.com/2019/01/30/280896_Automotive_Car_battery_tester_Detect_Health_Direct/20%Monthly2019-01-30 02:30
http://www.hotnewdeal.com/2019/01/30/280895_CrockPot_6Quart_Express_Crock_Pressure_Cooker_S/20%Monthly2019-01-30 02:14
http://www.hotnewdeal.com/2019/01/30/280894_Boost_Mobile_iPhone_6s_32GB_25_in_store_only_w_P/20%Monthly2019-01-30 02:05
http://www.hotnewdeal.com/2019/01/30/280893_The_Witcher_2_Assassins_Of_Kings__Enhanced_Editi/20%Monthly2019-01-30 01:35
http://www.hotnewdeal.com/2019/01/30/280892_YMMV_Duck_HeavyDuty_Stretch_Wrap_Plastic_Film15_/20%Monthly2019-01-30 01:13
http://www.hotnewdeal.com/2019/01/30/280891_Nescafe_Tasters_Choice_House_Blend_Instant_Coffee/20%Monthly2019-01-30 01:13
http://www.hotnewdeal.com/2019/01/30/280890_Queens_of_Scream_Triple_Feature_Combo_PreOrder_/20%Monthly2019-01-30 01:13
http://www.hotnewdeal.com/2019/01/30/280889_Assassins_Creed_Origin_digital_Xbox_One_standar/20%Monthly2019-01-30 01:13
http://www.hotnewdeal.com/2019/01/30/280888_4Pack_of_Solar_Waterproof_Motion_Sensor_29LED_Li/20%Monthly2019-01-30 00:21
http://www.hotnewdeal.com/2019/01/30/280887_Lowes_Swanson_Tool_Company_Big_12_with_Speedlite/20%Monthly2019-01-30 00:02
http://www.hotnewdeal.com/2019/01/30/280886_Refurb_Optoma_Projectors_w_1_Year_Warranty_HD143/20%Monthly2019-01-30 00:02
http://www.hotnewdeal.com/2019/01/29/280885_Plum_Organics_Jammy_Sammy_Organic_Kids_Snack_Bar/20%Monthly2019-01-29 23:37
http://www.hotnewdeal.com/2019/01/29/280884_Motor_Trend_Magazine_4_years_for_12/20%Monthly2019-01-29 22:56
http://www.hotnewdeal.com/2019/01/29/280883_Lowes__3_WD40_8oz_Lubricant_Gift_Pack_249_Y/20%Monthly2019-01-29 22:44
http://www.hotnewdeal.com/2019/01/29/280881_Monoprice_M565_Planar_Magnetic_Open_Back_Headphone/20%Monthly2019-01-29 21:29
http://www.hotnewdeal.com/2019/01/29/280880_256GB_Patriot_Supersonic_Rage_2_USB_31_Flash_Driv/20%Monthly2019-01-29 21:13
http://www.hotnewdeal.com/2019/01/29/280878_Swagbucks_purchase_at_Gillette_on_Demand_7_and/20%Monthly2019-01-29 21:00
http://www.hotnewdeal.com/2019/01/29/280877_TPLINK_TLSG108_101001000Mbps_8Port_Gigabit_De/20%Monthly2019-01-29 20:55
http://www.hotnewdeal.com/2019/01/29/280876_Onkyo_Txnr787_92_ch_receiver_450_shipped_wcode/20%Monthly2019-01-29 20:36
http://www.hotnewdeal.com/2019/01/29/280875_7Piece_Madison_Park_Samara_Cotton_Comforter_Set_/20%Monthly2019-01-29 20:36
http://www.hotnewdeal.com/2019/01/29/280874_6_Port_Smart_Hub_Universal_Power_Adapter_w_USB_Ty/20%Monthly2019-01-29 20:36
http://www.hotnewdeal.com/2019/01/29/280873_Kobalt_35in_blade_55_and_85_two_size_Stainless/20%Monthly2019-01-29 20:29
http://www.hotnewdeal.com/2019/01/29/280872_128GB_LexarC20c_USBC_or_USB_A_JumpDrive_Flash_19/20%Monthly2019-01-29 20:29
http://www.hotnewdeal.com/2019/01/29/280871_KEF_M500_HiFi_Headphones_White_5999/20%Monthly2019-01-29 20:23
http://www.hotnewdeal.com/2019/01/29/280870_CyberpowerPC_Gamer_Xtreme_C790T_Desktop_9th_Gen_I/20%Monthly2019-01-29 20:23
http://www.hotnewdeal.com/2019/01/29/280869_Lenovo_Ideapad_330_156_FHD_Ryzen_2700U_16GB_/20%Monthly2019-01-29 20:16
http://www.hotnewdeal.com/2019/01/29/280868_ASRock_X470_Taichi_AM4_AMD_Promontory_Motherboard_/20%Monthly2019-01-29 20:07
http://www.hotnewdeal.com/2019/01/29/280867_Lowepro_DroneGuard_Pro_450_Camera_Backpack_for_DJI/20%Monthly2019-01-29 20:02
http://www.hotnewdeal.com/2019/01/29/280866_Dell_U2718Q_27_4K_Monitor_80_off_for_Costco_Memb/20%Monthly2019-01-29 20:02
http://www.hotnewdeal.com/2019/01/29/280865_16Count_of_16oz_Larabar_Gluten_Free_Bars_Peanut/20%Monthly2019-01-29 19:46
http://www.hotnewdeal.com/2019/01/29/280864_Total_Wireless__TracFone__Simple_Mobile__Net10_/20%Monthly2019-01-29 19:46
http://www.hotnewdeal.com/2019/01/29/280863_Oakley_Sunglasses_via_Facebook_Marketplace_4999_/20%Monthly2019-01-29 19:45
http://www.hotnewdeal.com/2019/01/29/280862_Inland_175mm_Color_Changing_Gray_to_Natural_PLA/20%Monthly2019-01-29 18:48
http://www.hotnewdeal.com/2019/01/29/280861_Linksys_Velop_TriBand_Whole_Home_WiFi_System_4p/20%Monthly2019-01-29 18:44
http://www.hotnewdeal.com/2019/01/29/280860_Howard_Leight_by_Honeywell_Laser_Lite_High_Visibil/20%Monthly2019-01-29 18:38
http://www.hotnewdeal.com/2019/01/29/280859_Rosewill_FBM06_Micro_ATX_Mini_Tower_Desktop_Compu/20%Monthly2019-01-29 18:37
http://www.hotnewdeal.com/2019/01/29/280858_Michaels_Christmas_Clearance__Boxed_Cards_Low_as_/20%Monthly2019-01-29 18:36
http://www.hotnewdeal.com/2019/01/29/280857_Dyson_Ball_Multi_Floor_2_Upright_Vacuum__Yellow_/20%Monthly2019-01-29 18:36
http://www.hotnewdeal.com/2019/01/29/280856_DEWALT_FlexTorq_56Piece_PhillipsSquareTorx_Impa/20%Monthly2019-01-29 18:24
http://www.hotnewdeal.com/2019/01/29/280854_You__Me_Couch_Cardboard_Cat_Scratcher_1499/20%Monthly2019-01-29 18:14
http://www.hotnewdeal.com/2019/01/29/280852_Ankers_PowerWave_Fast_Wireless_Charging_Stand_for/20%Monthly2019-01-29 18:00
http://www.hotnewdeal.com/2019/01/29/280851_Lucky_Brand_2Day_Flash_Sale__Items_from_999__/20%Monthly2019-01-29 18:00
http://www.hotnewdeal.com/2019/01/29/280850_PC_Digital_Download_Injustice_Gods_Among_Us_UE_/20%Monthly2019-01-29 18:00
http://www.hotnewdeal.com/2019/01/29/280849_PS4_Digital_Games_Rise_of_the_Tomb_Raider_20_Yea/20%Monthly2019-01-29 17:44
http://www.hotnewdeal.com/2019/01/29/280848_YMMV_DELTA_SM_10in_150Amp_SingleBevel_SLIDING_/20%Monthly2019-01-29 17:43
http://www.hotnewdeal.com/2019/01/29/280846_Conico_4Outlet_4Port_Smart_Power_Strip_2499/20%Monthly2019-01-29 17:29
http://www.hotnewdeal.com/2019/01/29/280845_Valentines_Day_1800flowers_40_off_via_Chase_Pay/20%Monthly2019-01-29 17:13
http://www.hotnewdeal.com/2019/01/29/280844_Samsung_Xpress_SLM2020W_Wireless_Compact_Laser_Pr/20%Monthly2019-01-29 17:13
http://www.hotnewdeal.com/2019/01/29/280843_OLED65E8PUA_2300_at_Greentoe/20%Monthly2019-01-29 17:01
http://www.hotnewdeal.com/2019/01/29/280842_HP_EX900_M2_1TB_PCIe_31_x4_NVMe_3D_NAND_SSD_for_/20%Monthly2019-01-29 16:56
http://www.hotnewdeal.com/2019/01/29/280841_Ninja_2in1_Stove_Top__Slow_Cooker_6_Quart_37_/20%Monthly2019-01-29 16:45
http://www.hotnewdeal.com/2019/01/29/280840_Incase_Designs_Corp_Compass_Backpack_for_15_MacBo/20%Monthly2019-01-29 16:40
http://www.hotnewdeal.com/2019/01/29/280839_Kobalt_210Piece_Screwdriver_Bit_Set__499_YMMV/20%Monthly2019-01-29 16:23
http://www.hotnewdeal.com/2019/01/29/280838_Steel_Mesh_PowderCoated_Waste_Basket_Silver_76/20%Monthly2019-01-29 16:23
http://www.hotnewdeal.com/2019/01/29/280837_Newegg_Sapphire_PULSE_Radeon_RX_580_8GB_Video_Card/20%Monthly2019-01-29 16:23
http://www.hotnewdeal.com/2019/01/29/280836_Seagate_and_Intel_Enterprise_Server_SSD_Sale_Seag/20%Monthly2019-01-29 16:14
http://www.hotnewdeal.com/2019/01/29/280835_Corsair_HS70_SE_Gaming_Headset_30_off__6999__/20%Monthly2019-01-29 16:13
http://www.hotnewdeal.com/2019/01/29/280834_Lucid_3_Gel_Infused_Memory_Foam_Topper_Queen_57/20%Monthly2019-01-29 16:13
http://www.hotnewdeal.com/2019/01/29/280833_The_Elder_Scrolls_V_5_Skyrim_Legendary_Edition_P/20%Monthly2019-01-29 16:13
http://www.hotnewdeal.com/2019/01/29/280832_BESTEK_Smoothie_Blender__Hand_Blender_from_16__/20%Monthly2019-01-29 16:13
http://www.hotnewdeal.com/2019/01/29/280831_ABS_Battlebox_Essential_Eclipse_Ryzen_7_2700_8GB/20%Monthly2019-01-29 15:59
http://www.hotnewdeal.com/2019/01/29/280830_Kingdom_Hearts_3_Xbox_one_4999/20%Monthly2019-01-29 15:59
http://www.hotnewdeal.com/2019/01/29/280829_Hawaiian_Airlines_TwoDay_Flight_Sales_to_Hawaii_/20%Monthly2019-01-29 15:59
http://www.hotnewdeal.com/2019/01/29/280828_Android_One_Unlocked_32GB_Moto_X4_Google_Fi__149/20%Monthly2019-01-29 15:59
http://www.hotnewdeal.com/2019/01/29/280826_Grand_Theft_Auto_V_and_Criminal_Enterprise_Starter/20%Monthly2019-01-29 15:42
http://www.hotnewdeal.com/2019/01/29/280825_New_York_to_Ontario_CA_or_Vice_Versa_197_RT_Nonst/20%Monthly2019-01-29 15:42
http://www.hotnewdeal.com/2019/01/29/280824_ZOTAC_RTX_2080_AMP_OC_Edition_Graphics_Card_699/20%Monthly2019-01-29 15:28
http://www.hotnewdeal.com/2019/01/29/280823_32Count_PopTarts_Breakfast_Toaster_Pastries_Fro/20%Monthly2019-01-29 15:28
http://www.hotnewdeal.com/2019/01/29/280822_Seattle_to_Miami_or_Vice_Versa_114_RT_AIrfares_on/20%Monthly2019-01-29 15:28
http://www.hotnewdeal.com/2019/01/29/280821_Fujitsu_8HR3UTGXFTU_8Pack_AA_Batteries_NiMH_H/20%Monthly2019-01-29 15:27
http://www.hotnewdeal.com/2019/01/29/280820_Lenny__Larrys_Complete_Cookies_Settlement_10_/20%Monthly2019-01-29 15:12
http://www.hotnewdeal.com/2019/01/29/280819_ADATA_64GB_UV150_Snapon_Cap_USB_30_Flash_Drive_/20%Monthly2019-01-29 15:00
http://www.hotnewdeal.com/2019/01/29/280818_Aukey_Nintendo_Switch_Cases_7_each__free_sh/20%Monthly2019-01-29 15:00
http://www.hotnewdeal.com/2019/01/29/280817_NETGEAR_Orbi_Pro__AC3000_Triband_WiFi_System_fo/20%Monthly2019-01-29 15:00
http://www.hotnewdeal.com/2019/01/29/280816_Cobra_Hero_Series_Walkie_Talkies_5_Lowes_Clearan/20%Monthly2019-01-29 14:41
http://www.hotnewdeal.com/2019/01/29/280815_Call_of_Duty_Infinite_Warfare__Digital_Deluxe_Edi/20%Monthly2019-01-29 14:41
http://www.hotnewdeal.com/2019/01/29/280814_Humble_Indie_PlayStation_Bundle_2019_PS4_games_f/20%Monthly2019-01-29 14:36
http://www.hotnewdeal.com/2019/01/29/280813_Sams_Club_Sharp_55_UHD_Smart_TV_for_299_w_free/20%Monthly2019-01-29 14:36
http://www.hotnewdeal.com/2019/01/29/280812_open_box_Sony_a6000_Mirrorless_Camera_with_165/20%Monthly2019-01-29 14:36
http://www.hotnewdeal.com/2019/01/29/280811_34lbs_Fresh_Step_MultiCat_Clumping_Cat_Litter_F/20%Monthly2019-01-29 14:05
http://www.hotnewdeal.com/2019/01/29/280810_Kobalt_Rapid_Adjust_8in_Steel_and_Plastic_Adjusta/20%Monthly2019-01-29 14:05
http://www.hotnewdeal.com/2019/01/29/280809_27_Acer_K2_Series_K272HUL_WQHD_4ms_IPS_LED_Monito/20%Monthly2019-01-29 14:05
http://www.hotnewdeal.com/2019/01/29/280808_Firman_Power_Equipment_3200W_Peak_Running_2900W_R/20%Monthly2019-01-29 13:53
http://www.hotnewdeal.com/2019/01/29/280807_Gladiator_Garageworks_30inch_ShoeRack_16_Free_Sh/20%Monthly2019-01-29 13:46
http://www.hotnewdeal.com/2019/01/29/280806_ASUS_Dual_GeForce_RTX_2070_DirectX_12_DUALRTX2070/20%Monthly2019-01-29 13:46
http://www.hotnewdeal.com/2019/01/29/280805_TCL_55_55P605B_Certified_Refurbished_41671_A/20%Monthly2019-01-29 13:46
http://www.hotnewdeal.com/2019/01/29/280804_Benchmade__Crooked_River_15080_Knife_12325/20%Monthly2019-01-29 13:30
http://www.hotnewdeal.com/2019/01/29/280803_Newegg_2_x_Seagate_NAS_IronWolf_12TB_660__7200_R/20%Monthly2019-01-29 13:30
http://www.hotnewdeal.com/2019/01/29/280802_34_Dell_UltraSharp_U3417W_UltraWide_QHD_Curved_LE/20%Monthly2019-01-29 13:30
http://www.hotnewdeal.com/2019/01/29/280801_Excalibur_5Tray_Electric_Food_Dehydrator_w_Adjus/20%Monthly2019-01-29 13:30
http://www.hotnewdeal.com/2019/01/29/280800_1875W_Professional_Salon_Hair_Dryer_Ionic_Infrared/20%Monthly2019-01-29 13:21
http://www.hotnewdeal.com/2019/01/29/280799_Refurbished_TPLink_Archer_C59_AC1350_Wireless_Dua/20%Monthly2019-01-29 13:16
http://www.hotnewdeal.com/2019/01/29/280798_512GB_Samsung_970_Pro_NVMe_M2_2280_SSD_153_AC_N/20%Monthly2019-01-29 13:16
http://www.hotnewdeal.com/2019/01/29/280797_GSKILL_Aegis_32GB_2x_16_DDR4_2400_Desktop_RAM_K/20%Monthly2019-01-29 13:16
http://www.hotnewdeal.com/2019/01/29/280796_Piscifun_Flame_spinning_fishing_reels_sizes_234/20%Monthly2019-01-29 13:16
http://www.hotnewdeal.com/2019/01/29/280795_Free_5_Uber_Code_wPurchase_of_2_Dr_Pepper_20oz_/20%Monthly2019-01-29 13:04
http://www.hotnewdeal.com/2019/01/29/280794_MICROCENTER_ASUS_gaming_laptop_i78750H_RTX2070_15/20%Monthly2019-01-29 13:04
http://www.hotnewdeal.com/2019/01/29/280793_Samsung_UN82NU8000_8_Series_4K_UHD_HDR_Smart_LED_H/20%Monthly2019-01-29 12:57
http://www.hotnewdeal.com/2019/01/29/280792_JBL_Studio_SUB_250P_10_Powered_Subwoofer_Black_/20%Monthly2019-01-29 12:57
http://www.hotnewdeal.com/2019/01/29/280791_Waterproof_64Inch_BBQ_Grill_Cover_1049/20%Monthly2019-01-29 12:56
http://www.hotnewdeal.com/2019/01/29/280790_AUKEY_20000mAh_Power_Bank_2399/20%Monthly2019-01-29 12:47
http://www.hotnewdeal.com/2019/01/29/280789_Photo_Studio_PRO_Android_App__99_originally_/20%Monthly2019-01-29 12:44
http://www.hotnewdeal.com/2019/01/29/280788_Ryobi_EVERCHARGE_Hand_Vacuum_Kit_with_13_Ah_Compa/20%Monthly2019-01-29 12:44
http://www.hotnewdeal.com/2019/01/29/280787_MSI_GL_Series_GL63_8RC077_156_FHD_GTX_1050_i58/20%Monthly2019-01-29 12:43
http://www.hotnewdeal.com/2019/01/29/280786_Acer_Chromebook_C7202103_116_LED__Grade_A__16/20%Monthly2019-01-29 12:38
http://www.hotnewdeal.com/2019/01/29/280785_Forza_Horizon_4_VIP_Membership_Xbox_One__PC_Digi/20%Monthly2019-01-29 12:32
http://www.hotnewdeal.com/2019/01/29/280784_Adjustable_Lap_Desk__with_8_Adjustable_Angles__D/20%Monthly2019-01-29 12:22
http://www.hotnewdeal.com/2019/01/29/280783_AOMAIS_Sport_II_20W_IPX_7_Bluetooth_Speakers__15/20%Monthly2019-01-29 12:08
http://www.hotnewdeal.com/2019/01/29/280782_Arm__Hammer_Cloud_Control_14lb_or_19lb_Cat_Litt/20%Monthly2019-01-29 11:52
http://www.hotnewdeal.com/2019/01/29/280781_Bluebird_Botanicals_CBD_Oil__Hemp_Extracts_35_Of/20%Monthly2019-01-29 11:51
http://www.hotnewdeal.com/2019/01/29/280780_Patagonia_Winter_Web_Specials_Up_To_50_Off__Free/20%Monthly2019-01-29 11:51
http://www.hotnewdeal.com/2019/01/29/280779_Vasque_Arrowhead_UltraDry_Winter_Boots__Mens_50/20%Monthly2019-01-29 11:50
http://www.hotnewdeal.com/2019/01/29/280778_Jetblue_TwoDays_Only_Airfare_Sale_Starting_From_/20%Monthly2019-01-29 11:32
http://www.hotnewdeal.com/2019/01/29/280777_Energy_CC10_25_way_center_speaker_single_599/20%Monthly2019-01-29 11:32
http://www.hotnewdeal.com/2019/01/29/280776_NewEggFlash_has_Pioneer_VSX1131_72Channel_AV_Re/20%Monthly2019-01-29 11:17
http://www.hotnewdeal.com/2019/01/29/280775_Digital_TV_Show_Download_Mad_Men_The_Complete_Co/20%Monthly2019-01-29 11:05
http://www.hotnewdeal.com/2019/01/29/280774_XFX_Radeon_RX_570_8GB_256Bit_DDR5_PCIE_Video_Card/20%Monthly2019-01-29 11:05
http://www.hotnewdeal.com/2019/01/29/280773_Southwest_Airlines__One_Way_Airfares_Starting_Fro/20%Monthly2019-01-29 10:48
http://www.hotnewdeal.com/2019/01/29/280772_MSI_B450M_Gaming_Plus_AMD_mATX_AM4_Motherboard__/20%Monthly2019-01-29 10:39
http://www.hotnewdeal.com/2019/01/29/280771_AMAZON_PRIME_NOW_Input_promotional_code_AMEX20_at_/20%Monthly2019-01-29 10:23
http://www.hotnewdeal.com/2019/01/29/280770_Isle_of_Dogs_Digital_4K_UHD_499__Apple_iTunes/20%Monthly2019-01-29 10:23
http://www.hotnewdeal.com/2019/01/29/280769_Amazon_deal_of_the_day_Chefs_Star_Professional_Gr/20%Monthly2019-01-29 10:15
http://www.hotnewdeal.com/2019/01/29/280768_Stride_Rite_1995_Kids_Shoe__Boot_Flash_Sale_C/20%Monthly2019-01-29 10:15
http://www.hotnewdeal.com/2019/01/29/280767_Syba_IOCrest_25_USB_30_UASP_HDDSSD_External_En/20%Monthly2019-01-29 10:15
http://www.hotnewdeal.com/2019/01/29/280766_Target_Scoop_Kids_Activity_Chair__Stoplight_Red_/20%Monthly2019-01-29 10:06
http://www.hotnewdeal.com/2019/01/29/280765_1984_and_Animal_Farm_Kindle_ebooks__1_each/20%Monthly2019-01-29 09:29
http://www.hotnewdeal.com/2019/01/29/280764_2019_Entertainment_books_15__Digital_membership_/20%Monthly2019-01-29 09:29
http://www.hotnewdeal.com/2019/01/29/280763_Touch_1Cup_Coffee_Maker_T526S_4999_reg_19999/20%Monthly2019-01-29 08:59
http://www.hotnewdeal.com/2019/01/29/280762_Microcenter_Ryzen_5_2400G_Price_Drop_13499/20%Monthly2019-01-29 08:59
http://www.hotnewdeal.com/2019/01/29/280761_Ubiquiti_Networks_US24US_Managed_Gigabit_Switch_/20%Monthly2019-01-29 08:51
http://www.hotnewdeal.com/2019/01/29/280760_The_Childrens_Place_80_off_All_Clearance_One_D/20%Monthly2019-01-29 08:32
http://www.hotnewdeal.com/2019/01/29/280759_Sperry_Sneakers_2999_shipped_MensWomensKids/20%Monthly2019-01-29 08:32
http://www.hotnewdeal.com/2019/01/29/280758_AMD_Ryzen_Threadripper_2970WX_24Core48Thread_/20%Monthly2019-01-29 08:05
http://www.hotnewdeal.com/2019/01/29/280757_Scott_shop_30_Rolls_for_only_673_Price_Mistake/20%Monthly2019-01-29 07:28
http://www.hotnewdeal.com/2019/01/29/280756_Magnavox__MBP6700P__4K_Ultra_HD_BluRay_Player_/20%Monthly2019-01-29 06:45
http://www.hotnewdeal.com/2019/01/29/280755_CYBERPOWERPC_Gamer_Master_GMA1394A_Desktop_Ryzen_/20%Monthly2019-01-29 05:54
http://www.hotnewdeal.com/2019/01/29/280754_Alpha_2018_4K_UHD_Movie_Rental_099_via_Micro/20%Monthly2019-01-29 05:43
http://www.hotnewdeal.com/2019/01/29/280753_FujiFilm_XT20_and_Two_FujiFilm_Zoom_Lenses_for_un/20%Monthly2019-01-29 05:30
http://www.hotnewdeal.com/2019/01/29/280752_4TB_WD_Easystore_USB_30_Portable_Hard_Drive__32G/20%Monthly2019-01-29 04:11
http://www.hotnewdeal.com/2019/01/29/280751_Rosefray_36_Clips_Metal_Clothespins_Stainless_Ste/20%Monthly2019-01-29 04:05
http://www.hotnewdeal.com/2019/01/29/280750_Ring_Floodlight_Camera_Costco_199_includes_Chime_/20%Monthly2019-01-29 02:42
http://www.hotnewdeal.com/2019/01/29/280749_300_bestbuy_55r7e_Hisense__55_Class__LED__R7_/20%Monthly2019-01-29 02:04
http://www.hotnewdeal.com/2019/01/29/280748_34oz_Caribou_Coffee_Stainless_Steel_Kettle_999_/20%Monthly2019-01-29 01:45
http://www.hotnewdeal.com/2019/01/29/280747_Lenovo_330S_156_Laptop_Ryzen_5_2500U_8GB_DDR4/20%Monthly2019-01-29 01:32
http://www.hotnewdeal.com/2019/01/29/280746_Newburgh_NY_to_Bergen_Norway_206_RT_Nonstop_Airfa/20%Monthly2019-01-29 01:14
http://www.hotnewdeal.com/2019/01/28/280745_Microsoft_Surface_Pro_6_i5_8GB_128GB_Platinum/20%Monthly2019-01-28 23:46
http://www.hotnewdeal.com/2019/01/28/280744_Spice_Rack_Revolving_Spinning_Jar_Organizer_8_pcs_/20%Monthly2019-01-28 23:46
http://www.hotnewdeal.com/2019/01/28/280743_Porter_Cable_3Head_Adjustable_Height_LED_Workligh/20%Monthly2019-01-28 23:46
http://www.hotnewdeal.com/2019/01/28/280742_TP_Link_LB110_White_WiFi_Light_Bulb_BOGO_2499_wi/20%Monthly2019-01-28 23:18
http://www.hotnewdeal.com/2019/01/28/280740_Costco_Members_Apple_AirPods_New_for_13999__ta/20%Monthly2019-01-28 23:05
http://www.hotnewdeal.com/2019/01/28/280739_Speechless_Season_1_Digital_HD_5/20%Monthly2019-01-28 22:56
http://www.hotnewdeal.com/2019/01/28/280737_Wendys_Doordash_Delivery__Free_Delivery_and_Baco/20%Monthly2019-01-28 22:23
http://www.hotnewdeal.com/2019/01/28/280736_Call_of_Duty_COD_Modern_Warfare_2_PC_789/20%Monthly2019-01-28 22:23
http://www.hotnewdeal.com/2019/01/28/280735_INSTEON_smartdimmer_switch__Buy_2_get_1_with_cod/20%Monthly2019-01-28 21:42
http://www.hotnewdeal.com/2019/01/28/280734_Austin_TX_to_London_487_RT_Nonstop_Airfare_on_Bri/20%Monthly2019-01-28 21:42
http://www.hotnewdeal.com/2019/01/28/280733_Womens_Sweater_Cape_Pullover_Lace_Shawl_Tassels_K/20%Monthly2019-01-28 20:58
http://www.hotnewdeal.com/2019/01/28/280732_Anker_USBC_Data_Hub_Adapter_with_USB_30_Power_De/20%Monthly2019-01-28 20:58
http://www.hotnewdeal.com/2019/01/28/280731_Fresh_Step_MultiCat_Scented_Litter_with_The_Power/20%Monthly2019-01-28 20:43
http://www.hotnewdeal.com/2019/01/28/280730_Canada_Dry_Ginger_Ale_Settlement_520_cash_back_/20%Monthly2019-01-28 20:21
http://www.hotnewdeal.com/2019/01/28/280729_60_Spotify_gift_card_for_50/20%Monthly2019-01-28 20:21
http://www.hotnewdeal.com/2019/01/28/280728_Ryzen_2200G_50_Walmart_BM_YMMV/20%Monthly2019-01-28 20:11
http://www.hotnewdeal.com/2019/01/28/280727_AMD_RYZEN_7_1700_8Core_30_GHz_37_GHz_Turbo_So/20%Monthly2019-01-28 20:11
http://www.hotnewdeal.com/2019/01/28/280726_Best_Buy_Neato_Robotics__Botvac_D5_AppControlle/20%Monthly2019-01-28 20:11
http://www.hotnewdeal.com/2019/01/28/280725_Oreck_Commercial_ORB550MC_Commercial_Orbiter_Floor/20%Monthly2019-01-28 19:59
http://www.hotnewdeal.com/2019/01/28/280724_Airplay_MFI_Certified_GGMM_M3_Powerful_Smart_WIF/20%Monthly2019-01-28 19:43
http://www.hotnewdeal.com/2019/01/28/280723_Timberland_mens_ledge_mid_waterproof_boots_size_10/20%Monthly2019-01-28 19:27
http://www.hotnewdeal.com/2019/01/28/280722_PUMA_Backpacks_1499_shipped_Meridan_Backpack_or/20%Monthly2019-01-28 19:12
http://www.hotnewdeal.com/2019/01/28/280721_Urban_Outfitters_Extra_50_Off_Clearance__Free_S/20%Monthly2019-01-28 19:11
http://www.hotnewdeal.com/2019/01/28/280720_Weber_Rapidfire_Chimney__4__WM__BM__YMMV/20%Monthly2019-01-28 18:50
http://www.hotnewdeal.com/2019/01/28/280719_For_12900taxfree_games_Microcenter_has_PowerCo/20%Monthly2019-01-28 18:44
http://www.hotnewdeal.com/2019/01/28/280717_LINKYO_Compatible_Toner_Cartridge_Replacement_for_/20%Monthly2019-01-28 18:19
http://www.hotnewdeal.com/2019/01/28/280716_Papa_Murphys_Coupon_for_Take_n_Bake_Pizza_50_of/20%Monthly2019-01-28 18:09
http://www.hotnewdeal.com/2019/01/28/280714_Powerblock_Kettleblock_20_lb_65/20%Monthly2019-01-28 17:58
http://www.hotnewdeal.com/2019/01/28/280713_Lg_c8pua_65_oled_tv_oled65c8pua_2049/20%Monthly2019-01-28 17:43
http://www.hotnewdeal.com/2019/01/28/280712_Fujifilm_XT3_Mirrorless_Digital_Camera_Body_12/20%Monthly2019-01-28 17:42
http://www.hotnewdeal.com/2019/01/28/280711_Ninja_AF100_1500W_4Qt_Air_Fryer_69/20%Monthly2019-01-28 17:42
http://www.hotnewdeal.com/2019/01/28/280710_8Ct_CLIF_Whey_Protein_Snack_Bar_Peanut_Butter__/20%Monthly2019-01-28 17:26
http://www.hotnewdeal.com/2019/01/28/280709_Call_of_Duty_Black_Ops_4_PC_Key_Card_for_2999/20%Monthly2019-01-28 17:26
http://www.hotnewdeal.com/2019/01/28/280708_Playstation_4_Kingdom_Hearts_III__4899__FS/20%Monthly2019-01-28 17:07
http://www.hotnewdeal.com/2019/01/28/280705_Resident_Evil_2_Xbox_One_Game_Downloads__5399_a/20%Monthly2019-01-28 16:53
http://www.hotnewdeal.com/2019/01/28/280704_1TB_Crucial_MX500_25_Solid_State_Drive_11899_/20%Monthly2019-01-28 16:52
http://www.hotnewdeal.com/2019/01/28/280703_Fairlife_30g_Protein_Chocolate_Shake_12_for_13/20%Monthly2019-01-28 16:46
http://www.hotnewdeal.com/2019/01/28/280702_3Pack_125oz_of_Mrs_Meyers_Hand_Soap_Lavender_/20%Monthly2019-01-28 16:25
http://www.hotnewdeal.com/2019/01/28/280701_Anthem_Preorder_Xbox_One_or_PS4__5999__Free_1/20%Monthly2019-01-28 16:24
http://www.hotnewdeal.com/2019/01/28/280700_Humble_Book_Bundle_Programming_Cookbooks_by_ORei/20%Monthly2019-01-28 16:07
http://www.hotnewdeal.com/2019/01/28/280699_Home_Depot_Extra_5_OFF_on_Orders_of_50_or_More/20%Monthly2019-01-28 16:07
http://www.hotnewdeal.com/2019/01/28/280698_Weber_Jumbo_Joe_22_Premium_Charcoal_Grill_19_YMM/20%Monthly2019-01-28 16:07
http://www.hotnewdeal.com/2019/01/28/280697_Nokia_Withings_Body_Cardio_WiFi_Smart_Scale_Black/20%Monthly2019-01-28 15:58
http://www.hotnewdeal.com/2019/01/28/280696_Carters__OshKosh_Clearance_Prices_Starting_at_2/20%Monthly2019-01-28 15:57
http://www.hotnewdeal.com/2019/01/28/280695_COSTCO_Netgear_Nighthawk_CM1100_DOCSIS_31_Cable_/20%Monthly2019-01-28 15:57
http://www.hotnewdeal.com/2019/01/28/280694_Boston_Market_BOGO_Free_Individual_Meal_with_Purch/20%Monthly2019-01-28 15:42
http://www.hotnewdeal.com/2019/01/28/280693_8_Markers_Expo_80078_Low_Odor_Dry_Erase_Markers_C/20%Monthly2019-01-28 15:30
http://www.hotnewdeal.com/2019/01/28/280692_78Ct_Cascade_Complete_ActionPacs_Dishwasher_Deter/20%Monthly2019-01-28 15:30
http://www.hotnewdeal.com/2019/01/28/280689_Office_Depot_Brand_Invisible_Tape_34_x_1000/20%Monthly2019-01-28 15:16
http://www.hotnewdeal.com/2019/01/28/280688_Costco_Members_Feit_Electric_4pack_Wall_Receptac/20%Monthly2019-01-28 15:03
http://www.hotnewdeal.com/2019/01/28/280687_Cannae_Pro_Gear_Duffle_Bag_Tactical_Armory_Range_B/20%Monthly2019-01-28 15:02
http://www.hotnewdeal.com/2019/01/28/280686_BOISE_MultiUse_Copy_Paper_10_Ream_Case_2464/20%Monthly2019-01-28 14:55
http://www.hotnewdeal.com/2019/01/28/280685_15_OFF_PlayStation_Network_Gift_Card_In_Store_at_/20%Monthly2019-01-28 14:46
http://www.hotnewdeal.com/2019/01/28/280684_Victorias_Secret_High_Neck_Tank_524_Glitter_Bo/20%Monthly2019-01-28 14:31
http://www.hotnewdeal.com/2019/01/28/280683_Progear_1600_800lb_Power_Rack_Cage_and_PROGEAR_130/20%Monthly2019-01-28 14:15
http://www.hotnewdeal.com/2019/01/28/280682_Sony_PlayStation_VR_Borderlands_2_VR_and_Beat_Sabe/20%Monthly2019-01-28 14:03
http://www.hotnewdeal.com/2019/01/28/280681_Pflueger_Monarch_Spinning_Reel_and_Fishing_Rod_Com/20%Monthly2019-01-28 14:03
http://www.hotnewdeal.com/2019/01/28/280680_1TB_SAMSUNG_860_EVO_25_Solid_State_Drive_12799/20%Monthly2019-01-28 14:03
http://www.hotnewdeal.com/2019/01/28/280679_GLAMFIELDS_Portable_Handheld_Clothes_Steamer_for_/20%Monthly2019-01-28 14:03
http://www.hotnewdeal.com/2019/01/28/280678_Refurbished_Dyson_V8_absolute_at_eBay_25499/20%Monthly2019-01-28 13:54
http://www.hotnewdeal.com/2019/01/28/280677_60_for_12_bottles_of_wine_with_shipping_included_/20%Monthly2019-01-28 13:54
http://www.hotnewdeal.com/2019/01/28/280676_Wells_Fargo_Go_Far_Rewards_40_Cashback_at_CVS_P/20%Monthly2019-01-28 13:43
http://www.hotnewdeal.com/2019/01/28/280675_MSI_GP63_Leopard428_156_FHD_120_Hz_IPS_i787/20%Monthly2019-01-28 13:43
http://www.hotnewdeal.com/2019/01/28/280674_Air_Disasters_Season_12_Digital_HDSD_3992/20%Monthly2019-01-28 13:43
http://www.hotnewdeal.com/2019/01/28/280673_JBL_Studio_230_Pair_Refurbished__NewEgg_14999/20%Monthly2019-01-28 13:28
http://www.hotnewdeal.com/2019/01/28/280672_6Pc_The_Body_Shop_Limited_Edition_Festive_Soaps_G/20%Monthly2019-01-28 13:28
http://www.hotnewdeal.com/2019/01/28/280671_150Count_Vitafusion_MultiVites_Gummy_Vitamins_5/20%Monthly2019-01-28 13:22
http://www.hotnewdeal.com/2019/01/28/280670_Denon_AVRX3500H_72Channel_4K_Ultra_HD_AV_Recei/20%Monthly2019-01-28 13:22
http://www.hotnewdeal.com/2019/01/28/280669_Ziploc_Brand_NFL_Slider_Gallon_Bags_20_ct__Sta/20%Monthly2019-01-28 13:15
http://www.hotnewdeal.com/2019/01/28/280668_PSA_Audible_Books_Can_Be_Given_As_GIFTS_again_/20%Monthly2019-01-28 13:15
http://www.hotnewdeal.com/2019/01/28/280667_Brentwood_Home_Whitney_Wedge_Pillow_with_Gel_Memor/20%Monthly2019-01-28 13:15
http://www.hotnewdeal.com/2019/01/28/280666_Omont_20_inch_6Pack_Drain_Snake_Clog_Remover__Fr/20%Monthly2019-01-28 13:14
http://www.hotnewdeal.com/2019/01/28/280665_Lowes_Craftsman_2Pack_10in_60Tooth_Carbide_Mi/20%Monthly2019-01-28 13:14
http://www.hotnewdeal.com/2019/01/28/280664_Amazon_AddOn_094_Westcott_10416_15_Stainless_/20%Monthly2019-01-28 12:56
http://www.hotnewdeal.com/2019/01/28/280663_Kingston_DataTraveler_100_G3_32_GB_USB_Flash_Drive/20%Monthly2019-01-28 12:55
http://www.hotnewdeal.com/2019/01/28/280662_SHIMANO_SLX_CASTING_ROD__REEL_COMBO__35_off__l/20%Monthly2019-01-28 12:55
http://www.hotnewdeal.com/2019/01/28/280661_Nintendo_Switch_Pro_Controller_Black_5699/20%Monthly2019-01-28 12:33
http://www.hotnewdeal.com/2019/01/28/280660_LG_E8_OLED_65_4K_HDR_Dolby_Atmos_Smart_TV_with_AI_/20%Monthly2019-01-28 12:33
http://www.hotnewdeal.com/2019/01/28/280659_NETGEAR_Factory_Recertified_R6400_AC1750_Smart_WiF/20%Monthly2019-01-28 12:32
http://www.hotnewdeal.com/2019/01/28/280658_Lenovo_Laptop_IdeaPad_330_81D2005CUS_AMD_Ryzen_5_2/20%Monthly2019-01-28 12:13
http://www.hotnewdeal.com/2019/01/28/280657_15_off_Macbook_Air_and_Macbook_Pro_and_one_iPad/20%Monthly2019-01-28 12:10
http://www.hotnewdeal.com/2019/01/28/280656_Alienware_34_Curved_Monitor__AW3418HW_74999_w_/20%Monthly2019-01-28 12:09
http://www.hotnewdeal.com/2019/01/28/280655_adidas_Mens_Parma_16_Soccer_Shorts_blue_612_/20%Monthly2019-01-28 11:59
http://www.hotnewdeal.com/2019/01/28/280654_Kindle_Videogame_Book_Masters_of_Doom_How_Two_Gu/20%Monthly2019-01-28 11:59
http://www.hotnewdeal.com/2019/01/28/280653_Victorinox_Swiss_Army_Evolution_Wood_Pocket_Knife_/20%Monthly2019-01-28 11:59
http://www.hotnewdeal.com/2019/01/28/280652_Sapphire_Nitro_RX_580_8GB_Special_Edition_Video_C/20%Monthly2019-01-28 11:59
http://www.hotnewdeal.com/2019/01/28/280651_16GB_2x8GB_Corsair_Vengeance_RGB_DDR4_3000_PC4_/20%Monthly2019-01-28 11:58
http://www.hotnewdeal.com/2019/01/28/280650_TPLink_Archer_C8_AC1750_Dual_Band_Router_50_Bes/20%Monthly2019-01-28 11:58
http://www.hotnewdeal.com/2019/01/28/280649_Olight_PLMINI_Valkyrie_2__6299__OLIGHT_EBAY_S/20%Monthly2019-01-28 11:58
http://www.hotnewdeal.com/2019/01/28/280648_The_Jackbox_Party_Pack_5__1799/20%Monthly2019-01-28 11:58
http://www.hotnewdeal.com/2019/01/28/280647_Glad_ForceFlex_Drawstring_Unscented_Trash_Bags_/20%Monthly2019-01-28 11:43
http://www.hotnewdeal.com/2019/01/28/280646_CYBERPOWERPC__Ryzen_2700X_RTX_2080_16GB_DDR4_1/20%Monthly2019-01-28 11:25
http://www.hotnewdeal.com/2019/01/28/280645_CrockPot_2_Qt_Slow_Cooker__SCR200_799/20%Monthly2019-01-28 11:25
http://www.hotnewdeal.com/2019/01/28/280644_2x_3TB_Seagate_Ironwolf_NAS_Hard_Drive_150_Neweg/20%Monthly2019-01-28 11:24
http://www.hotnewdeal.com/2019/01/28/280643_Hitman_2_for_PS4_or_Xbox_2999/20%Monthly2019-01-28 11:24
http://www.hotnewdeal.com/2019/01/28/280642_Pier_1_Imports_20x20_IndoorOutdoor_Pillows_29/20%Monthly2019-01-28 11:01
http://www.hotnewdeal.com/2019/01/28/280641_Gitzo_100Year_Anniversary_Edition_Tripod_with_Bal/20%Monthly2019-01-28 11:01
http://www.hotnewdeal.com/2019/01/28/280640_ASUS_ROG_Strix_Radeon_RX_570_O4G_Gaming_OC_Video_C/20%Monthly2019-01-28 09:56
http://www.hotnewdeal.com/2019/01/28/280639_4x_FUEL_Points_on_gift_cards_FRI__SAT__SUN_Only/20%Monthly2019-01-28 09:44
http://www.hotnewdeal.com/2019/01/28/280637_4K_HDR_LED_Smart_TVs_86_LG_86UK6570PUB_w_AI_Thi/20%Monthly2019-01-28 09:24
http://www.hotnewdeal.com/2019/01/28/280636_HP_EX920_M2_1TB_PCIe_30_x4_NVMe_3D_NAND_SSD_160/20%Monthly2019-01-28 09:14
http://www.hotnewdeal.com/2019/01/28/280635_BH_PhotoVideo_TPLink_AC1900_Archer_C9_DualBand/20%Monthly2019-01-28 09:08
http://www.hotnewdeal.com/2019/01/28/280634_J_Crew_Factory_70_Off_Clearance__15_Off_Mens/20%Monthly2019-01-28 08:40
http://www.hotnewdeal.com/2019/01/28/280633_Kobalt_29Piece_Magnetic_MultiBit_Screwdriver_Set/20%Monthly2019-01-28 08:40
http://www.hotnewdeal.com/2019/01/28/280632_Hitachi_NT1850DE_18v_18_gauge_Brad_nailer_kit_Grad/20%Monthly2019-01-28 07:57
http://www.hotnewdeal.com/2019/01/28/280631_Apple_129_Cellular_iPad_Pro_Mid_2017_512GB_Wi/20%Monthly2019-01-28 07:56
http://www.hotnewdeal.com/2019/01/28/280630_TPLink_HS220_Smart_WiFi_Light_Switch_with_Dimmer/20%Monthly2019-01-28 07:27
http://www.hotnewdeal.com/2019/01/28/280629_CharBroil_Analog_Electric_Smoker_7999__Free_Sh/20%Monthly2019-01-28 07:01
http://www.hotnewdeal.com/2019/01/28/280628_Select_Game_Day_Party_Essentials_Products_100Ct_/20%Monthly2019-01-28 06:56
http://www.hotnewdeal.com/2019/01/28/280627_Amazon_Brand__Solimo_Tall_Kitchen_Drawstring_Tras/20%Monthly2019-01-28 06:35
http://www.hotnewdeal.com/2019/01/28/280626_TCL_49_Class_LED_3_Series_1080p_Smart_HDTV_Roku_T/20%Monthly2019-01-28 06:13
http://www.hotnewdeal.com/2019/01/28/280625_PCDD_Assassins_Creed_Odyssey_Standard_Edition_1/20%Monthly2019-01-28 05:01
http://www.hotnewdeal.com/2019/01/28/280624_Walgreens_photos_50_off/20%Monthly2019-01-28 04:40
http://www.hotnewdeal.com/2019/01/28/280623_Lowes_American_Olean_Cellar_Wood_Aged_Oak_6in_X/20%Monthly2019-01-28 03:48
http://www.hotnewdeal.com/2019/01/28/280622_ADIDAS_Samba_OG_Cloud_White_Core_Black_Shoes_50_/20%Monthly2019-01-28 03:37
http://www.hotnewdeal.com/2019/01/28/280621_Lowes_Craftsman_Hoodie_Sweatshirts_Black__Grey/20%Monthly2019-01-28 02:00
http://www.hotnewdeal.com/2019/01/28/280620_Wicked_Headphones_MissFit_Earbuds_Coral_or_Ward/20%Monthly2019-01-28 02:00
http://www.hotnewdeal.com/2019/01/28/280619_Klipsch_Reference_R52C_TwoWay_Center_Channel_Spe/20%Monthly2019-01-28 01:44
http://www.hotnewdeal.com/2019/01/28/280618_Traeger_Renegade_Pro_399_including_pellets_and_c/20%Monthly2019-01-28 00:04
http://www.hotnewdeal.com/2019/01/27/280617_Lego_BB8_67_at_Amazon/20%Monthly2019-01-27 23:30
http://www.hotnewdeal.com/2019/01/27/280616_Oreo_Most_Stuf_Cookies_299/20%Monthly2019-01-27 23:11
http://www.hotnewdeal.com/2019/01/27/280615_UTT_S1080GP_8Port_Unmanaged_Gigabit_Ethernet_PoE_/20%Monthly2019-01-27 22:50
http://www.hotnewdeal.com/2019/01/27/280613_DigiTech_SDRUM_guitar_pedal__Free_SH_5795/20%Monthly2019-01-27 22:49
http://www.hotnewdeal.com/2019/01/27/280612_Nespresso_CitiZ__Milk_12999_at_Bloomingdales/20%Monthly2019-01-27 22:49
http://www.hotnewdeal.com/2019/01/27/280611_BESTEK_Wireless_Doorbell_Kit__699__Free_shippi/20%Monthly2019-01-27 22:48
http://www.hotnewdeal.com/2019/01/27/280610_Charmin_Ultra_Strong_TP_24_Mega_Rolls_2377_with_/20%Monthly2019-01-27 21:45
http://www.hotnewdeal.com/2019/01/27/280609_6ft_USBC_Extension_Cable_for_Nintendo_Switch__2/20%Monthly2019-01-27 21:45
http://www.hotnewdeal.com/2019/01/27/280608_Amazon_Basics_PLA_3d_printer_filament_175MM_5_Pac/20%Monthly2019-01-27 20:26
http://www.hotnewdeal.com/2019/01/27/280607_Lg_e8_65_oled_2018__2349/20%Monthly2019-01-27 19:43
http://www.hotnewdeal.com/2019/01/27/280606_Costco_February_2019_Coupons_and_Promotions/20%Monthly2019-01-27 19:28
http://www.hotnewdeal.com/2019/01/27/280605_ASRock_Phantom_Gaming_D_Radeon_RX_570_DirectX_12_R/20%Monthly2019-01-27 18:36
http://www.hotnewdeal.com/2019/01/27/280604_Berkley_PowerBait_MaxScent_The_General_Worm_Bait_/20%Monthly2019-01-27 18:22
http://www.hotnewdeal.com/2019/01/27/280603_Logitech__Harmony_Elite_Remote_Control_and_Smart/20%Monthly2019-01-27 18:13
http://www.hotnewdeal.com/2019/01/27/280602_Vudu_TV_Digital_Bundle_Sale_2499_and_up/20%Monthly2019-01-27 18:13
http://www.hotnewdeal.com/2019/01/27/280601_Pokmon__Celestial_Storm_Elite_Trainer_Box_Tradin/20%Monthly2019-01-27 18:01
http://www.hotnewdeal.com/2019/01/27/280600_Addon_Item_12Count_Lactaid_Fast_Act_Lactose_Int/20%Monthly2019-01-27 18:01
http://www.hotnewdeal.com/2019/01/27/280599_Proflowes_Two_Dozens_Roses_with_vase_for_24/20%Monthly2019-01-27 18:00
http://www.hotnewdeal.com/2019/01/27/280598_Hotstar_40_off_on_yearly_subscription_amp_20_A/20%Monthly2019-01-27 17:43
http://www.hotnewdeal.com/2019/01/27/280596_Bambusi_Expandible_Bamboo_Utensil_Drawer_Organizer/20%Monthly2019-01-27 17:29
http://www.hotnewdeal.com/2019/01/27/280592_48Pack_1_Box_Rainblo_Bubble_Gum_Balls_053_Oun/20%Monthly2019-01-27 16:09
http://www.hotnewdeal.com/2019/01/27/280591_2Pack_STP_High_Mileage_Fuel_Injector__Carburetor/20%Monthly2019-01-27 16:09
http://www.hotnewdeal.com/2019/01/27/280590_Adobe_Photoshop_Elements_and_Premiere_Elements_201/20%Monthly2019-01-27 15:58
http://www.hotnewdeal.com/2019/01/27/280589_Klipsch_Jamo_2way_65_InCeiling_Speaker__Sold_/20%Monthly2019-01-27 15:58
http://www.hotnewdeal.com/2019/01/27/280588_Frys_Email_Exclusive_Pair_of_Jamo_S_807_Dual_5_/20%Monthly2019-01-27 15:58
http://www.hotnewdeal.com/2019/01/27/280586_Fractal_Design_Case_FDCANODE202BK_4999/20%Monthly2019-01-27 15:57
http://www.hotnewdeal.com/2019/01/27/280584_LG_OM7560_1000W_RMS_HiFi_Entertainment__Karaoke_/20%Monthly2019-01-27 15:41
http://www.hotnewdeal.com/2019/01/27/280582_Musicians_Gear_MG100B_Tripod_Boom_Microphone_Stan/20%Monthly2019-01-27 15:26
http://www.hotnewdeal.com/2019/01/27/280581_2Pk_Biofreeze_Professional_Pain_Relief_Gel_4oz_/20%Monthly2019-01-27 15:26
http://www.hotnewdeal.com/2019/01/27/280580_Epson_5040UB_Projector_1999_With_FREE_LAMP__BH_/20%Monthly2019-01-27 14:47
http://www.hotnewdeal.com/2019/01/27/280579_NETGEAR_8Port_Gigabit_Ethernet_Unmanaged_Switch_/20%Monthly2019-01-27 14:32
http://www.hotnewdeal.com/2019/01/27/280577_Biofreeze_Professional_Pain_Relief_Gel_Relief_of_/20%Monthly2019-01-27 14:17
http://www.hotnewdeal.com/2019/01/27/280576_16Count_Charmin_Essentials_2ply_Soft_or_1ply_St/20%Monthly2019-01-27 14:08
http://www.hotnewdeal.com/2019/01/27/280575_2999_Joby_GorillaPod_3K_Kit_Black/20%Monthly2019-01-27 13:57
http://www.hotnewdeal.com/2019/01/27/280573_Acer_H7850_4K_Ultra_High_Definition_3840_x_2160_/20%Monthly2019-01-27 13:31
http://www.hotnewdeal.com/2019/01/27/280572_Harbor_Freight_Coupon_Any_5five_Items_Under_10/20%Monthly2019-01-27 13:31
http://www.hotnewdeal.com/2019/01/27/280571_Dell_U2518D_25_1440p_5ms_60Hz_Monitor_24999/20%Monthly2019-01-27 13:31
http://www.hotnewdeal.com/2019/01/27/280570_128GB_SanDisk_Extreme_MicroSDXC_UHSI_V30_U3_160_/20%Monthly2019-01-27 13:31
http://www.hotnewdeal.com/2019/01/27/280569_JobSmart_3Piece_Welding_Pliers_Set_at_Tractor_Sup/20%Monthly2019-01-27 13:10
http://www.hotnewdeal.com/2019/01/27/280568_Nikon_D850_FF_DSLR_Camera_Body__64gb_Sandisk_Extr/20%Monthly2019-01-27 13:10
http://www.hotnewdeal.com/2019/01/27/280567_Weber_Original_Kettle_Premium_Charcoal_Grill_22_Y/20%Monthly2019-01-27 12:54
http://www.hotnewdeal.com/2019/01/27/280566_3Count_16oz_Cetaphil_Moisturizing_Cream_2623_5/20%Monthly2019-01-27 12:27
http://www.hotnewdeal.com/2019/01/27/280565_4Count_Tostitos_Salsa_Dips_Variety_Pack_1198_5/20%Monthly2019-01-27 12:18
http://www.hotnewdeal.com/2019/01/27/280564_24Pack_8oz_Boost_High_Protein_Complete_Nutritiona/20%Monthly2019-01-27 11:55
http://www.hotnewdeal.com/2019/01/27/280563_DLink_DGS110005_5Port_Gigabit_Easy_Smart_Manag/20%Monthly2019-01-27 11:55
http://www.hotnewdeal.com/2019/01/27/280562_Elite_Dangerous_franchise_70_off_Elite_Dangerous/20%Monthly2019-01-27 11:38
http://www.hotnewdeal.com/2019/01/27/280561_299_55_Samsung_mu8000_4k_HDR_Returb_Newegg/20%Monthly2019-01-27 11:38
http://www.hotnewdeal.com/2019/01/27/280560_Insignia_90W_USBC_PD_Wall_Charger__3999__FS/20%Monthly2019-01-27 11:23
http://www.hotnewdeal.com/2019/01/27/280559_Samsung_Q9FN_65_QLED_TV_QN65Q9FNAFXZA_2249/20%Monthly2019-01-27 11:23
http://www.hotnewdeal.com/2019/01/27/280558_Moto_Z3_Play_unlocked_29999_Frys_online_or_in_s/20%Monthly2019-01-27 11:08
http://www.hotnewdeal.com/2019/01/27/280557_Denon_AVRX4500H_92_Channel_AV_Receiver_849_at_F/20%Monthly2019-01-27 11:08
http://www.hotnewdeal.com/2019/01/27/280556_Bounty_SelectASize_2Ply_Paper_Towels_11_x_5_1/20%Monthly2019-01-27 10:59
http://www.hotnewdeal.com/2019/01/27/280555_DJI_2017__2018_Model_Clearance__Micro_Center__M/20%Monthly2019-01-27 10:46
http://www.hotnewdeal.com/2019/01/27/280554_Acer_Nitro_5_Laptop_Ryzen_5_2500U_156_1080p_IP/20%Monthly2019-01-27 10:25
http://www.hotnewdeal.com/2019/01/27/280553_Sufix_832_Braid_Fishing_Line_Green_30lbs_1200_Yard/20%Monthly2019-01-27 10:09
http://www.hotnewdeal.com/2019/01/27/280552_YMMV_Paw_Patrol_Sea_Patroller_500/20%Monthly2019-01-27 09:26
http://www.hotnewdeal.com/2019/01/27/280551_Great_Clips_Voucher_for_2_Free_NASCAR_Atlanta_Mot/20%Monthly2019-01-27 09:07
http://www.hotnewdeal.com/2019/01/27/280550_5lbs_Muscle_Milk_100_Whey_Protein_Powder_Chocola/20%Monthly2019-01-27 08:47
http://www.hotnewdeal.com/2019/01/27/280549_DuroMax_10000_Watt_Hybrid_Dual_Fuel_Portable_Gas_P/20%Monthly2019-01-27 07:59
http://www.hotnewdeal.com/2019/01/27/280547_furReal_Ricky__the_TrickLovin_Pup__70_off__T/20%Monthly2019-01-27 07:11
http://www.hotnewdeal.com/2019/01/27/280546_Fuji_Sale_XF_16mm_F14_R_WR_Lens_749_XF_90mm_F/20%Monthly2019-01-27 06:42
http://www.hotnewdeal.com/2019/01/27/280545_Mens_Casual_Moccasins_Slippers_Anti_Slip_Rubber_S/20%Monthly2019-01-27 04:52
http://www.hotnewdeal.com/2019/01/27/280544_NETGEAR_AC1750_Smart_WiFi_Router_R6400/20%Monthly2019-01-27 04:25
http://www.hotnewdeal.com/2019/01/27/280543_Dissidia_Final_Fantasy_NT_Steelbook_Brawler_Editio/20%Monthly2019-01-27 03:57
http://www.hotnewdeal.com/2019/01/27/280542_GSKILL_TridentZ_RGB_32GB_2_x_16GB_DDR4_3200_fo/20%Monthly2019-01-27 03:26
http://www.hotnewdeal.com/2019/01/27/280541_MiddleEarth_Shadow_of_War_Xbox_OnePS4_7_or_l/20%Monthly2019-01-27 03:11
http://www.hotnewdeal.com/2019/01/27/280540_2_x_50_Fanatics_eGift_Card_Email_Delivery__Cos/20%Monthly2019-01-27 03:04
http://www.hotnewdeal.com/2019/01/27/280539_Mamma_Mia_Here_We_Go_Again_4K_UHD__Bluray__Di/20%Monthly2019-01-27 02:56
http://www.hotnewdeal.com/2019/01/27/280538_Mens_Eddie_Bauer_Cross_Cut_Cord_Shirt_997_or_L/20%Monthly2019-01-27 02:56
http://www.hotnewdeal.com/2019/01/27/280537_HP_Pavilion_Desktop_Ryzen_7_2700_16GB_DDR4_1TB_/20%Monthly2019-01-27 02:39
http://www.hotnewdeal.com/2019/01/27/280536_Dark_Souls_Remastered_PS4_or_Xbox_One_1899_Bu/20%Monthly2019-01-27 02:39
http://www.hotnewdeal.com/2019/01/27/280534_Remember_the_Titans_Bluray__DVD_499__Free_S/20%Monthly2019-01-27 01:56
http://www.hotnewdeal.com/2019/01/27/280533_Neato_Robotics_Botvac_D5_AppControlled_Robot_Vacu/20%Monthly2019-01-27 01:38
http://www.hotnewdeal.com/2019/01/27/280532_Nokia_8_64GB_Factory_Unlocked__Polished_Blue_or_S/20%Monthly2019-01-27 01:28
http://www.hotnewdeal.com/2019/01/27/280530_KNIPEX_10_in_Locking_PliersUniversal_Jaws__14/20%Monthly2019-01-27 01:07
http://www.hotnewdeal.com/2019/01/27/280529_6Pack_of_20oz_Enfamil_NeuroPro_Gentlease_Infant_F/20%Monthly2019-01-27 01:07
http://www.hotnewdeal.com/2019/01/27/280528_Namsan_Dog_Coat_778930_ac/20%Monthly2019-01-27 01:07
http://www.hotnewdeal.com/2019/01/26/280527_78Count_Cascade_Complete_ActionPacs_Dishwasher_De/20%Monthly2019-01-26 22:35
http://www.hotnewdeal.com/2019/01/26/280526_POPCORNERS_Sweet__Salty_Kettle_Corn_Popped_Corn_S/20%Monthly2019-01-26 21:24
http://www.hotnewdeal.com/2019/01/26/280525_ASRock_Phantom_Gaming_X_Radeon_RX590_8G_OC_21999/20%Monthly2019-01-26 20:46
http://www.hotnewdeal.com/2019/01/26/280524_Emeril_6Piece_Multi_Colored_Knife_Set_14/20%Monthly2019-01-26 20:38
http://www.hotnewdeal.com/2019/01/26/280523_The_Many_Sides_of_Jane_Season_1_Digital_HD_for_/20%Monthly2019-01-26 20:31
http://www.hotnewdeal.com/2019/01/26/280522_Mens_Classic_Long_Sleeve_Full_Zip_up_Fleece_Knitt/20%Monthly2019-01-26 20:26
http://www.hotnewdeal.com/2019/01/26/280521_Samsung_QLED_75_Q7FN__ebay_Daily_Deal_2149/20%Monthly2019-01-26 20:16
http://www.hotnewdeal.com/2019/01/26/280519_Doctors_Foster_and_Smith_canned_dog_food_from_57/20%Monthly2019-01-26 20:07
http://www.hotnewdeal.com/2019/01/26/280518_500GB_HP_EX900_M2_nVME_SSD_75_Neweg/20%Monthly2019-01-26 20:07
http://www.hotnewdeal.com/2019/01/26/280517_Corsair_VOID_RGB_Wireless_SE_Premium_Gaming_Headse/20%Monthly2019-01-26 19:56
http://www.hotnewdeal.com/2019/01/26/280516_Nerf_Microshots_YMMV_150/20%Monthly2019-01-26 19:39
http://www.hotnewdeal.com/2019/01/26/280515_TV_Show_Seasons_Digital_HD_Pawn_Stars_SE22_Ame/20%Monthly2019-01-26 19:24
http://www.hotnewdeal.com/2019/01/26/280514_SpongeBob_SquarePants_Season_12_HD_299_amazon/20%Monthly2019-01-26 19:24
http://www.hotnewdeal.com/2019/01/26/280513_Seattle_to_Honolulu_or_Kailua_Kona_or_Vice_Versa/20%Monthly2019-01-26 19:24
http://www.hotnewdeal.com/2019/01/26/280511_Starbucks_Frappuccino_Mocha_95_Ounce_Glass_Bott/20%Monthly2019-01-26 18:59
http://www.hotnewdeal.com/2019/01/26/280510_Insignia_Remote_Control_Cover_for_Roku_Stick_Stic/20%Monthly2019-01-26 18:58
http://www.hotnewdeal.com/2019/01/26/280509_J_Crew_Extra_60_Off_Final_Sale__15_off_Womens/20%Monthly2019-01-26 18:40
http://www.hotnewdeal.com/2019/01/26/280507_Jimmy_Jazz_Adidas_NMD_R1_STLT_Primeknit__Navy__/20%Monthly2019-01-26 18:09
http://www.hotnewdeal.com/2019/01/26/280506_New_Balance_520_Shoes_MensWomens_for_25__Free/20%Monthly2019-01-26 18:09
http://www.hotnewdeal.com/2019/01/26/280505_FREE_Doll_House_Rugs__Hekman_Furniture_1002092M/20%Monthly2019-01-26 17:56
http://www.hotnewdeal.com/2019/01/26/280504_Netgear_Nighthawk_CM1100_DOCSIS_31_Cable_Modem__/20%Monthly2019-01-26 17:52
http://www.hotnewdeal.com/2019/01/26/280502_Tillys_Girls_Full_Tilt_Hoodie_3_Womens_Destin/20%Monthly2019-01-26 17:24
http://www.hotnewdeal.com/2019/01/26/280500_PowerA_Game_Card_Case_For_Nintendo_Switch__Super_/20%Monthly2019-01-26 17:09
http://www.hotnewdeal.com/2019/01/26/280499_2Pack_Google_Home_MiniChalk__2_x_Deco_Gear_Out/20%Monthly2019-01-26 15:58
http://www.hotnewdeal.com/2019/01/26/280498_Red_and_Black_18x30_Durable_Rubber_with_Carpet_8/20%Monthly2019-01-26 15:40
http://www.hotnewdeal.com/2019/01/26/280497_Enermax_Marathon_80mm_Case_Fan_Free_after_4_Rebat/20%Monthly2019-01-26 15:40
http://www.hotnewdeal.com/2019/01/26/280496_PSB_Alpha_PS1_Speakers_13499__Free_Shipping/20%Monthly2019-01-26 14:56
http://www.hotnewdeal.com/2019/01/26/280495_Weber_Genesis_II_S335_and_Spirit_II_S310_Clearan/20%Monthly2019-01-26 14:47
http://www.hotnewdeal.com/2019/01/26/280494_Powermate_Vx_Air_compressor_Extended_Tank_Drain_Va/20%Monthly2019-01-26 14:47
http://www.hotnewdeal.com/2019/01/26/280493_Call_of_Duty_Infinite_Warfare__Digital_Deluxe_Edi/20%Monthly2019-01-26 14:35
http://www.hotnewdeal.com/2019/01/26/280492_Sacramento_CA_to_Orlando_or_Vice_Versa_148_RT_Air/20%Monthly2019-01-26 13:59
http://www.hotnewdeal.com/2019/01/26/280491_Active_Noise_Cancelling_Headphones_2019_Upgrade_/20%Monthly2019-01-26 13:42
http://www.hotnewdeal.com/2019/01/26/280490_Sigmabeauty_offer_Brow_powder_duo_210_Reg14_a/20%Monthly2019-01-26 13:42
http://www.hotnewdeal.com/2019/01/26/280489_Performix_Liquid_Electrical_Tape_4oz__Black_5/20%Monthly2019-01-26 13:27
http://www.hotnewdeal.com/2019/01/26/280488_Forever_Stamps__100_stamps_for_4419_AC__Boxed/20%Monthly2019-01-26 13:12
http://www.hotnewdeal.com/2019/01/26/280487_Cotton_Canvas_Foldable_Storage_Bags_for_Underbed_/20%Monthly2019-01-26 12:48
http://www.hotnewdeal.com/2019/01/26/280486_Neil_Gaiman_Dont_Panic_Douglas_Adams__The_Hitc/20%Monthly2019-01-26 12:48
http://www.hotnewdeal.com/2019/01/26/280485_YMMV_CST_Berger_5_Meter_16_Telescopic_Measurin/20%Monthly2019-01-26 12:44
http://www.hotnewdeal.com/2019/01/26/280484_Denon_AVRX4500H_92Channel_4K_Ultra_HD_AV_Receiv/20%Monthly2019-01-26 12:44
http://www.hotnewdeal.com/2019/01/26/280483_Bang__Olufsen_Beoplay_H2_Carbon_Blue_for_5988_/20%Monthly2019-01-26 12:43
http://www.hotnewdeal.com/2019/01/26/280482_Girls_Cotton_Casual_Longsleeve_Cartoon_Stripe_Dres/20%Monthly2019-01-26 12:43
http://www.hotnewdeal.com/2019/01/26/280481_Master_Mechanic_115Piece_DrillDriver_Bit_Set_22/20%Monthly2019-01-26 12:29
http://www.hotnewdeal.com/2019/01/26/280479_Crucial_MX500_500GB_m2_58_25_Version_Also_on_/20%Monthly2019-01-26 12:02
http://www.hotnewdeal.com/2019/01/26/280478_Sonos_playbar_with_wall_mount_for_579_with_free_s/20%Monthly2019-01-26 11:45
http://www.hotnewdeal.com/2019/01/26/280477_NETGEAR_CM600_24_x_8_960_Mbps_DOCSIS_30_70_FS_af/20%Monthly2019-01-26 11:45
http://www.hotnewdeal.com/2019/01/26/280476_Call_of_Duty_Black_Ops_III_Zombies_Chronicles_Edi/20%Monthly2019-01-26 11:30
http://www.hotnewdeal.com/2019/01/26/280475_8_BRAUN_ORAL_B_PRECISION_CLEAN_TOOTHBRUSH_REPLACEM/20%Monthly2019-01-26 11:13
http://www.hotnewdeal.com/2019/01/26/280473_MSI_GV62_8RE016_156_Laptop_i58300H_8GB_DDR4/20%Monthly2019-01-26 10:41
http://www.hotnewdeal.com/2019/01/26/280472_ECOVACS_DEEBOT_601_Robot_Vacuum_Cleaner_179_179/20%Monthly2019-01-26 10:13
http://www.hotnewdeal.com/2019/01/26/280471_Isopure_Zero_Carb_Protein_Powder3_Pounds_From_25/20%Monthly2019-01-26 10:07
http://www.hotnewdeal.com/2019/01/26/280470_Sony_STRDN1080_72Ch_HomeTheater_AV_Receiver_2/20%Monthly2019-01-26 09:56
http://www.hotnewdeal.com/2019/01/26/280469_cheap_nail_set_with_2_nail_clippers_at_Walmart_09/20%Monthly2019-01-26 09:44
http://www.hotnewdeal.com/2019/01/26/280468_84Count_McCafe_Premium_KCup_Coffee_Pods_Medium_/20%Monthly2019-01-26 09:24
http://www.hotnewdeal.com/2019/01/26/280467_Katamari_Damacy_Reroll_and_Bendy_and_the_Ink_Machi/20%Monthly2019-01-26 09:13
http://www.hotnewdeal.com/2019/01/26/280466_Fractal_Design_Arc_Midi_Mid_Tower_Case_40_AC_New/20%Monthly2019-01-26 09:08
http://www.hotnewdeal.com/2019/01/26/280465_Marvels_Spiderman_2799_and_Fallout_76_2499_fo/20%Monthly2019-01-26 08:56
http://www.hotnewdeal.com/2019/01/26/280464_Baby_Carters_Embroidered_50x27_Animal_Hooded_To/20%Monthly2019-01-26 08:38
http://www.hotnewdeal.com/2019/01/26/280462_Spyro_Reignited_Trilogy__Fiery_Return_Theme_Free/20%Monthly2019-01-26 08:16
http://www.hotnewdeal.com/2019/01/26/280461_SAMSUNG_128GB_BAR_Plus_USB_Flash_Drive_2249_Ship/20%Monthly2019-01-26 08:15
http://www.hotnewdeal.com/2019/01/26/280459_Crescent_25Piece_38_Drive_Standard__Deep_SAE_M/20%Monthly2019-01-26 02:58
http://www.hotnewdeal.com/2019/01/26/280458_3_x_5_Rainbow_Printed_Polyester_Flag_2__Free_S/20%Monthly2019-01-26 01:44
http://www.hotnewdeal.com/2019/01/26/280457_43_Toshiba_43LF621U19_4K_UHD_Amazon_Fire_TV_Editi/20%Monthly2019-01-26 01:27
http://www.hotnewdeal.com/2019/01/26/280456_DEAL_IS_BACK_Plantron_BackBeatGO3_BLK_wCharging_C/20%Monthly2019-01-26 01:27
http://www.hotnewdeal.com/2019/01/26/280455_JobSmart_22Piece_Impact_Accessory_Set_at_Tractor_/20%Monthly2019-01-26 01:27
http://www.hotnewdeal.com/2019/01/26/280454_DarkFlash_Aurora_DR12_3in1_PRO_120mm_Addressable/20%Monthly2019-01-26 00:16
http://www.hotnewdeal.com/2019/01/25/280453_Amazon_Fire_7_Tablets_at_Best_Buy_are_BOGO_4998/20%Monthly2019-01-25 23:26
http://www.hotnewdeal.com/2019/01/25/280452_AR15_STANDARD_Carbine_Kit__Outdoor_Sports_US/20%Monthly2019-01-25 22:21
http://www.hotnewdeal.com/2019/01/25/280451_Nintendo_Switch_Digital_Downloads_Robonauts_049/20%Monthly2019-01-25 22:02
http://www.hotnewdeal.com/2019/01/25/280450_Kohls_Mystery_Savings_Coupon_40_30_or_20_Vali/20%Monthly2019-01-25 22:02
http://www.hotnewdeal.com/2019/01/25/280449_Wilson_iCor_High_Performance_Volleyball_2Pack/20%Monthly2019-01-25 22:01
http://www.hotnewdeal.com/2019/01/25/280448_Nintendo_Switch_Super_Smash_Brothers_3999/20%Monthly2019-01-25 21:52
http://www.hotnewdeal.com/2019/01/25/280447_BITMO_APP_iOSAndroid_15_off_any_giftcard_Als/20%Monthly2019-01-25 21:52
http://www.hotnewdeal.com/2019/01/25/280446_Sony_Interactive_Entertainment_Gold_Wls_Headset_Wh/20%Monthly2019-01-25 21:41
http://www.hotnewdeal.com/2019/01/25/280445_Lenovo_Flex_6_14_2in1_Laptop_Ryzen_5_2500U_8G/20%Monthly2019-01-25 21:40
http://www.hotnewdeal.com/2019/01/25/280444_Outdoor_Life_OL_Guide_Life_60_OFF_Duffel_Bags_/20%Monthly2019-01-25 21:40
http://www.hotnewdeal.com/2019/01/25/280443_Fossils_thirdgen_Wear_OS_smartwatches_are_25_of/20%Monthly2019-01-25 21:11
http://www.hotnewdeal.com/2019/01/25/280442_authorized_dealer_LG_OLED_4K_TVs_55_OLED55B8P/20%Monthly2019-01-25 20:30
http://www.hotnewdeal.com/2019/01/25/280441_Savearound_coupon_book__Buy_2_get_a_25_Amazon_Gi/20%Monthly2019-01-25 20:15
http://www.hotnewdeal.com/2019/01/25/280440_17_Boxer_Robot_Walmart_YMMV_originally_priced_at/20%Monthly2019-01-25 20:00
http://www.hotnewdeal.com/2019/01/25/280439_Cross_TrainingWeightlifting_Shoe_Nike_Free_x_Metc/20%Monthly2019-01-25 20:00
http://www.hotnewdeal.com/2019/01/25/280438_4K_HDTV_Antenna_6080_Miles_Range_Amplified_with_D/20%Monthly2019-01-25 19:43
http://www.hotnewdeal.com/2019/01/25/280437_Weber_Spirit_ii_S210_Grill_at_Home_Depot_19999_/20%Monthly2019-01-25 19:43
http://www.hotnewdeal.com/2019/01/25/280436_Atlanta_to_Sydney_Return__Various_Dates_May_to_No/20%Monthly2019-01-25 19:43
http://www.hotnewdeal.com/2019/01/25/280435_Perry_Ellis_Mens_Manhattan_Pebble_Leather_Passca/20%Monthly2019-01-25 19:28
http://www.hotnewdeal.com/2019/01/25/280434_Weber_Rapidfire_Chimney_Starter__Walmart_In_Store/20%Monthly2019-01-25 19:28
http://www.hotnewdeal.com/2019/01/25/280432_TPLink_Deco_M5_Kit__YMMV_4981/20%Monthly2019-01-25 19:02
http://www.hotnewdeal.com/2019/01/25/280431_Little_Caesars_Pretzel_Crust_Pizza_is_back_6/20%Monthly2019-01-25 18:50
http://www.hotnewdeal.com/2019/01/25/280430_AMC_and_Regal_Theatres__Bumblebee_Movie__Buy_One/20%Monthly2019-01-25 18:50
http://www.hotnewdeal.com/2019/01/25/280429_Dorco_Pace_6_Plus_16_refillable_Cartridges_16__/20%Monthly2019-01-25 18:35
http://www.hotnewdeal.com/2019/01/25/280428_Tenergy_17L_Stainless_Steel_Electric_Kettle__14/20%Monthly2019-01-25 18:16
http://www.hotnewdeal.com/2019/01/25/280427_Fanatics_50_Gift_Card_Email_Delivery_37/20%Monthly2019-01-25 17:00
http://www.hotnewdeal.com/2019/01/25/280426_Canon_imageCLASS_MF731Cdw_Wireless_Color_Laser_Al/20%Monthly2019-01-25 17:00
http://www.hotnewdeal.com/2019/01/25/280425_Charles_Tyrwhitt_Select_Dress_Shirts_or_Casual_Shi/20%Monthly2019-01-25 16:45
http://www.hotnewdeal.com/2019/01/25/280424_MSI_GeForce_GTX_1060_6GB_Video_Card_200_after_20/20%Monthly2019-01-25 16:45
http://www.hotnewdeal.com/2019/01/25/280423_LG__PH30JG_720p_Wireless_DLP_Projector__250/20%Monthly2019-01-25 16:44
http://www.hotnewdeal.com/2019/01/25/280422_Ashley_Furniture_Signature_Design__Darcy_Contempo/20%Monthly2019-01-25 16:15
http://www.hotnewdeal.com/2019/01/25/280421_Intuit_TurboTax_2018FederalStateEFile_Deluxe/20%Monthly2019-01-25 16:15
http://www.hotnewdeal.com/2019/01/25/280420_Nintendo_Switch_Pro_Controller_5952/20%Monthly2019-01-25 15:50
http://www.hotnewdeal.com/2019/01/25/280419_When_Genius_Failed_The_Rise_and_Fall_of_LongTerm/20%Monthly2019-01-25 15:42
http://www.hotnewdeal.com/2019/01/25/280418_San_Francisco_to_New_Delhi_India_432508_RT_Airf/20%Monthly2019-01-25 15:24
http://www.hotnewdeal.com/2019/01/25/280417_Beats_by_Dr_Dre__urBeats_Earphones_with_Lightni/20%Monthly2019-01-25 15:23
http://www.hotnewdeal.com/2019/01/25/280416_ShopDisney_85_Wolfie_Plush_Vampirina_225_Dis/20%Monthly2019-01-25 15:23
http://www.hotnewdeal.com/2019/01/25/280415_Amazon_Echo_Plus__2nd_Generation_10499/20%Monthly2019-01-25 15:16
http://www.hotnewdeal.com/2019/01/25/280411_BioBidet_FLOW_Kitchen_Faucet_119__free_sh/20%Monthly2019-01-25 15:04
http://www.hotnewdeal.com/2019/01/25/280410_AMD_RYZEN_7_2700X_8Core_37_GHz_43_GHz_Max_Boos/20%Monthly2019-01-25 15:03
http://www.hotnewdeal.com/2019/01/25/280409_Fire_TV_Stick_4K_with_allnew_Alexa_Voice_Remote_/20%Monthly2019-01-25 14:36
http://www.hotnewdeal.com/2019/01/25/280407_Igloo_Playmate_Pal_7_Quart_Personal_Sized_Cooler_/20%Monthly2019-01-25 14:34
http://www.hotnewdeal.com/2019/01/25/280406_Capital_One_Spark_Business_card__2500_Reward_on_/20%Monthly2019-01-25 13:52
http://www.hotnewdeal.com/2019/01/25/280405_Reebok_Crossfit_Nano_80_40_and_other_training_s/20%Monthly2019-01-25 13:51
http://www.hotnewdeal.com/2019/01/25/280404_MSI_GL63_8RC076_156_FHD_IPS_i78750H_8GB_DD/20%Monthly2019-01-25 13:51
http://www.hotnewdeal.com/2019/01/25/280403_10Pack_Musicians_Gear_LoZ_Microphone_Cable_20_F/20%Monthly2019-01-25 13:50
http://www.hotnewdeal.com/2019/01/25/280402_PS4_Digital_Game_Sale_Burnout_Remastered_599_L/20%Monthly2019-01-25 13:24
http://www.hotnewdeal.com/2019/01/25/280401_Amazon_Fire_TV_Recast_Over_the_Air_Dvr_500gb_190/20%Monthly2019-01-25 13:23
http://www.hotnewdeal.com/2019/01/25/280400_For_Prime_Members_CORE_Organic_Pomegranate_Blue_/20%Monthly2019-01-25 13:22
http://www.hotnewdeal.com/2019/01/25/280399_Pfister_Glenora_2Handle_Kitchen_Faucet_w_Side_Sp/20%Monthly2019-01-25 13:22
http://www.hotnewdeal.com/2019/01/25/280398_CORSAIR__VOID_PRO_RGB_SE_Wireless_Dolby_71Chann/20%Monthly2019-01-25 13:21
http://www.hotnewdeal.com/2019/01/25/280397_LIFX_bulbs_20_off_sale_PLUS_10_off_with_code/20%Monthly2019-01-25 12:45
http://www.hotnewdeal.com/2019/01/25/280396_Frys_1_day_sale_50_Playstation_Store_Gift_card_f/20%Monthly2019-01-25 12:45
http://www.hotnewdeal.com/2019/01/25/280395_Ubiquiti_Networks_EdgeRouter_X_5Port_Advanced_Gig/20%Monthly2019-01-25 12:45
http://www.hotnewdeal.com/2019/01/25/280394_Lol_Surprise__Pet_Series__Best_Buy_449/20%Monthly2019-01-25 12:44
http://www.hotnewdeal.com/2019/01/25/280393_Swagbucks_Donate_25_to_the_Nature_Conservancy_g/20%Monthly2019-01-25 12:20
http://www.hotnewdeal.com/2019/01/25/280392_Peak_Windshield_Cleaners_RainOffDeIcer_Bug_Cl/20%Monthly2019-01-25 12:19
http://www.hotnewdeal.com/2019/01/25/280391_Shenmue_I__II__Xbox_One_16__Free_Shipping_with/20%Monthly2019-01-25 12:19
http://www.hotnewdeal.com/2019/01/25/280390_Hover1_Ultra_HoverboardblackYMMV_5398/20%Monthly2019-01-25 11:59
http://www.hotnewdeal.com/2019/01/25/280389_Tripp_Lite_1_Outlet_Portable_Surge_Protector__5/20%Monthly2019-01-25 11:59
http://www.hotnewdeal.com/2019/01/25/280388_Banana_Republic_Extra_60_Off_Clearance_Free_SH_/20%Monthly2019-01-25 11:59
http://www.hotnewdeal.com/2019/01/25/280387_Reebok_Mens_Ahary_Running_Shoe_1997_Womens_Ar/20%Monthly2019-01-25 11:26
http://www.hotnewdeal.com/2019/01/25/280386_1TB_WD_Blue_3D_NAND_25_SSD_118_AC_Newegg/20%Monthly2019-01-25 11:26
http://www.hotnewdeal.com/2019/01/25/280385_Costco_has_NETGEAR_Orbi_AC3000_Triband_WiFi_Syst/20%Monthly2019-01-25 11:11
http://www.hotnewdeal.com/2019/01/25/280384_adidas_baseball_cleats_free_shipping_15/20%Monthly2019-01-25 11:11
http://www.hotnewdeal.com/2019/01/25/280383_Sterling_Audio_4_Channel_Professional_Headphone_Am/20%Monthly2019-01-25 10:50
http://www.hotnewdeal.com/2019/01/25/280382_Futurama_The_Complete_Series_Digital_HD_TV_Show_/20%Monthly2019-01-25 10:41
http://www.hotnewdeal.com/2019/01/25/280381_Bronze_Vintage_Eiffel_Tower_Paris_Pocket_Watch_Nec/20%Monthly2019-01-25 10:25
http://www.hotnewdeal.com/2019/01/25/280380_MorfBoard_Skate__Scoot_Combo_Set_includes_Board_/20%Monthly2019-01-25 10:25
http://www.hotnewdeal.com/2019/01/25/280379_YMMV_Opal_Nugget_Ice_Maker_Home_Depot_197_Reg54/20%Monthly2019-01-25 10:14
http://www.hotnewdeal.com/2019/01/25/280378_Intel_660p_1TB_3D_NAND_QLC_M2_2280_PCIe_NVMe_30_/20%Monthly2019-01-25 10:14
http://www.hotnewdeal.com/2019/01/25/280377_XFX_Radeon_RX_570_8GB_256Bit_DDR5_PCI_Express_Vid/20%Monthly2019-01-25 10:14
http://www.hotnewdeal.com/2019/01/25/280375_Sony_PlayStation_VR_Bundle_w_Astro_Bot_Rescue_Mis/20%Monthly2019-01-25 10:04
http://www.hotnewdeal.com/2019/01/25/280374_Tenda_Nova_MW6_3Pack_Whole_Home_Mesh_Router_Wi/20%Monthly2019-01-25 10:04
http://www.hotnewdeal.com/2019/01/25/280373_WEN_56200i_1600_Running_Watts2000_Starting_Watts/20%Monthly2019-01-25 10:04
http://www.hotnewdeal.com/2019/01/25/280372_Corsair_K70_MK2_Keyboard__Cherry_MX_Red_100/20%Monthly2019-01-25 10:04
http://www.hotnewdeal.com/2019/01/25/280371_Set_of_4_Tot_Tutors_Kids_Primary_Colors_Small_Sto/20%Monthly2019-01-25 09:54
http://www.hotnewdeal.com/2019/01/25/280370_25_Alienware_AW2518HF_1080p_240Hz_FreeSync_Gaming/20%Monthly2019-01-25 09:42
http://www.hotnewdeal.com/2019/01/25/280369_VUDU_4K_UHD_Digital_Movies_Crazy_Rich_Asians_Rea/20%Monthly2019-01-25 09:27
http://www.hotnewdeal.com/2019/01/25/280368_Bright_RC_Rock_Crawler_Jeep_Trailcat_w_VR_Dash_Ca/20%Monthly2019-01-25 09:12
http://www.hotnewdeal.com/2019/01/25/280367_BESTEK_Wall_Outlet_Surge_Protector__Wall_Charger_/20%Monthly2019-01-25 08:58
http://www.hotnewdeal.com/2019/01/25/280366_Craftsman_12Wrench_Organizer_with_Handle__Black_/20%Monthly2019-01-25 08:22
http://www.hotnewdeal.com/2019/01/25/280365_Oakley_UtilityTravel_Case_black_or_blue_for_12/20%Monthly2019-01-25 08:00
http://www.hotnewdeal.com/2019/01/25/280364_Discover__Online_Savings_Account__21_with_up_t/20%Monthly2019-01-25 08:00
http://www.hotnewdeal.com/2019/01/25/280363_Hasbro_Nerf_Rival_Star_Wars_Stormtrooper_Blaster_/20%Monthly2019-01-25 07:53
http://www.hotnewdeal.com/2019/01/25/280362_TPLINK_TLPoE150S_PoE_Injector_Adapter_6_AC_New/20%Monthly2019-01-25 07:35
http://www.hotnewdeal.com/2019/01/25/280361_Craftsman_Multimeter_949/20%Monthly2019-01-25 07:20
http://www.hotnewdeal.com/2019/01/25/280360_Batman_Ninja_English__Japanese__Batman_Killin/20%Monthly2019-01-25 07:06
http://www.hotnewdeal.com/2019/01/25/280359_500GB_Samsung_860_EVO_25_SSD__16GB_GSkill_Trid/20%Monthly2019-01-25 07:06
http://www.hotnewdeal.com/2019/01/25/280358_Amazon_Genova_Yellowfin_Tuna_in_Pure_Olive_Oil_5/20%Monthly2019-01-25 06:29
http://www.hotnewdeal.com/2019/01/25/280357_CyberPower_CP325SL_325VA_185Watt_4Outlet_UPS_17/20%Monthly2019-01-25 06:00
http://www.hotnewdeal.com/2019/01/25/280356_Stanley_ERK1S_Emergency_Roadside_kit_with_Jumper_C/20%Monthly2019-01-25 05:31
http://www.hotnewdeal.com/2019/01/25/280355_3Count_KIND_Healthy_Grains_Granola_Clusters_Vani/20%Monthly2019-01-25 05:01
http://www.hotnewdeal.com/2019/01/25/280354_Huanuo_Dual_Monitor_Stand_Height_Adjustable_Mount/20%Monthly2019-01-25 04:45
http://www.hotnewdeal.com/2019/01/25/280353_Oklahoma_Joes_smoker__69__Walmart_YMMV/20%Monthly2019-01-25 02:14
http://www.hotnewdeal.com/2019/01/25/280352_TaoTronics_Gaming_Headset_with_Noise_Isolating_Mic/20%Monthly2019-01-25 01:17
http://www.hotnewdeal.com/2019/01/25/280350_Shark_Navigator_Professional_LiftAway_Upright_Vac/20%Monthly2019-01-25 00:23
http://www.hotnewdeal.com/2019/01/25/280349_Anker_15W_Dual_USB_Solar_Charger_PowerPort_Solar_/20%Monthly2019-01-25 00:05
http://www.hotnewdeal.com/2019/01/24/280348_KNex_Thrill_Rides_7_YMMV/20%Monthly2019-01-24 23:48
http://www.hotnewdeal.com/2019/01/24/280347_Valkyria_Chronicles_4_Launch_Edition_PS4_2272/20%Monthly2019-01-24 22:31
http://www.hotnewdeal.com/2019/01/24/280346_Harbor_Freight_Coupon_Any_Single_Item_Under_10_3/20%Monthly2019-01-24 22:31
http://www.hotnewdeal.com/2019/01/24/280345_Crayola_Creative_Fun_Double_EaselYMMV_9/20%Monthly2019-01-24 22:31
http://www.hotnewdeal.com/2019/01/24/280343_Free_Box_of_Cusa_Tea_Coupon_up_to_10_value__Sp/20%Monthly2019-01-24 21:36
http://www.hotnewdeal.com/2019/01/24/280342_Hammermill_Copy_Paper_85x11In_20_lb_92_Bright/20%Monthly2019-01-24 21:25
http://www.hotnewdeal.com/2019/01/24/280341_Echo_Dot_Kids_Edition__Buy_1_Get_1_FREE_6999/20%Monthly2019-01-24 21:17
http://www.hotnewdeal.com/2019/01/24/280340_Anker_SoundBuds_Curve_Wireless_Headphones_1799/20%Monthly2019-01-24 21:17
http://www.hotnewdeal.com/2019/01/24/280338_Samsung__Gear_Sport_Smartwatch_43mm__Black_or_Bl/20%Monthly2019-01-24 20:55
http://www.hotnewdeal.com/2019/01/24/280337_LC_Lauren_Conrad_Womens_Leggings_699__Free_Shi/20%Monthly2019-01-24 20:55
http://www.hotnewdeal.com/2019/01/24/280336_Ravensburger_Disney_Puzzle_40320_Pieces_27595/20%Monthly2019-01-24 20:37
http://www.hotnewdeal.com/2019/01/24/280335_Blackstone_15_Piece_Griddle_Kit_Walmart_BM_YMMV_/20%Monthly2019-01-24 20:37
http://www.hotnewdeal.com/2019/01/24/280334_Reebok_Mens_Print_Run_Ultraknit_Running_Shoes_29/20%Monthly2019-01-24 20:26
http://www.hotnewdeal.com/2019/01/24/280333_Corsair_Crystal_280X_RGB_White__100_AR_20_at_/20%Monthly2019-01-24 20:19
http://www.hotnewdeal.com/2019/01/24/280332_Chromecast_audio_15_Google_Store/20%Monthly2019-01-24 20:13
http://www.hotnewdeal.com/2019/01/24/280330_AUTOVOX_W1_Wireless_Backup_Camera_Kit_43_LCD_Mo/20%Monthly2019-01-24 20:13
http://www.hotnewdeal.com/2019/01/24/280329_HR_Block_Tax_Software_Deluxe__State_2018_with_5/20%Monthly2019-01-24 19:40
http://www.hotnewdeal.com/2019/01/24/280328_Vera_Wang_Embrace_Body_Mist_for_Women_Green_Tea_an/20%Monthly2019-01-24 19:32
http://www.hotnewdeal.com/2019/01/24/280327_ASUS_AC2900_RTAC86U_WiFi_Dualband_Gigabit_Wirel/20%Monthly2019-01-24 19:12
http://www.hotnewdeal.com/2019/01/24/280326_16GB_GSKILL_Ripjaws_DDR4_2400_Laptop_RAM_Module_/20%Monthly2019-01-24 19:07
http://www.hotnewdeal.com/2019/01/24/280325_J_Crew_Factory_Stacking_Discounts_60_Off_Clearan/20%Monthly2019-01-24 18:43
http://www.hotnewdeal.com/2019/01/24/280324_AAFES_Military_only_Florsheim_Mens_Navigator_Pl/20%Monthly2019-01-24 18:43
http://www.hotnewdeal.com/2019/01/24/280323_Vega_1_Sample_sale__Free_Shaker_Cup_995_value/20%Monthly2019-01-24 18:43
http://www.hotnewdeal.com/2019/01/24/280322_Insignia_Charge_Station_for_New_Nintendo_3DS_XL__/20%Monthly2019-01-24 18:43
http://www.hotnewdeal.com/2019/01/24/280321_Lenovo_330S_Laptop_Intel_Core_i58250U_156_108/20%Monthly2019-01-24 18:20
http://www.hotnewdeal.com/2019/01/24/280320_256GB_Apple_iPad_Pro_105_WiFi_Tablet_2017_Model/20%Monthly2019-01-24 18:06
http://www.hotnewdeal.com/2019/01/24/280318_Rachael_Rays_16Piece_Classic_Brights_Porcelain_E/20%Monthly2019-01-24 17:47
http://www.hotnewdeal.com/2019/01/24/280317_Reebok_Womens_YourFlex_Trainette_10_Training_Shoe/20%Monthly2019-01-24 17:47
http://www.hotnewdeal.com/2019/01/24/280316_GSkill_laptop_memory_RAM_on_sale_at_Neweggcom_8g/20%Monthly2019-01-24 17:47
http://www.hotnewdeal.com/2019/01/24/280315_MSI_Radeon_RX_VEGA_64_8GB_Video_Card__3_AMD_game/20%Monthly2019-01-24 17:47
http://www.hotnewdeal.com/2019/01/24/280314_Large_Flambeau_Buck_Deer_DecoyYard_Decor_9498_/20%Monthly2019-01-24 17:32
http://www.hotnewdeal.com/2019/01/24/280313_8x8_photo_book_with_hard_cover_and_91_pages__ship/20%Monthly2019-01-24 17:13
http://www.hotnewdeal.com/2019/01/24/280312_27_LG_27MK400HB_1080p_FreeSync_LED_Monitor_119_/20%Monthly2019-01-24 17:07
http://www.hotnewdeal.com/2019/01/24/280311_RiteAidcom_30_Off__5_Off_25_Coupon__Free_SH/20%Monthly2019-01-24 16:52
http://www.hotnewdeal.com/2019/01/24/280310_Wicked_WICWI3352_Fang_InEar_Headphones_BlueAqu/20%Monthly2019-01-24 16:30
http://www.hotnewdeal.com/2019/01/24/280309_Tucson_AZ_to_Seattle_or_Vice_Versa_127_RT_Nonstop/20%Monthly2019-01-24 16:29
http://www.hotnewdeal.com/2019/01/24/280308_Cellucor_C4_Original_Pre_Workout_Powder_Energy_Dri/20%Monthly2019-01-24 16:29
http://www.hotnewdeal.com/2019/01/24/280307_Insignia__50_Class__LED__2160p__Smart__4K_U/20%Monthly2019-01-24 16:20
http://www.hotnewdeal.com/2019/01/24/280306_Spalding_Official_Size_NBA_Velocity_Premium_Compos/20%Monthly2019-01-24 16:14
http://www.hotnewdeal.com/2019/01/24/280305_Kingston_120GB_SSD_1999_240_2999_A400_25_SA/20%Monthly2019-01-24 16:14
http://www.hotnewdeal.com/2019/01/24/280304_Weber_Genesis_II_E310_Gas_Grill_and_other_models/20%Monthly2019-01-24 16:05
http://www.hotnewdeal.com/2019/01/24/280303_Compustar__2Way_Remote_Start_System_CS4905SKIT_/20%Monthly2019-01-24 16:05
http://www.hotnewdeal.com/2019/01/24/280302_Vega_Sport_Protein_Powder_Chocolate_45_Servings_/20%Monthly2019-01-24 16:05
http://www.hotnewdeal.com/2019/01/24/280301_Good_Smile_Nendoroid_Figures_The_Legend_of_Zelda_/20%Monthly2019-01-24 16:05
http://www.hotnewdeal.com/2019/01/24/280300_Ninja_6Quart_2In1_Stove_Top__Slow_Cooker_in_B/20%Monthly2019-01-24 15:55
http://www.hotnewdeal.com/2019/01/24/280299_10_PSN_US_region_credit_for_7/20%Monthly2019-01-24 15:45
http://www.hotnewdeal.com/2019/01/24/280298_Raunchy_Digital_HD_Movies_Beverly_Hills_Cop_Easy/20%Monthly2019-01-24 15:45
http://www.hotnewdeal.com/2019/01/24/280297_Sideclick_Universal_Remote_Attachment_for_Amazon_F/20%Monthly2019-01-24 15:45
http://www.hotnewdeal.com/2019/01/24/280296_4Count_Quaker_Muesli_Raisin_Date_Almond_1019_/20%Monthly2019-01-24 15:29
http://www.hotnewdeal.com/2019/01/24/280295_32GB_4x_8_GSKILL_TridentZ_Series_DDR4_3333_Desk/20%Monthly2019-01-24 15:29
http://www.hotnewdeal.com/2019/01/24/280294_Sony_A8F_Series_65_OLED_TV_XBR65A8F_2299/20%Monthly2019-01-24 15:15
http://www.hotnewdeal.com/2019/01/24/280293_Acer_ED7_34_Ultrawide_Curved_LED_Monitor_with_Fre/20%Monthly2019-01-24 15:15
http://www.hotnewdeal.com/2019/01/24/280292_Old_Navy_Toddler_Boy_LS_My_Dads_A_Blast_Tee_1/20%Monthly2019-01-24 15:15
http://www.hotnewdeal.com/2019/01/24/280291_Anki_Cozmo_Toy_Coding_Robot_Collectors_Edition_Li/20%Monthly2019-01-24 14:55
http://www.hotnewdeal.com/2019/01/24/280290_999_Blue_Diamond_Almonds_Whole_Natural_15_Oun/20%Monthly2019-01-24 14:47
http://www.hotnewdeal.com/2019/01/24/280289_Victorinox_SwissTool_X_w_Nylon_Pouch_8999_Free/20%Monthly2019-01-24 14:45
http://www.hotnewdeal.com/2019/01/24/280288_Starbucks_Stores_Frappuccino_or_Espresso_drinks_/20%Monthly2019-01-24 14:44
http://www.hotnewdeal.com/2019/01/24/280287_Grateful_Dead_So_Glad_You_Made_it_Limited_Editio/20%Monthly2019-01-24 14:38
http://www.hotnewdeal.com/2019/01/24/280286_TREX_Packaging_Tape_4_pack_522__Walmart_online/20%Monthly2019-01-24 14:38
http://www.hotnewdeal.com/2019/01/24/280285_Kids_under_14_fly_for_free__frontier_airlines/20%Monthly2019-01-24 14:38
http://www.hotnewdeal.com/2019/01/24/280284_Cinderella_Wishes_Thomas_Kinkade_Disney_Jigsaw_Puz/20%Monthly2019-01-24 14:38
http://www.hotnewdeal.com/2019/01/24/280283_La_Crosse_Technology_Atomic_Analog_Wall_Clock_10/20%Monthly2019-01-24 14:38
http://www.hotnewdeal.com/2019/01/24/280282_Adidas_ultraboost_100/20%Monthly2019-01-24 14:31
http://www.hotnewdeal.com/2019/01/24/280281_ROCCAT_KONE_Pure_OWLEye_Optical_RGB_Gaming_Mouse_/20%Monthly2019-01-24 14:31
http://www.hotnewdeal.com/2019/01/24/280280_6_pack_of_10w30_racing_oil_Valvoline_1211/20%Monthly2019-01-24 14:04
http://www.hotnewdeal.com/2019/01/24/280279_Kitchenaid_Refurbished_Pro_600_Series_6_Quart_Bow/20%Monthly2019-01-24 14:04
http://www.hotnewdeal.com/2019/01/24/280278_BESTEK_2in1_LED_Clamp_Desk_Lamp_for_1199__Det/20%Monthly2019-01-24 13:54
http://www.hotnewdeal.com/2019/01/24/280277_Sony_WH1000XM3_Bluetooth_Wireless_Noise_Canceling_/20%Monthly2019-01-24 13:44
http://www.hotnewdeal.com/2019/01/24/280276_Team_TForce_Vulcan_16GB_2_x_8GB_DDR4_3000_Deskt/20%Monthly2019-01-24 13:44
http://www.hotnewdeal.com/2019/01/24/280274_Verizon_Prepaid_7GB_Added_to_8GB_plan_free_45_wit/20%Monthly2019-01-24 13:29
http://www.hotnewdeal.com/2019/01/24/280273_Kate_Spade_Handbags_Jackson_Street_Hayley_129_J/20%Monthly2019-01-24 13:29
http://www.hotnewdeal.com/2019/01/24/280272_Dyson_V6_Animal_Pro_Cordless_Stick_Vacuum_16999_/20%Monthly2019-01-24 12:59
http://www.hotnewdeal.com/2019/01/24/280271_Intel_i58259U_NUC_Mini_Barebone_System_Tall_Case/20%Monthly2019-01-24 12:54
http://www.hotnewdeal.com/2019/01/24/280270_120GB_SSD_Team_Group_L5_20_1999/20%Monthly2019-01-24 12:54
http://www.hotnewdeal.com/2019/01/24/280269_VIZIO_80_Class_XLED_4K_Ultra_HD_SmartCast_Home_Th/20%Monthly2019-01-24 12:54
http://www.hotnewdeal.com/2019/01/24/280268_Adidas_Womens_Pureboost_Go_Running_Shoe_For_412/20%Monthly2019-01-24 12:54
http://www.hotnewdeal.com/2019/01/24/280267_Toshiba_43_LED_1080p_HDTV__Fire_TV_Edition_179/20%Monthly2019-01-24 12:36
http://www.hotnewdeal.com/2019/01/24/280266_New_Cuisinart_DBM8_Supreme_Grind_Automatic_Burr_M/20%Monthly2019-01-24 12:29
http://www.hotnewdeal.com/2019/01/24/280265_Retroflag_NESPI_Case_for_Raspberry_Pi_3__2_and_B/20%Monthly2019-01-24 12:04
http://www.hotnewdeal.com/2019/01/24/280264_Xiaomi_70_Minutes_Smart_WiFi_Car_DVR_2850_AC__G/20%Monthly2019-01-24 12:04
http://www.hotnewdeal.com/2019/01/24/280263_LUENX_Aviator_Sunglasses_Polarized_Men_UV_400_Pro/20%Monthly2019-01-24 12:03
http://www.hotnewdeal.com/2019/01/24/280262_New_Balance_247_Luxe_or_Classic_Shoes_MensWomens/20%Monthly2019-01-24 12:03
http://www.hotnewdeal.com/2019/01/24/280261_Addon_Item_Crayola_Bunny_Travel_Lap_Desk_w_Stor/20%Monthly2019-01-24 11:55
http://www.hotnewdeal.com/2019/01/24/280260_Audible__Daily_Deal_Rewind_Sale__Most_audiobooks/20%Monthly2019-01-24 11:45
http://www.hotnewdeal.com/2019/01/24/280259_Sharp_40_LED_1080p_HDTV_Roku_TV_150__Best_Buy/20%Monthly2019-01-24 11:45
http://www.hotnewdeal.com/2019/01/24/280258_AUKEY_10Port_Powered_USB_Hub_7_USB_30_Data_Port/20%Monthly2019-01-24 11:45
http://www.hotnewdeal.com/2019/01/24/280257_Vena_Cases_for_iPhone_XS_Max_iPhone_XR_iPhone_XS/20%Monthly2019-01-24 11:31
http://www.hotnewdeal.com/2019/01/24/280256_Digital_Hanging_Luggage_Scale__Amazon_584/20%Monthly2019-01-24 11:31
http://www.hotnewdeal.com/2019/01/24/280255_KidsWifi_DualBand_WiFi_Online_Protection_V2__In/20%Monthly2019-01-24 11:15
http://www.hotnewdeal.com/2019/01/24/280254_Insignia_MultiFunction_Stainless_Steel_Pressure_C/20%Monthly2019-01-24 11:14
http://www.hotnewdeal.com/2019/01/24/280253_Carnival_Games_PS4XBox_OneSwitch_25__Free_Sh/20%Monthly2019-01-24 11:14
http://www.hotnewdeal.com/2019/01/24/280252_Acer_Swift_3_SF31541GR6MP_156_Full_HD_IPS_Ry/20%Monthly2019-01-24 10:40
http://www.hotnewdeal.com/2019/01/24/280251_AMD_RYZEN_5_2600_CPU__ASRock_X370_Killer_SLIac_A/20%Monthly2019-01-24 10:40
http://www.hotnewdeal.com/2019/01/24/280250_TPLink_OnHub_AC1900_WiFi_Router_Black__Free_5/20%Monthly2019-01-24 10:39
http://www.hotnewdeal.com/2019/01/24/280249_Creative_Tree_Man_Flower_Pot_Doll_Model_Desk_Ornam/20%Monthly2019-01-24 10:20
http://www.hotnewdeal.com/2019/01/24/280248_Bosch_Compact_Tough_Core18V_2Tool_18Volt_Lithium/20%Monthly2019-01-24 10:15
http://www.hotnewdeal.com/2019/01/24/280247_Melissa__Doug_Mix_n_Match_Wooden_Bear_Family_Dre/20%Monthly2019-01-24 10:15
http://www.hotnewdeal.com/2019/01/24/280246_Lightning_Deal__Amazon_Autophix_Code_Reader_OM1/20%Monthly2019-01-24 10:14
http://www.hotnewdeal.com/2019/01/24/280245_Magic_Bullet_7Piece_Silver__15_in_store_picku/20%Monthly2019-01-24 10:14
http://www.hotnewdeal.com/2019/01/24/280244_Staples_Clearance_Bush_Key_West_48_W_Writing_Des/20%Monthly2019-01-24 10:02
http://www.hotnewdeal.com/2019/01/24/280243_Radio_Flyer_800X_Glide__Go_Balance_Bike_Red_349/20%Monthly2019-01-24 10:02
http://www.hotnewdeal.com/2019/01/24/280242_Square_Enix_PCDD_Games_Shadow_of_the_Tomb_Raider_/20%Monthly2019-01-24 09:50
http://www.hotnewdeal.com/2019/01/24/280241_Nerf_Rival_40_Pack_Refill_399/20%Monthly2019-01-24 09:31
http://www.hotnewdeal.com/2019/01/24/280240_65_Vizio_P65F1_for_88999_at_Costco/20%Monthly2019-01-24 09:31
http://www.hotnewdeal.com/2019/01/24/280239_Acer_Aspire_T_Desktop_Intel_Core_i38100_8GB_DDR/20%Monthly2019-01-24 09:31
http://www.hotnewdeal.com/2019/01/24/280238_12Pack_Arm__Hammer_Odor_Allergen__Pet_Dander_Co/20%Monthly2019-01-24 09:14
http://www.hotnewdeal.com/2019/01/24/280237_Cooler_Master_MasterKeys_Pro_L_RGB_Mechanical_Gami/20%Monthly2019-01-24 08:36
http://www.hotnewdeal.com/2019/01/24/280236_Kohls_Cardholders_Toddler_Girls_Boots_Jumping_B/20%Monthly2019-01-24 08:36
http://www.hotnewdeal.com/2019/01/24/280235_KICKER__DXA2501_250W_Class_D_Mono_Amplifier_with/20%Monthly2019-01-24 08:29
http://www.hotnewdeal.com/2019/01/24/280234_8Port_Ubiquiti_Networks_Gigabit_Ethernet_Switch_w/20%Monthly2019-01-24 08:22
http://www.hotnewdeal.com/2019/01/24/280233_Insignia_1100W_4Slice_Toaster_Oven_Stainless_Ste/20%Monthly2019-01-24 08:22
http://www.hotnewdeal.com/2019/01/24/280232_Intex_Twin_875_Classic_Downy_Inflatable_Airbed_M/20%Monthly2019-01-24 08:16
http://www.hotnewdeal.com/2019/01/24/280231_500GB_Crucial_MX500_m2_SSD_55_AC_Newegg_1TB_Cru/20%Monthly2019-01-24 08:15
http://www.hotnewdeal.com/2019/01/24/280230_Aspen_Pet_Lebistro_Dog_Water_Dispenser_4_Gallons_/20%Monthly2019-01-24 08:03
http://www.hotnewdeal.com/2019/01/24/280229_ASUS_VivoBook_156_Laptop_i78550U_8GB_DDR4_1T/20%Monthly2019-01-24 08:02
http://www.hotnewdeal.com/2019/01/24/280228_Hitman_Game_of_the_Year_Edition_PC_Digital_Downlo/20%Monthly2019-01-24 07:56
http://www.hotnewdeal.com/2019/01/24/280227_The_LEGO_Movie_2_The_Second_Part_Early_Access_Scr/20%Monthly2019-01-24 07:29
http://www.hotnewdeal.com/2019/01/24/280224_Alaskan_MarkIV_Chainsaw_Mill__36__Granberg_7/20%Monthly2019-01-24 07:02
http://www.hotnewdeal.com/2019/01/24/280223_Dean_Paramount_Maple_FB_in_Tobacco_Sunburst_at_Gui/20%Monthly2019-01-24 07:01
http://www.hotnewdeal.com/2019/01/24/280222_Avera_49EQX20_49_4K_Ultra_HD_LED_TV_Black__Neweg/20%Monthly2019-01-24 07:01
http://www.hotnewdeal.com/2019/01/24/280221_HyperX_Cloud_II_Pro_Wired_Gaming_Headset_Red_70/20%Monthly2019-01-24 07:01
http://www.hotnewdeal.com/2019/01/24/280220_SAVE_17_OFF_NOW__Squishy_Slow_Rebound_Unicorn_Do/20%Monthly2019-01-24 05:23
http://www.hotnewdeal.com/2019/01/24/280219_TMobile_WiFi_CellSpot_Router_TMAC1900__Certi/20%Monthly2019-01-24 04:48
http://www.hotnewdeal.com/2019/01/24/280218_Letsfit_110lbs_Digital_Luggage_Scale_with_Backlit_/20%Monthly2019-01-24 04:48
http://www.hotnewdeal.com/2019/01/24/280217_Star_Wars_Battlefront_2_for_PC_449__tax_Origin_r/20%Monthly2019-01-24 03:41
http://www.hotnewdeal.com/2019/01/24/280216_Samsung_Notebook_5_Laptop_156_1080p_AMD_Ryzen_/20%Monthly2019-01-24 03:04
http://www.hotnewdeal.com/2019/01/24/280215_EveryDrop_Water_Dispenser_EDRD101G1W_30__free_/20%Monthly2019-01-24 02:32
http://www.hotnewdeal.com/2019/01/24/280214_105_iPad_Pro_256GB__54999_at_Best_Buy/20%Monthly2019-01-24 02:26
http://www.hotnewdeal.com/2019/01/24/280213_USB_TYPE_C_CABLE_QUICK_CHARGE_QC30_199_focovid/20%Monthly2019-01-24 02:25
http://www.hotnewdeal.com/2019/01/24/280211_65_Vizio_P65F1_PSeries_4K_UHD_HDR_Smart_LED_HDT/20%Monthly2019-01-24 02:04
http://www.hotnewdeal.com/2019/01/24/280210_58_Sharp_LC58Q7370U_4K_UHD_HDR_Roku_Smart_LED_HD/20%Monthly2019-01-24 01:43
http://www.hotnewdeal.com/2019/01/24/280209_Ecco_Mens_Shoes_Flash_Sale_ECCO_Mens_Soft_7_Prem/20%Monthly2019-01-24 01:43
http://www.hotnewdeal.com/2019/01/24/280208_Intuit_QuickBooks_Pro_2019_with_Enhanced_Payroll_/20%Monthly2019-01-24 01:33
http://www.hotnewdeal.com/2019/01/24/280207_Sony_Gold_Wireless_Stereo_Headset_for_PlayStation_/20%Monthly2019-01-24 01:16
http://www.hotnewdeal.com/2019/01/24/280206_100Count_Caza_Trail_Coffee_Single_Serve_KCups_K/20%Monthly2019-01-24 00:00
http://www.hotnewdeal.com/2019/01/24/280205_Apple_AirPods_COSTCO_Online_Member_Only_13999/20%Monthly2019-01-24 00:00
http://www.hotnewdeal.com/2019/01/23/280204_1_for_a_Year_of_Web_Hosting/20%Monthly2019-01-23 23:12
http://www.hotnewdeal.com/2019/01/23/280203_Get_a_15_Bonus_when_you_purchase_any_New_Serve_Ca/20%Monthly2019-01-23 23:00
http://www.hotnewdeal.com/2019/01/23/280202_Hotstar_USA_Annual_Subscription_effectively_at_30/20%Monthly2019-01-23 22:52
http://www.hotnewdeal.com/2019/01/23/280201_Set_of_2_IK_Multimedia_iLoud_3_Micro_Monitor_in_W/20%Monthly2019-01-23 22:44
http://www.hotnewdeal.com/2019/01/23/280200_500GB_Samsung_860_EVO_SSD_67__free_sh/20%Monthly2019-01-23 22:01
http://www.hotnewdeal.com/2019/01/23/280199_Atari_Legends_Flashback_Deluxe_Game_Console_with_B/20%Monthly2019-01-23 22:01
http://www.hotnewdeal.com/2019/01/23/280198_HyperX__Cloud_Stinger_Wired_Stereo_Gaming_Headset/20%Monthly2019-01-23 22:01
http://www.hotnewdeal.com/2019/01/23/280197_Free_10_Target_Gift_Card_w_25_ReadyToDrink_Be/20%Monthly2019-01-23 21:56
http://www.hotnewdeal.com/2019/01/23/280196_Lenovo_IdeaPad_530S_Laptop_14_Ryzen_5_8GB_Memor/20%Monthly2019-01-23 21:56
http://www.hotnewdeal.com/2019/01/23/280195_Freeup_Mobile__Free_Plan_Upgraded_to_1000_TALK/20%Monthly2019-01-23 21:56
http://www.hotnewdeal.com/2019/01/23/280194_Ubiquiti_UAPACLITEUS_DualRadio_Access_Points_/20%Monthly2019-01-23 21:37
http://www.hotnewdeal.com/2019/01/23/280193_Aukey_Wireless_Ergonomic_Sculpted_Optical_Gaming_M/20%Monthly2019-01-23 21:36
http://www.hotnewdeal.com/2019/01/23/280192_Universal_World_Travel_Adapter_with_24A_Dual_USB_/20%Monthly2019-01-23 21:36
http://www.hotnewdeal.com/2019/01/23/280191_ONKYO_Smart_Speaker_G3_with_Google_Assistant__59/20%Monthly2019-01-23 21:21
http://www.hotnewdeal.com/2019/01/23/280190_Shark_Navigator_LiftAway_Pet_Vacuum_40__Walmart/20%Monthly2019-01-23 21:00
http://www.hotnewdeal.com/2019/01/23/280189_Hot_Tub_High_Dive_Game_With_Bubbles_For_Kids_Board/20%Monthly2019-01-23 20:52
http://www.hotnewdeal.com/2019/01/23/280188_Syntus_63_in_1_Precision_Screwdriver_Set_with_57_B/20%Monthly2019-01-23 20:52
http://www.hotnewdeal.com/2019/01/23/280187_Patagonia_Powder_Town_Beanie/20%Monthly2019-01-23 20:42
http://www.hotnewdeal.com/2019/01/23/280186_Muscle_Rack_4_cu_ft_20_in_W_Plastic_Garden_Dump/20%Monthly2019-01-23 20:36
http://www.hotnewdeal.com/2019/01/23/280184_VIZIO_65_Class_4K_Ultra_HD_2160P_HDR_Smart_LED_/20%Monthly2019-01-23 20:10
http://www.hotnewdeal.com/2019/01/23/280182_XBOX_Live_12_Month_Gold_Subscription_Membership_Ca/20%Monthly2019-01-23 19:42
http://www.hotnewdeal.com/2019/01/23/280181_Perfect_Refrigerated_Protein_Bar_BOGO__Publix__O/20%Monthly2019-01-23 19:27
http://www.hotnewdeal.com/2019/01/23/280180_Need_For_Speed_Payback_Xbox_One__Microsoft_Store_/20%Monthly2019-01-23 18:59
http://www.hotnewdeal.com/2019/01/23/280179_BESTBuy_Sony__XB40_Portable_Bluetooth_Speaker_/20%Monthly2019-01-23 18:37
http://www.hotnewdeal.com/2019/01/23/280178_24_Rx_Bars_for_2687_w_20_coupon_and_SS/20%Monthly2019-01-23 18:22
http://www.hotnewdeal.com/2019/01/23/280175_Nike_Skylon_Ace_XV_or_Ignition_Polarized_Sunglasse/20%Monthly2019-01-23 18:12
http://www.hotnewdeal.com/2019/01/23/280174_Monoprice_Titan_Series_Tilt_TV_Wall_Mount_Bracket_/20%Monthly2019-01-23 17:59
http://www.hotnewdeal.com/2019/01/23/280173_Haz_Nomz_Bento_Lunch_Box_Set_for_789_With_Coupon/20%Monthly2019-01-23 17:43
http://www.hotnewdeal.com/2019/01/23/280172_LEGO_Clearance_Walmart_InStore_Only_YMMV_130/20%Monthly2019-01-23 17:43
http://www.hotnewdeal.com/2019/01/23/280171_Silo_SL50V2_50_Class_495_Actual_Diagonal_4K_UHD/20%Monthly2019-01-23 17:42
http://www.hotnewdeal.com/2019/01/23/280170_Cooler_Master_MasterBox_MB500_TUF_Tempered_Glass_m/20%Monthly2019-01-23 17:42
http://www.hotnewdeal.com/2019/01/23/280169_Google_Chromecast_3rd_Generation_28/20%Monthly2019-01-23 17:29
http://www.hotnewdeal.com/2019/01/23/280168_Dell_Alienware_AW568_RGB_Mechanical_Keyboard__33/20%Monthly2019-01-23 17:29
http://www.hotnewdeal.com/2019/01/23/280166_Regal_Cinemas_2019_Best_Picture_Film_Festival_7_M/20%Monthly2019-01-23 17:15
http://www.hotnewdeal.com/2019/01/23/280164_Adidas_Swimwear_15_inc_shipping/20%Monthly2019-01-23 16:59
http://www.hotnewdeal.com/2019/01/23/280163_Groupon_is_offering_extra_20_off/20%Monthly2019-01-23 16:59
http://www.hotnewdeal.com/2019/01/23/280161_Pioneer_VSX1131_72Channel_AV_Receiver_with_MCAC/20%Monthly2019-01-23 16:38
http://www.hotnewdeal.com/2019/01/23/280160_Salad_Spinner_w_Mandolin_Slicer__Chopper_899_/20%Monthly2019-01-23 16:23
http://www.hotnewdeal.com/2019/01/23/280159_Free_Autoweek_Magazine_1Year_Print_Subscription/20%Monthly2019-01-23 16:13
http://www.hotnewdeal.com/2019/01/23/280158_Robb_Report_Magazine_1_year12_issues_for_5/20%Monthly2019-01-23 16:13
http://www.hotnewdeal.com/2019/01/23/280157_Apple_TV_4K_32GB_Black_and_64GB_Black_GameStop_Pr/20%Monthly2019-01-23 16:01
http://www.hotnewdeal.com/2019/01/23/280155_Samsung_QN82Q6FN_Flat_82_QLED_4K_UHD_6_Series_Sma/20%Monthly2019-01-23 16:01
http://www.hotnewdeal.com/2019/01/23/280154_Nalgene_32oz_Wide_Mouth_and_12oz_OTF_Marvel_Water_/20%Monthly2019-01-23 16:01
http://www.hotnewdeal.com/2019/01/23/280153_Amazon_amp_Discover_Card_Members_Pay_w_Points_/20%Monthly2019-01-23 15:44
http://www.hotnewdeal.com/2019/01/23/280152_Vornado_VH2_Compact_Portable_Whole_Room_Electric_/20%Monthly2019-01-23 15:44
http://www.hotnewdeal.com/2019/01/23/280151_Lego_Worlds_Nintendo_Switch__Walmart_in_store_YMM/20%Monthly2019-01-23 15:44
http://www.hotnewdeal.com/2019/01/23/280150_Samsung_QN55Q65FNFXZA_55quot_Class_4k_Ultra_HD_H/20%Monthly2019-01-23 15:44
http://www.hotnewdeal.com/2019/01/23/280149_IKEA_25_Off_150_Printable_Coupon_for_InStore_Pu/20%Monthly2019-01-23 15:29
http://www.hotnewdeal.com/2019/01/23/280148_RayBan_Sunglasses_via_Facebook_Marketplace_5999/20%Monthly2019-01-23 15:29
http://www.hotnewdeal.com/2019/01/23/280147_Final_Fantasy_XV_Royal_Edition_PS4XBox_One_20_/20%Monthly2019-01-23 15:29
http://www.hotnewdeal.com/2019/01/23/280146_Samsonite_FLite_GT_31_Spinner_Zipperless_Suitcas/20%Monthly2019-01-23 15:29
http://www.hotnewdeal.com/2019/01/23/280144_Zest_Energy_Tea_20_Sachet_Packs_971_w_SS/20%Monthly2019-01-23 15:28
http://www.hotnewdeal.com/2019/01/23/280143_Jamo_Studio_Series_Speakers_805_Floorstanding_Pa/20%Monthly2019-01-23 15:21
http://www.hotnewdeal.com/2019/01/23/280142_24Count_10oz_Tropicana_100_Fruit_Blend_Juice_Ap/20%Monthly2019-01-23 15:17
http://www.hotnewdeal.com/2019/01/23/280141_20Page_Shutterfly_8_x_8_Hardcover_Standard_Styl/20%Monthly2019-01-23 15:17
http://www.hotnewdeal.com/2019/01/23/280139_Dead_Cells_PS4_or_Monster_Hunter_World_PS4_or_/20%Monthly2019-01-23 15:16
http://www.hotnewdeal.com/2019/01/23/280138_ASUS_Blue_Cave_AC2600_DualBand_Wireless_Router__/20%Monthly2019-01-23 15:16
http://www.hotnewdeal.com/2019/01/23/280137_9Count_Dentyne_Ice_Sugar_Free_Gum_Peppermint_4/20%Monthly2019-01-23 14:58
http://www.hotnewdeal.com/2019/01/23/280136_Hulu_lowers_monthly_price_to_599/20%Monthly2019-01-23 14:58
http://www.hotnewdeal.com/2019/01/23/280135_Rakuten_ProCom_110K_BTU_Kerosene_Forced_Air_Heater/20%Monthly2019-01-23 14:39
http://www.hotnewdeal.com/2019/01/23/280134_SAMSUNG_970_PRO_M2_512GB_PCIe_NVMe_158_Newegg/20%Monthly2019-01-23 14:22
http://www.hotnewdeal.com/2019/01/23/280133_36W_Dual_Quick_Charge_30_Car_Charger_for_5/20%Monthly2019-01-23 14:21
http://www.hotnewdeal.com/2019/01/23/280132_40_OFF_8inch_and_12inch_Spring_Hybrid_Mattress_1/20%Monthly2019-01-23 14:19
http://www.hotnewdeal.com/2019/01/23/280130_YMMV_In_store_only_LG_75UK6190_75_4K_UHD_HDR_Sma/20%Monthly2019-01-23 13:49
http://www.hotnewdeal.com/2019/01/23/280129_Reaper_PCDD_Bundle_Payday_2_Homeworld_Remastered/20%Monthly2019-01-23 13:49
http://www.hotnewdeal.com/2019/01/23/280128_Toshiba_X300_10TB__29999_Newegg_After_Promo_Code/20%Monthly2019-01-23 13:48
http://www.hotnewdeal.com/2019/01/23/280127_FaceTory_Offer_9_Luxury_Korean_Facial_Sheet_Masks/20%Monthly2019-01-23 13:48
http://www.hotnewdeal.com/2019/01/23/280125_GorillaPod_3K_Tripod_Kit_38_off__4995/20%Monthly2019-01-23 13:40
http://www.hotnewdeal.com/2019/01/23/280124_Quest_bars_for_under_13_a_box_Ignore_the_1374/20%Monthly2019-01-23 13:11
http://www.hotnewdeal.com/2019/01/23/280122_MultimeterTACKLIFE_DM03_Auto_Ranging_Multi_Tester/20%Monthly2019-01-23 13:10
http://www.hotnewdeal.com/2019/01/23/280120_Razer_Fragfest_Deals__BlackWidow_X_Keyboard_100/20%Monthly2019-01-23 13:09
http://www.hotnewdeal.com/2019/01/23/280119_LEGO_City_Coast_Guard_4_x_4_Response_Unit_60165_Wa/20%Monthly2019-01-23 13:09
http://www.hotnewdeal.com/2019/01/23/280118_2Piece_Electric_Salt__Pepper_Mill_Set_788_w_F/20%Monthly2019-01-23 12:27
http://www.hotnewdeal.com/2019/01/23/280117_2Count_Klymit_V_Seat_1499__Free_Shipping/20%Monthly2019-01-23 12:25
http://www.hotnewdeal.com/2019/01/23/280116_Altra_Escalante_MensWomens_Running_Shoes_5999/20%Monthly2019-01-23 12:24
http://www.hotnewdeal.com/2019/01/23/280115_Commercial_Grade_Outdoor_Weatherproof_S14_LED_Stri/20%Monthly2019-01-23 12:24
http://www.hotnewdeal.com/2019/01/23/280114_PS4_Controller_Charging_Station_Dual_USB_649__F/20%Monthly2019-01-23 12:23
http://www.hotnewdeal.com/2019/01/23/280112_Yost_LV4_Home_Vise__1999/20%Monthly2019-01-23 12:22
http://www.hotnewdeal.com/2019/01/23/280111_10_lbs_Dymatize_Elite_100_Whey_Protein_Powder133/20%Monthly2019-01-23 12:21
http://www.hotnewdeal.com/2019/01/23/280110_TPLink_PoE_Switch_Gigabit_8_Port_TLSG1008P_for/20%Monthly2019-01-23 12:20
http://www.hotnewdeal.com/2019/01/23/280109_Cricut_Limited_Edition_Wisteria_Lane_Material_Kit_/20%Monthly2019-01-23 12:19
http://www.hotnewdeal.com/2019/01/23/280108_Executive_Office_Chair_Ergonomic_Chair_Computer_De/20%Monthly2019-01-23 11:37
http://www.hotnewdeal.com/2019/01/23/280107_PayPal_Subway_5_off_5/20%Monthly2019-01-23 11:36
http://www.hotnewdeal.com/2019/01/23/280106_Chase_Pay_App_Order_Ahead_or_InStore_w_QR_Code/20%Monthly2019-01-23 11:36
http://www.hotnewdeal.com/2019/01/23/280105_HiFiMan_sale_Sundara_Planar_Magnetic_Headphones_/20%Monthly2019-01-23 11:35
http://www.hotnewdeal.com/2019/01/23/280104_The_Witcher_3_Wild_Hunt_Game_of_the_Year_Edition/20%Monthly2019-01-23 11:14
http://www.hotnewdeal.com/2019/01/23/280102_Nikon_D3400_Digital_SLR_Camera_with_242_Megapixel/20%Monthly2019-01-23 10:53
http://www.hotnewdeal.com/2019/01/23/280101_Monster_retro_Bluetooth_speaker_2988_Sams_club_B/20%Monthly2019-01-23 10:52
http://www.hotnewdeal.com/2019/01/23/280100_Echo_Dot_2099_and_more_Prime_Student_Deal__YM/20%Monthly2019-01-23 10:51
http://www.hotnewdeal.com/2019/01/23/280099_QSEE_4MP_Analog_Bullet_Security_Camera_w_Night_V/20%Monthly2019-01-23 10:50
http://www.hotnewdeal.com/2019/01/23/280098_RAVPower_Sony_Camera_Battery_Dual_Charger_Set_w_2/20%Monthly2019-01-23 10:49
http://www.hotnewdeal.com/2019/01/23/280097_DJI_Spark_Drone_with_Remote_and_Extra_Battery_Bund/20%Monthly2019-01-23 10:06
http://www.hotnewdeal.com/2019/01/23/280096_Kingdom_Come_Deliverance_20_or_less_PS4__XBox_O/20%Monthly2019-01-23 09:31
http://www.hotnewdeal.com/2019/01/23/280095_Thule_Gauntlet_30_15_MacBook_Pro_Sleeve_Storm_G/20%Monthly2019-01-23 09:31
http://www.hotnewdeal.com/2019/01/23/280094_Cottonelle_FreshCare_Flushable_Wipes_for_Adults_3/20%Monthly2019-01-23 09:31
http://www.hotnewdeal.com/2019/01/23/280093_TMobile_Customers_0128_2_Panera_Bread_egift_/20%Monthly2019-01-23 09:08
http://www.hotnewdeal.com/2019/01/23/280092_Prince__Spring_Ultra_Plates__300_Count_6875_Pr/20%Monthly2019-01-23 09:08
http://www.hotnewdeal.com/2019/01/23/280091_Yeti_Blue_Microphone_w_Assassins_Creed_Origins_/20%Monthly2019-01-23 08:58
http://www.hotnewdeal.com/2019/01/23/280089_AMD_YD200GC6FBBOX_Athlon_200GE_Dualcore_2_Core_/20%Monthly2019-01-23 08:27
http://www.hotnewdeal.com/2019/01/23/280088_Optimum_Nutrition_On_Whey__Oats_Protein_Powder_B/20%Monthly2019-01-23 08:27
http://www.hotnewdeal.com/2019/01/23/280087_Karcher_K1710_Cube_1700PSI_12_GPM_Cold_Water_Ele/20%Monthly2019-01-23 07:59
http://www.hotnewdeal.com/2019/01/23/280086_Cuisinart_DBM8FR_Supreme_Grind_Automatic_Burr_Mil/20%Monthly2019-01-23 07:45
http://www.hotnewdeal.com/2019/01/23/280085_Sapphire_Radeon_Nitro_RX_580_8GB_Graphics_Card_1/20%Monthly2019-01-23 07:45
http://www.hotnewdeal.com/2019/01/23/280084_Ryobi_Cordless_Stick_Vac_Tool_Only_129_Ryobi_C/20%Monthly2019-01-23 07:27
http://www.hotnewdeal.com/2019/01/23/280083_16GB_2x8GB_Corsair_Vengeance_LPX_DDR4_3000_PC4_/20%Monthly2019-01-23 06:38
http://www.hotnewdeal.com/2019/01/23/280082_Lenovo_Legion_C730_Mini_Gaming_Cube_Desktop_i999/20%Monthly2019-01-23 06:38
http://www.hotnewdeal.com/2019/01/23/280081_Toshiba_43inch_4K_Ultra_HD_Smart_LED_TV_HDR__Fir/20%Monthly2019-01-23 06:37
http://www.hotnewdeal.com/2019/01/23/280080_The_Many_Sides_of_Jane_Season_1_Digital_HD_for_/20%Monthly2019-01-23 06:13
http://www.hotnewdeal.com/2019/01/23/280079_Lenovocom_has_Lenovo_Legion_Y530_156_FHD_Laptop/20%Monthly2019-01-23 06:00
http://www.hotnewdeal.com/2019/01/23/280078_Burts_Bees_100_Natural_Lemon_and_Vitamin_E_Body_/20%Monthly2019-01-23 02:43
http://www.hotnewdeal.com/2019/01/23/280077_Automotive_Diagnostic_Scan_Tool_Fault_Code_Reader_/20%Monthly2019-01-23 02:43
http://www.hotnewdeal.com/2019/01/23/280076_Samsung_SmartThings_ADT_Wireless_Smart_Door_and_Wi/20%Monthly2019-01-23 02:00
http://www.hotnewdeal.com/2019/01/23/280075_Nike_Coupon_20_off_Sale_Items__free_shipping/20%Monthly2019-01-23 02:00
http://www.hotnewdeal.com/2019/01/23/280074_Starlink_Battle_for_Atlas_Starter_Pack_Xbox_OneP/20%Monthly2019-01-23 01:36
http://www.hotnewdeal.com/2019/01/23/280073_Call_of_Duty_Black_Ops_III_Zombies_Chronicles_Edi/20%Monthly2019-01-23 01:36
http://www.hotnewdeal.com/2019/01/23/280072_15_FisherPrice_Bouncer_with_Builtin_Pump_YMMV/20%Monthly2019-01-23 01:17
http://www.hotnewdeal.com/2019/01/22/280071_3Boxes_68Ct_Kleenex_Professional_AntiViral_Faci/20%Monthly2019-01-22 23:43
http://www.hotnewdeal.com/2019/01/22/280068_Bosch_Blaze_Pro_Laser_Distance_Measure_165Feet_G/20%Monthly2019-01-22 23:28
http://www.hotnewdeal.com/2019/01/22/280067_2_Google_Home_Minis__6_Smart_LED_Bulbs_60/20%Monthly2019-01-22 23:11
http://www.hotnewdeal.com/2019/01/22/280066_Rakuten_Office_Items_at_Rakuten_Extra_20_off_free/20%Monthly2019-01-22 22:59
http://www.hotnewdeal.com/2019/01/22/280065_Sears_Buy_One_Get_One_50_off_Mens_Levis_Jeans/20%Monthly2019-01-22 22:53
http://www.hotnewdeal.com/2019/01/22/280063_Prime_Members_20Pack_of_4Oz_Dove_Men_Body__Fac/20%Monthly2019-01-22 22:30
http://www.hotnewdeal.com/2019/01/22/280062_48_HOURS_ONLY_30_off_Home_Chef__3000_SB__Swag/20%Monthly2019-01-22 22:05
http://www.hotnewdeal.com/2019/01/22/280061_Plantar_Fasciitis_Socks_Sleeves__Arch_Support_6/20%Monthly2019-01-22 21:56
http://www.hotnewdeal.com/2019/01/22/280060_Rampage_Rear_Bumper_Double_Tube_for_Jeep_Wrangler_/20%Monthly2019-01-22 21:12
http://www.hotnewdeal.com/2019/01/22/280059_Inspiron_15_5000_5570_Tech_Specs_350/20%Monthly2019-01-22 21:12
http://www.hotnewdeal.com/2019/01/22/280057_San_Francisco_to_Zurich_Switzerland_324_RT_Airfar/20%Monthly2019-01-22 21:01
http://www.hotnewdeal.com/2019/01/22/280056_Razer_DeathAdder_Expert_Ergonomic_PC_Gaming_Mouse_/20%Monthly2019-01-22 21:01
http://www.hotnewdeal.com/2019/01/22/280055_Amazon_Warehouse_Starbucks_Pike_Place_Roast_Coffe/20%Monthly2019-01-22 20:52
http://www.hotnewdeal.com/2019/01/22/280053_Amazon_Echo_Dot_3rd_Gen__2099__Belk/20%Monthly2019-01-22 20:42
http://www.hotnewdeal.com/2019/01/22/280052_Lodge_3TP2_Camp_Dutch_Oven_Tripod_435Inch_181/20%Monthly2019-01-22 20:22
http://www.hotnewdeal.com/2019/01/22/280051_65_LG_65UK7700PUD_4K_HDR_Smart_TV_699__free_sh/20%Monthly2019-01-22 20:22
http://www.hotnewdeal.com/2019/01/22/280050_Dyson_Cyclone_V10_Absolute_CopperV10_Floor_Dok_/20%Monthly2019-01-22 20:12
http://www.hotnewdeal.com/2019/01/22/280049_17_piece_Irwin_Woodboring_Drill_Bit_Set_778_YMMV/20%Monthly2019-01-22 20:03
http://www.hotnewdeal.com/2019/01/22/280048_BUSINESS_CLASS_AIRFARE_Los_Angeles_or_Washington/20%Monthly2019-01-22 20:00
http://www.hotnewdeal.com/2019/01/22/280047_VicTsing_Essential_Oils_from_699__FS/20%Monthly2019-01-22 19:43
http://www.hotnewdeal.com/2019/01/22/280046_Jack_in_the_Box_10_offno_minimum_order_from_Ube/20%Monthly2019-01-22 19:43
http://www.hotnewdeal.com/2019/01/22/280044_HooToo_USB_C_Adapter_with_100W_Type_C_Power_Delive/20%Monthly2019-01-22 19:28
http://www.hotnewdeal.com/2019/01/22/280043_EVGA_GeForce_GT_1030_SC_2GB_GDDR5_Passive_Low_Pro/20%Monthly2019-01-22 19:28
http://www.hotnewdeal.com/2019/01/22/280042_App_Store__iTunes_Gift_Cards_10_up_to_100_via_F/20%Monthly2019-01-22 18:36
http://www.hotnewdeal.com/2019/01/22/280041_Nintendo_Switch_New_Super_Mario_Bros_U_Deluxe__Su/20%Monthly2019-01-22 18:23
http://www.hotnewdeal.com/2019/01/22/280040_Up_to_50_off_select_office_furniture_at_Office_De/20%Monthly2019-01-22 18:11
http://www.hotnewdeal.com/2019/01/22/280039_UMAi_Dry_Sampler_Dry_Aging_Bags__Dry_Aging_At_Hom/20%Monthly2019-01-22 17:59
http://www.hotnewdeal.com/2019/01/22/280038_Husky_10_Gallon_Portable_Air_Storage_Tank_36_w_F/20%Monthly2019-01-22 17:59
http://www.hotnewdeal.com/2019/01/22/280037_The_Childrens_Place_Girls_Graphic_Glitter_Tees_1/20%Monthly2019-01-22 17:59
http://www.hotnewdeal.com/2019/01/22/280035_Design_House_Oslo_5_Light_44_Satin_Nickel_Vanity_/20%Monthly2019-01-22 17:43
http://www.hotnewdeal.com/2019/01/22/280034_55_TCL_55R617_4K_Roku_Smart_TV_499__free_sh_or/20%Monthly2019-01-22 17:28
http://www.hotnewdeal.com/2019/01/22/280033_10_off_Chipotle_Chick_Fil_A_Whole_Foods_Domino/20%Monthly2019-01-22 17:28
http://www.hotnewdeal.com/2019/01/22/280032_Calico_Critters_Lakeside_Lodge_Gift_Set__Walmart_/20%Monthly2019-01-22 17:27
http://www.hotnewdeal.com/2019/01/22/280031_HP_Spectre_x360_2in1_Laptop_Intel_Core_i78550U/20%Monthly2019-01-22 17:22
http://www.hotnewdeal.com/2019/01/22/280029_Bobs_Burgers_Season_1_Digital_HD_499__Amazon/20%Monthly2019-01-22 16:59
http://www.hotnewdeal.com/2019/01/22/280028_Paw_Patrol_6V_Plush_RideOn_35_WALMART_YMMV/20%Monthly2019-01-22 16:59
http://www.hotnewdeal.com/2019/01/22/280027_Melissa_and_Doug_pasta_set_5_walmart_YMMV/20%Monthly2019-01-22 16:53
http://www.hotnewdeal.com/2019/01/22/280026_Enter_3_Coke_Product_Codes_Get_a_2_Amazon_Gift_C/20%Monthly2019-01-22 16:36
http://www.hotnewdeal.com/2019/01/22/280025_BSN_protein_pre_workout_BCAA_creatine_Amazon_DE/20%Monthly2019-01-22 16:36
http://www.hotnewdeal.com/2019/01/22/280023_60Count_032oz_EmergenC_1000mg_Vitamin_C_Supple/20%Monthly2019-01-22 16:18
http://www.hotnewdeal.com/2019/01/22/280022_Wayfair_Select_5_x_8_Area_Rugs_3999_Select_8/20%Monthly2019-01-22 16:04
http://www.hotnewdeal.com/2019/01/22/280021_Woodbridge_T0001_one_piece_toilet_22274/20%Monthly2019-01-22 15:55
http://www.hotnewdeal.com/2019/01/22/280020_24Count_169oz_Fiji_Natural_Artesian_Water_1574/20%Monthly2019-01-22 15:41
http://www.hotnewdeal.com/2019/01/22/280018_Fender_Limited_Edition_Telecaster_1199_or_Strat/20%Monthly2019-01-22 15:41
http://www.hotnewdeal.com/2019/01/22/280017_Costco_Members__Lenovo_Legion_Y520_Laptop_i7770/20%Monthly2019-01-22 15:41
http://www.hotnewdeal.com/2019/01/22/280016_Polk_Audio_HTS_10_10_Subwoofer_199__free_sh/20%Monthly2019-01-22 15:41
http://www.hotnewdeal.com/2019/01/22/280014_Peoria_Wood_Arm_Loveseat_Black__Project_62_1282/20%Monthly2019-01-22 15:29
http://www.hotnewdeal.com/2019/01/22/280013_JBL_Arena_180_tower_118each_and_Arena_130_Booksh/20%Monthly2019-01-22 15:28
http://www.hotnewdeal.com/2019/01/22/280012_Humble_Caffeine_Bundle__PWYW/20%Monthly2019-01-22 15:18
http://www.hotnewdeal.com/2019/01/22/280011_Valentines_Day_Floral_Sale_for_Valentines_day_50_/20%Monthly2019-01-22 15:18
http://www.hotnewdeal.com/2019/01/22/280010_CVS_Extra_Care_Members_2X_Maybelline_Expert_Wear_/20%Monthly2019-01-22 15:17
http://www.hotnewdeal.com/2019/01/22/280009_Hotstar_USA_Annual_Subscription_effectively_at_30/20%Monthly2019-01-22 15:17
http://www.hotnewdeal.com/2019/01/22/280008_SNK_PC_Digital_Games_The_King_of_Fighters_XIII_4/20%Monthly2019-01-22 15:08
http://www.hotnewdeal.com/2019/01/22/280007_Amazon_Fire_HD_8_Tablet_16GB_with_Special_Offers_/20%Monthly2019-01-22 15:08
http://www.hotnewdeal.com/2019/01/22/280006_Acrylic_cups_20_OZ__6_PACK_099/20%Monthly2019-01-22 14:56
http://www.hotnewdeal.com/2019/01/22/280005_Rise_of_the_Planet_of_the_Apes_4K_Ultra_HD__Blu/20%Monthly2019-01-22 14:42
http://www.hotnewdeal.com/2019/01/22/280004_55_Samsung_QLED_QN55Q6FN_LED_Ultra_HD_4K_Smart_/20%Monthly2019-01-22 14:35
http://www.hotnewdeal.com/2019/01/22/280003_Raspberry_Pi_3_Model_B_35inch_LCD_ABS_Case_with/20%Monthly2019-01-22 14:35
http://www.hotnewdeal.com/2019/01/22/280002_Intel_660p_2TB_NVMe_SSD_22999/20%Monthly2019-01-22 14:35
http://www.hotnewdeal.com/2019/01/22/280001_Kohls_Cardholders_Serta_Regal_Cotton_Pillow_jumb/20%Monthly2019-01-22 14:27
http://www.hotnewdeal.com/2019/01/22/280000_Pitboss_Series_5_pellet_fed_smoker__Walmart_BM_a/20%Monthly2019-01-22 14:05
http://www.hotnewdeal.com/2019/01/22/279999_WEme_USB_30_UASP_to_SATA_Dual_Bay_External_Hard_D/20%Monthly2019-01-22 14:05
http://www.hotnewdeal.com/2019/01/22/279998_1_TB_WD_My_Passport_for_Mac_Office_Depot_in_store_/20%Monthly2019-01-22 13:58
http://www.hotnewdeal.com/2019/01/22/279997_Uniden_DFR7_Super_Long_Range_Radar_Detector_with_G/20%Monthly2019-01-22 13:58
http://www.hotnewdeal.com/2019/01/22/279996_Sephora_VIB_and_Rouge_members_Free_points_shippi/20%Monthly2019-01-22 13:58
http://www.hotnewdeal.com/2019/01/22/279995_Sega_Genesis_Classics__Nintendo_Switch_Physical/20%Monthly2019-01-22 13:58
http://www.hotnewdeal.com/2019/01/22/279994_Kansas_City_to_San_Francisco_or_Vice_Versa_157_RT/20%Monthly2019-01-22 13:57
http://www.hotnewdeal.com/2019/01/22/279993_Beyerdynamic_DT990_Pro_Headphones_15499/20%Monthly2019-01-22 13:43
http://www.hotnewdeal.com/2019/01/22/279992_Neweggcom__AMD_Ryzen_1700_8Core_30GHz_AM4_65W_/20%Monthly2019-01-22 13:36
http://www.hotnewdeal.com/2019/01/22/279991_Fujifilm_Instax_Mini_instant_Film_60_pack_3541_FS/20%Monthly2019-01-22 13:36
http://www.hotnewdeal.com/2019/01/22/279990_960GB_SanDisk_SSD_PLUS_25_SATA_III_MLC_Solid_Sta/20%Monthly2019-01-22 13:35
http://www.hotnewdeal.com/2019/01/22/279989_Reebok_Mens_Quickburn_TR_Training_Shoe__Various_/20%Monthly2019-01-22 13:25
http://www.hotnewdeal.com/2019/01/22/279988_Tommy_Boy_Fat_Guy_In_A_Little_Coat_Funko_Pop_Fig/20%Monthly2019-01-22 13:15
http://www.hotnewdeal.com/2019/01/22/279987_Hoka_One_One_Ahari_2_Running_Shoe_7498__Free_S/20%Monthly2019-01-22 12:46
http://www.hotnewdeal.com/2019/01/22/279986_Aukey_Mechanical_Keyboards_KMG9_87Key_21_104/20%Monthly2019-01-22 12:45
http://www.hotnewdeal.com/2019/01/22/279985_Amazon_Brand__Happy_Belly_Nuts_Chocolate__Dried/20%Monthly2019-01-22 12:38
http://www.hotnewdeal.com/2019/01/22/279984_256GB_SanDisk_Ultra_microSDXC_A1_U1_Class_10_Card_/20%Monthly2019-01-22 12:38
http://www.hotnewdeal.com/2019/01/22/279983_30_ServingsBSN_Endorush_Pre_Workout_Powder_1139/20%Monthly2019-01-22 12:37
http://www.hotnewdeal.com/2019/01/22/279981_Dominos_255_Gift_Card_Email_Delivery_25_Ne/20%Monthly2019-01-22 12:30
http://www.hotnewdeal.com/2019/01/22/279980_156_Lenovo_Yoga_730_2in1_Laptop_i58550U_8GB/20%Monthly2019-01-22 12:30
http://www.hotnewdeal.com/2019/01/22/279979_Fractal_Design__Focus_G_Mini_Black_MicroATX_Min/20%Monthly2019-01-22 12:30
http://www.hotnewdeal.com/2019/01/22/279978_Amazon_Brand__Solimo_Tall_Kitchen_Drawstring_Tras/20%Monthly2019-01-22 12:16
http://www.hotnewdeal.com/2019/01/22/279977_Star_Wars_12_Rebels_Electronic_Duel_Kanan_Jarrus_/20%Monthly2019-01-22 11:46
http://www.hotnewdeal.com/2019/01/22/279976_60_Monoprice_Cabernet_Ultra_Series_4K_24AWG_HDMI_/20%Monthly2019-01-22 11:45
http://www.hotnewdeal.com/2019/01/22/279975_Donkey_Kong_Country_Returns_3D_for_1245_at_Amazo/20%Monthly2019-01-22 11:45
http://www.hotnewdeal.com/2019/01/22/279974_8GB_Patriot_DDR3L_1600_SODIMM_Laptop_RAM_Stick_3/20%Monthly2019-01-22 11:39
http://www.hotnewdeal.com/2019/01/22/279973_Ray_Ban_Polarized_Sunglasses_Green_Square_Rectan/20%Monthly2019-01-22 11:31
http://www.hotnewdeal.com/2019/01/22/279972_Walmart__Zefal_Cycling_Value_Pack__On_Clerance_/20%Monthly2019-01-22 11:31
http://www.hotnewdeal.com/2019/01/22/279971_Husqvarna_322L_225_cc_Lightweight_String_Trimmer_/20%Monthly2019-01-22 11:31
http://www.hotnewdeal.com/2019/01/22/279970_Kingdom_Hearts_3_Xbox_One_Digital_Download_539/20%Monthly2019-01-22 11:25
http://www.hotnewdeal.com/2019/01/22/279969_256GB_Samsung_FIT_Plus_USB_31_Flash_Drive_4499_/20%Monthly2019-01-22 11:24
http://www.hotnewdeal.com/2019/01/22/279968_Vanguard_Sedona_34_DSLR_Sling_Bag_Various_Choices/20%Monthly2019-01-22 11:24
http://www.hotnewdeal.com/2019/01/22/279967_Indoor_Doormat_Super_Absorbs_Mud_Mat_36x_24_95/20%Monthly2019-01-22 11:24
http://www.hotnewdeal.com/2019/01/22/279966_Clearance_Nintendo_Switch__Neon_Red_and_Neon_Blue/20%Monthly2019-01-22 11:14
http://www.hotnewdeal.com/2019/01/22/279965_5_Off_Movie_Ticket_Through_Atom_App_with_Samsung_/20%Monthly2019-01-22 11:13
http://www.hotnewdeal.com/2019/01/22/279964_Complete_Series_Parks_And_Recreation__The_Office/20%Monthly2019-01-22 11:13
http://www.hotnewdeal.com/2019/01/22/279963_Tacklife_DM02A_2000counts_Advanced_Digital_Multime/20%Monthly2019-01-22 11:13
http://www.hotnewdeal.com/2019/01/22/279962_Best_Bully_Sticks_Premium_6inch_Jumbo_3_Packs_for/20%Monthly2019-01-22 11:13
http://www.hotnewdeal.com/2019/01/22/279961_MSI_GV62_8RE015_Gaming_156_FHD_IPS_i78750H/20%Monthly2019-01-22 11:13
http://www.hotnewdeal.com/2019/01/22/279960_Walmart_35_Canon_PIXMA_MX490_Wireless_Office_All/20%Monthly2019-01-22 11:13
http://www.hotnewdeal.com/2019/01/22/279958_4Count_Colgate_360_Optic_White_Whitening_Toothbru/20%Monthly2019-01-22 10:55
http://www.hotnewdeal.com/2019/01/22/279957_Aeries_Women_Undies_10_for_25/20%Monthly2019-01-22 10:54
http://www.hotnewdeal.com/2019/01/22/279956_Bosch_Blaze_Pro_Laser_Distance_Measure_165Feet_G/20%Monthly2019-01-22 10:54
http://www.hotnewdeal.com/2019/01/22/279955_5PACKS_Letsfit_Resistance_Loop_Bands_Resistance_E/20%Monthly2019-01-22 10:53
http://www.hotnewdeal.com/2019/01/22/279954_Lenovo_156_i7_Legion_Y7000_Gaming_Laptop_1099_/20%Monthly2019-01-22 10:26
http://www.hotnewdeal.com/2019/01/22/279950_Digital_HDX_TV_Shows_White_Collar_Burn_Notice_o/20%Monthly2019-01-22 09:38
http://www.hotnewdeal.com/2019/01/22/279948_Oakley_Sunglasses_starting_at_7499/20%Monthly2019-01-22 09:37
http://www.hotnewdeal.com/2019/01/22/279947_Heat_Guardian_Heat_Resistant_Gloves__Protective_G/20%Monthly2019-01-22 09:15
http://www.hotnewdeal.com/2019/01/22/279946_Intuit_TurboTax_2018FederalStateEfileDeluxe_/20%Monthly2019-01-22 07:47
http://www.hotnewdeal.com/2019/01/22/279945_32GB_97_Samsung_Galaxy_Tab_S2_WiFi_Tablet_Open_/20%Monthly2019-01-22 07:40
http://www.hotnewdeal.com/2019/01/22/279944_AMAZON_80off_ATTCL_Kids_Sports_Polarized_Sung/20%Monthly2019-01-22 07:23
http://www.hotnewdeal.com/2019/01/22/279943_Obihai_OBi202_VoIP_Phone_Adapter_with_Router_44_A/20%Monthly2019-01-22 07:22
http://www.hotnewdeal.com/2019/01/22/279942_Kroger_digital_coupon__Earn_200_fuel_points_on_yo/20%Monthly2019-01-22 05:22
http://www.hotnewdeal.com/2019/01/22/279941_100Count_Solimo_Roast_Coffee_KCup_Pods_Breakfas/20%Monthly2019-01-22 04:02
http://www.hotnewdeal.com/2019/01/22/279940_VUDU_Mix__Match_Sales_Award_Winners__Sports_2_/20%Monthly2019-01-22 04:02
http://www.hotnewdeal.com/2019/01/22/279939_TV_Show_Seasons_Amazon_Digital_HD_Pawn_Stars_S2/20%Monthly2019-01-22 03:30
http://www.hotnewdeal.com/2019/01/22/279938_QuickBooks_Desktop_Pro_2019_PC_Disc_149_reg_2/20%Monthly2019-01-22 03:30
http://www.hotnewdeal.com/2019/01/22/279937_Amd_ryzen_5_2400g_140/20%Monthly2019-01-22 02:01
http://www.hotnewdeal.com/2019/01/22/279936_Stuffed_Fables_Board_Game_3662/20%Monthly2019-01-22 02:01
http://www.hotnewdeal.com/2019/01/22/279935_LG_C8PUA_Series_65_Class_HDR_UHD_Smart_OLED_TV_wit/20%Monthly2019-01-22 01:45
http://www.hotnewdeal.com/2019/01/22/279934_65_Vizio_M65E0_4K_UHD_HDR_Smart_XLED_Home_Theate/20%Monthly2019-01-22 01:36
http://www.hotnewdeal.com/2019/01/22/279933_ZeroWater_6cup_Space_Saver_Water_FilterPitcher_/20%Monthly2019-01-22 01:36
http://www.hotnewdeal.com/2019/01/22/279932_Omega_Juicer_J8006_18921_incl_tax_and_shipping/20%Monthly2019-01-22 01:16
http://www.hotnewdeal.com/2019/01/22/279931_Addon_Item_12Pack_14Ct_Trident_Layers_Sugar_Fr/20%Monthly2019-01-22 01:15
http://www.hotnewdeal.com/2019/01/21/279930_2Pack_Kasa_Smart_WiFi_Plug_Mini_by_TPLink_Refu/20%Monthly2019-01-21 23:47
http://www.hotnewdeal.com/2019/01/21/279929_Psych_Ward_Zombies__free_Kindle_book/20%Monthly2019-01-21 23:15
http://www.hotnewdeal.com/2019/01/21/279928_YMMV_10_Lenovo_Smart_Display_with_Google_Assistan/20%Monthly2019-01-21 22:59
http://www.hotnewdeal.com/2019/01/21/279927_Great_Clips_5_off_any_hair_cut/20%Monthly2019-01-21 22:59
http://www.hotnewdeal.com/2019/01/21/279926_Foscam_R2C_1080P_wifi_home_security_Camera_PanTi/20%Monthly2019-01-21 22:59
http://www.hotnewdeal.com/2019/01/21/279925_Ubiquiti_UAPACPRO_wireless_access_point_117_BHP/20%Monthly2019-01-21 22:39
http://www.hotnewdeal.com/2019/01/21/279924_Middleearth_Shadow_of_War_PS4_or_XB1_for_899/20%Monthly2019-01-21 21:48
http://www.hotnewdeal.com/2019/01/21/279923_Waterproof_3M_Thinsulate_Insulated_Warm_Ski_Gloves/20%Monthly2019-01-21 21:32
http://www.hotnewdeal.com/2019/01/21/279922_San_Francisco_to_Bangkok_Thailand_456580_RT_Air/20%Monthly2019-01-21 21:32
http://www.hotnewdeal.com/2019/01/21/279921_ASUS_Lyra_Trio_Home_Mesh_WiFi_System__AC1750_wir/20%Monthly2019-01-21 21:02
http://www.hotnewdeal.com/2019/01/21/279920_Adidas_Mens_Ultraboost_Shoes_126/20%Monthly2019-01-21 21:02
http://www.hotnewdeal.com/2019/01/21/279919_Bonobos_sale_addtional_50_off_with_code/20%Monthly2019-01-21 21:02
http://www.hotnewdeal.com/2019/01/21/279918_BH_Chromecast_Audio_Black__15_max_2/20%Monthly2019-01-21 20:46
http://www.hotnewdeal.com/2019/01/21/279917_Ghirardelli_San_Francisco_Cable_Car_Gift_Tin_826/20%Monthly2019-01-21 20:46
http://www.hotnewdeal.com/2019/01/21/279916_Dell_Inspiron_Laptop_Ryzen_5_2500U_156_1080p_T/20%Monthly2019-01-21 20:30
http://www.hotnewdeal.com/2019/01/21/279915_20_Ounce_Bag_Starbucks_Caff_Verona_Dark_Roast_Cof/20%Monthly2019-01-21 20:16
http://www.hotnewdeal.com/2019/01/21/279914_2Pack_TPLink_WiFi_Smart_LED_Bulb_wTunable_Whit/20%Monthly2019-01-21 20:07
http://www.hotnewdeal.com/2019/01/21/279913_Transformers_Vintage_G1_Autobot_Hot_Rod_Figure_Wa/20%Monthly2019-01-21 20:03
http://www.hotnewdeal.com/2019/01/21/279912_Set_of_4_222_Fifth_Wexford_Plaid_Latte_Mugs_750_/20%Monthly2019-01-21 19:45
http://www.hotnewdeal.com/2019/01/21/279911_Soundcore_Anker_Liberty_Air_True_Wireless_Headphon/20%Monthly2019-01-21 19:30
http://www.hotnewdeal.com/2019/01/21/279910_Walmart_Walmart_Game_Time_Sale_Save_on_TVs_electr/20%Monthly2019-01-21 19:30
http://www.hotnewdeal.com/2019/01/21/279909_Lenovo_Thinkpad_X1_Tablet_Convertible_Laptop_12q/20%Monthly2019-01-21 19:22
http://www.hotnewdeal.com/2019/01/21/279908_8oz_Leather_Afterlife_Leather_Conditioner__Restor/20%Monthly2019-01-21 19:13
http://www.hotnewdeal.com/2019/01/21/279907_LaView_Security_4port_POE_Switch_22_plus_tax_w/20%Monthly2019-01-21 18:52
http://www.hotnewdeal.com/2019/01/21/279905_80Count_Hefty_Ultra_Strong_Trash_Bags_Clean_Burs/20%Monthly2019-01-21 18:37
http://www.hotnewdeal.com/2019/01/21/279904_Citizen_Signature_Grand_Touring_Mens_Stainless_St/20%Monthly2019-01-21 18:22
http://www.hotnewdeal.com/2019/01/21/279903_Craftsman_550Piece_Great_Builder_Set_for_kids_3/20%Monthly2019-01-21 18:11
http://www.hotnewdeal.com/2019/01/21/279902_KitchenAid_Professional_Series_6_Quart_Bowl_Lift_S/20%Monthly2019-01-21 18:05
http://www.hotnewdeal.com/2019/01/21/279901_LG_75_Class_745_Diag_4K_Smart_UHD_LED_LCD_HDR/20%Monthly2019-01-21 18:05
http://www.hotnewdeal.com/2019/01/21/279900_Worx_20V_Liion_Batteries_Refurb_WA3525_15Ah_2/20%Monthly2019-01-21 18:05
http://www.hotnewdeal.com/2019/01/21/279899_Neal_Stephenson_Zodiac__Kindle_ebook__120/20%Monthly2019-01-21 18:05
http://www.hotnewdeal.com/2019/01/21/279897_Insteon_Ceiling_Fan_and_Light_Controller__4Scene/20%Monthly2019-01-21 17:37
http://www.hotnewdeal.com/2019/01/21/279896_30Ct_6_Boxes_12oz_KIND_Healthy_Grains_Granola_/20%Monthly2019-01-21 17:36
http://www.hotnewdeal.com/2019/01/21/279894_Petco_instore_aquarium_dollar_a_gallon_up_to_29_ga/20%Monthly2019-01-21 17:35
http://www.hotnewdeal.com/2019/01/21/279893_Beats_Solo3_Wireless_OnEar_Headphones_Matte_Silv/20%Monthly2019-01-21 17:35
http://www.hotnewdeal.com/2019/01/21/279892_Huawei_MateBook_X_Pro_i7_1299/20%Monthly2019-01-21 17:02
http://www.hotnewdeal.com/2019/01/21/279891_DELL_27_GAMING_MONITOR__S2719DGF_341_Without_Cod/20%Monthly2019-01-21 16:13
http://www.hotnewdeal.com/2019/01/21/279890_Astro_A20_Wireless_Gaming_Headset_for_PS4_or_Xbox_/20%Monthly2019-01-21 16:03
http://www.hotnewdeal.com/2019/01/21/279889_Black_Clover_Season_1_Part_1_Digital_HD_Animati/20%Monthly2019-01-21 16:02
http://www.hotnewdeal.com/2019/01/21/279888_NETGEAR_5Port_Gigabit_Ethernet_Unmanaged_Switch_/20%Monthly2019-01-21 15:54
http://www.hotnewdeal.com/2019/01/21/279887_82_Samsung_UN82NU8000_4K_UHD_HDR_Smart_LED_HDTV_/20%Monthly2019-01-21 15:44
http://www.hotnewdeal.com/2019/01/21/279886_Leupold_LTO_Tracker_HD_Thermal_Monocular_25_Hz_M/20%Monthly2019-01-21 15:37
http://www.hotnewdeal.com/2019/01/21/279884_Energy_CC10_2_CH_25Way_Center_Speaker_Single_/20%Monthly2019-01-21 15:27
http://www.hotnewdeal.com/2019/01/21/279883_Organic_Dark_Chocolate_Chewy_Banana_Bites_762_Am/20%Monthly2019-01-21 15:21
http://www.hotnewdeal.com/2019/01/21/279882_Add_on_item_240Count_Bounce_Fabric_SoftenerDryer/20%Monthly2019-01-21 14:53
http://www.hotnewdeal.com/2019/01/21/279881_Citizen_Promaster_Nighthawk_Blue_Angels_Watch_on_B/20%Monthly2019-01-21 14:53
http://www.hotnewdeal.com/2019/01/21/279880_Resident_Evil_2__DLC_Steam_Key_for_PC_3959__/20%Monthly2019-01-21 14:53
http://www.hotnewdeal.com/2019/01/21/279879_The_Bourne_Legacy_4K_UHD_Digital_Film_499_via_/20%Monthly2019-01-21 14:27
http://www.hotnewdeal.com/2019/01/21/279877_Aeropostale_Coupon_Additional_40_Off_Clearance_/20%Monthly2019-01-21 14:21
http://www.hotnewdeal.com/2019/01/21/279876_Pacific_Laser_Systems_PLS_3_Red_Tool_129_PLS_18/20%Monthly2019-01-21 14:10
http://www.hotnewdeal.com/2019/01/21/279875_14oz_Turkey_Perky_Turkey_Jerky_Original_Flavor_/20%Monthly2019-01-21 14:10
http://www.hotnewdeal.com/2019/01/21/279874_BH_PhotoVideo_TPLink_Archer_C5400X_AC5400_Wirel/20%Monthly2019-01-21 14:10
http://www.hotnewdeal.com/2019/01/21/279873_3Pack_36oz_Similac_ProAdvance_NonGMO_Infant_Bab/20%Monthly2019-01-21 14:10
http://www.hotnewdeal.com/2019/01/21/279872_ASRock_Phantom_Radeon_RX_580_Gaming_D_8GB_Video_Ca/20%Monthly2019-01-21 13:59
http://www.hotnewdeal.com/2019/01/21/279871_Planet_Fitness_Free_workoutadmission_Today_121_o/20%Monthly2019-01-21 13:59
http://www.hotnewdeal.com/2019/01/21/279870_Houston_to_Shanghai_China_383_RT_Airfares_on_Amer/20%Monthly2019-01-21 13:37
http://www.hotnewdeal.com/2019/01/21/279869_100_Lowes_Gift_Card_90__Free_Shipping/20%Monthly2019-01-21 13:18
http://www.hotnewdeal.com/2019/01/21/279867_Free_Big_King_XL_from_Burger_King_with_3_purchas/20%Monthly2019-01-21 13:17
http://www.hotnewdeal.com/2019/01/21/279866_Samsonite_Bartlett_Spinner_Luggage__20_Sapphire_/20%Monthly2019-01-21 13:17
http://www.hotnewdeal.com/2019/01/21/279865_6Piece_LOFT_by_LORTEX_Modern_Home_Trends_Towel_Se/20%Monthly2019-01-21 13:16
http://www.hotnewdeal.com/2019/01/21/279864_Denon_AVRX1400H_72_x_80_watts_AV_Receiver_w_HEO/20%Monthly2019-01-21 12:42
http://www.hotnewdeal.com/2019/01/21/279863_iPad_Pro_105_64gb_Silver_499_Amazon/20%Monthly2019-01-21 11:41
http://www.hotnewdeal.com/2019/01/21/279862_Dominos_Pizza__All_Large_2_Topping_Pizzas_599/20%Monthly2019-01-21 11:41
http://www.hotnewdeal.com/2019/01/21/279861_Loftcom_Extra_60_Off_Sale_Prices_White_Flare_Sl/20%Monthly2019-01-21 11:41
http://www.hotnewdeal.com/2019/01/21/279860_Waterproof_100Led_Globe_String_Lights_with_Remote_/20%Monthly2019-01-21 11:41
http://www.hotnewdeal.com/2019/01/21/279859_Vanguard_VEO_265AB_Aluminum_Tripod_w_TBH50_Ball_/20%Monthly2019-01-21 11:41
http://www.hotnewdeal.com/2019/01/21/279858_Panda_Express_10_off_1_Family_Feast_or_25_off_2_/20%Monthly2019-01-21 11:27
http://www.hotnewdeal.com/2019/01/21/279857_CheezIt_Baked_Snack_Crackers_45_oz_box_99c_each_/20%Monthly2019-01-21 11:27
http://www.hotnewdeal.com/2019/01/21/279856_Pepperidge_Farm_Goldfish_Crackers_Classic_Mix_/20%Monthly2019-01-21 11:27
http://www.hotnewdeal.com/2019/01/21/279855_AMD_Ryzen_7_1700_OctaCore_3GHZ_Processor_Socket_A/20%Monthly2019-01-21 11:27
http://www.hotnewdeal.com/2019/01/21/279854_32_Monoprice_2560x1440_144Hz_VA_Curved_Gaming_Mon/20%Monthly2019-01-21 11:10
http://www.hotnewdeal.com/2019/01/21/279853_Guitar_Center_GampL_Tribute_Legacy_Electric_Guit/20%Monthly2019-01-21 10:57
http://www.hotnewdeal.com/2019/01/21/279852_Polk_LSIM_Center_Speakers_LSi_M704c_250_or_LSi_M/20%Monthly2019-01-21 10:57
http://www.hotnewdeal.com/2019/01/21/279851_Bosch_SDSPlus_Bulldog_Xtreme_Variable_Speed_Rotar/20%Monthly2019-01-21 10:47
http://www.hotnewdeal.com/2019/01/21/279850_156_Lenovo_Yoga_730_2in1_4K_Laptop_i78550U_/20%Monthly2019-01-21 10:46
http://www.hotnewdeal.com/2019/01/21/279849_Reebok_Mens_YourFlex_Train_10_or_Womens_YourFlex/20%Monthly2019-01-21 10:40
http://www.hotnewdeal.com/2019/01/21/279848_KEF_Porsche_Design_SPACE_ONE_OverEar_Noise_Cancel/20%Monthly2019-01-21 10:40
http://www.hotnewdeal.com/2019/01/21/279847_PC_Digital_Download_DRMFree_Games_Dreamfall_Chap/20%Monthly2019-01-21 10:39
http://www.hotnewdeal.com/2019/01/21/279846_Craftsman_CMEBL700_12Amp_Electric_Leaf_Blower_27/20%Monthly2019-01-21 10:39
http://www.hotnewdeal.com/2019/01/21/279845_6Pack_85oz_Neutrogena_Body_Clear_OilFree_Acne_/20%Monthly2019-01-21 09:57
http://www.hotnewdeal.com/2019/01/21/279843_Multipurpose_Breastfeeding__nursing_or_stroller_c/20%Monthly2019-01-21 09:40
http://www.hotnewdeal.com/2019/01/21/279842_Delomo_Pet_Grooming_Glove_97/20%Monthly2019-01-21 09:30
http://www.hotnewdeal.com/2019/01/21/279840_75_Samsung_QN75Q6FNAFXZA_1849/20%Monthly2019-01-21 07:58
http://www.hotnewdeal.com/2019/01/21/279839_Newegg_PlexDisc_25GB_6X_BDR_White_Inkjet_Hub_Prin/20%Monthly2019-01-21 06:41
http://www.hotnewdeal.com/2019/01/21/279838_Insignia_8Quart_MultiFunction_Pressure_Cooker_4/20%Monthly2019-01-21 05:57
http://www.hotnewdeal.com/2019/01/21/279837_Timbuk2_Bags_up_to_50_Off_15_CB_w_Prime_CC_/20%Monthly2019-01-21 05:40
http://www.hotnewdeal.com/2019/01/21/279836_Google__Smart_Light_Starter_Kit_with_Google_Assis/20%Monthly2019-01-21 05:40
http://www.hotnewdeal.com/2019/01/21/279835_Dell_UltraSharp_27_Class_InfinityEdge_Monitor_30/20%Monthly2019-01-21 04:27
http://www.hotnewdeal.com/2019/01/21/279834_AllNew_Kindle_Paperwhite__8GB__Wifi__Includes_/20%Monthly2019-01-21 03:46
http://www.hotnewdeal.com/2019/01/21/279833_KitchenAid_Professional_5_Plus_Series_Stand_Mixers/20%Monthly2019-01-21 02:50
http://www.hotnewdeal.com/2019/01/21/279832_BH_PhotoVideo_TPLink_HS210_Smart_WiFi_Light_Sw/20%Monthly2019-01-21 02:49
http://www.hotnewdeal.com/2019/01/21/279831_Linksys_LGS116P_16Port_Desktop_Gigabit_Ethernet_P/20%Monthly2019-01-21 02:49
http://www.hotnewdeal.com/2019/01/21/279830_Gamdias_P3_RGB_LP_Mechanical_Keyboard_45_Frys_Th/20%Monthly2019-01-21 02:41
http://www.hotnewdeal.com/2019/01/21/279828_ZOOZ_ZWave_Plus_Dimmer_Switch_WHITE_with_Simple/20%Monthly2019-01-21 02:11
http://www.hotnewdeal.com/2019/01/21/279826_Bestbuy_WD_easystore_8TB_External_HDD_14999/20%Monthly2019-01-21 02:11
http://www.hotnewdeal.com/2019/01/21/279825_Dragon_Ball_Fighter_Z__Ultimate_Edition_PC_4219/20%Monthly2019-01-21 01:52
http://www.hotnewdeal.com/2019/01/21/279824_LG__50_Class__LED_299_BEST_BUY_UK6090PUA_Seri/20%Monthly2019-01-21 01:27
http://www.hotnewdeal.com/2019/01/21/279823_Bud_Light_Trademark_Global_Croquet_Set_with_Carryi/20%Monthly2019-01-21 00:26
http://www.hotnewdeal.com/2019/01/21/279822_CORSAIR_K70_RGB_MK2_SE_Mechanical_RAPIDFIRE_Gamin/20%Monthly2019-01-21 00:25
http://www.hotnewdeal.com/2019/01/21/279821_Arm__Hammer_Concentrated_Liquid_Laundry_Detergent/20%Monthly2019-01-21 00:25
http://www.hotnewdeal.com/2019/01/20/279820_10_Off_Hotelscom_Stays_for_Redcard_Holders/20%Monthly2019-01-20 23:37
http://www.hotnewdeal.com/2019/01/20/279819_5_lbs_gummy_worms_999_after_20_off_coupon__Ama/20%Monthly2019-01-20 23:37
http://www.hotnewdeal.com/2019/01/20/279818_Bissell_ProHeat_2X_Revolution_Pet_Pro_Carpet_Clean/20%Monthly2019-01-20 23:36
http://www.hotnewdeal.com/2019/01/20/279817_HUGGIES_Snug__Dry_Baby_Diapers_Size_4_fits_223/20%Monthly2019-01-20 23:10
http://www.hotnewdeal.com/2019/01/20/279816_Lenovo_Active_Pen_for_1999__tax_and_FS/20%Monthly2019-01-20 23:09
http://www.hotnewdeal.com/2019/01/20/279815_Nerf_rival_Helios_Walmart_9_clearance/20%Monthly2019-01-20 23:08
http://www.hotnewdeal.com/2019/01/20/279814_Woot_Greenworks_MO40L2512_21Inch_40V_Brushless_/20%Monthly2019-01-20 21:50
http://www.hotnewdeal.com/2019/01/20/279813_ViewSonic_XG3220_32_Inch_60Hz_4K_Gaming_Monitor_wi/20%Monthly2019-01-20 21:50
http://www.hotnewdeal.com/2019/01/20/279812_Free_5_Target_Gift_Card_w_25_Any_Frozen_Food_Pu/20%Monthly2019-01-20 21:28
http://www.hotnewdeal.com/2019/01/20/279811_Lowrance_Elite7_Ti_Touch_screen_Fish_Finder_with_/20%Monthly2019-01-20 21:27
http://www.hotnewdeal.com/2019/01/20/279810_Crazy_Rich_Asians_BluRay__DVD__Digital__10__/20%Monthly2019-01-20 21:02
http://www.hotnewdeal.com/2019/01/20/279809_Patriot_Viper_4_Series_16GB_Kit_2_X_8GB_DDR4373/20%Monthly2019-01-20 21:01
http://www.hotnewdeal.com/2019/01/20/279808_Lowes_Poulan_Pro_Backpack_Blower__YMMV_13425/20%Monthly2019-01-20 21:01
http://www.hotnewdeal.com/2019/01/20/279807_24_Pack_EcoSmart_40Watt_Equivalent_A19_Halogen_Li/20%Monthly2019-01-20 20:37
http://www.hotnewdeal.com/2019/01/20/279806_Mortal_Engines_8_Book_Box_Set_30__Costco/20%Monthly2019-01-20 20:37
http://www.hotnewdeal.com/2019/01/20/279805_Clothing_for_the_FamilyGet_50_in_SYW_points_Bon/20%Monthly2019-01-20 20:25
http://www.hotnewdeal.com/2019/01/20/279804_Logitech_G920_Xbox_Driving_Force_Wheel__Driving_F/20%Monthly2019-01-20 20:08
http://www.hotnewdeal.com/2019/01/20/279803_craftsman_circular_saw_20v_battery_included_7999/20%Monthly2019-01-20 19:43
http://www.hotnewdeal.com/2019/01/20/279802_Blackstone_22_in_Griddle_with_Hood_Legs_and_Bul/20%Monthly2019-01-20 19:30
http://www.hotnewdeal.com/2019/01/20/279801_Roku_Premiere_2999__BestBuy__Amazon/20%Monthly2019-01-20 19:29
http://www.hotnewdeal.com/2019/01/20/279800_Carrabbas_BOGO_Lunch_Entree_01212019/20%Monthly2019-01-20 19:29
http://www.hotnewdeal.com/2019/01/20/279799_Samsung_Chromebook_Plus_with_free_AKG_N200_wireles/20%Monthly2019-01-20 19:29
http://www.hotnewdeal.com/2019/01/20/279798_iRobot_Braava_jet_240_Robot_Mop_13199__Amazon/20%Monthly2019-01-20 19:29
http://www.hotnewdeal.com/2019/01/20/279797_Vera_Bradley_Online_Outlet_Additional_30_Off_Lit/20%Monthly2019-01-20 18:50
http://www.hotnewdeal.com/2019/01/20/279796_Aqueon_10_Gal_LED_Aquarium_Kit__Petco_Pick_up_onl/20%Monthly2019-01-20 18:43
http://www.hotnewdeal.com/2019/01/20/279795_Asus_Prime_B450Plus_AMD_AM4_ATX_Motherboard_with_/20%Monthly2019-01-20 18:43
http://www.hotnewdeal.com/2019/01/20/279794_Power_Bank_SYPOM_S007Q3_LiPolymer_Portable_Charg/20%Monthly2019-01-20 18:26
http://www.hotnewdeal.com/2019/01/20/279793_Bitdefender_Total_Security_2019_1Year5Devices_/20%Monthly2019-01-20 18:26
http://www.hotnewdeal.com/2019/01/20/279792_TurboTax_Retail_Box_DeluxeState_NET_3149_Hom/20%Monthly2019-01-20 18:18
http://www.hotnewdeal.com/2019/01/20/279791_Dell_Inspiron_5570_156_Laptop_Computer_400_plu/20%Monthly2019-01-20 18:08
http://www.hotnewdeal.com/2019/01/20/279790_8Boxes_80_Bars_Larabar_Minis_Gluten_Free_Variet/20%Monthly2019-01-20 17:58
http://www.hotnewdeal.com/2019/01/20/279789_Jumbo_Wireless_UnderCabinet_COB_LED_Light_649/20%Monthly2019-01-20 17:58
http://www.hotnewdeal.com/2019/01/20/279788_Google_Home_Hub_8415_w_coupon_SAVE15_8414/20%Monthly2019-01-20 17:40
http://www.hotnewdeal.com/2019/01/20/279787_Metal_Gear_Rising_Revengeance_PC_129/20%Monthly2019-01-20 17:40
http://www.hotnewdeal.com/2019/01/20/279786_HP_Pavilion_27q_27_Widescreen_IPS_LED_Monitor_N/20%Monthly2019-01-20 17:12
http://www.hotnewdeal.com/2019/01/20/279785_Lenovo_Ideapad_Flex_6_14_Touch2in1_LaptopRyz/20%Monthly2019-01-20 16:56
http://www.hotnewdeal.com/2019/01/20/279784_Majik_Deluxe_Over_The_Door_Basketball_with_Electro/20%Monthly2019-01-20 16:48
http://www.hotnewdeal.com/2019/01/20/279783_Marmot_PreCip_Mens_Lightweight_Waterproof_Rain_Ja/20%Monthly2019-01-20 16:48
http://www.hotnewdeal.com/2019/01/20/279782_Samsung_UN65NU8000_65_4K_UHD_HDR_Smart_TV_for_7/20%Monthly2019-01-20 16:41
http://www.hotnewdeal.com/2019/01/20/279781_EA_Access_12_month_subscription_code_for_Xbox_One_/20%Monthly2019-01-20 16:18
http://www.hotnewdeal.com/2019/01/20/279780_LOreal_Paris_Makeup_Lash_Paradise_Mascara_Black/20%Monthly2019-01-20 16:17
http://www.hotnewdeal.com/2019/01/20/279779_12Count_Quaker_Instant_Oatmeal_Express_Cups_Appl/20%Monthly2019-01-20 16:17
http://www.hotnewdeal.com/2019/01/20/279778_Oregon_Trail_Handheld_Electronic_Game_10_Pimple_/20%Monthly2019-01-20 16:16
http://www.hotnewdeal.com/2019/01/20/279776_Nintendo_Switch_Super_Smash_Bros_Ultimate__Donkey/20%Monthly2019-01-20 15:40
http://www.hotnewdeal.com/2019/01/20/279775_3Pack_36oz_Go__Grow_by_Similac_Toddler_MilkBase/20%Monthly2019-01-20 15:40
http://www.hotnewdeal.com/2019/01/20/279774_12Bags_Brachs_Sugar_Free_Star_Brites_Peppermin/20%Monthly2019-01-20 15:40
http://www.hotnewdeal.com/2019/01/20/279773_Hisense_55_Class_4K_Ultra_HD_2160P_Roku_Smart_L/20%Monthly2019-01-20 15:26
http://www.hotnewdeal.com/2019/01/20/279772_Nintendo_Switch_Digital_Games_The_End_Is_Nigh_4/20%Monthly2019-01-20 15:26
http://www.hotnewdeal.com/2019/01/20/279771_Southwire_100Feet_12Gauge_2_Conductor_122_LowV/20%Monthly2019-01-20 15:10
http://www.hotnewdeal.com/2019/01/20/279770_32GB_2x_16_GSkill_Flare_X_DDR4_2400_Desktop_RAM/20%Monthly2019-01-20 15:10
http://www.hotnewdeal.com/2019/01/20/279769_6Pair_Nike_Mens_Dri_FIt_Socks_various_styles_/20%Monthly2019-01-20 15:03
http://www.hotnewdeal.com/2019/01/20/279768_Ann_Taylor_clearance_70_off/20%Monthly2019-01-20 14:36
http://www.hotnewdeal.com/2019/01/20/279767_55_Hisense_55R7E_R7_Series_4K_UHD_HDR_Roku_Smart_/20%Monthly2019-01-20 14:07
http://www.hotnewdeal.com/2019/01/20/279764_Sony_XAVAX5000_695_DoubleDin_248tx_Frys/20%Monthly2019-01-20 13:44
http://www.hotnewdeal.com/2019/01/20/279763_2_Pairs_or_3_Pairs_Compression_Socks_for_Women__M/20%Monthly2019-01-20 13:43
http://www.hotnewdeal.com/2019/01/20/279762_TCL_65_65S405_42749_Target_REDcard_Holders/20%Monthly2019-01-20 13:43
http://www.hotnewdeal.com/2019/01/20/279761_Insignia_8Outlet_Surge_Protector_w_Two_8_4K_Ult/20%Monthly2019-01-20 13:42
http://www.hotnewdeal.com/2019/01/20/279760_Logitech__Harmony_700_40/20%Monthly2019-01-20 13:42
http://www.hotnewdeal.com/2019/01/20/279759_Costco_Members_BM_VIZIO_MSeries_65_Class_4K_Ul/20%Monthly2019-01-20 13:41
http://www.hotnewdeal.com/2019/01/20/279758_Lenovo_IdeaPad_530S_Laptop_Ryzen_5_2500U_14_108/20%Monthly2019-01-20 13:18
http://www.hotnewdeal.com/2019/01/20/279757_The_Godfather_Corleones_Empire__Board_Game_23/20%Monthly2019-01-20 13:18
http://www.hotnewdeal.com/2019/01/20/279756_LG_SPK8S_Wireless_Rear_Speaker_Kit__Free_shippin/20%Monthly2019-01-20 13:18
http://www.hotnewdeal.com/2019/01/20/279755_Sony_85_inch_900F_3999_possible_3600_with_new_MilS/20%Monthly2019-01-20 13:17
http://www.hotnewdeal.com/2019/01/20/279754_Moen_Essie_SingleHandle_PullDown_Stainless_Spray/20%Monthly2019-01-20 13:17
http://www.hotnewdeal.com/2019/01/20/279753_FisherPrice_Thomas__Friends_Wood_Spin__Lift_Cra/20%Monthly2019-01-20 13:16
http://www.hotnewdeal.com/2019/01/20/279752_WizKids_Lancelot_Game_Board_599_Addon_Item/20%Monthly2019-01-20 13:16
http://www.hotnewdeal.com/2019/01/20/279751_CVS_Dollar_Deals__Clean_up_with_deals_3_and_und/20%Monthly2019-01-20 12:56
http://www.hotnewdeal.com/2019/01/20/279750_YMMV_ROCKWELL_Jawhorse_35in_W_x_39in_H_Adjustabl/20%Monthly2019-01-20 12:56
http://www.hotnewdeal.com/2019/01/20/279749_Oakley_Training_Backpack_1_for_36/20%Monthly2019-01-20 12:55
http://www.hotnewdeal.com/2019/01/20/279748_81Count_Tide_Pods_HE_Laundry_Detergent_Pacs_Vari/20%Monthly2019-01-20 12:27
http://www.hotnewdeal.com/2019/01/20/279747_NVIDIA_SHIELD_TV_Gaming_Edition__4K_HDR_Streaming/20%Monthly2019-01-20 12:26
http://www.hotnewdeal.com/2019/01/20/279746_DEEBOT_N79S_Robotic_Vacuum__15900_AC__Amazon_/20%Monthly2019-01-20 11:48
http://www.hotnewdeal.com/2019/01/20/279745_Smarthings_FOUTUS2_Smart_Plug_900/20%Monthly2019-01-20 11:48
http://www.hotnewdeal.com/2019/01/20/279744_Free_Mary_Poppins_Returns_Movie_Ticket_up_to_8_/20%Monthly2019-01-20 11:47
http://www.hotnewdeal.com/2019/01/20/279742_Amazon_McCafe_84_Decaf_Kcups_2735_after_1st_ord/20%Monthly2019-01-20 11:02
http://www.hotnewdeal.com/2019/01/20/279741_Select_PS4Xbox_One_Games_Watch_Dogs_2_Doom_Sou/20%Monthly2019-01-20 11:01
http://www.hotnewdeal.com/2019/01/20/279740_Pixel_3_on_sale_650_XL_3_for_750/20%Monthly2019-01-20 11:01
http://www.hotnewdeal.com/2019/01/20/279739_16GB_2x_8_GeIL_EVO_POTENZA_DDR4_3000_Desktop_RAM/20%Monthly2019-01-20 11:00
http://www.hotnewdeal.com/2019/01/20/279738_2Pack_Dynex_24Amp_USB_Wall_Outlets_White_for_/20%Monthly2019-01-20 11:00
http://www.hotnewdeal.com/2019/01/20/279736_Monster_Hunter_Generations_Ultimate__Nintendo_Swi/20%Monthly2019-01-20 10:05
http://www.hotnewdeal.com/2019/01/20/279735_Supro_Boost_1303_Guitar_Effects_Pedal_at_Musician/20%Monthly2019-01-20 09:45
http://www.hotnewdeal.com/2019/01/20/279734_Target_Hasbro_Game_Night__Nintendo_Switch__Just/20%Monthly2019-01-20 09:01
http://www.hotnewdeal.com/2019/01/20/279733_Getting_Things_Done_The_Art_of_StressFree_Produc/20%Monthly2019-01-20 09:01
http://www.hotnewdeal.com/2019/01/20/279732_Norton_Security_Deluxe_5_Devices15_Month_Subscri/20%Monthly2019-01-20 08:01
http://www.hotnewdeal.com/2019/01/20/279731_2_Piece_Burt_Bees_Gift_Sets_299_w_free_shipping/20%Monthly2019-01-20 07:05
http://www.hotnewdeal.com/2019/01/20/279730_2Count_Maybelline_New_York_Definealine_Eyeliner/20%Monthly2019-01-20 07:05
http://www.hotnewdeal.com/2019/01/20/279729_Aukey_Dash_Cam__2799/20%Monthly2019-01-20 06:35
http://www.hotnewdeal.com/2019/01/20/279728_YMMV_Leatherman_Rev_7/20%Monthly2019-01-20 05:39
http://www.hotnewdeal.com/2019/01/20/279727_3Ct_of_500ml_UpUp_Mouthwash_Spring_Mint__5_T/20%Monthly2019-01-20 04:32
http://www.hotnewdeal.com/2019/01/20/279726_PediaSure_Grow__Gain_Nutrition_Shake_Variety_Pack/20%Monthly2019-01-20 04:32
http://www.hotnewdeal.com/2019/01/20/279725_Wood_Panel_Prints_75_Off_at_Walgreens_8_x_10_f/20%Monthly2019-01-20 04:00
http://www.hotnewdeal.com/2019/01/20/279724_Insignia_6Quart_MultiFunction_Pressure_Cooker_S/20%Monthly2019-01-20 03:30
http://www.hotnewdeal.com/2019/01/20/279723_HP_Pavilion_Desktop_Ryzen_5_2400G_8GB_DDR4_1TB_/20%Monthly2019-01-20 03:13
http://www.hotnewdeal.com/2019/01/20/279722_Brickleberry_Season_13_Digital_HD_299_Each__/20%Monthly2019-01-20 02:51
http://www.hotnewdeal.com/2019/01/20/279721_Victor_Allen_coffee_pods_3696_ct_8/20%Monthly2019-01-20 02:51
http://www.hotnewdeal.com/2019/01/20/279720_Mario__Rabbids_Kingdom_Battle_Nintendo_Switch_/20%Monthly2019-01-20 02:51
http://www.hotnewdeal.com/2019/01/20/279719_899_Each_Bluray_Movies_Smallfoot_Bluray__DV/20%Monthly2019-01-20 02:50
http://www.hotnewdeal.com/2019/01/20/279718_Big_Red_Plastic_Creeper_TR6240P_16/20%Monthly2019-01-20 02:41
http://www.hotnewdeal.com/2019/01/20/279717_Google_Play_Movie_Rentals_from_099_YMMV/20%Monthly2019-01-20 01:57
http://www.hotnewdeal.com/2019/01/20/279716_The_Fifth_Season_The_Broken_Earth_Book_1_Kindle_/20%Monthly2019-01-20 01:57
http://www.hotnewdeal.com/2019/01/20/279715_Ketogenic_diet_Ketogenic_Crock_Pot_Cookbook_Easy/20%Monthly2019-01-20 00:56
http://www.hotnewdeal.com/2019/01/20/279713_Nintendo_Switch_Console_Neon__New_Super_Mario_Bro/20%Monthly2019-01-20 00:55
http://www.hotnewdeal.com/2019/01/20/279712_749_Gerber_EAB_Pocket_Knife_amp_Shard_Keychain/20%Monthly2019-01-20 00:33
http://www.hotnewdeal.com/2019/01/20/279711_Remington_82_Quart_WEATHERTIGHT_Storage_Box_Store/20%Monthly2019-01-20 00:12
http://www.hotnewdeal.com/2019/01/19/279710_Nest_x_Yale_Smart_Door_Lock_with_Nest_Connect_212/20%Monthly2019-01-19 23:28
http://www.hotnewdeal.com/2019/01/19/279709_Motorola_Z2_Force__Fine_Gold__Sprint_120_activ/20%Monthly2019-01-19 23:17
http://www.hotnewdeal.com/2019/01/19/279708_Fender_Standard_Precision_Bass_Electric_Guitar_or/20%Monthly2019-01-19 23:17
http://www.hotnewdeal.com/2019/01/19/279707_Sonos_Beam_for_31994__Free_Shipping/20%Monthly2019-01-19 23:17
http://www.hotnewdeal.com/2019/01/19/279706_iBuyPower_Z390_i7_RTX_2060_Gaming_i79700K_16GB_/20%Monthly2019-01-19 23:17
http://www.hotnewdeal.com/2019/01/19/279705_Nintendo_Switch_Games_Super_Smash_Bros_Ultimate_/20%Monthly2019-01-19 23:16
http://www.hotnewdeal.com/2019/01/19/279704_Nintendo_Switch_Super_Smash_Bros_Ultimate__New_S/20%Monthly2019-01-19 23:10
http://www.hotnewdeal.com/2019/01/19/279703_LEGO_75119_Sergeant_Jyn_Erso_499__Free_Prime_Sh/20%Monthly2019-01-19 23:09
http://www.hotnewdeal.com/2019/01/19/279702_Kitchen_Durable_Uniform_Size_Canvas_Work_Apron_wit/20%Monthly2019-01-19 23:09
http://www.hotnewdeal.com/2019/01/19/279700_Kroger_Digital_Coupon_200_Fuel_Points_20_cents_o/20%Monthly2019-01-19 22:07
http://www.hotnewdeal.com/2019/01/19/279698_Planters_Cheez_Balls_275_oz_Cans_12_pk_1800/20%Monthly2019-01-19 21:17
http://www.hotnewdeal.com/2019/01/19/279697_Similac_Advance_Infant_Formula_with_Iron_Powder_/20%Monthly2019-01-19 21:17
http://www.hotnewdeal.com/2019/01/19/279696_Travel_laptop_backpack_for_men_or_women_wUSB_port/20%Monthly2019-01-19 20:49
http://www.hotnewdeal.com/2019/01/19/279695_DarbeeVision_DVP5000S_99/20%Monthly2019-01-19 20:14
http://www.hotnewdeal.com/2019/01/19/279694_Staples_BM_Clearance_90_off_Altra_Chadwick_Colle/20%Monthly2019-01-19 20:13
http://www.hotnewdeal.com/2019/01/19/279693_55oz_Goldfish_Epic_Crunch_120_Nacho_Ranch_Ho/20%Monthly2019-01-19 20:13
http://www.hotnewdeal.com/2019/01/19/279691_First_Alert_Smoke_Detector_and_Carbon_Monoxide_Det/20%Monthly2019-01-19 19:44
http://www.hotnewdeal.com/2019/01/19/279690_2_Large_2Topping_Papa_Johns_Pizzas_for_8_each_/20%Monthly2019-01-19 19:12
http://www.hotnewdeal.com/2019/01/19/279689_Sony_Playstation_4_Pro_1TB_Console__35900__FS/20%Monthly2019-01-19 19:06
http://www.hotnewdeal.com/2019/01/19/279687_HOMCOM_28_Adjustable_Wooden_Folding_Bamboo_Laptop/20%Monthly2019-01-19 18:51
http://www.hotnewdeal.com/2019/01/19/279686_DuroMax_10000_Watt_Hybrid_Dual_Fuel_Portable_Gas_P/20%Monthly2019-01-19 18:51
http://www.hotnewdeal.com/2019/01/19/279684_Gator_Percussion_and_Equipment_Bag_GP40_3578_/20%Monthly2019-01-19 18:12
http://www.hotnewdeal.com/2019/01/19/279683_New_Super_Mario_Bros_U_Deluxe_Region_Free_Ninten/20%Monthly2019-01-19 18:12
http://www.hotnewdeal.com/2019/01/19/279682_12Count_Quaker_Instant_Oatmeal_Express_Cups_Selec/20%Monthly2019-01-19 17:44
http://www.hotnewdeal.com/2019/01/19/279681_Sony_DualShock_4_Wireless_Controller_for_PlayStati/20%Monthly2019-01-19 17:24
http://www.hotnewdeal.com/2019/01/19/279680_Day_of_the_Tentacle_Remasterd_w_Maniac_Mansion_3/20%Monthly2019-01-19 17:08
http://www.hotnewdeal.com/2019/01/19/279679_Both_Mario_Party_and_New_Super_Mario_Bros_for_84/20%Monthly2019-01-19 16:58
http://www.hotnewdeal.com/2019/01/19/279678_Tommy_Hilfiger_Little__Big_Boys_Stripe_Logo_Sneak/20%Monthly2019-01-19 16:58
http://www.hotnewdeal.com/2019/01/19/279676_Logitech_G_Pro_Wired_Mouse_2499_with_Free_Shipp/20%Monthly2019-01-19 16:52
http://www.hotnewdeal.com/2019/01/19/279674_Microsoft_Xbox_One_Elite_Wireless_Controller__Pla/20%Monthly2019-01-19 16:38
http://www.hotnewdeal.com/2019/01/19/279673_Monopoly_Fortnite_Board_Game_1201_wRed_Card_Tar/20%Monthly2019-01-19 16:26
http://www.hotnewdeal.com/2019/01/19/279670_Weber_Spirit_II_S310_Propane_Gas_Grill_349__The/20%Monthly2019-01-19 16:24
http://www.hotnewdeal.com/2019/01/19/279669_GoPro_HERO7_Silver_4K_Video_Waterproof_Action_Came/20%Monthly2019-01-19 15:55
http://www.hotnewdeal.com/2019/01/19/279668_Samsung_QI_Certified_Fast_Charge_Wireless_Charging/20%Monthly2019-01-19 15:54
http://www.hotnewdeal.com/2019/01/19/279666_Playstation_4_VR__BorderlandsBeat_Saber_Bundle_/20%Monthly2019-01-19 15:28
http://www.hotnewdeal.com/2019/01/19/279665_24Count_10oz_Bottles_Tropicana_Apple_Juice_984/20%Monthly2019-01-19 15:27
http://www.hotnewdeal.com/2019/01/19/279664_Lenovo_Flex_6_14_2in1_Laptop_Ryzen_5_2500U_8G/20%Monthly2019-01-19 15:00
http://www.hotnewdeal.com/2019/01/19/279663_Lg_4K_OLED_TVS_FROM_AUTHORIZED_DEALER__OLED65C8P/20%Monthly2019-01-19 14:45
http://www.hotnewdeal.com/2019/01/19/279662_24Packs_Wickedly_Prime_Organic_Roasted_Seaweed_Sn/20%Monthly2019-01-19 14:45
http://www.hotnewdeal.com/2019/01/19/279661_12Pack_825oz_Orgain_Kids_Protein_Organic_Nutriti/20%Monthly2019-01-19 14:37
http://www.hotnewdeal.com/2019/01/19/279660_40Pack_Black_Forest_Triple_Layer_Fruit_Snacks_B/20%Monthly2019-01-19 14:09
http://www.hotnewdeal.com/2019/01/19/279658_Verizon_will_start_offering_FREE_spam__robocall_p/20%Monthly2019-01-19 14:00
http://www.hotnewdeal.com/2019/01/19/279657_Call_of_Duty_Infinite_Warfare__Digital_Legacy_Edi/20%Monthly2019-01-19 13:59
http://www.hotnewdeal.com/2019/01/19/279656_SEARS_Craftsman_digital_Multimeter_yes_that_one/20%Monthly2019-01-19 13:26
http://www.hotnewdeal.com/2019/01/19/279655_Apple_iPad_Pro_11_2018_Model_64_GB_649/20%Monthly2019-01-19 13:26
http://www.hotnewdeal.com/2019/01/19/279652_ASUS_RTAC3200_TriBand_AC3200_Wireless_Gigabit_Ro/20%Monthly2019-01-19 13:09
http://www.hotnewdeal.com/2019/01/19/279651_Xbox_Gift_Cards_100_for_85_50_for_4250__2/20%Monthly2019-01-19 13:09
http://www.hotnewdeal.com/2019/01/19/279650_HampR_Block_2018_Tax_Software_Sale_Deluxe_2018_/20%Monthly2019-01-19 13:09
http://www.hotnewdeal.com/2019/01/19/279649_AmazonBasics_201Piece_Mechanics_Socket_Set_65__/20%Monthly2019-01-19 13:09
http://www.hotnewdeal.com/2019/01/19/279648_Eucerin_Q10_AntiWrinkle_Sensitive_Skin_Lotion_SPF/20%Monthly2019-01-19 12:39
http://www.hotnewdeal.com/2019/01/19/279647_8GB_GSKILL_Aegis_DDR4_2666_Desktop_RAM_Stick_43_/20%Monthly2019-01-19 12:26
http://www.hotnewdeal.com/2019/01/19/279646_Hitachi_SB8V2_3x21_Belt_Sander__9900__Amazon/20%Monthly2019-01-19 12:09
http://www.hotnewdeal.com/2019/01/19/279645_Extra_30_off_Sam_Edelman_Clearance__Free_Shippin/20%Monthly2019-01-19 12:09
http://www.hotnewdeal.com/2019/01/19/279643_Ubiquiti_Networks_US8_UniFi_8Port_Gigabit_PoE_Co/20%Monthly2019-01-19 11:26
http://www.hotnewdeal.com/2019/01/19/279642_Prestone_DeIcer_Windshield_Washer_Fluid__1_Gallo/20%Monthly2019-01-19 11:26
http://www.hotnewdeal.com/2019/01/19/279641_Rakuten_extra_15_off_sitewide_w_code_SAVE15/20%Monthly2019-01-19 11:10
http://www.hotnewdeal.com/2019/01/19/279640_Amazon_Childrens_Motrin_Oral_Suspension_DyeFree_/20%Monthly2019-01-19 11:10
http://www.hotnewdeal.com/2019/01/19/279639_Architectural_Digest_450_BackPacker_4_Taste/20%Monthly2019-01-19 11:10
http://www.hotnewdeal.com/2019/01/19/279638_IKEA_Family_Members_Up_to_20_Select_Chest_of_Dra/20%Monthly2019-01-19 10:48
http://www.hotnewdeal.com/2019/01/19/279637_Samsung_82_NU8000_4K_HDR_TV_1900_at_Frys_In_s/20%Monthly2019-01-19 10:48
http://www.hotnewdeal.com/2019/01/19/279636_ASRock_Phantom_Gaming_D_Radeon_RX_580_8GB_165_AR_/20%Monthly2019-01-19 10:48
http://www.hotnewdeal.com/2019/01/19/279635_Nespresso_Vertuo_Plus_by_Breville_with_Aerocinno_3/20%Monthly2019-01-19 10:12
http://www.hotnewdeal.com/2019/01/19/279634_DAngelico_Premier_Series_EXL1_Hollowbody_Electri/20%Monthly2019-01-19 09:59
http://www.hotnewdeal.com/2019/01/19/279633_Sonos_sub_or_playbar_100_off_on_amazon/20%Monthly2019-01-19 09:42
http://www.hotnewdeal.com/2019/01/19/279632_DEEBOT_OZMO_937_42999_Plus_999_Shipping__Cost/20%Monthly2019-01-19 09:28
http://www.hotnewdeal.com/2019/01/19/279631_MSI_GeForce_GTX_1060_6GB_199_AC_and_Rebate_at_New/20%Monthly2019-01-19 09:28
http://www.hotnewdeal.com/2019/01/19/279629_NIke_Flash_Sale_w_20_off_Select_Items__free_shi/20%Monthly2019-01-19 09:12
http://www.hotnewdeal.com/2019/01/19/279628_TPLINK_DOCSIS_30_Cable_Modem_8X4_channels_for_/20%Monthly2019-01-19 08:16
http://www.hotnewdeal.com/2019/01/19/279627_Plantronics_RIG_300HX_Stereo_Gaming_Headset__Xbox/20%Monthly2019-01-19 05:13
http://www.hotnewdeal.com/2019/01/19/279626_YMMV__PlayStation_VR__Creed_Rise_to_Glory__Sup/20%Monthly2019-01-19 05:13
http://www.hotnewdeal.com/2019/01/19/279625_Microsoft_Digital_Movies_Flash_Sale_10000_BC_/20%Monthly2019-01-19 04:44
http://www.hotnewdeal.com/2019/01/19/279624_Pepsi_Products__Amazon_Prime_10_off_35/20%Monthly2019-01-19 02:24
http://www.hotnewdeal.com/2019/01/19/279623_43_Toshiba_4K_2160p_UHD_Amazon_Fire_TV_Edition_Sm/20%Monthly2019-01-19 02:17
http://www.hotnewdeal.com/2019/01/19/279622_Selfie_Stick_Tripod_Leelbox_Bluetooth_Selfie_Stic/20%Monthly2019-01-19 02:06
http://www.hotnewdeal.com/2019/01/19/279621_128GB_SAMSUNG_BAR_Plus_Metal_USB_31_Flash_Memory_/20%Monthly2019-01-19 01:25
http://www.hotnewdeal.com/2019/01/19/279619_NOW_Probiotic10_25_Billion50_Veg_Capsules__10/20%Monthly2019-01-19 01:16
http://www.hotnewdeal.com/2019/01/19/279618_Boys_and_Girls_Winter_Coats_Weathertamer_Roths/20%Monthly2019-01-19 01:16
http://www.hotnewdeal.com/2019/01/19/279617_Madden_NFL_19_Ultimate_Super_Bowl_Edition_2640_/20%Monthly2019-01-19 00:22
http://www.hotnewdeal.com/2019/01/19/279616_Amazon_6Pack_of_Scotch_Heavy_Duty_Packaging_Tape_/20%Monthly2019-01-19 00:05
http://www.hotnewdeal.com/2019/01/18/279615_Ottomanson_Runner_Rug_with_NonSkidRubber_Backing_/20%Monthly2019-01-18 23:49
http://www.hotnewdeal.com/2019/01/18/279614_AMC_Theatres__Creed_II_Movie__Buy_One_Ticket_Get/20%Monthly2019-01-18 22:52
http://www.hotnewdeal.com/2019/01/18/279613_Samsung_Galaxy_Smartwatch_46mm__Silver__259_Co/20%Monthly2019-01-18 22:15
http://www.hotnewdeal.com/2019/01/18/279612_Hydroponic_Refurb_Lights/20%Monthly2019-01-18 21:43
http://www.hotnewdeal.com/2019/01/18/279611_Elysium_Board_Game__Amazon_2973__Free_Shipping/20%Monthly2019-01-18 21:43
http://www.hotnewdeal.com/2019/01/18/279610_Macys_up_to_70_of_plus_extra_20_off_48_with_co/20%Monthly2019-01-18 21:43
http://www.hotnewdeal.com/2019/01/18/279609_Southwest_Airlines__One_Way_Airfares_Starting_Fro/20%Monthly2019-01-18 20:53
http://www.hotnewdeal.com/2019/01/18/279608_Pioneer_Digital_Media_Car_Receiver__Speakers__3_/20%Monthly2019-01-18 20:45
http://www.hotnewdeal.com/2019/01/18/279606_AllClad_Hard_Anodized_8_and_10_Fry_Pan_Set_for_/20%Monthly2019-01-18 20:43
http://www.hotnewdeal.com/2019/01/18/279605_ABS_Gem_Gaming_Desktop_PC_NVIDIA_GeForce_RTX_2080_/20%Monthly2019-01-18 20:13
http://www.hotnewdeal.com/2019/01/18/279604_Krave_Garlic_chili_pepper_27oz_for_124/20%Monthly2019-01-18 20:13
http://www.hotnewdeal.com/2019/01/18/279603_Rocky_Horror_Picture_Show_for_8_on_Google_Play/20%Monthly2019-01-18 20:13
http://www.hotnewdeal.com/2019/01/18/279602_LG_SK8Y_21ch_Soundbar_w_Dolby_Atmos_179__free_/20%Monthly2019-01-18 20:01
http://www.hotnewdeal.com/2019/01/18/279601_Amazon_Fire_TV_with_4K_Ultra_HD_and_Alexa_Voice_Re/20%Monthly2019-01-18 20:01
http://www.hotnewdeal.com/2019/01/18/279600_Asus_ROG_Strix_RX_570_4g_Overclock_10499/20%Monthly2019-01-18 20:01
http://www.hotnewdeal.com/2019/01/18/279599_VSR_Void_Space_Racing_Nintendo_Switch_Digital_Do/20%Monthly2019-01-18 20:01
http://www.hotnewdeal.com/2019/01/18/279598_AddOn_Tekz_45212_Snap_Internal_Retaining_Clip_Rin/20%Monthly2019-01-18 20:00
http://www.hotnewdeal.com/2019/01/18/279597_55_LG_OLED55E8PUA_4K_HDR_OLED_HDTV_1299__free_s/20%Monthly2019-01-18 19:44
http://www.hotnewdeal.com/2019/01/18/279596_AppleCare_Protection_Plan_for_Mac_mini_49/20%Monthly2019-01-18 19:44
http://www.hotnewdeal.com/2019/01/18/279595_Nintendo_Switch_Pro_Controller_5295__Free_Shipp/20%Monthly2019-01-18 19:44
http://www.hotnewdeal.com/2019/01/18/279594_65_TCL_65R617_4K_HDR_Roku_Smart_TV_749__free_s/20%Monthly2019-01-18 19:28
http://www.hotnewdeal.com/2019/01/18/279593_Ubiquiti_Networks_USGPRO4US_Enterprise_Gateway_/20%Monthly2019-01-18 18:59
http://www.hotnewdeal.com/2019/01/18/279592_Gamestop_Refurbished_Xbox_360_30_118120/20%Monthly2019-01-18 18:43
http://www.hotnewdeal.com/2019/01/18/279591_Xbox_Game_Pass__1_month_of_SlingTV_for_1/20%Monthly2019-01-18 18:24
http://www.hotnewdeal.com/2019/01/18/279590_Nishiki_Medium_Grain_Rice_5_Pound_5_Amazon_SS/20%Monthly2019-01-18 18:24
http://www.hotnewdeal.com/2019/01/18/279589_Woot_Refurbished_TCL_55in_Class_P6Series_4K_UHD_/20%Monthly2019-01-18 18:00
http://www.hotnewdeal.com/2019/01/18/279588_YMMV_Bosch_MS4041_41Piece_Drill_and_Drive_Bit_Set/20%Monthly2019-01-18 17:42
http://www.hotnewdeal.com/2019/01/18/279586_Addon_Item_The_Incredibles_2_Elasticycle__Elast/20%Monthly2019-01-18 17:26
http://www.hotnewdeal.com/2019/01/18/279585_Nintendo_eShop_50_Digital_Currency_45/20%Monthly2019-01-18 17:26
http://www.hotnewdeal.com/2019/01/18/279584_Fender_LE_Paramount_PM4CE_Auditorium_Limited_Ed_/20%Monthly2019-01-18 17:10
http://www.hotnewdeal.com/2019/01/18/279583_Acer_Gaming_Series_KG241P_24_Black_Freesync_144Hz/20%Monthly2019-01-18 17:10
http://www.hotnewdeal.com/2019/01/18/279582_Yamaha_Receivers_RXA2080_92Ch_1050_RXA3080_/20%Monthly2019-01-18 16:48
http://www.hotnewdeal.com/2019/01/18/279581_Calphalon_Contemporary_Nonstick_10__12_Omelette/20%Monthly2019-01-18 16:48
http://www.hotnewdeal.com/2019/01/18/279580_Samsung_Gear_Sport_Fitness_Watch_169__free_sh/20%Monthly2019-01-18 16:48
http://www.hotnewdeal.com/2019/01/18/279579_HP_590P0050_Desktop_PC_Intel_i58400_28GHz_8GB_1/20%Monthly2019-01-18 16:48
http://www.hotnewdeal.com/2019/01/18/279578_Klipsch_R610F_Floors_pair__R41M_Book_pair_/20%Monthly2019-01-18 16:36
http://www.hotnewdeal.com/2019/01/18/279577_Sony_WH1000XM3_Bluetooth_Wireless_Noise_Canceling_/20%Monthly2019-01-18 16:27
http://www.hotnewdeal.com/2019/01/18/279576_New_York_to_Lima_Peru_366386_RT_Airfares_on_Int/20%Monthly2019-01-18 16:21
http://www.hotnewdeal.com/2019/01/18/279575_Hisense_Infinity_F24_16GB_Unlocked_GSM_4G_LTE_Andr/20%Monthly2019-01-18 15:59
http://www.hotnewdeal.com/2019/01/18/279574_TOMS_Shoes_Extra_25_Off_Sale_Prices_Womens_Natu/20%Monthly2019-01-18 15:58
http://www.hotnewdeal.com/2019/01/18/279573_Old_Navy_Extra_40_Off_ClearanceJersey_Knit_Strip/20%Monthly2019-01-18 15:58
http://www.hotnewdeal.com/2019/01/18/279572_67_FotoPro_XGo_Max_4Section_Carbon_Fiber_Tripod/20%Monthly2019-01-18 15:41
http://www.hotnewdeal.com/2019/01/18/279571_Refurbished_TCL_55_Class_4K_2160P_Roku_Smart_LE/20%Monthly2019-01-18 15:11
http://www.hotnewdeal.com/2019/01/18/279570_15_lb_Bag__Nestle_Hot_Chocolate_Mix_Rich_Choco/20%Monthly2019-01-18 15:00
http://www.hotnewdeal.com/2019/01/18/279569_10Count_3_x_3_Custom_Die_Cut_Vinyl_Stickers_1/20%Monthly2019-01-18 14:59
http://www.hotnewdeal.com/2019/01/18/279568_Ecovacs_DEEBOT_M88_Robotic_Vacuum_Cleaner__Moppin/20%Monthly2019-01-18 14:59
http://www.hotnewdeal.com/2019/01/18/279567_shopDisney_Kids_Spider_Man_PJ_Pals_599_Fancy_Na/20%Monthly2019-01-18 14:43
http://www.hotnewdeal.com/2019/01/18/279566_Fuloughed_Government_Employees_500_Interestfree/20%Monthly2019-01-18 14:37
http://www.hotnewdeal.com/2019/01/18/279565_Yankee_Candle_Large_2Wick_Tumbler_Candle_Sparkin/20%Monthly2019-01-18 14:28
http://www.hotnewdeal.com/2019/01/18/279564_Ubiquiti_USGUS_Enterprise_Gateway_Router_11499/20%Monthly2019-01-18 14:22
http://www.hotnewdeal.com/2019/01/18/279563_Blue_Microphones_Yeti_Professional_Blackout_Ed_US/20%Monthly2019-01-18 14:22
http://www.hotnewdeal.com/2019/01/18/279562_Samsung_860_EVO_Series_25_1tb_SATA_III_SSD_129/20%Monthly2019-01-18 14:00
http://www.hotnewdeal.com/2019/01/18/279561_AOC_G2590FX_GSync_Compatible_Freesync_monitor_/20%Monthly2019-01-18 14:00
http://www.hotnewdeal.com/2019/01/18/279560_AllClad_Seconds_Sale_Lasagna_Pan_40_Thomas_Kel/20%Monthly2019-01-18 14:00
http://www.hotnewdeal.com/2019/01/18/279559_130_sqft_Reynolds_Wrap_Heavy_Duty_Aluminum_Foil_/20%Monthly2019-01-18 13:44
http://www.hotnewdeal.com/2019/01/18/279558_1TB_HP_EX900_PCIe_31_x4_NVMe_3D_TLC_NAND_Internal/20%Monthly2019-01-18 13:44
http://www.hotnewdeal.com/2019/01/18/279557_Philips_Hue_LightStrip_Extension__lowest_price_ev/20%Monthly2019-01-18 13:43
http://www.hotnewdeal.com/2019/01/18/279556_Lenovo_Laptop_IdeaPad_330_81DE00L0US_Intel_Core_i5/20%Monthly2019-01-18 13:43
http://www.hotnewdeal.com/2019/01/18/279555_Pennzoil_Spring_Rebate_Save_2quart_on_synthetic/20%Monthly2019-01-18 13:12
http://www.hotnewdeal.com/2019/01/18/279553_Vizio_Quantum_65_PQ65F_best_deal_since_Black_F/20%Monthly2019-01-18 12:38
http://www.hotnewdeal.com/2019/01/18/279552_Musicians_Gear_MV1000_Handheld_Dynamic_Vocal_Mic/20%Monthly2019-01-18 12:38
http://www.hotnewdeal.com/2019/01/18/279551_Ubiquiti_UniFi_UAPACPRO_11999__Free_Shipping/20%Monthly2019-01-18 12:37
http://www.hotnewdeal.com/2019/01/18/279550_Irwin_Tools_Drill_Press_Vise_4_inch__1698_Ama/20%Monthly2019-01-18 12:29
http://www.hotnewdeal.com/2019/01/18/279549_New_Balance_Shoes_24_shipped_Mens_573_Running_S/20%Monthly2019-01-18 12:29
http://www.hotnewdeal.com/2019/01/18/279548_Corsair_HX1200_Series_1200W_80_Platinum_Full_Modu/20%Monthly2019-01-18 12:29
http://www.hotnewdeal.com/2019/01/18/279547_LG_70_LED_Best_Buy_799/20%Monthly2019-01-18 12:16
http://www.hotnewdeal.com/2019/01/18/279545_Motorola_modem_MB762110_24x8_Cable_Modem_Comcast/20%Monthly2019-01-18 12:05
http://www.hotnewdeal.com/2019/01/18/279544_Eddie_Bauer_50_Off_Clearance_Quest_Fleece_14_Zi/20%Monthly2019-01-18 12:04
http://www.hotnewdeal.com/2019/01/18/279543_Acer_Laptop_Aspire_5_Intel_Core_i7_8th_Gen_8550U_/20%Monthly2019-01-18 12:04
http://www.hotnewdeal.com/2019/01/18/279542_Rockwell_Jawstand_3499_and_Free_Shipping/20%Monthly2019-01-18 12:04
http://www.hotnewdeal.com/2019/01/18/279541_VIZIO_55_Inch_4K_LED_Smart_TV__P55F1_UHD_TV__1/20%Monthly2019-01-18 11:43
http://www.hotnewdeal.com/2019/01/18/279540_14oz_MuscleTech_Platinum_Creatine_Monohydrate_Powd/20%Monthly2019-01-18 11:42
http://www.hotnewdeal.com/2019/01/18/279539_RIDGID_18Volt_LithiumIon_Brushless_Cordless_5To/20%Monthly2019-01-18 11:42
http://www.hotnewdeal.com/2019/01/18/279538_Digital_4K_UHD_Rampage_In_the_Heart_of_the_Sea_/20%Monthly2019-01-18 11:27
http://www.hotnewdeal.com/2019/01/18/279537_Basecamp_Bike_Helmet_with_LED_Safety_Light_and_Mag/20%Monthly2019-01-18 11:03
http://www.hotnewdeal.com/2019/01/18/279536_JCPenney_Home_Collection_40pc_Dinnerware_Set_42/20%Monthly2019-01-18 11:02
http://www.hotnewdeal.com/2019/01/18/279534_StarKist_Selects_Solid_Yellowfin_Tuna_Fillet_in_Ex/20%Monthly2019-01-18 10:53
http://www.hotnewdeal.com/2019/01/18/279533_AMD_Ryzen_5_2600_34GHz_6Core_Processor_w_Wraith/20%Monthly2019-01-18 10:53
http://www.hotnewdeal.com/2019/01/18/279532_Joby_GripTight_XL_Gorillapod_Stand_for_Smartphones/20%Monthly2019-01-18 10:34
http://www.hotnewdeal.com/2019/01/18/279531_Christopher_Nolan_4K_Collection_4K_Ultra_HD__Blu/20%Monthly2019-01-18 10:14
http://www.hotnewdeal.com/2019/01/18/279530_AMD_Ryzen_5_1600_32GHz_6_Core_AM4_Boxed_Processor/20%Monthly2019-01-18 09:44
http://www.hotnewdeal.com/2019/01/18/279529_SECOND_PRICE_DROP__Williams_Sonoma_Peppermint_Bar/20%Monthly2019-01-18 09:44
http://www.hotnewdeal.com/2019/01/18/279528_Far_Cry_5_Gold_Edition_Xbox_One_Digital_Download/20%Monthly2019-01-18 09:43
http://www.hotnewdeal.com/2019/01/18/279526_Microsoft_xbox_one_s_1tb_console_4k_battlefield/20%Monthly2019-01-18 09:35
http://www.hotnewdeal.com/2019/01/18/279525_Baby_Carters_Plush_Animals_w_Soothing_Music_2_f/20%Monthly2019-01-18 09:28
http://www.hotnewdeal.com/2019/01/18/279524_Xbox_Gift_Card_100_Email_Delivery_8888_Neweg/20%Monthly2019-01-18 09:27
http://www.hotnewdeal.com/2019/01/18/279523_Organic_Bamboo_Utensil_SetWooden_Cooking_Spoons_a/20%Monthly2019-01-18 09:12
http://www.hotnewdeal.com/2019/01/18/279522_Cookware_TFal_HeatMaster_Sapphire_Infused_NonSt/20%Monthly2019-01-18 09:11
http://www.hotnewdeal.com/2019/01/18/279521_Overwatch_Loot_Box_or_Pachimari_Mood_Light_749_/20%Monthly2019-01-18 08:59
http://www.hotnewdeal.com/2019/01/18/279520_NiGHTS_Into_Dreams_or_Jet_Set_Radio_PC_Digital_Do/20%Monthly2019-01-18 08:15
http://www.hotnewdeal.com/2019/01/18/279519_Insignia_39_Class_LED_1080p_Smart_HDTV__Fire_TV/20%Monthly2019-01-18 08:15
http://www.hotnewdeal.com/2019/01/18/279518_Hamilton_Beach_12Cup_Programmable_Coffee_Maker_M/20%Monthly2019-01-18 08:00
http://www.hotnewdeal.com/2019/01/18/279517_Xbox_one_X_with_NBA_2K19_Game__1_extra_controller/20%Monthly2019-01-18 07:13
http://www.hotnewdeal.com/2019/01/18/279516_Nalgene_HDPE_48oz_Silo_Wide_Mouth_BPAFree_Water_B/20%Monthly2019-01-18 07:01
http://www.hotnewdeal.com/2019/01/18/279515_Aquaman_Movie_Tickets_Buy_2_or_More_Tickets__Rec/20%Monthly2019-01-18 07:01
http://www.hotnewdeal.com/2019/01/18/279514_32GB_Nintendo_Wii_U_Console_Legend_of_Zelda_or_St/20%Monthly2019-01-18 04:46
http://www.hotnewdeal.com/2019/01/18/279513_12Pk_4oz_Plum_Organics_Baby_Second_Blends_Pear_an/20%Monthly2019-01-18 04:35
http://www.hotnewdeal.com/2019/01/18/279512_Sams_Club__Buy_100_in_participating_items_on_sam/20%Monthly2019-01-18 02:31
http://www.hotnewdeal.com/2019/01/18/279511_Logitech_Harmony_650_Universal_Programmable_Remote/20%Monthly2019-01-18 02:14
http://www.hotnewdeal.com/2019/01/18/279510_Heineken_Lager_Magnum_15L_champagne_Bottle_2/20%Monthly2019-01-18 02:03
http://www.hotnewdeal.com/2019/01/18/279509_A_set_of_2_Ashley_Furniture_Signature_Design_Baxen/20%Monthly2019-01-18 01:45
http://www.hotnewdeal.com/2019/01/18/279508_Dorcy_LED_Flashlight_with_9V_Alkaline_Battery__2/20%Monthly2019-01-18 01:32
http://www.hotnewdeal.com/2019/01/18/279507_Skylanders_Superchargers_Racing_Starter_Pack_for_N/20%Monthly2019-01-18 01:32
http://www.hotnewdeal.com/2019/01/18/279506_Dragon_Alliance_NFXS_Ski_Goggles_w_Bonus_Lens_22/20%Monthly2019-01-18 01:32
http://www.hotnewdeal.com/2019/01/18/279505_Digital_4K_UHD_Jumanji_1995_In_the_Heart_of_the_/20%Monthly2019-01-18 01:14
http://www.hotnewdeal.com/2019/01/18/279504_Ottlite_Task_Lamp_1599_with_store_pick_up/20%Monthly2019-01-18 01:14
http://www.hotnewdeal.com/2019/01/18/279503_NETGEAR_Insight_Instant_VPN_Business_Router_BR500/20%Monthly2019-01-18 01:14
http://www.hotnewdeal.com/2019/01/18/279501_LETSCOM_True_Wireless_3D_Stereo_Bluetooth_Headphon/20%Monthly2019-01-18 01:06
http://www.hotnewdeal.com/2019/01/18/279500_Razer_DeathAdder_Expert__25/20%Monthly2019-01-18 00:22
http://www.hotnewdeal.com/2019/01/18/279499_Samsung_65_inch_4K_529_frys_and_75_inch_at_1249_/20%Monthly2019-01-18 00:02
http://www.hotnewdeal.com/2019/01/18/279498_3Pack_Incipio_Ghost_Qi_15W_Rapid_Wireless_Chargi/20%Monthly2019-01-18 00:02
http://www.hotnewdeal.com/2019/01/18/279497_iTunes_movies_on_sale_Unbreakable_10_Pitch_Black/20%Monthly2019-01-18 00:01
http://www.hotnewdeal.com/2019/01/17/279496_Benchmade_Mini_Griptilian_6299_with_Free_Shippin/20%Monthly2019-01-17 23:45
http://www.hotnewdeal.com/2019/01/17/279495_Super_Mario_Party_Nintendo_Switch_Import_Region_Fr/20%Monthly2019-01-17 23:45
http://www.hotnewdeal.com/2019/01/17/279494_40_OFF_MSI_Gaming_Desktop_Intel_Core_i5_8th_Gen_8/20%Monthly2019-01-17 23:30
http://www.hotnewdeal.com/2019/01/17/279493_3Lbs_Optimum_Nutrition_Oats__Whey_Protein_Powder/20%Monthly2019-01-17 23:12
http://www.hotnewdeal.com/2019/01/17/279492_Hitman_Absolution__Free_w_GameSessions_client_o/20%Monthly2019-01-17 23:12
http://www.hotnewdeal.com/2019/01/17/279491_NOT_LIVE_YET_Starts_118_PS4_Digital_Downloads/20%Monthly2019-01-17 22:13
http://www.hotnewdeal.com/2019/01/17/279490_Startide_Nintendo_Switch_Digital_Download_099/20%Monthly2019-01-17 22:13
http://www.hotnewdeal.com/2019/01/17/279489_Corsair_LL_Series_LL120_RGB_120mm_Dual_Light_Loop_/20%Monthly2019-01-17 22:13
http://www.hotnewdeal.com/2019/01/17/279488_16Ounce_Jack_Links_Beef_Jerky_Original_or_Teriya/20%Monthly2019-01-17 22:13
http://www.hotnewdeal.com/2019/01/17/279487_Raspberry_Pi_3B_2999__MCM_8MP_Raspberry_Pi_/20%Monthly2019-01-17 22:02
http://www.hotnewdeal.com/2019/01/17/279486_LG_55_Smart_TV_55UK6300PUE_414_AC__Free_Shipp/20%Monthly2019-01-17 21:28
http://www.hotnewdeal.com/2019/01/17/279485_Intel_Core_i59600K_Coffee_Lake_37_GHz_LGA_1151_B/20%Monthly2019-01-17 20:58
http://www.hotnewdeal.com/2019/01/17/279484_Adesso_24_GHz_RF_Wireless_Mini_Trackball_Keyboard/20%Monthly2019-01-17 20:53
http://www.hotnewdeal.com/2019/01/17/279483_Kohls_Cardholders_Carters_2Piece_Pajama_Sets_/20%Monthly2019-01-17 20:29
http://www.hotnewdeal.com/2019/01/17/279482_22Piece_Wellslock_Classic_1Lock_Food_Storage_Con/20%Monthly2019-01-17 20:29
http://www.hotnewdeal.com/2019/01/17/279481_24Count__Community_Coffee_PreMeasured_Packs_Ope/20%Monthly2019-01-17 20:22
http://www.hotnewdeal.com/2019/01/17/279480_67_oz_Garnier_SkinActive_Face_Wash_with_Aloe_Jui/20%Monthly2019-01-17 20:12
http://www.hotnewdeal.com/2019/01/17/279479_Alienware_Advanced_Mechanical_Programmable_Gaming_/20%Monthly2019-01-17 20:03
http://www.hotnewdeal.com/2019/01/17/279478_Dell_27_2ms_144Hz_FreeSync_Monitor__500gb_SAMSUN/20%Monthly2019-01-17 20:00
http://www.hotnewdeal.com/2019/01/17/279477_Pieology_Pass__30_Days_of_Pizza_for_50_1_Entree/20%Monthly2019-01-17 19:43
http://www.hotnewdeal.com/2019/01/17/279476_Grand_Theft_Auto_V_Premium_Online_Edition_for_PC_/20%Monthly2019-01-17 19:29
http://www.hotnewdeal.com/2019/01/17/279475_Rosewill_FBMX2_Micro_ATX_Mini_Tower_Desktop_Gamin/20%Monthly2019-01-17 19:28
http://www.hotnewdeal.com/2019/01/17/279474_Drs_Foster__Smith_brand_canned_DOG_food_Turkey_/20%Monthly2019-01-17 19:14
http://www.hotnewdeal.com/2019/01/17/279473_Lucky_Brand_Womens_Blouses_from_20_Dresses_fro/20%Monthly2019-01-17 19:14
http://www.hotnewdeal.com/2019/01/17/279472_EZVIZ_1080P_Outdoor_Camera__Security_Systems_Sta/20%Monthly2019-01-17 19:01
http://www.hotnewdeal.com/2019/01/17/279470_2001_A_Space_Odyssey_Includes_Digital_Copy_4K_/20%Monthly2019-01-17 18:30
http://www.hotnewdeal.com/2019/01/17/279469_PHICOMM_K3C_AC_1900_MUMIMO_Dual_Band_WiFi_Gigabi/20%Monthly2019-01-17 18:23
http://www.hotnewdeal.com/2019/01/17/279468_PNY_GeForce_GTX_1050_2GB_Video_Card__Coboc_Riser/20%Monthly2019-01-17 18:13
http://www.hotnewdeal.com/2019/01/17/279467_TiVo_Mini_Vox__15999__Free_Shipping_after_20_C/20%Monthly2019-01-17 17:47
http://www.hotnewdeal.com/2019/01/17/279466_Hario_V60_ScaleTimer_at_Bulletproof_27_FSAC/20%Monthly2019-01-17 17:46
http://www.hotnewdeal.com/2019/01/17/279465_Hampton_Bay_Kingham_1000_Sq_Ft_Panoramic_Infrared_/20%Monthly2019-01-17 17:32
http://www.hotnewdeal.com/2019/01/17/279464_Slim_Jim_Original_Snack_Size_14_Sticks_For_277_A/20%Monthly2019-01-17 17:31
http://www.hotnewdeal.com/2019/01/17/279463_Nintendo_Switch_Neon_or_Gray_System__Donkey_Kon/20%Monthly2019-01-17 17:22
http://www.hotnewdeal.com/2019/01/17/279462_4Pack_of_50Piece_Mentos_Gum_Wintergreen_829_/20%Monthly2019-01-17 17:15
http://www.hotnewdeal.com/2019/01/17/279461_Logitech_Bluetooth_Wireless_Speaker_System_and_Sub/20%Monthly2019-01-17 17:15
http://www.hotnewdeal.com/2019/01/17/279460_Microsoft_Xbox_Controller__Wireless_Adapter_for_W/20%Monthly2019-01-17 17:15
http://www.hotnewdeal.com/2019/01/17/279459_Costway_Storage_Solid_Wood_End_Nightstand_with_3_D/20%Monthly2019-01-17 17:00
http://www.hotnewdeal.com/2019/01/17/279458_Vudu_499_Weekend_Sale_Westerns_starts_118/20%Monthly2019-01-17 16:55
http://www.hotnewdeal.com/2019/01/17/279457_Sceptre_E255B1658A_245_FHD_165Hz_1ms_Gaming_Mon/20%Monthly2019-01-17 16:39
http://www.hotnewdeal.com/2019/01/17/279456_Cetaphil_Gentle_Waterproof_Makeup_Remover_6_oz_3/20%Monthly2019-01-17 16:31
http://www.hotnewdeal.com/2019/01/17/279455_Bosch_Buy_One_2Tool_Combo_Kit_Get_One_Free_Tool_/20%Monthly2019-01-17 16:28
http://www.hotnewdeal.com/2019/01/17/279453_Amazon_Lightning_deal_EZ_Ink_TM_Compatible_Ink_/20%Monthly2019-01-17 16:06
http://www.hotnewdeal.com/2019/01/17/279452_LifeSmart_WiFi_Smart_LED_Light_16_Million_Color_Dy/20%Monthly2019-01-17 16:06
http://www.hotnewdeal.com/2019/01/17/279451_100Ounce_Purex_Liquid_Fabric_Softener_Sweet_Lave/20%Monthly2019-01-17 15:47
http://www.hotnewdeal.com/2019/01/17/279450_Los_Angeles_to_Seoul_Korea_From_465_RT_or_Taipei_/20%Monthly2019-01-17 15:47
http://www.hotnewdeal.com/2019/01/17/279449_PowerColor_RED_DRAGON_Radeon_RX_580_8GB_D53DHDV2/20%Monthly2019-01-17 15:38
http://www.hotnewdeal.com/2019/01/17/279448_Outdoor_Hammock__Large_Double_Size_Portable__Ul/20%Monthly2019-01-17 15:32
http://www.hotnewdeal.com/2019/01/17/279447_Garmin_50LMT_Drive_Assist_GPS_BuiltIn_Dash_Cam_r/20%Monthly2019-01-17 15:32
http://www.hotnewdeal.com/2019/01/17/279446_30_Count_Pepperidge_Farm_Goldfish_Crackers_Classi/20%Monthly2019-01-17 15:32
http://www.hotnewdeal.com/2019/01/17/279445_16GB_2x_8_GSKILL_Ripjaws_V_DDR4_3000_Desktop_RA/20%Monthly2019-01-17 15:32
http://www.hotnewdeal.com/2019/01/17/279444_ikan_IFB576_Featherweight_BiColor_LED_Light_w_An/20%Monthly2019-01-17 15:23
http://www.hotnewdeal.com/2019/01/17/279443_Jetson_Beam_for_150_Kohls__20_Kohls_Cash/20%Monthly2019-01-17 15:15
http://www.hotnewdeal.com/2019/01/17/279442_Neewer_750II_TTL_Flash_Speedlite_with_LCD_Display_/20%Monthly2019-01-17 14:58
http://www.hotnewdeal.com/2019/01/17/279441_Samsung_smartthings_120_volt_white_smart_plug_ymmv/20%Monthly2019-01-17 14:43
http://www.hotnewdeal.com/2019/01/17/279440_Kate_Spade_Sale_Cameron_Street_Stormie_Crossbody_/20%Monthly2019-01-17 14:43
http://www.hotnewdeal.com/2019/01/17/279439_Guarana_Antarctica_350ml_Pack_of_12_GuaranFla/20%Monthly2019-01-17 14:36
http://www.hotnewdeal.com/2019/01/17/279438_LG_Q6_32GB_US700_GSM_Factory_Unlocked_4G_LTE_55_L/20%Monthly2019-01-17 14:36
http://www.hotnewdeal.com/2019/01/17/279437_Boston_to_Seattle_or_Vice_Versa_197_RT_Nonstop_on/20%Monthly2019-01-17 14:28
http://www.hotnewdeal.com/2019/01/17/279435_New_York_to_Sydney_Australia_629659_RT_Airfares/20%Monthly2019-01-17 14:11
http://www.hotnewdeal.com/2019/01/17/279434_Addon_Item_Charles_Bronson_4_Movie_Collection_B/20%Monthly2019-01-17 14:11
http://www.hotnewdeal.com/2019/01/17/279433_Xbox_One_X_1TB_Fallout_76_Edition_36995__Tax_Ra/20%Monthly2019-01-17 14:10
http://www.hotnewdeal.com/2019/01/17/279432_Nest_Thermostat_159_after_50_Paypal_Coupon__40/20%Monthly2019-01-17 13:47
http://www.hotnewdeal.com/2019/01/17/279431_10_off_60_at_Sprouts_Farmers_Market/20%Monthly2019-01-17 13:47
http://www.hotnewdeal.com/2019/01/17/279430_Stubbs_14lb_Charcoal_Briquettes__549__14_lbs/20%Monthly2019-01-17 13:47
http://www.hotnewdeal.com/2019/01/17/279429_Anker_A1275Z11_PowerCore_Speed_20100_with_USBC_Po/20%Monthly2019-01-17 13:47
http://www.hotnewdeal.com/2019/01/17/279428_Playstation_Plus_12_Month_Membership__4499/20%Monthly2019-01-17 13:31
http://www.hotnewdeal.com/2019/01/17/279427_XFX_Radeon_RX_580_GTS_XXX_Edition_1386MHz_OC_8GB/20%Monthly2019-01-17 13:30
http://www.hotnewdeal.com/2019/01/17/279425_GardenHOME_Pipe_and_Valve_Heating_Cable_9Feet_He/20%Monthly2019-01-17 13:15
http://www.hotnewdeal.com/2019/01/17/279424_7900_BRIMNES_TV_unit_black/20%Monthly2019-01-17 13:15
http://www.hotnewdeal.com/2019/01/17/279423_Revolving_Spin_Spice_Jar_Organizer_with_8_pcs_Larg/20%Monthly2019-01-17 13:14
http://www.hotnewdeal.com/2019/01/17/279421_Christian_Dior_Sunglasses_For_12999__Wootcom_/20%Monthly2019-01-17 13:00
http://www.hotnewdeal.com/2019/01/17/279420_SanDisk_Ultra_128GB_microSDXC_1982_Free_Shippin/20%Monthly2019-01-17 12:55
http://www.hotnewdeal.com/2019/01/17/279419_Dell_T30_with_E31225_v5_8GB_ram_1TB_HDD_for_30/20%Monthly2019-01-17 12:55
http://www.hotnewdeal.com/2019/01/17/279418_Sony_X900F_Series_75_LED_TV_XBR75X900F_2299/20%Monthly2019-01-17 12:41
http://www.hotnewdeal.com/2019/01/17/279417_Ninja_Foodi_at_Kohls_17499__30_Kohls_Cash_fo/20%Monthly2019-01-17 12:40
http://www.hotnewdeal.com/2019/01/17/279416_4Count_14oz_KIND_Bars_Madagascar_Vanilla_Almond/20%Monthly2019-01-17 12:40
http://www.hotnewdeal.com/2019/01/17/279415_Far_Cry_5_Deluxe_Edition__Xbox_One_Digital_Code/20%Monthly2019-01-17 12:33
http://www.hotnewdeal.com/2019/01/17/279414_Brand_New_TPLINK_M5_3PACK_157_ship_free/20%Monthly2019-01-17 12:25
http://www.hotnewdeal.com/2019/01/17/279413_JCrew_Mercantile_Brokenin_Vneck_Navy_Heather_Te/20%Monthly2019-01-17 12:24
http://www.hotnewdeal.com/2019/01/17/279412_Design_House_Syrah_3Light_Vanity_Light_Satin_Nic/20%Monthly2019-01-17 12:16
http://www.hotnewdeal.com/2019/01/17/279411_Columbia_Mens_Lost_Peak_Half_Zip_Fleece_20/20%Monthly2019-01-17 12:07
http://www.hotnewdeal.com/2019/01/17/279409_August_Smart_Lock_Pro__Connect_3rd_Gen__Wireless/20%Monthly2019-01-17 12:03
http://www.hotnewdeal.com/2019/01/17/279408_Costco_members_only__Sorel_womens_Joan_of_Arctic/20%Monthly2019-01-17 11:45
http://www.hotnewdeal.com/2019/01/17/279407_Chemical_Guys_CWS_107_Extreme_Body_Wash_and_Synthe/20%Monthly2019-01-17 11:45
http://www.hotnewdeal.com/2019/01/17/279406_300_Kohls_Cares_Mickey_or_Minnie/20%Monthly2019-01-17 11:30
http://www.hotnewdeal.com/2019/01/17/279405_Costco_32_Degrees_Mens_Sherpa_Lined_Full_Zip_Hoo/20%Monthly2019-01-17 11:14
http://www.hotnewdeal.com/2019/01/17/279404_Klipsch_R120SW_Subwoofer_124__SoldShipped_via_/20%Monthly2019-01-17 11:01
http://www.hotnewdeal.com/2019/01/17/279403_AMD_RYZEN_5_2400G_CPU__GIGABYTE_B450_AORUS_PRO_WI/20%Monthly2019-01-17 11:01
http://www.hotnewdeal.com/2019/01/17/279402_Lidscom_Clearance_Hurley_Peters_Visor_325_Men/20%Monthly2019-01-17 10:24
http://www.hotnewdeal.com/2019/01/17/279401_LG_4K_UHD_HDR_LED_Smart_TV__100_Dell_eGift_Card/20%Monthly2019-01-17 10:16
http://www.hotnewdeal.com/2019/01/17/279400_ABS_Gem_Gaming_Desktop_PC_NVIDIA_GeForce_GTX_1080_/20%Monthly2019-01-17 10:16
http://www.hotnewdeal.com/2019/01/17/279399_Disc_Lock_Alarm_Padlock_110db_Alarm_Sound_for_Moto/20%Monthly2019-01-17 10:03
http://www.hotnewdeal.com/2019/01/17/279398_Home_Depot_Ring_Outdoor_WiFi_Cam_with_Motion_Acti/20%Monthly2019-01-17 10:03
http://www.hotnewdeal.com/2019/01/17/279397_SAMSUNG_10000_mAh_Portable_Battery_with_Micro_USB/20%Monthly2019-01-17 10:03
http://www.hotnewdeal.com/2019/01/17/279396_Nursing_Cover__Breastfeeding_Cover_Carseat_Canopy/20%Monthly2019-01-17 09:43
http://www.hotnewdeal.com/2019/01/17/279395_Kindle_ebooks_for_120_or_less/20%Monthly2019-01-17 09:43
http://www.hotnewdeal.com/2019/01/17/279394_Addon_3Pack_75oz_Pepperidge_Farm_Milano_Cookies/20%Monthly2019-01-17 09:43
http://www.hotnewdeal.com/2019/01/17/279393_VELOCIFIRE_TKL01_Mechanical_Keyboard_87Key_Tenkey/20%Monthly2019-01-17 09:43
http://www.hotnewdeal.com/2019/01/17/279392_TPLink_EAP225_V3_4299__Tax_AC_via_Newegg/20%Monthly2019-01-17 09:30
http://www.hotnewdeal.com/2019/01/17/279391_Funko_Pop_Vinyl_Figures_Overwatch_Winter_Wonderl/20%Monthly2019-01-17 09:30
http://www.hotnewdeal.com/2019/01/17/279390_Ubiquiti_Networks_80211ac_Long_Range_Access_Point/20%Monthly2019-01-17 09:30
http://www.hotnewdeal.com/2019/01/17/279389_LL_Bean_Extra_25_Off_Coupon_Mens_LL_Bean_Summer/20%Monthly2019-01-17 09:15
http://www.hotnewdeal.com/2019/01/17/279388_24_Dell_UltraSharp_U2412M_1920_x_1200_IPS_Monitor/20%Monthly2019-01-17 08:56
http://www.hotnewdeal.com/2019/01/17/279387_Gktu_ULA_Icon_pack_collection_free_for_Android/20%Monthly2019-01-17 08:06
http://www.hotnewdeal.com/2019/01/17/279385_Microsoft_Xbox_One_Wireless_Controller_Sport_Whit/20%Monthly2019-01-17 08:05
http://www.hotnewdeal.com/2019/01/17/279384_Kohls_Cardholders_Womens_TShirt__Jeans_Brand/20%Monthly2019-01-17 08:05
http://www.hotnewdeal.com/2019/01/17/279383_24Pack_Maxwell_House_Loose_Leaf_Iced_Tea_4Oun/20%Monthly2019-01-17 08:05
http://www.hotnewdeal.com/2019/01/17/279382_Kicker_250W_Amplifier_w_Comp_12_Subwoofer_and_En/20%Monthly2019-01-17 07:16
http://www.hotnewdeal.com/2019/01/17/279381_24_Mega_Rolls__Cottonelle_Ultra_GentleCare_Toilet/20%Monthly2019-01-17 06:46
http://www.hotnewdeal.com/2019/01/17/279380_24_packs_2oz_Sour_Patch_Kids_Sweet_and_Sour_Gum/20%Monthly2019-01-17 06:46
http://www.hotnewdeal.com/2019/01/17/279379_Thermaltake_Floe_360_AIO_RGB_cpu_liquid_cooler_10/20%Monthly2019-01-17 06:11
http://www.hotnewdeal.com/2019/01/17/279378_ChefsChoice_120_Diamond_Hone_EdgeSelect_Professio/20%Monthly2019-01-17 05:16
http://www.hotnewdeal.com/2019/01/17/279377_HR_Block_Tax_Software_Deluxe__State_2018_with_5/20%Monthly2019-01-17 04:46
http://www.hotnewdeal.com/2019/01/17/279376_Kohls_Cardholders_15Pack_Carters_Short_Sleeve_/20%Monthly2019-01-17 03:32
http://www.hotnewdeal.com/2019/01/17/279375_Arcade1up_Asteroids_Machine_149_at_Gamestop_149/20%Monthly2019-01-17 02:48
http://www.hotnewdeal.com/2019/01/17/279374_Polaroid_Lightweight_Polarized_Sunglasses_2_style/20%Monthly2019-01-17 02:48
http://www.hotnewdeal.com/2019/01/17/279373_AUKEY_Rugged__WaterResistant_Portable_Wireless_B/20%Monthly2019-01-17 02:08
http://www.hotnewdeal.com/2019/01/17/279372_Yankee_Candle_Select_Large_22_oz_Jar_664__599/20%Monthly2019-01-17 01:47
http://www.hotnewdeal.com/2019/01/17/279371_2Count_Revlon_Straight__Smooth_Soft_Touch_Paddle/20%Monthly2019-01-17 01:34
http://www.hotnewdeal.com/2019/01/17/279370_Honey_Stinger_Organic_Waffle_16_pack/20%Monthly2019-01-17 01:13
http://www.hotnewdeal.com/2019/01/17/279368_FisherPrice_Imaginext_DC_Super_Friends_Batman_Oo/20%Monthly2019-01-17 01:13
http://www.hotnewdeal.com/2019/01/17/279367_14__ASUS_Zenbook_16GB_512_GB_SSD_UX430UN_Lapto/20%Monthly2019-01-17 01:13
http://www.hotnewdeal.com/2019/01/17/279366_Apple_iPad_32GB_with_WiFi__Space_Gray_MR7F2LLA_/20%Monthly2019-01-17 01:13
http://www.hotnewdeal.com/2019/01/17/279365_BlackGreyRed_Knit_Beanie_Hat_for_Women_499/20%Monthly2019-01-17 01:07
http://www.hotnewdeal.com/2019/01/16/279364_Completly_Free_federal_and_state_tax_filing__DIY_/20%Monthly2019-01-16 23:45
http://www.hotnewdeal.com/2019/01/16/279363_3509oz_SNICKERS_Variety_Mix_Fun_Size_623_AC_w_/20%Monthly2019-01-16 23:45
http://www.hotnewdeal.com/2019/01/16/279362_Home_Depot_Home_Decorator_Collection_Pillow_Shams/20%Monthly2019-01-16 23:14
http://www.hotnewdeal.com/2019/01/16/279361_KNIPEX_71_12_200__8inch_Cobalt_Compact_Bolt_Cutt/20%Monthly2019-01-16 22:31
http://www.hotnewdeal.com/2019/01/16/279360_Sharpie_38ct_Multicolor_Marker_Set__900_on_clea/20%Monthly2019-01-16 22:31
http://www.hotnewdeal.com/2019/01/16/279359_QuickBooks_Professional_2019__149_Amazon/20%Monthly2019-01-16 22:30
http://www.hotnewdeal.com/2019/01/16/279358_Crucial_P1_500GB_3D_NAND_NVMe_PCIe_M2_SSD__749/20%Monthly2019-01-16 22:30
http://www.hotnewdeal.com/2019/01/16/279357_Ricoh_SP_C261DNw_Wireless_Color_Laser_Printer_99_/20%Monthly2019-01-16 22:19
http://www.hotnewdeal.com/2019/01/16/279355_2Count_OxiClean_Max_Force_Gel_Stain_Remover_Stick/20%Monthly2019-01-16 22:04
http://www.hotnewdeal.com/2019/01/16/279354_6Count_12oz_Eight_OClock_Ground_Coffee_The_Ori/20%Monthly2019-01-16 21:45
http://www.hotnewdeal.com/2019/01/16/279353_285oz_Jack_Links_Beef_Jerky_Flame_Grilled_Steak/20%Monthly2019-01-16 21:31
http://www.hotnewdeal.com/2019/01/16/279352_Super_Mario_Party_Nintendo_Switch_Video_Game_42/20%Monthly2019-01-16 21:31
http://www.hotnewdeal.com/2019/01/16/279351_ADATA_XPG_GAMMIX_D10_16GB_DRAM_8839_AC__Free_S/20%Monthly2019-01-16 21:31
http://www.hotnewdeal.com/2019/01/16/279350_YMMV__Work_Sharp_WSKTS_Knife__Tool_Sharpener__L/20%Monthly2019-01-16 21:31
http://www.hotnewdeal.com/2019/01/16/279349_ADATA_XPG_SX8200_PCIE_NVME_GEN3X4_M2_2280_480_GB_/20%Monthly2019-01-16 21:16
http://www.hotnewdeal.com/2019/01/16/279348_MajorQ_8020730q_86_x_67_x_63H_Luxurious_Vintag/20%Monthly2019-01-16 21:16
http://www.hotnewdeal.com/2019/01/16/279347_Kobalt_204Piece_Household_Tool_Set_with_Hard_Case/20%Monthly2019-01-16 21:02
http://www.hotnewdeal.com/2019/01/16/279346_Microsoft_Xbox_One_S_1TB_Console_Battlefield_V_Gam/20%Monthly2019-01-16 21:02
http://www.hotnewdeal.com/2019/01/16/279345_Sony_STRDN1080_72Ch_HomeTheater_Receiver_299/20%Monthly2019-01-16 20:48
http://www.hotnewdeal.com/2019/01/16/279343_Zojirushi_SMKHE48AG_Stainless_Steel_Mug_16oz_S/20%Monthly2019-01-16 20:48
http://www.hotnewdeal.com/2019/01/16/279342_Bose_QuietComfort_35_Series_II_Wireless_Noise_Canc/20%Monthly2019-01-16 20:48
http://www.hotnewdeal.com/2019/01/16/279339_ADATA_SU800_2TB_SSD_200__SU800_1TB_SSD_100_AC/20%Monthly2019-01-16 19:45
http://www.hotnewdeal.com/2019/01/16/279338_PowerColor_Radeon_RX_VEGA_64_369/20%Monthly2019-01-16 19:30
http://www.hotnewdeal.com/2019/01/16/279336_Nintendo_Switch_Console_with_Gray_Joycon_Controlle/20%Monthly2019-01-16 19:02
http://www.hotnewdeal.com/2019/01/16/279335_Bosch_MS4034_34Piece_Drill_and_Drive_Bit_Set_Ama/20%Monthly2019-01-16 18:43
http://www.hotnewdeal.com/2019/01/16/279334_Fiji_Airways_Great_Companion_Airfare_Sale__LAX_SF/20%Monthly2019-01-16 18:43
http://www.hotnewdeal.com/2019/01/16/279332_Patriot_Burst_25_480GB_SATA_III_SSD_PBU480GS25S/20%Monthly2019-01-16 18:37
http://www.hotnewdeal.com/2019/01/16/279331_10Reams_Office_Depot_Copy__Print_Letter_Size_Pap/20%Monthly2019-01-16 18:22
http://www.hotnewdeal.com/2019/01/16/279330_Chromecast_Audio_back_in_stock_again_15/20%Monthly2019-01-16 18:15
http://www.hotnewdeal.com/2019/01/16/279329_Johnny_Bench_MLB_Majestic_Cooperstown_Jersey_20/20%Monthly2019-01-16 18:15
http://www.hotnewdeal.com/2019/01/16/279328_Buy_2_Household_Essentials_Items_Get_5_Target_GC/20%Monthly2019-01-16 18:15
http://www.hotnewdeal.com/2019/01/16/279327_Addon_Item_Blindfolded_Twister_Game_575__Amaz/20%Monthly2019-01-16 18:07
http://www.hotnewdeal.com/2019/01/16/279326_PS4_VR_Demo_Disc_3_Including_Superhot_Moss_Astr/20%Monthly2019-01-16 18:03
http://www.hotnewdeal.com/2019/01/16/279324_Schneider_Fountain_Pen_Ink_Cartridge_Blue_Ink_Bo/20%Monthly2019-01-16 18:02
http://www.hotnewdeal.com/2019/01/16/279323_Anker_Powerline_II_MFi_Certified_Lightning_Cable_6/20%Monthly2019-01-16 18:02
http://www.hotnewdeal.com/2019/01/16/279322_240hz_1ms_monitor_Acer_XF250Q_Cbmiiprx_245_1080_/20%Monthly2019-01-16 18:02
http://www.hotnewdeal.com/2019/01/16/279321_3Oz_MMS_Coffee_Nut_Chocolate_Candy_010_In_St/20%Monthly2019-01-16 17:54
http://www.hotnewdeal.com/2019/01/16/279320_Samsung_QN65Q9FN_65_Ultra_HD_2160p_4K_QLED_Smart_/20%Monthly2019-01-16 17:44
http://www.hotnewdeal.com/2019/01/16/279319_Lavazza_Nespresso_Compatible_Capsules_Pack_of_60/20%Monthly2019-01-16 17:44
http://www.hotnewdeal.com/2019/01/16/279318_Swanson_7in_and_12in_Speed_Square_Kit_1496/20%Monthly2019-01-16 17:44
http://www.hotnewdeal.com/2019/01/16/279317_Crucial_MX500_500_GB_50_after_coupon_at_staples_/20%Monthly2019-01-16 17:29
http://www.hotnewdeal.com/2019/01/16/279315_AMD_Ryzen_5_1600_32GHz_6_Core_AM4_Boxed_Processor/20%Monthly2019-01-16 17:29
http://www.hotnewdeal.com/2019/01/16/279314_Chefs_Choice_615A_Electric_Meat_Slicer_9899_Shi/20%Monthly2019-01-16 17:22
http://www.hotnewdeal.com/2019/01/16/279313_Bosch_Core_18V_63_Ah_Battery_with_Fast_Charger_4/20%Monthly2019-01-16 17:16
http://www.hotnewdeal.com/2019/01/16/279312_Washburn_Guitars_Woodline_100_6String_Orchestra_/20%Monthly2019-01-16 17:16
http://www.hotnewdeal.com/2019/01/16/279310_Rca_65_4k_46999_rca_55_4k_28999__rca_50_4k_/20%Monthly2019-01-16 17:04
http://www.hotnewdeal.com/2019/01/16/279309_Roav_DashCam_S1_by_Anker_Dash_Cam_Full_HD_1080p/20%Monthly2019-01-16 17:04
http://www.hotnewdeal.com/2019/01/16/279308_Merino_Wool_Kirkland_Signature_Mens_Outdoor_Trail/20%Monthly2019-01-16 16:51
http://www.hotnewdeal.com/2019/01/16/279305_Costco_Members_Hisense_50_Class_496_Diag_4K/20%Monthly2019-01-16 16:22
http://www.hotnewdeal.com/2019/01/16/279304_7_For_All_Mankind_Flash_Sale_Mens_Luxe_Performan/20%Monthly2019-01-16 16:22
http://www.hotnewdeal.com/2019/01/16/279303_Dicks_Sports_Fishing_Deals_50_off/20%Monthly2019-01-16 16:13
http://www.hotnewdeal.com/2019/01/16/279302_HP_Silver_Iridium_156_Laptop_Touchscreen_Intel/20%Monthly2019-01-16 16:01
http://www.hotnewdeal.com/2019/01/16/279301_9600_pages_of_Dynamite_comics_18/20%Monthly2019-01-16 16:01
http://www.hotnewdeal.com/2019/01/16/279299_EVGA_GeForce_GT_1030_SC_2GB_GDDR5_Passive_LP_Re/20%Monthly2019-01-16 15:41
http://www.hotnewdeal.com/2019/01/16/279298_Toshiba_43_Class_LED_4K_UHD_TV_with_HDR_Fire_TV_E/20%Monthly2019-01-16 15:41
http://www.hotnewdeal.com/2019/01/16/279297_Intel_Core_i59600K_Coffee_Lake_6Cores_37GHz_Unl/20%Monthly2019-01-16 15:15
http://www.hotnewdeal.com/2019/01/16/279296_TurboTax_2018_Home_and_Business_for_42_at_Target_/20%Monthly2019-01-16 15:15
http://www.hotnewdeal.com/2019/01/16/279295_Delta_Children_Gateway_4in1_Convertible_Crib_Dar/20%Monthly2019-01-16 15:02
http://www.hotnewdeal.com/2019/01/16/279294_LG_75_Class_4K_Ultra_HD_LED_LCD_TV_Model_75UK65/20%Monthly2019-01-16 14:46
http://www.hotnewdeal.com/2019/01/16/279293_Chicago_to_Beijing_China_502526_RT_Nonstop_on_Ha/20%Monthly2019-01-16 14:46
http://www.hotnewdeal.com/2019/01/16/279292_13_Schick_Hydro_5_Sense_Hydrate_Mens_Razor_Blade/20%Monthly2019-01-16 14:46
http://www.hotnewdeal.com/2019/01/16/279291_Milwaukee_M18_Fuel_Trimmer__90_battery_included_/20%Monthly2019-01-16 14:45
http://www.hotnewdeal.com/2019/01/16/279290_Apple_Leather_Case__iPhone_X_245/20%Monthly2019-01-16 14:45
http://www.hotnewdeal.com/2019/01/16/279289_Xfinity_Mobile_BYOD_is_back_with_100_Prepaid_card/20%Monthly2019-01-16 14:38
http://www.hotnewdeal.com/2019/01/16/279288_Crucial_BX500_25_inch_480GB_SATA_III_3D_NAND_Inte/20%Monthly2019-01-16 14:38
http://www.hotnewdeal.com/2019/01/16/279287_Toddler_Bed_Bumper_Rail_Guard_15__free_sh/20%Monthly2019-01-16 14:04
http://www.hotnewdeal.com/2019/01/16/279285_STAINMASTER_Sweep__Mop_Floor_Cleaning_Tool_with_R/20%Monthly2019-01-16 13:19
http://www.hotnewdeal.com/2019/01/16/279284_Umami_Burger_19_for_35_credit/20%Monthly2019-01-16 13:08
http://www.hotnewdeal.com/2019/01/16/279283_Free_GOLD_STATUS_with_CHASE_Save_5gallon_at_She/20%Monthly2019-01-16 13:00
http://www.hotnewdeal.com/2019/01/16/279282_3Pack_PUMA_Volume_Boxer_Briefs_1049__Free_Ship/20%Monthly2019-01-16 12:53
http://www.hotnewdeal.com/2019/01/16/279281_Reebok_Trainfusion_30_Training_Shoe_1899_or_2_f/20%Monthly2019-01-16 12:53
http://www.hotnewdeal.com/2019/01/16/279280_TCL_65S517_Roku_SmarTV_689_AC__Free_Shipping/20%Monthly2019-01-16 12:53
http://www.hotnewdeal.com/2019/01/16/279279_Oakley_Select_Apparel__Accessories_70_Off/20%Monthly2019-01-16 12:39
http://www.hotnewdeal.com/2019/01/16/279278_Xbox_One_Games_Hasbro_Family_Fun_Pack_Conquest_Ed/20%Monthly2019-01-16 12:28
http://www.hotnewdeal.com/2019/01/16/279277_Puma_Mens_365_NETFIT_CT_Court_Training_Shoes_17/20%Monthly2019-01-16 12:14
http://www.hotnewdeal.com/2019/01/16/279276_3Pack_75oz_Pepperidge_Farm_Milano_Cookies_Doubl/20%Monthly2019-01-16 12:01
http://www.hotnewdeal.com/2019/01/16/279275_Catherine_Classic_Digital_Deluxe_Edition_PC_Digi/20%Monthly2019-01-16 12:00
http://www.hotnewdeal.com/2019/01/16/279274_Macyscom_wFree_Store_Pick_up_90_off_Markdowns_/20%Monthly2019-01-16 11:47
http://www.hotnewdeal.com/2019/01/16/279273_LOWES_YMMV_CLEARANCE_Several_Washers_and_Dryers_f/20%Monthly2019-01-16 11:47
http://www.hotnewdeal.com/2019/01/16/279272_Big_Lots_20_Friends__Family_Event__January_192/20%Monthly2019-01-16 11:47
http://www.hotnewdeal.com/2019/01/16/279271_Assassins_Creed_Odyssey_PS4_or_Xbox_One_2499_/20%Monthly2019-01-16 11:47
http://www.hotnewdeal.com/2019/01/16/279270_YMMV__DELTA_SM_10in_150Amp_SingleBevel_SLI/20%Monthly2019-01-16 11:15
http://www.hotnewdeal.com/2019/01/16/279269_Womens_New_Balance_573_Running_Shoes_2799__Fre/20%Monthly2019-01-16 11:02
http://www.hotnewdeal.com/2019/01/16/279268_Marineland_75_Gallon_Aquarium_Majesty_Ensemble_in_/20%Monthly2019-01-16 10:47
http://www.hotnewdeal.com/2019/01/16/279267_Far_Cry_5_Tom_Clancys_Rainbow_Six_Siege_or_The_/20%Monthly2019-01-16 10:39
http://www.hotnewdeal.com/2019/01/16/279266_Kindle_SciFi_eBook_The_Long_Earth_by_Terry_Prat/20%Monthly2019-01-16 10:39
http://www.hotnewdeal.com/2019/01/16/279264_Addon_Item_Thomas__Friends_Adventures_Thomas_R/20%Monthly2019-01-16 10:38
http://www.hotnewdeal.com/2019/01/16/279263_1400_Upgrade_Wireless_OEM_Look_LCD_Rear_View_Mirro/20%Monthly2019-01-16 10:31
http://www.hotnewdeal.com/2019/01/16/279262_Disney_Mickey_Mouse_Holiday_PJ_PALS_for_Baby_599/20%Monthly2019-01-16 10:30
http://www.hotnewdeal.com/2019/01/16/279261_22lb_Lavazza_LEspresso_Gran_Aroma_Whole_Bean_Co/20%Monthly2019-01-16 10:30
http://www.hotnewdeal.com/2019/01/16/279260_PUMA_extra_30_off_all_Sale_Items_PUMA_Bridger_Ca/20%Monthly2019-01-16 10:22
http://www.hotnewdeal.com/2019/01/16/279259_eBays_Bucks_8_until_11819__YMMV/20%Monthly2019-01-16 10:14
http://www.hotnewdeal.com/2019/01/16/279258_2_Pack_Tabbed_Calendar_Planners_2019__399__Fre/20%Monthly2019-01-16 10:14
http://www.hotnewdeal.com/2019/01/16/279257_Smart_WiFi_Plug_2_Pack_1199__FS_oittmcom/20%Monthly2019-01-16 09:28
http://www.hotnewdeal.com/2019/01/16/279256_Stanley_84096_5Inch_Needle_Nose_Plier_for_369_/20%Monthly2019-01-16 09:13
http://www.hotnewdeal.com/2019/01/16/279255_9999_Lexar_512GB_Professional_UHSI_SDXC_Memory_/20%Monthly2019-01-16 09:13
http://www.hotnewdeal.com/2019/01/16/279254_Wireless_Earbuds_Bluetooth_50_Sports_Headphones_w/20%Monthly2019-01-16 09:13
http://www.hotnewdeal.com/2019/01/16/279253_Samsung_65_MU7000_4KSmart_Ultra_HDTV_52199/20%Monthly2019-01-16 08:50
http://www.hotnewdeal.com/2019/01/16/279252_adidas_Mens_Tiro_17_Training_Pant_15_adidas_Men/20%Monthly2019-01-16 08:43
http://www.hotnewdeal.com/2019/01/16/279251_Hyperkin_Duke_Wired_Controller_for_Xbox_One_Windo/20%Monthly2019-01-16 08:22
http://www.hotnewdeal.com/2019/01/16/279249_TPLink_Smart_Dimmer_Switch_HS220_2pack__599/20%Monthly2019-01-16 08:06
http://www.hotnewdeal.com/2019/01/16/279248_Monoprice_Obsidian_Series_45W_USB_TypeC_Wall_Char/20%Monthly2019-01-16 08:06
http://www.hotnewdeal.com/2019/01/16/279247_4Pk_Nuun_Hydration_Electrolyte_Drink_Tablets_Cit/20%Monthly2019-01-16 08:06
http://www.hotnewdeal.com/2019/01/16/279246_Women_3in1_Winter_Ski_Jacket_for_5199_Women_W/20%Monthly2019-01-16 07:14
http://www.hotnewdeal.com/2019/01/16/279244_Insignia_HDTV_Antennas_Outdoor_50_High_Gain_Yag/20%Monthly2019-01-16 05:44
http://www.hotnewdeal.com/2019/01/16/279243_Artmeer_Expandable_Bamboo_Wooden_Utensil_Tray_15/20%Monthly2019-01-16 05:31
http://www.hotnewdeal.com/2019/01/16/279242_Regency_Natural_Cooking_Twine_12_Cone_100_Cotton/20%Monthly2019-01-16 04:33
http://www.hotnewdeal.com/2019/01/16/279241_AMD_RYZEN_7_1700_8Core_30_GHz_37_GHz_Turbo_So/20%Monthly2019-01-16 04:33
http://www.hotnewdeal.com/2019/01/16/279240_1500W_Indoor_Electric_Mini_Desk_Personal_Heater_1/20%Monthly2019-01-16 03:09
http://www.hotnewdeal.com/2019/01/16/279239_Express_40_off_coupon_Get_mens_shirts_for_16_e/20%Monthly2019-01-16 03:09
http://www.hotnewdeal.com/2019/01/16/279238_Label_KINGDOM_2_Pack_Replace_P_Touch_Label_Tape_0/20%Monthly2019-01-16 02:47
http://www.hotnewdeal.com/2019/01/16/279237_43_Sharp_LC43LBU591U_4K_LED_UHD_HDR_w_Roku_TV_/20%Monthly2019-01-16 02:06
http://www.hotnewdeal.com/2019/01/16/279236_8Piece_GreenLife_Diamond_Ceramic_NonStick_Cookwa/20%Monthly2019-01-16 01:16
http://www.hotnewdeal.com/2019/01/16/279235_Franklin_Sports_48_Straight_Leg_Air_Hockey_Table_/20%Monthly2019-01-16 01:16
http://www.hotnewdeal.com/2019/01/16/279234_HP_14DF0020NR_14_FHD_IPS_Natural_Silver_Laptop_/20%Monthly2019-01-16 01:16
http://www.hotnewdeal.com/2019/01/15/279233_LEGO_Star_Wars_VIII_BB8_75187_Building_Kit_1106_/20%Monthly2019-01-15 23:48
http://www.hotnewdeal.com/2019/01/15/279232_15w_AOMAIS_Ball_Bluetooth_42_Speaker_w_DSP_and_T/20%Monthly2019-01-15 23:31
http://www.hotnewdeal.com/2019/01/15/279230_Seiko_SNE495_Mens_Solar_Black_Dial_Black_Leather_/20%Monthly2019-01-15 22:38
http://www.hotnewdeal.com/2019/01/15/279229_Free_AstroGlide_X_SiliconeBased_Lubricant_Sample/20%Monthly2019-01-15 22:31
http://www.hotnewdeal.com/2019/01/15/279227_18pc_GreenLife_Soft_Grip_ToxinFree_Ceramic_NonS/20%Monthly2019-01-15 22:31
http://www.hotnewdeal.com/2019/01/15/279226_Starbucks_holiday_blend_coffee_10oz__174_after_/20%Monthly2019-01-15 22:15
http://www.hotnewdeal.com/2019/01/15/279225_8999_Digital_Wireless_Backup_Camera_Kit_TD2_St/20%Monthly2019-01-15 22:06
http://www.hotnewdeal.com/2019/01/15/279224_Nerf_Rival_battle_ammo_set_40_rounds_499_499/20%Monthly2019-01-15 22:03
http://www.hotnewdeal.com/2019/01/15/279222_Ryzen_Threadripper_1920x_YMMV_IN_Store_Only_3659/20%Monthly2019-01-15 21:14
http://www.hotnewdeal.com/2019/01/15/279221_2018_Forza_Horizon_4__Xbox_One_X_Enhanced_4K_HDR_/20%Monthly2019-01-15 21:14
http://www.hotnewdeal.com/2019/01/15/279220_Conan_The_Barbarian_Complete_Collection_Audiobook/20%Monthly2019-01-15 20:58
http://www.hotnewdeal.com/2019/01/15/279219_Target_Cartwheel_InStore_Offer_Additional_Saving/20%Monthly2019-01-15 20:52
http://www.hotnewdeal.com/2019/01/15/279218_3M_1_Pack_Quick_Headlight_Clear_Coat_39173_504/20%Monthly2019-01-15 20:52
http://www.hotnewdeal.com/2019/01/15/279217_UPS_My_Choice_3_for_3_months/20%Monthly2019-01-15 20:38
http://www.hotnewdeal.com/2019/01/15/279214_Hotelscom__25_Off_of_250_Spend_on_Select_Hote/20%Monthly2019-01-15 20:23
http://www.hotnewdeal.com/2019/01/15/279213_Columbia_Girls_Puffect_Jacket_2445/20%Monthly2019-01-15 20:13
http://www.hotnewdeal.com/2019/01/15/279210_16GB_2x8GB_DDR4_Desktop_Memory_GSKILL_Ripjaws_/20%Monthly2019-01-15 20:00
http://www.hotnewdeal.com/2019/01/15/279209_Fujifilm_Instax_Twin_Mini_Pack_White_Frame_12/20%Monthly2019-01-15 19:43
http://www.hotnewdeal.com/2019/01/15/279208_39999_Xiaomi_Mi_M365_Electric_Folding_Scooter_u/20%Monthly2019-01-15 19:43
http://www.hotnewdeal.com/2019/01/15/279207_Dell_S2417DG_24_238_viewable_169_monitor_2K/20%Monthly2019-01-15 19:43
http://www.hotnewdeal.com/2019/01/15/279206_12Count_of_32oz_GoGo_squeeZ_Applesauce_on_the_Go/20%Monthly2019-01-15 19:29
http://www.hotnewdeal.com/2019/01/15/279205_Yankee_Candle_Large_Jar_Candles__Amazon_999/20%Monthly2019-01-15 19:28
http://www.hotnewdeal.com/2019/01/15/279204_Workstream_by_Monoprice_Brown_Switch_Full_Size_Mec/20%Monthly2019-01-15 19:28
http://www.hotnewdeal.com/2019/01/15/279203_Apex_Launcher_Pro_Android_App__99_Sale_from_/20%Monthly2019-01-15 19:12
http://www.hotnewdeal.com/2019/01/15/279202_MSI_GV62_8RE016_156GTX1060i58300H8GB_RAM1T/20%Monthly2019-01-15 19:12
http://www.hotnewdeal.com/2019/01/15/279200_Brother_Compact_Monochrome_Laser_Printer_HLL2350/20%Monthly2019-01-15 18:53
http://www.hotnewdeal.com/2019/01/15/279199_One__Week_Food_Supply_In_A_Ammo_Can__1500_Calo/20%Monthly2019-01-15 18:53
http://www.hotnewdeal.com/2019/01/15/279198_Verizon_Wireless__250_MasterCard_for_BYOD_port_o/20%Monthly2019-01-15 18:46
http://www.hotnewdeal.com/2019/01/15/279197_30Count_Bags_Quaker_Rice_Crisps_Savory_Mix_06/20%Monthly2019-01-15 18:38
http://www.hotnewdeal.com/2019/01/15/279196_Polk_Audio_T50_Home_Theatre_and_Music_Floor_Standi/20%Monthly2019-01-15 18:38
http://www.hotnewdeal.com/2019/01/15/279195_Kohls_Coupon_for_Additional_Savings_5_off_25_e/20%Monthly2019-01-15 18:30
http://www.hotnewdeal.com/2019/01/15/279194_Adjustable_Shoulder_Straps_Plus_Size_Babydoll_Ling/20%Monthly2019-01-15 18:03
http://www.hotnewdeal.com/2019/01/15/279192_pair_Klipsch_RP280FA_Reference_Premiere_Atmos_S/20%Monthly2019-01-15 17:44
http://www.hotnewdeal.com/2019/01/15/279191_MyProtein_sale_up_to_45_off__11lb_Whey_Isolate_f/20%Monthly2019-01-15 17:44
http://www.hotnewdeal.com/2019/01/15/279190_MSI_Optix_MAG341CQ_34_FreeSync_Curved_Ultrawide_W/20%Monthly2019-01-15 17:28
http://www.hotnewdeal.com/2019/01/15/279189_ASICS_GT_2000_6_Running_Shoe_5988__Free_SH/20%Monthly2019-01-15 17:12
http://www.hotnewdeal.com/2019/01/15/279188_Insignia_Fire_TV_Stick_Remote_Cover_Various_Color/20%Monthly2019-01-15 17:12
http://www.hotnewdeal.com/2019/01/15/279187_LOWES__Hitachi_12in_15Amp_Dual_Bevel_Laser_Com/20%Monthly2019-01-15 17:00
http://www.hotnewdeal.com/2019/01/15/279185_EVGA_SuperNOVA_850W_G3_Modular_PSU_with_Quiet_HDB_/20%Monthly2019-01-15 16:51
http://www.hotnewdeal.com/2019/01/15/279184_TCL_43_4K_Ultra_HD_Roku_TV_Model_43S403_Costco/20%Monthly2019-01-15 16:38
http://www.hotnewdeal.com/2019/01/15/279183_Bitmo_app_15_off_gift_cards/20%Monthly2019-01-15 16:28
http://www.hotnewdeal.com/2019/01/15/279182_30_Razors_310_Packs_BIC_Twin_Select_Mens_Disp/20%Monthly2019-01-15 16:26
http://www.hotnewdeal.com/2019/01/15/279181_Free_Early_Screening_of_Glass_YMMV/20%Monthly2019-01-15 15:45
http://www.hotnewdeal.com/2019/01/15/279180_Wusthof_8Piece_Steak_Knife_Set_with_Presentation_/20%Monthly2019-01-15 15:31
http://www.hotnewdeal.com/2019/01/15/279179_BenQ_MH530FHD_1080p_3300_Lumens_DLP_Home_Theater_V/20%Monthly2019-01-15 15:31
http://www.hotnewdeal.com/2019/01/15/279178_Fire_TV_Stick_with_Alexa_Voice_Remote_1st_Generat/20%Monthly2019-01-15 15:31
http://www.hotnewdeal.com/2019/01/15/279177_Nuvita_Instant_Read_Digital_Cooking_Thermometer__/20%Monthly2019-01-15 15:31
http://www.hotnewdeal.com/2019/01/15/279176_Discover_Magazine_for_699yr/20%Monthly2019-01-15 15:13
http://www.hotnewdeal.com/2019/01/15/279175_Printed_Reversible_Bedding_Quilt_and_Shams_Set_3/20%Monthly2019-01-15 15:13
http://www.hotnewdeal.com/2019/01/15/279174_Amazon_Fire_7_Tablet_Scratch__Dent__2015_Model/20%Monthly2019-01-15 15:13
http://www.hotnewdeal.com/2019/01/15/279173_Bowflex_SelectTech_560_Dumbbell_Pair__Amazonco/20%Monthly2019-01-15 15:13
http://www.hotnewdeal.com/2019/01/15/279172_Home_Depot_2_Gel_Infused_Memory_Foam_Mattress_To/20%Monthly2019-01-15 14:54
http://www.hotnewdeal.com/2019/01/15/279171_Wusthof_Classic_6_Chefs_Knife_w_Bamboo_Cutting_/20%Monthly2019-01-15 14:47
http://www.hotnewdeal.com/2019/01/15/279170_ThinkGeek_Coupon_Additional_50_off_Clearance__f/20%Monthly2019-01-15 14:47
http://www.hotnewdeal.com/2019/01/15/279169_Rachio_2nd_Generation_Smart_Sprinkler_Controller_/20%Monthly2019-01-15 14:33
http://www.hotnewdeal.com/2019/01/15/279168_KRUPS_F203_Electric_Spice_and_Coffee_Grinder_at_Wo/20%Monthly2019-01-15 14:33
http://www.hotnewdeal.com/2019/01/15/279167_Foscam_R2C_4299_or_even_1499_if_you_have_a_Fos/20%Monthly2019-01-15 14:02
http://www.hotnewdeal.com/2019/01/15/279166_2Pack_Google_Chromecast__Charcoal_3rd_Generat/20%Monthly2019-01-15 14:02
http://www.hotnewdeal.com/2019/01/15/279165_86_LG_86UK6570PUB_4K_HDR_Smart_TV_w_AI_ThinQ__/20%Monthly2019-01-15 13:45
http://www.hotnewdeal.com/2019/01/15/279164_PenFed_American_Express_Credit_Card_0_Annual_Fee/20%Monthly2019-01-15 13:45
http://www.hotnewdeal.com/2019/01/15/279162_Razer_DeathAdder_Elite__3999_at_Amazon/20%Monthly2019-01-15 13:31
http://www.hotnewdeal.com/2019/01/15/279161_32GB_Motorola_Moto_G5S_Plus_XT1806_55_Unlocked_S/20%Monthly2019-01-15 13:14
http://www.hotnewdeal.com/2019/01/15/279160_Free_Apple_Music_for_some_Verizon_Unlimited_Plans/20%Monthly2019-01-15 13:14
http://www.hotnewdeal.com/2019/01/15/279159_50_Fanatics_Gift_Card_Email_Delivery_37_via_Ne/20%Monthly2019-01-15 13:14
http://www.hotnewdeal.com/2019/01/15/279158_AUKEY_Condenser_Microphone_w_Stand_35mm_5__f/20%Monthly2019-01-15 13:00
http://www.hotnewdeal.com/2019/01/15/279157_DYMO_Authentic_LW_ExtraLarge_Shipping_Labels_4/20%Monthly2019-01-15 12:59
http://www.hotnewdeal.com/2019/01/15/279156_Michael_Kors_Access_Grayson_Smartwatch_47mm_SS_Men/20%Monthly2019-01-15 12:59
http://www.hotnewdeal.com/2019/01/15/279155_Ryobi_18V_One_Cordless_Brushless_3Tool_Combo_Kit/20%Monthly2019-01-15 12:52
http://www.hotnewdeal.com/2019/01/15/279154_Amazon__Fire_TV_Alexa_Voice_Remote_with_Power__V/20%Monthly2019-01-15 12:37
http://www.hotnewdeal.com/2019/01/15/279153_LG_32GK850G_32_inch_1440p_144Hz_GSync_VA_Panel_5/20%Monthly2019-01-15 12:37
http://www.hotnewdeal.com/2019/01/15/279152_Kindle_Classic_SciFi_eBook_God_Emperor_of_Dune_/20%Monthly2019-01-15 12:37
http://www.hotnewdeal.com/2019/01/15/279151_5_pack_Cigars_Rocky_Patel_Maduro_1499/20%Monthly2019-01-15 12:29
http://www.hotnewdeal.com/2019/01/15/279150_Marmot_Shadow_Down_Jacket__Waterproof_700_Fill_P/20%Monthly2019-01-15 12:22
http://www.hotnewdeal.com/2019/01/15/279149_5TB_Toshiba_CANVIO_Desktop_External_Desktop_Hard_D/20%Monthly2019-01-15 12:22
http://www.hotnewdeal.com/2019/01/15/279148_Anker_2Pack_6ft__3ft_Premium_Nylon_USBC_to_US/20%Monthly2019-01-15 12:15
http://www.hotnewdeal.com/2019/01/15/279147_Space_Invaders_Projection_Night_Light_5__Free_sh/20%Monthly2019-01-15 12:14
http://www.hotnewdeal.com/2019/01/15/279146_16count_Larabars_Gluten_Free_Bars_Various_Flavor/20%Monthly2019-01-15 12:14
http://www.hotnewdeal.com/2019/01/15/279145_Werner_Fiberglass_5_Foot_Ladder_2998/20%Monthly2019-01-15 12:01
http://www.hotnewdeal.com/2019/01/15/279144_4Count_of_CapN_Crunch_Breakfast_Cereal_539_5_/20%Monthly2019-01-15 11:46
http://www.hotnewdeal.com/2019/01/15/279143_Fractal_Design_Node_202_FDCANODE202BK_5999/20%Monthly2019-01-15 11:46
http://www.hotnewdeal.com/2019/01/15/279142_Universal_Learning_Remote_Control_For_Roku_Players/20%Monthly2019-01-15 11:46
http://www.hotnewdeal.com/2019/01/15/279141_Planters_Peanuts_16oz_2_for_350__tax_at_Walgree/20%Monthly2019-01-15 11:37
http://www.hotnewdeal.com/2019/01/15/279140_VKits_Raspberry_Pi_3_Model_B_Plus_Complete_Sta/20%Monthly2019-01-15 11:29
http://www.hotnewdeal.com/2019/01/15/279139_Endangered_Species_Dark_Chocolate_Sea_Salt__Almo/20%Monthly2019-01-15 11:29
http://www.hotnewdeal.com/2019/01/15/279138_Ubiquiti_US24250W_UniFi_POE_Switch__24_Ports_M/20%Monthly2019-01-15 11:11
http://www.hotnewdeal.com/2019/01/15/279137_Walmart_bm_ymmv_hyper_tough_candy_cane_outdoor_ex/20%Monthly2019-01-15 11:11
http://www.hotnewdeal.com/2019/01/15/279136_960GB_Crucial_BX500_25_SATA_III_3D_NAND_Internal/20%Monthly2019-01-15 11:11
http://www.hotnewdeal.com/2019/01/15/279135_18oz_Skittles_Sweet_Heat_Candy_010_In_Store_O/20%Monthly2019-01-15 11:11
http://www.hotnewdeal.com/2019/01/15/279134_Free_Large_Pizza_for_Sprint_Customers_of_the_launc/20%Monthly2019-01-15 10:52
http://www.hotnewdeal.com/2019/01/15/279133_FritoLay_Fun_Times_Mix_Variety_Pack_40_Count_13/20%Monthly2019-01-15 10:52
http://www.hotnewdeal.com/2019/01/15/279132_Fractal_Design_Define_Nano_S_Silent_Mini_ITX_Case_/20%Monthly2019-01-15 10:51
http://www.hotnewdeal.com/2019/01/15/279131_600W_600_B1_100B10600KR_80_BRONZE_Power_Supply/20%Monthly2019-01-15 10:51
http://www.hotnewdeal.com/2019/01/15/279129_4Pack_Buffalo_Tools_3_x_3_Interlocking_Rubber_M/20%Monthly2019-01-15 10:28
http://www.hotnewdeal.com/2019/01/15/279128_Aprilis_12Pack_Bath_Bombs_Gift_Set_w_Organic_Ess/20%Monthly2019-01-15 10:28
http://www.hotnewdeal.com/2019/01/15/279127_Xbox_One_Digital_Games_Rise_of_the_Tomb_Raider_2/20%Monthly2019-01-15 10:15
http://www.hotnewdeal.com/2019/01/15/279126_DEEPCOOL_MATREXX_55_Tempered_Glass_MidTower_Case_/20%Monthly2019-01-15 10:14
http://www.hotnewdeal.com/2019/01/15/279125_Metal_Man_120v_140A_Inverter_Welder__TSC__IN_STO/20%Monthly2019-01-15 10:14
http://www.hotnewdeal.com/2019/01/15/279124_Monoprice_Select_Series_USBC_to_Gigabit_Ethernet_/20%Monthly2019-01-15 09:39
http://www.hotnewdeal.com/2019/01/15/279123_Monoprice_SlimRun_Cat6A_30AWG_Snagless_RJ45_Ethern/20%Monthly2019-01-15 09:39
http://www.hotnewdeal.com/2019/01/15/279122_Ryobi_ONE_18Volt_Cordless_String_TrimmerEdger_a/20%Monthly2019-01-15 09:19
http://www.hotnewdeal.com/2019/01/15/279121_Asus_Certified_Refurbished_RTAC1200_DualBand_Wi/20%Monthly2019-01-15 09:19
http://www.hotnewdeal.com/2019/01/15/279120_SONOS_Beam_320_with_Free_Shipping_With_20_off_c/20%Monthly2019-01-15 08:30
http://www.hotnewdeal.com/2019/01/15/279119_Ryobi_ONE_18Volt_Liion_Electric_Cordless_String/20%Monthly2019-01-15 08:13
http://www.hotnewdeal.com/2019/01/15/279118_Lenevo_X1_Carbon_i7__16GB_RAM__512GB_SSD_newest/20%Monthly2019-01-15 08:13
http://www.hotnewdeal.com/2019/01/15/279117_DJI_Mavic_Air_Fly_More_Combo_Flame_Red_Portable_Q/20%Monthly2019-01-15 08:00
http://www.hotnewdeal.com/2019/01/15/279116_New_Balance_Fresh_Foam_Lazr_Luxe_TrainingRunning_/20%Monthly2019-01-15 07:43
http://www.hotnewdeal.com/2019/01/15/279114_512GB_Plextor_S2G_M2_2280_Hynix_16nm_TLC_Internal/20%Monthly2019-01-15 05:44
http://www.hotnewdeal.com/2019/01/15/279113_USB_C_Hub_QacQoc_6in1_Type_C_Hub_amazon_2149/20%Monthly2019-01-15 05:36
http://www.hotnewdeal.com/2019/01/15/279112_Walmart_Lodge_Logic_8_Seasoned_Cast_Iron_Skillet/20%Monthly2019-01-15 05:30
http://www.hotnewdeal.com/2019/01/15/279111_1500W_Electric_Personal_Ceramic_Heater_1399FS/20%Monthly2019-01-15 04:44
http://www.hotnewdeal.com/2019/01/15/279110_Smithsonian_Channel_Disasters_at_Sea_Season_1_Pr/20%Monthly2019-01-15 03:32
http://www.hotnewdeal.com/2019/01/15/279109_Fisher_Price_Think_and_Learn_Smart_Cycle_4999_YM/20%Monthly2019-01-15 02:30
http://www.hotnewdeal.com/2019/01/15/279108_Fluke_101_Basic_Digital_Multimeter_40_shipped/20%Monthly2019-01-15 01:36
http://www.hotnewdeal.com/2019/01/15/279107_1525oz_Planters_Deluxe_Unsalted_Mixed_Nuts_629_/20%Monthly2019-01-15 01:12
http://www.hotnewdeal.com/2019/01/15/279106_Fender_Acoustic_Guitar_CC60S_107/20%Monthly2019-01-15 01:12
http://www.hotnewdeal.com/2019/01/15/279105_PS4_LimboInside_Bundle/20%Monthly2019-01-15 00:05
http://www.hotnewdeal.com/2019/01/15/279104_SanDisk_SSD_PLUS_1TB_Internal_SSD__SATA_III_6_Gb/20%Monthly2019-01-15 00:05
http://www.hotnewdeal.com/2019/01/15/279103_16GB_2x8GB_GSkill_Ripjaws_DDR4_2666_Laptop_Memo/20%Monthly2019-01-15 00:04
http://www.hotnewdeal.com/2019/01/14/279102_TCL_65R617_65_IN_4K_ULTRA_HD_Roku_smart_LED_TV_84/20%Monthly2019-01-14 23:48
http://www.hotnewdeal.com/2019/01/14/279101_Sams_Club_New_Member_offer_Join_for_45_get_45/20%Monthly2019-01-14 23:31
http://www.hotnewdeal.com/2019/01/14/279100_Chase_Slate_0_balance_fee_AND_0_APR_for_15_months_/20%Monthly2019-01-14 23:31
http://www.hotnewdeal.com/2019/01/14/279099_Costco_4Pack_3M_Filtrete_2200_MPR_Filters_46_w/20%Monthly2019-01-14 23:18
http://www.hotnewdeal.com/2019/01/14/279098_Mens_Christmas_LED_Ties_320_Cole_Haan_Faux_Lea/20%Monthly2019-01-14 22:37
http://www.hotnewdeal.com/2019/01/14/279097_TPLink_TLWR802N_WirelessN300_Nano_Router_20__/20%Monthly2019-01-14 22:37
http://www.hotnewdeal.com/2019/01/14/279096_Zotac_ZBOX_CI320_nano_PLUS_miniPC_99__Free_Ship/20%Monthly2019-01-14 22:21
http://www.hotnewdeal.com/2019/01/14/279095_Cloudflare_Domain_RegistrationRenewals_785_COM/20%Monthly2019-01-14 21:45
http://www.hotnewdeal.com/2019/01/14/279094_Smart_Light_Bulb_SEALIGHT_Smart_Bulb_Glass_Vintag/20%Monthly2019-01-14 21:39
http://www.hotnewdeal.com/2019/01/14/279093_NEX_Weighted_Blanket_40x6015_lbs_Blanket_Charc/20%Monthly2019-01-14 21:29
http://www.hotnewdeal.com/2019/01/14/279092_Yoga_Sprout_Baby_Waterproof_Bibs_5_Pack_For_31/20%Monthly2019-01-14 21:29
http://www.hotnewdeal.com/2019/01/14/279090_Final_Fantasy_XII_The_Zodiac_Age__Nintendo_Switch/20%Monthly2019-01-14 21:29
http://www.hotnewdeal.com/2019/01/14/279089_Totes_the_Goat_Nintendo_Switch_Digital_Download_/20%Monthly2019-01-14 21:14
http://www.hotnewdeal.com/2019/01/14/279088_Insurgency_PC_Digital_Download_129/20%Monthly2019-01-14 21:14
http://www.hotnewdeal.com/2019/01/14/279087_Reolink_PoE_Camera_4MP_RLC410_Amazon_4558/20%Monthly2019-01-14 21:02
http://www.hotnewdeal.com/2019/01/14/279086_BOHM_Impact_Plus_Wireless_Bluetooth_Speaker_Water_/20%Monthly2019-01-14 21:02
http://www.hotnewdeal.com/2019/01/14/279085_2_Pack_Belkin_MIXIT_USB_Type_C_45W_Cable_Home__27/20%Monthly2019-01-14 21:02
http://www.hotnewdeal.com/2019/01/14/279084_MILWAUKEE_M18_3_Pc_PACKOUT_Combo_Kit_299/20%Monthly2019-01-14 21:01
http://www.hotnewdeal.com/2019/01/14/279083_PowerA_Nintendo_Switch_JoyCon_and_Pro_Controller_/20%Monthly2019-01-14 20:46
http://www.hotnewdeal.com/2019/01/14/279082_Nine_Parchments_Steam_499/20%Monthly2019-01-14 20:46
http://www.hotnewdeal.com/2019/01/14/279081_Nintendo_Switch_Console_with_Gray_Joycon_Controlle/20%Monthly2019-01-14 20:46
http://www.hotnewdeal.com/2019/01/14/279079_CVS_Extra_Care_Members_Crest_Pro_Health_Toothpast/20%Monthly2019-01-14 20:45
http://www.hotnewdeal.com/2019/01/14/279078_1M_2M_3M_DATA_CORD_TYPEC_USB_C_WIRE_199_focovi/20%Monthly2019-01-14 20:35
http://www.hotnewdeal.com/2019/01/14/279077_Philips_Hue_White_Starter_Kit__2695_3149_Clear/20%Monthly2019-01-14 20:30
http://www.hotnewdeal.com/2019/01/14/279076_Unlocked_LG_G7_ThinQ_64GB_Smartphone_Black__39/20%Monthly2019-01-14 20:22
http://www.hotnewdeal.com/2019/01/14/279075_24Count_Wolfgang_Puck_Coffee_Single_Serve_Capsule/20%Monthly2019-01-14 20:22
http://www.hotnewdeal.com/2019/01/14/279074_DEWALT_Inflator__15ah_battery_20v_Homedepotcom_/20%Monthly2019-01-14 20:15
http://www.hotnewdeal.com/2019/01/14/279073_Rademax_True_Wireless_Earbuds_Bluetooth_50_iPX7_W/20%Monthly2019-01-14 20:15
http://www.hotnewdeal.com/2019/01/14/279072_TPLink_Foldable_USB_30_to_Gigabit_Ethernet_Netwo/20%Monthly2019-01-14 20:15
http://www.hotnewdeal.com/2019/01/14/279071_BoysGirls_Kids_Knit_Beanie_wPompom_499/20%Monthly2019-01-14 20:15
http://www.hotnewdeal.com/2019/01/14/279070_Switch_to_TMobile_and_get_a_150_MasterCard_Gift_/20%Monthly2019-01-14 20:15
http://www.hotnewdeal.com/2019/01/14/279069_Xbox_One_Digital_Downloads_Far_Cry_5_1980_Far_/20%Monthly2019-01-14 20:01
http://www.hotnewdeal.com/2019/01/14/279068_Addon_Item_12Pack_of_14Piece_Trident_Layers_St/20%Monthly2019-01-14 20:01
http://www.hotnewdeal.com/2019/01/14/279067_Snow_Joe_18_Inch_CordedCordless_Snow_Blower_iON18/20%Monthly2019-01-14 19:36
http://www.hotnewdeal.com/2019/01/14/279066_Grimms_Snow_White_Bluray_For_278__Amazon/20%Monthly2019-01-14 19:12
http://www.hotnewdeal.com/2019/01/14/279065_My_Little_Pony_Pinkie_Pie_Beats__Treats_Magical_C/20%Monthly2019-01-14 19:12
http://www.hotnewdeal.com/2019/01/14/279064_Osprey_Farpoint_40_backpack_in_Jasper_Red_8649_/20%Monthly2019-01-14 19:01
http://www.hotnewdeal.com/2019/01/14/279063_24_LG_24MK430HB_1920x1080_IPS_Freesync_Monitor_/20%Monthly2019-01-14 19:00
http://www.hotnewdeal.com/2019/01/14/279062_RCA_55_4K_HDR_ROKU_smart_LED_TV_29999__Walmart/20%Monthly2019-01-14 19:00
http://www.hotnewdeal.com/2019/01/14/279061_Chromecast_Audio__15_W_Free_Shipping__Ebay_Goo/20%Monthly2019-01-14 18:53
http://www.hotnewdeal.com/2019/01/14/279060_TPLink_Archer_A7_AC1750_Wireless_DualBand_Gigabi/20%Monthly2019-01-14 18:52
http://www.hotnewdeal.com/2019/01/14/279059_Desktop_Tabletop_Standing_Desk_Adjustable_Height_S/20%Monthly2019-01-14 18:44
http://www.hotnewdeal.com/2019/01/14/279058_BathBody_Works_Buy_3_Get_3_Free_Select_Body_Care_/20%Monthly2019-01-14 18:28
http://www.hotnewdeal.com/2019/01/14/279057_27_LG_27MP59HTP_1080p_5ms_75Hz_FreeSync_IPS_Moni/20%Monthly2019-01-14 18:26
http://www.hotnewdeal.com/2019/01/14/279056_Pair_of_Large_Rockler_Bandy_Clamp_1499_reg_249/20%Monthly2019-01-14 18:10
http://www.hotnewdeal.com/2019/01/14/279055_JBL_Reflect_Mini_InEar_Sport_Headphones_w_Mic_T/20%Monthly2019-01-14 18:10
http://www.hotnewdeal.com/2019/01/14/279054_Plextor_M9Pe_M2_2280_1TB_NVMe_PCIe_30_x4_3D_NAN/20%Monthly2019-01-14 17:58
http://www.hotnewdeal.com/2019/01/14/279053_Scotch_Box_Sealing_Tape_283_x_1093_yds_Clea/20%Monthly2019-01-14 17:41
http://www.hotnewdeal.com/2019/01/14/279052_8Port_TPLink_TLSG108_Gigabit_Ethernet_Network_S/20%Monthly2019-01-14 17:26
http://www.hotnewdeal.com/2019/01/14/279051_3Piece_American_Tourister_Arona_Hardside_Spinner_/20%Monthly2019-01-14 17:11
http://www.hotnewdeal.com/2019/01/14/279050_LEGO_Star_Wars_Solo_A_Star_Wars_Story_Kessel_Run_/20%Monthly2019-01-14 16:59
http://www.hotnewdeal.com/2019/01/14/279049_Donkey_Kong_Returns_3DS_1261__Amazon/20%Monthly2019-01-14 16:59
http://www.hotnewdeal.com/2019/01/14/279048_Bose_QuietComfort_35_Series_II_Wireless_Noise_Canc/20%Monthly2019-01-14 16:51
http://www.hotnewdeal.com/2019/01/14/279047_Epiphone_Les_Paul_Exclusive_Player_Pack_with_Samso/20%Monthly2019-01-14 16:44
http://www.hotnewdeal.com/2019/01/14/279046_75_Samsung_UN75NU8000_at_Frys_1349/20%Monthly2019-01-14 16:44
http://www.hotnewdeal.com/2019/01/14/279045_CAT_Footwear_Quark_Shoe_and_Other_Select_Styles_/20%Monthly2019-01-14 16:44
http://www.hotnewdeal.com/2019/01/14/279044_CORSAIR__Essential_Wired_Gaming_Bundle_70/20%Monthly2019-01-14 16:11
http://www.hotnewdeal.com/2019/01/14/279043_Cyberdimension_Neptunia_4_Goddesses_Online_PC_Di/20%Monthly2019-01-14 16:11
http://www.hotnewdeal.com/2019/01/14/279042_65_in_Samsung_MU7000_4K_LED_Smart_Ultra_HDTV_522/20%Monthly2019-01-14 16:06
http://www.hotnewdeal.com/2019/01/14/279041_Cottonelle_Ultra_GentleCare_Toilet_Paper_Sensitiv/20%Monthly2019-01-14 16:06
http://www.hotnewdeal.com/2019/01/14/279040_Mutant_Mudds_Collection__Nintendo_Switch_Digital_/20%Monthly2019-01-14 16:06
http://www.hotnewdeal.com/2019/01/14/279039_Klipsch__Denon_Receiver_pair_R610F__R52C__/20%Monthly2019-01-14 16:06
http://www.hotnewdeal.com/2019/01/14/279038_2Month_Audible_Trial__2_AudioBooks__15_Amazon_/20%Monthly2019-01-14 15:46
http://www.hotnewdeal.com/2019/01/14/279037_140Ct_Pampers_Easy_Ups_Girls_Training_Pants_Siz/20%Monthly2019-01-14 15:46
http://www.hotnewdeal.com/2019/01/14/279035_Garmin_Vivofit_Jr_2_with_Two_Stretchy_Bands_via_Ma/20%Monthly2019-01-14 15:39
http://www.hotnewdeal.com/2019/01/14/279034_APC_P11VT3_8_Feet_11_Outlets_3020_Joules_Performan/20%Monthly2019-01-14 15:16
http://www.hotnewdeal.com/2019/01/14/279033_Ebay_10_off_30_YMMV/20%Monthly2019-01-14 15:16
http://www.hotnewdeal.com/2019/01/14/279032_Free_Digital_Copy_of_Glass_Happy_Death_Day_2U_and/20%Monthly2019-01-14 15:16
http://www.hotnewdeal.com/2019/01/14/279031_Beats_Powerbeats3_Wireless_Earphones__Neighborhoo/20%Monthly2019-01-14 15:16
http://www.hotnewdeal.com/2019/01/14/279030_ThinkThin_High_Protein_Bars_21_oz_Bar_10_Count/20%Monthly2019-01-14 15:08
http://www.hotnewdeal.com/2019/01/14/279028_LG_32MU99W_32_169_4K_UHD_IPS_Monitor_649/20%Monthly2019-01-14 14:29
http://www.hotnewdeal.com/2019/01/14/279027_AMCCoke_Rewards_Drink_Popcorn_Ticket_20_Codes/20%Monthly2019-01-14 14:23
http://www.hotnewdeal.com/2019/01/14/279026_10Bars_thinkThin_Protein_Bars_Lemon_Delight_89/20%Monthly2019-01-14 14:23
http://www.hotnewdeal.com/2019/01/14/279025_Battlestar_Galactica_2004_Complete_Series_Vol_/20%Monthly2019-01-14 14:23
http://www.hotnewdeal.com/2019/01/14/279024_Better_Living_Products_763441_Euro_Series_TRIO_3/20%Monthly2019-01-14 14:23
http://www.hotnewdeal.com/2019/01/14/279022_Aukey_Power_Banks_10050mAh_w_QC_30_18_20000m/20%Monthly2019-01-14 14:00
http://www.hotnewdeal.com/2019/01/14/279021_Amplifi_HD_Home_Wifi_Router_11999/20%Monthly2019-01-14 13:59
http://www.hotnewdeal.com/2019/01/14/279020_Reebok_Print_Run_30_Running_Shoe_2999__Various/20%Monthly2019-01-14 13:59
http://www.hotnewdeal.com/2019/01/14/279019_NETGEAR_Nighthawk_AC2100_Smart_WiFi_Router_AC2100/20%Monthly2019-01-14 13:59
http://www.hotnewdeal.com/2019/01/14/279018_StarKist_Selects_Solid_Yellowfin_Tuna_Fillet_in_Ex/20%Monthly2019-01-14 13:54
http://www.hotnewdeal.com/2019/01/14/279017_AMC_Stubs_Premiere_Upgrade_or_Renewal__Get_5_Bon/20%Monthly2019-01-14 13:43
http://www.hotnewdeal.com/2019/01/14/279016_Disney_Princess_Cinderellas_Horse_Major_553_/20%Monthly2019-01-14 13:42
http://www.hotnewdeal.com/2019/01/14/279015_TargetCartwheel_Crayola_Color_Chemistry_Lab_set_f/20%Monthly2019-01-14 13:37
http://www.hotnewdeal.com/2019/01/14/279014_WD__Easystore_10TB_External_USB_30_Hard_Drive_wi/20%Monthly2019-01-14 13:28
http://www.hotnewdeal.com/2019/01/14/279013_Lavazza_Gran_Crema_1120_on_amazon/20%Monthly2019-01-14 13:28
http://www.hotnewdeal.com/2019/01/14/279012_Addon_Item_12Ounce_McCafe_Coffee_Ground_Coffee/20%Monthly2019-01-14 13:12
http://www.hotnewdeal.com/2019/01/14/279011_Free_Audio_Book_of_The_Passage_by_Justin_Cronin_fo/20%Monthly2019-01-14 12:59
http://www.hotnewdeal.com/2019/01/14/279010_Crash_Bandicoot_NSane_Trilogy_Nintendo_Switch_29/20%Monthly2019-01-14 12:51
http://www.hotnewdeal.com/2019/01/14/279009_Charlotte_Russe_Clearance_Printed_Off_Shoulder_Bo/20%Monthly2019-01-14 12:51
http://www.hotnewdeal.com/2019/01/14/279008_Blood_Blockade_Battlefront_Season_1_Digital_HD_A/20%Monthly2019-01-14 12:50
http://www.hotnewdeal.com/2019/01/14/279007_Costco_Members_Yamaha_TSR7850_39999_Members_On/20%Monthly2019-01-14 12:21
http://www.hotnewdeal.com/2019/01/14/279006_Singer_Heavy_Duty_4411_Sewing_Machine_9946/20%Monthly2019-01-14 12:20
http://www.hotnewdeal.com/2019/01/14/279005_Boston_to_London_355_RT_Nonstop_Airfares_on_Virgi/20%Monthly2019-01-14 12:10
http://www.hotnewdeal.com/2019/01/14/279004_YMMV__Lowes_BM_TroyBilt_2_Cycle_String_Trimme/20%Monthly2019-01-14 12:09
http://www.hotnewdeal.com/2019/01/14/279003_Jamo_S_807_pair_219_at_Frys/20%Monthly2019-01-14 12:09
http://www.hotnewdeal.com/2019/01/14/279002_Dell_Inspiron_5770_17in_Laptop_Intel_i7_1TB_HDD/20%Monthly2019-01-14 11:59
http://www.hotnewdeal.com/2019/01/14/279001_Ninja_Hot_and_Cold_Brewed_System_AutoiQ_Tea_and_/20%Monthly2019-01-14 11:58
http://www.hotnewdeal.com/2019/01/14/279000_Amazon_Echo_Input__20/20%Monthly2019-01-14 11:53
http://www.hotnewdeal.com/2019/01/14/278999_Silicon_Power_via_Amazon_512GB_NVMe_PCIe_Gen3x4_M/20%Monthly2019-01-14 11:41
http://www.hotnewdeal.com/2019/01/14/278998_Monoprice_4Port_60W_USB_Smart_Charger_w_USBC__/20%Monthly2019-01-14 11:41
http://www.hotnewdeal.com/2019/01/14/278997_NETGEAR_Nighthawk_AC1900_Dual_Band_WiFi_Router_MU/20%Monthly2019-01-14 11:41
http://www.hotnewdeal.com/2019/01/14/278996_VMODA_Crossfade_Wireless_OverEar_Headphone__Gun/20%Monthly2019-01-14 11:26
http://www.hotnewdeal.com/2019/01/14/278995_Gator_Lift_GL10_0_to_1_18_Plywood_and_Sheetroc/20%Monthly2019-01-14 11:25
http://www.hotnewdeal.com/2019/01/14/278994_YMMV__Walmart__BM_Charbroil_Performance_4_B/20%Monthly2019-01-14 11:25
http://www.hotnewdeal.com/2019/01/14/278993_Buy_1_Get_1_FREE__American_Journey_Stews_Poultry_/20%Monthly2019-01-14 11:25
http://www.hotnewdeal.com/2019/01/14/278992_Craftsman_Cap_Wrench_Bottle_Opener_67_off_499/20%Monthly2019-01-14 11:25
http://www.hotnewdeal.com/2019/01/14/278991_200PCs_Universal_Plastic_Rivets_Automobile_Expansi/20%Monthly2019-01-14 11:08
http://www.hotnewdeal.com/2019/01/14/278990_Kidde_466180_Pro_5_Carbon_Dioxide_Food_and_Electr/20%Monthly2019-01-14 11:08
http://www.hotnewdeal.com/2019/01/14/278989_YiFiTek_Knee_Support_OpenPatella_Brace_for_Arth/20%Monthly2019-01-14 11:08
http://www.hotnewdeal.com/2019/01/14/278988_Laptop_Backpack_Travel_Computer_Bag_for_Men__Wom/20%Monthly2019-01-14 10:54
http://www.hotnewdeal.com/2019/01/14/278986_MeFOTO_RoadTrip_Air_Travel_Tripod_Various_Colors/20%Monthly2019-01-14 10:54
http://www.hotnewdeal.com/2019/01/14/278985_MSI__Oculux_NXG251R_245_LED_FHD_GSYNC_240Hz_Mo/20%Monthly2019-01-14 10:45
http://www.hotnewdeal.com/2019/01/14/278983_200Pcs_Universal_Mixed_Auto_Fastener_Car_Bumper_Cl/20%Monthly2019-01-14 10:21
http://www.hotnewdeal.com/2019/01/14/278982_George_R_R_MartinA_Knight_of_the_Seven_Kingdoms/20%Monthly2019-01-14 10:06
http://www.hotnewdeal.com/2019/01/14/278981_Nike_Mens_Air_Versitile_II_Basketball_Shoes_limi/20%Monthly2019-01-14 09:55
http://www.hotnewdeal.com/2019/01/14/278980_10_Lenovo_Smart_Display_with_Google_Assistant__/20%Monthly2019-01-14 09:42
http://www.hotnewdeal.com/2019/01/14/278979_adidas_Mens_Tiro_17_Training_Pant_20__free_ship/20%Monthly2019-01-14 09:11
http://www.hotnewdeal.com/2019/01/14/278978_500GB_Crucial_MX500_25_SATA_III_Internal_Solid_S/20%Monthly2019-01-14 08:35
http://www.hotnewdeal.com/2019/01/14/278977_29Piece_Milwaukee_Cobalt_Drill_Bit_Set_70_Milwa/20%Monthly2019-01-14 08:30
http://www.hotnewdeal.com/2019/01/14/278976_TCL_65_4K_UHD_RokuTV_HDR_Compatible__47999__C/20%Monthly2019-01-14 08:07
http://www.hotnewdeal.com/2019/01/14/278975_Always_Ultra_Thin_Feminine_Pads_120Ct_wo_Wings_/20%Monthly2019-01-14 08:01
http://www.hotnewdeal.com/2019/01/14/278974_Similac_Sensitive_Infant_Formula_with_Iron_5094_/20%Monthly2019-01-14 07:55
http://www.hotnewdeal.com/2019/01/14/278973_Kung_Fu_Panda_3Movie_Collection_BluRay__Digit/20%Monthly2019-01-14 07:42
http://www.hotnewdeal.com/2019/01/14/278972_CLARKS_Mens_Bushacre_2_Chukka_Boot_Taupe_Distres/20%Monthly2019-01-14 07:29
http://www.hotnewdeal.com/2019/01/14/278971_American_Journey_Chicken__Sweet_Potato_Recipe_Gra/20%Monthly2019-01-14 07:24
http://www.hotnewdeal.com/2019/01/14/278970_15_off_bag_sale__Menards__Home_Depot/20%Monthly2019-01-14 07:12
http://www.hotnewdeal.com/2019/01/14/278969_58_Count_Quaker_Chewy_Granola_Bars_and_Dipps_Varie/20%Monthly2019-01-14 07:00
http://www.hotnewdeal.com/2019/01/14/278968_Little_Blue_Truck_Kindle_eBook_199__Amazon/20%Monthly2019-01-14 06:23
http://www.hotnewdeal.com/2019/01/14/278967_Silvercar_by_Audi__FREE_DAYS_coupon_code/20%Monthly2019-01-14 05:23
http://www.hotnewdeal.com/2019/01/14/278966_Brita_Standard_Water_Filter_for_Pitchers_and_Dispe/20%Monthly2019-01-14 02:27
http://www.hotnewdeal.com/2019/01/14/278964_Canon_MF247dw_Wireless_AllinOne_Monochrome_Laser/20%Monthly2019-01-14 01:41
http://www.hotnewdeal.com/2019/01/14/278963_Walmart__Ozark_10_oz_Stainless_Steel_Lowball_Tumb/20%Monthly2019-01-14 01:36
http://www.hotnewdeal.com/2019/01/14/278962_Royal_White_Basmati_Rice_20_Pound_1698/20%Monthly2019-01-14 01:09
http://www.hotnewdeal.com/2019/01/14/278961_Armor_All_Complete_Car_Care_Kit_4_Pieces_Car_Cl/20%Monthly2019-01-14 01:09
http://www.hotnewdeal.com/2019/01/13/278960_2Ct_685_oz_Palmolive_Ultra_Liquid_Dish_Soap_Oxy/20%Monthly2019-01-13 23:58
http://www.hotnewdeal.com/2019/01/13/278959_Costco__Evan_Top_Grain_Leather_Power_Recliner_wit/20%Monthly2019-01-13 23:58
http://www.hotnewdeal.com/2019/01/13/278958_Costco_has_NETGEAR_Orbi_AC3000_Triband_WiFi_Syst/20%Monthly2019-01-13 23:32
http://www.hotnewdeal.com/2019/01/13/278957_Ray_Ban_Aviator_Flash_Mirror_Sunglasses_59/20%Monthly2019-01-13 23:15
http://www.hotnewdeal.com/2019/01/13/278956_Western_Premium_BBQ_Products_Hickory_Smoking_Chips/20%Monthly2019-01-13 23:00
http://www.hotnewdeal.com/2019/01/13/278955_Craftsman_Multimeter_999_back_again/20%Monthly2019-01-13 21:25
http://www.hotnewdeal.com/2019/01/13/278954_AmazonBasics_Dog_Waste_Bags_Standard_900Count_/20%Monthly2019-01-13 20:56
http://www.hotnewdeal.com/2019/01/13/278953_TorGuard_50_off_for_life_on_all_services_with_cou/20%Monthly2019-01-13 20:09
http://www.hotnewdeal.com/2019/01/13/278952_NETGEAR_8Port_Gigabit_Ethernet_Switch_GS208_13/20%Monthly2019-01-13 19:41
http://www.hotnewdeal.com/2019/01/13/278951_Set_of_6_Lenox_Butterfly_Meadow_6_Party_Plates_1/20%Monthly2019-01-13 19:40
http://www.hotnewdeal.com/2019/01/13/278949_12Count_Colgate_Extra_Clean_Full_Head_Medium_Toot/20%Monthly2019-01-13 19:25
http://www.hotnewdeal.com/2019/01/13/278948_Anker_Wireless_Charger_QiCertified_UltraSlim_Wi/20%Monthly2019-01-13 18:57
http://www.hotnewdeal.com/2019/01/13/278947_9Pack_of_16Count_Trident_White_Sugar_Free_Gum_M/20%Monthly2019-01-13 18:48
http://www.hotnewdeal.com/2019/01/13/278946_The_Childrens_Place_75_Off_All_Clearance__Free_/20%Monthly2019-01-13 18:48
http://www.hotnewdeal.com/2019/01/13/278945_Apple_Lightning_Digital_AV_Woot_1299/20%Monthly2019-01-13 18:41
http://www.hotnewdeal.com/2019/01/13/278944_4Pack_Tommy_Hilfiger_Limited_Edition_Cotton_Boxer/20%Monthly2019-01-13 18:40
http://www.hotnewdeal.com/2019/01/13/278942_Xbox_One_S_Minecraft_Creators_Bundle__in_store_YM/20%Monthly2019-01-13 17:57
http://www.hotnewdeal.com/2019/01/13/278941_PJ_Masks_Deluxe_Gekko_Mobile_834__Free_Shipping/20%Monthly2019-01-13 17:57
http://www.hotnewdeal.com/2019/01/13/278940_6Count_Softsoap_Liquid_Hand_Soap_Aloe_445_5_/20%Monthly2019-01-13 17:40
http://www.hotnewdeal.com/2019/01/13/278939_150Count_Vitafusion_MultiVites_Gummy_Vitamins_5/20%Monthly2019-01-13 17:40
http://www.hotnewdeal.com/2019/01/13/278938_Lenovo_Flex_6_2in1_Laptop_Ryzen_5_2500U_14_10/20%Monthly2019-01-13 17:40
http://www.hotnewdeal.com/2019/01/13/278937_Cuddler_Pet_Bed_for_Small_Pets_19x15_for_547/20%Monthly2019-01-13 17:40
http://www.hotnewdeal.com/2019/01/13/278936_Jack_Links_Turkey_Jerky_Original_285_Ounce_322_/20%Monthly2019-01-13 17:24
http://www.hotnewdeal.com/2019/01/13/278935_Washington_DC_to_Cape_Town_South_Africa_mid500s_/20%Monthly2019-01-13 16:56
http://www.hotnewdeal.com/2019/01/13/278934_Bed_Bath__Beyond_Yankee_Candles_380_for_medium/20%Monthly2019-01-13 16:33
http://www.hotnewdeal.com/2019/01/13/278933_150_off_a_DVDBluray_at_REDBOX/20%Monthly2019-01-13 16:26
http://www.hotnewdeal.com/2019/01/13/278932_The_Dark_Knight_Trilogy_Digital_UHD_4K/20%Monthly2019-01-13 16:19
http://www.hotnewdeal.com/2019/01/13/278931_YMMV_Target__Little_Tikes_STEM_Junior_Wonder_Lab_/20%Monthly2019-01-13 16:08
http://www.hotnewdeal.com/2019/01/13/278930_Zenna_Home_7446SS_Expandable_OvertheShowerhead_/20%Monthly2019-01-13 15:40
http://www.hotnewdeal.com/2019/01/13/278929_Anker_Premium_60W_5Port_Charger_with_PD_PORT__3/20%Monthly2019-01-13 15:25
http://www.hotnewdeal.com/2019/01/13/278928_4Pack_of_325oz_Palmolive_Ultra_Oxy_Power_Degreas/20%Monthly2019-01-13 15:09
http://www.hotnewdeal.com/2019/01/13/278927_Elgato_Stream_Deck_Mini__6676__Free_Shipping/20%Monthly2019-01-13 14:57
http://www.hotnewdeal.com/2019/01/13/278926_Brother_HLL2395DW_Monochrome_Laser_Printer_Print/20%Monthly2019-01-13 14:57
http://www.hotnewdeal.com/2019/01/13/278925_Paw_Patrol_2in1_Flip__Fly_Rubble_Transforming_V/20%Monthly2019-01-13 14:27
http://www.hotnewdeal.com/2019/01/13/278924_Nespresso_Capsules__Buy_5_Get_1_sleeve_of_Ristre/20%Monthly2019-01-13 14:12
http://www.hotnewdeal.com/2019/01/13/278923_Abercrombie__Fitch_Sale__10_off_50_Mens_Ico/20%Monthly2019-01-13 14:08
http://www.hotnewdeal.com/2019/01/13/278922_6Pack_of_Scotch_Heavy_Duty_Packaging_Tape_w_Disp/20%Monthly2019-01-13 13:58
http://www.hotnewdeal.com/2019/01/13/278921_Quest_Nutrition_Cinnamon_Crunch_Protein_Powder_Hi/20%Monthly2019-01-13 13:57
http://www.hotnewdeal.com/2019/01/13/278920_Target_Buy_100_Diapers_Wipes_or_Baby_Products_g/20%Monthly2019-01-13 13:40
http://www.hotnewdeal.com/2019/01/13/278919_Olay_via_Amazon_Olay_ProX_Spot_Fading_Treatment_/20%Monthly2019-01-13 13:35
http://www.hotnewdeal.com/2019/01/13/278918_Alesis_Elevate_3_MKII_Powered_Desktop_Studio_Speak/20%Monthly2019-01-13 13:25
http://www.hotnewdeal.com/2019/01/13/278917_Walmart__Ozark_Led_Flashlight_and_Headlamp_Combo/20%Monthly2019-01-13 13:25
http://www.hotnewdeal.com/2019/01/13/278916_Washburn_Timber_Ridge_WD250SWCE_Acoustic_guitar_3/20%Monthly2019-01-13 13:20
http://www.hotnewdeal.com/2019/01/13/278915_LG_Magic_Remote_Control__2199/20%Monthly2019-01-13 13:09
http://www.hotnewdeal.com/2019/01/13/278913_Apple_Watch_Series_3_229__Best_Buy/20%Monthly2019-01-13 12:46
http://www.hotnewdeal.com/2019/01/13/278912_12Pack_of_65oz_Starbucks_Doubleshot_Espresso__/20%Monthly2019-01-13 12:38
http://www.hotnewdeal.com/2019/01/13/278911_Colgate_Cavity_Protection_Toothpaste_with_Fluoride/20%Monthly2019-01-13 12:31
http://www.hotnewdeal.com/2019/01/13/278910_1850_Coffee_12_oz_Coffee_Target_Cartwheel_50_off_/20%Monthly2019-01-13 12:31
http://www.hotnewdeal.com/2019/01/13/278909_Floating_Waterproof_Dry_Bag_10L20L30L_w_Waterpr/20%Monthly2019-01-13 12:31
http://www.hotnewdeal.com/2019/01/13/278908_Costco_Members_Select_Soundbars_on_Sale__Yamaha_/20%Monthly2019-01-13 12:23
http://www.hotnewdeal.com/2019/01/13/278907_Pokemon_Plush_Hoopa_or_Bunnelby_299_Pikachu_Ku/20%Monthly2019-01-13 12:23
http://www.hotnewdeal.com/2019/01/13/278906_Addon_Item_AmazonBasics_Car_Windshield_Sun_Shade/20%Monthly2019-01-13 12:16
http://www.hotnewdeal.com/2019/01/13/278905_Cricket_Wireless_Total_Wireless_Tracfone_Simple/20%Monthly2019-01-13 12:07
http://www.hotnewdeal.com/2019/01/13/278903_The_Master_Complete_TV_Series_Bluray_1195_Shi/20%Monthly2019-01-13 11:55
http://www.hotnewdeal.com/2019/01/13/278902_40Count_FritoLay_Baked__Popped_Mix_Variety_Pa/20%Monthly2019-01-13 11:55
http://www.hotnewdeal.com/2019/01/13/278901_Echo_Dot_Kids_Edition_3999/20%Monthly2019-01-13 11:55
http://www.hotnewdeal.com/2019/01/13/278900_110Count_13Gallon_Glad_OdorShield_Tall_Trash_Bag/20%Monthly2019-01-13 11:23
http://www.hotnewdeal.com/2019/01/13/278899_The_Last_Starfighter_25th_Anniversary_Edition_Bl/20%Monthly2019-01-13 11:11
http://www.hotnewdeal.com/2019/01/13/278898_WildHorn_Outfitters_Roca_Ski__Snowboard_Goggles_/20%Monthly2019-01-13 11:07
http://www.hotnewdeal.com/2019/01/13/278897_Elder_Scrolls_Online_Summerset_Collectors_Edition_/20%Monthly2019-01-13 11:07
http://www.hotnewdeal.com/2019/01/13/278896_My_Arcade_GamePad_Pro__Wireless_Controller_for_NE/20%Monthly2019-01-13 10:54
http://www.hotnewdeal.com/2019/01/13/278895_Corsair_K70_RGB_MK2_Low_Profile_Rapidfire_Cherry/20%Monthly2019-01-13 10:06
http://www.hotnewdeal.com/2019/01/13/278893_Capn_Crunch_plain_14oz_x4__Amazon_as_low_as_/20%Monthly2019-01-13 07:38
http://www.hotnewdeal.com/2019/01/13/278892_Calvin_Klein_Navy_Slim_Fit_Tuxedo__105__tax_fr/20%Monthly2019-01-13 07:23
http://www.hotnewdeal.com/2019/01/13/278891_Addon_item_12Pack_of_8oz_Earths_Best_Organic_I/20%Monthly2019-01-13 06:23
http://www.hotnewdeal.com/2019/01/13/278890_ViewSonic_VA27192KSMHD_27_Inch_IPS_2K_1440p_Fram/20%Monthly2019-01-13 05:55
http://www.hotnewdeal.com/2019/01/13/278889_Lowes_in_SFBAY_Area_has_204pc_Kobalt_hand_tool_set/20%Monthly2019-01-13 05:55
http://www.hotnewdeal.com/2019/01/13/278888_Corsair_LL_Series_120mm_RGB_Dual_Light_Loops_Case_/20%Monthly2019-01-13 04:07
http://www.hotnewdeal.com/2019/01/13/278887_60_50__10_Bonus_Card_Nintendo_eShop_GCEmail/20%Monthly2019-01-13 04:07
http://www.hotnewdeal.com/2019/01/13/278886_The_Pink_Panther_Cartoon_Collection_Vol_1_Blura/20%Monthly2019-01-13 03:39
http://www.hotnewdeal.com/2019/01/13/278885_12_Ct_Quest_Nutrition_Protein_Bars_Cookies__Cre/20%Monthly2019-01-13 03:29
http://www.hotnewdeal.com/2019/01/13/278884_Quest_Nutrition_favorites_Bars__Protein_Powder_/20%Monthly2019-01-13 03:29
http://www.hotnewdeal.com/2019/01/13/278883_32GB_Team_Group_microSDHC_U1_Class_10_Memory_Card_/20%Monthly2019-01-13 03:29
http://www.hotnewdeal.com/2019/01/13/278882_Mad_Magazine_One_year_Subscription_for_5_via_Grou/20%Monthly2019-01-13 02:55
http://www.hotnewdeal.com/2019/01/13/278881_Jurassic_World_Fallen_Kingdom_3D_Bluray_Blu/20%Monthly2019-01-13 02:54
http://www.hotnewdeal.com/2019/01/13/278880_CAP_BARBELL_Custom_Olympic_2Inch_Combo_Hex_Bar_A/20%Monthly2019-01-13 02:41
http://www.hotnewdeal.com/2019/01/13/278879_48Count_Quaker_Instant_Oatmeal_Raisin_Date__Wa/20%Monthly2019-01-13 02:10
http://www.hotnewdeal.com/2019/01/13/278878_Call_of_Duty_Black_Ops_4_PS4_Xbox_One_or_PC_2/20%Monthly2019-01-13 01:55
http://www.hotnewdeal.com/2019/01/13/278877_South_Park_The_Fractured_But_Whole_Xbox_One_PS4/20%Monthly2019-01-13 01:54
http://www.hotnewdeal.com/2019/01/13/278875_65_TCL_65R615_6_Series_4K_UHD_HDR_Roku_Smart_HDTV/20%Monthly2019-01-13 01:37
http://www.hotnewdeal.com/2019/01/13/278874_The_Expendables_3Film_Collection_Bluray__Digit/20%Monthly2019-01-13 01:26
http://www.hotnewdeal.com/2019/01/13/278873_Yankee_Candle_Large_22Oz_Jar_Candle_Pumpkin_Spic/20%Monthly2019-01-13 00:13
http://www.hotnewdeal.com/2019/01/12/278872_Honeywell_HT900_TurboForce_Air_Circulator_Fan_Bl/20%Monthly2019-01-12 23:41
http://www.hotnewdeal.com/2019/01/12/278871_Sougayilang_Fishing_Rod_Telescopic_27m88ft_23/20%Monthly2019-01-12 23:37
http://www.hotnewdeal.com/2019/01/12/278870_Lysol_Disinfectant_Spray_Crisp_Linen_38oz_2_X_1/20%Monthly2019-01-12 23:37
http://www.hotnewdeal.com/2019/01/12/278869_Nostalgia_Chocolate__Caramel_Apple_Party_15__fr/20%Monthly2019-01-12 22:44
http://www.hotnewdeal.com/2019/01/12/278868_83_Pieces_Learning_Resources_Gears_Gears_Gears_/20%Monthly2019-01-12 22:44
http://www.hotnewdeal.com/2019/01/12/278867_6Qt_Crockpot_Select_NCAA_Slow_Cooker_16Oz_Lit/20%Monthly2019-01-12 22:38
http://www.hotnewdeal.com/2019/01/12/278865_Costco_65_LG_65UK6090PUA_4K_WebOS_SmartTV_for_5/20%Monthly2019-01-12 21:06
http://www.hotnewdeal.com/2019/01/12/278863_Instant_Ocean_200_gallon_Salt_Water_Mix_3299_at_/20%Monthly2019-01-12 20:10
http://www.hotnewdeal.com/2019/01/12/278862_Belk_Clinique_Gift_Set_Clearance_From_475__Fre/20%Monthly2019-01-12 19:37
http://www.hotnewdeal.com/2019/01/12/278861_5Ct_Kind_Healthy_Grains_Bars_from_150_Add_On/20%Monthly2019-01-12 19:11
http://www.hotnewdeal.com/2019/01/12/278860_Jackbox_5_is_40_off_on_Fanatical_originally_29/20%Monthly2019-01-12 18:57
http://www.hotnewdeal.com/2019/01/12/278859_11_oz_LOral_Paris_Elnett_Satin_Extra_Strong_Hol/20%Monthly2019-01-12 18:44
http://www.hotnewdeal.com/2019/01/12/278858_Revlon_Extra_Grip_Vented_Paddle_Hair_Brush_423_A/20%Monthly2019-01-12 18:21
http://www.hotnewdeal.com/2019/01/12/278857_ASUS_ZenBook14_UX430_i78550U_8GB_RAM256_GB_SSD/20%Monthly2019-01-12 18:21
http://www.hotnewdeal.com/2019/01/12/278856_Magic_Jack_Go_w12_Months_of_Service_2399_at_Wal/20%Monthly2019-01-12 18:15
http://www.hotnewdeal.com/2019/01/12/278855_HORI_Nintendo_Switch_Real_Arcade_ProV_Hayabusa_1/20%Monthly2019-01-12 18:10
http://www.hotnewdeal.com/2019/01/12/278854_8GB_GSkill_Ripjaws_DDR4_2133_SODIMM_Laptop_Memor/20%Monthly2019-01-12 17:59
http://www.hotnewdeal.com/2019/01/12/278853_AUKEY_150W_Power_Inverter_with_Cup_Holder_Design_/20%Monthly2019-01-12 17:55
http://www.hotnewdeal.com/2019/01/12/278852_70__VIZIO_32_inch_51_Channel_Soundbar_System_wi/20%Monthly2019-01-12 17:55
http://www.hotnewdeal.com/2019/01/12/278851_Amazon_AddOn_item_Aurora_World_15916_10_Horto/20%Monthly2019-01-12 17:54
http://www.hotnewdeal.com/2019/01/12/278850_Rowenta_PU6020_Intense_Pure_Air_XL_Air_Purifier_at/20%Monthly2019-01-12 17:22
http://www.hotnewdeal.com/2019/01/12/278849_Corsair_VOID_Pro_Wireless_Headset_PC_6499/20%Monthly2019-01-12 17:22
http://www.hotnewdeal.com/2019/01/12/278847_Expresscom_Additional_50_Off_Clearance_Womens/20%Monthly2019-01-12 16:22
http://www.hotnewdeal.com/2019/01/12/278846_Speedo_Mens_Boardshorts_from_6_Womens_Swim_Sui/20%Monthly2019-01-12 16:15
http://www.hotnewdeal.com/2019/01/12/278845_DeWALT_Tough_System_Case_DWST08201_Small_1799/20%Monthly2019-01-12 16:06
http://www.hotnewdeal.com/2019/01/12/278844_CORSAIR_Vengeance_RGB_32GB_4x8GB_DDR4_2666MHz_C1/20%Monthly2019-01-12 15:38
http://www.hotnewdeal.com/2019/01/12/278843_Azul_Board_Game_2949__Free_Shipping_w_Amazon_P/20%Monthly2019-01-12 15:24
http://www.hotnewdeal.com/2019/01/12/278842_Amazon_Prime_The_Body_Shop_Almond_Milk_and_Honey_/20%Monthly2019-01-12 15:08
http://www.hotnewdeal.com/2019/01/12/278841_httpswwwwalmartcomipMagliteMl25lt2c3cL/20%Monthly2019-01-12 14:56
http://www.hotnewdeal.com/2019/01/12/278840_Weber_Q_3200_2Burner_Propane_Gas_Grill_in_Titaniu/20%Monthly2019-01-12 14:47
http://www.hotnewdeal.com/2019/01/12/278839_Official_Lego_Baseplate_Blue_and_Green_589_add/20%Monthly2019-01-12 14:24
http://www.hotnewdeal.com/2019/01/12/278837_ADATA_64GB_Premier_microSDXC_UHSI__Class_10_V10_/20%Monthly2019-01-12 13:41
http://www.hotnewdeal.com/2019/01/12/278836_ESET_Internet_Security_2018_5_devices_1_yr_30_/20%Monthly2019-01-12 13:12
http://www.hotnewdeal.com/2019/01/12/278835_Aukey_Latitude_Wireless_Headphones_for_1799_inst/20%Monthly2019-01-12 13:01
http://www.hotnewdeal.com/2019/01/12/278834_Shadow_of_War_gold_1059_Definitive_Edition_1/20%Monthly2019-01-12 13:01
http://www.hotnewdeal.com/2019/01/12/278833_20_off_Fullservice_Bath_or_Bath_with_Haircut/20%Monthly2019-01-12 12:38
http://www.hotnewdeal.com/2019/01/12/278831_Its_back_DuroMax_10000_Watt_Hybrid_Dual_Fuel_Por/20%Monthly2019-01-12 12:12
http://www.hotnewdeal.com/2019/01/12/278830_Charles_Tyrwhitt_Mens_Sale_Dress_Shirts_22_Must/20%Monthly2019-01-12 12:11
http://www.hotnewdeal.com/2019/01/12/278829_Salvatore_Ferragamo_SF844S_Sunglasses_6499_Free/20%Monthly2019-01-12 11:57
http://www.hotnewdeal.com/2019/01/12/278828_Infant_Optics_DXR8_35_Video_Baby_Monitor_Amazo/20%Monthly2019-01-12 11:57
http://www.hotnewdeal.com/2019/01/12/278827_Home_Decorators_Collection_Newport_Bath_Towel_44/20%Monthly2019-01-12 11:57
http://www.hotnewdeal.com/2019/01/12/278826_30Count_Bags_Quaker_Rice_Crisps_Savory_Mix_06/20%Monthly2019-01-12 11:39
http://www.hotnewdeal.com/2019/01/12/278825_Nature_Valley_Peak_Edition_Granola_Cups_Peanut_Bu/20%Monthly2019-01-12 11:39
http://www.hotnewdeal.com/2019/01/12/278824_Kohler_C3155_Powered_Bidet_387/20%Monthly2019-01-12 11:29
http://www.hotnewdeal.com/2019/01/12/278823_Eufy_RoboVac_11_Robotic_Vacuum_Cleaner_Refurbish/20%Monthly2019-01-12 11:29
http://www.hotnewdeal.com/2019/01/12/278822_GoGreen_Power_GG16103MS_6_Outlet_Surge_Protector_/20%Monthly2019-01-12 11:09
http://www.hotnewdeal.com/2019/01/12/278821_Audialis_One_2019_Spotify_InternetRadio__TV_Re/20%Monthly2019-01-12 10:38
http://www.hotnewdeal.com/2019/01/12/278820_Dell_U2415_UltraSharp_1920_x_1200_IPS_Monitor_180/20%Monthly2019-01-12 10:23
http://www.hotnewdeal.com/2019/01/12/278819_12Pack_Planters_Single_Serve_Salted_Peanuts_17/20%Monthly2019-01-12 09:10
http://www.hotnewdeal.com/2019/01/12/278818_Ebay_20_Coupon_when_you_sell_in_Video_Games__Con/20%Monthly2019-01-12 08:29
http://www.hotnewdeal.com/2019/01/12/278817_HP_156_Touchscreen_Laptop_1TB_win_10_4GB_199/20%Monthly2019-01-12 08:29
http://www.hotnewdeal.com/2019/01/12/278816_Amazon_SS_Burts_Bees_100_Natural_Lemon_and_Vit/20%Monthly2019-01-12 08:20
http://www.hotnewdeal.com/2019/01/12/278815_Starlink_Battle_for_Atlas_Starter_Edition_Pack_Ni/20%Monthly2019-01-12 06:59
http://www.hotnewdeal.com/2019/01/12/278814_60Count_Nature_Made_Turmeric_Curcumin_Capsules_5/20%Monthly2019-01-12 05:00
http://www.hotnewdeal.com/2019/01/12/278813_Homedics_12_Days_of_Christmas_Essential_Oil_Set/20%Monthly2019-01-12 05:00
http://www.hotnewdeal.com/2019/01/12/278812_Nintendo_Labo_Robot_Kit_ToyCon_02_for_Nintendo_Sw/20%Monthly2019-01-12 04:06
http://www.hotnewdeal.com/2019/01/12/278811_Jcrew_Factory_extra_70_off_clearance_items_when_y/20%Monthly2019-01-12 02:32
http://www.hotnewdeal.com/2019/01/12/278810_Addon_Item_Gaiam_Yoga_Mat__Foldable_2mm_Travel_/20%Monthly2019-01-12 01:47
http://www.hotnewdeal.com/2019/01/12/278809_Bellemain_6_Qt_instant_Pot_Steamer_Basket_595/20%Monthly2019-01-12 01:29
http://www.hotnewdeal.com/2019/01/12/278807_Njoy_ACE_vape_ecig_starter_kit_FREE_after_1500_Sw/20%Monthly2019-01-12 01:19
http://www.hotnewdeal.com/2019/01/12/278806_COSTCO__New_or_Existing_TMobile_Customers__200/20%Monthly2019-01-12 00:07
http://www.hotnewdeal.com/2019/01/12/278805_Lego_Star_Wars_Kessel_Run_Millennium_Falcon_Walma/20%Monthly2019-01-12 00:07
http://www.hotnewdeal.com/2019/01/12/278804_Bon_Appetit_4_Consumer_Reports_1795_Outside/20%Monthly2019-01-12 00:07
http://www.hotnewdeal.com/2019/01/11/278803_3_Monoprice_HDMI_to_DVI_Adapter_Cable_w_Ferrite_/20%Monthly2019-01-11 23:39
http://www.hotnewdeal.com/2019/01/11/278802_Paw_Patrol__My_Size_Lookout_Tower_3999_YMMV_bm/20%Monthly2019-01-11 23:32
http://www.hotnewdeal.com/2019/01/11/278801_Raspberry_Pi_3_model_B_1748_BM_YMMV/20%Monthly2019-01-11 23:14
http://www.hotnewdeal.com/2019/01/11/278800_Clarks_Mens_Conwell_Cap_Dress_Derby_Shoe_35_Cla/20%Monthly2019-01-11 22:58
http://www.hotnewdeal.com/2019/01/11/278799_Chromecast_Audio_Walmart_7_ymmv_bm/20%Monthly2019-01-11 22:50
http://www.hotnewdeal.com/2019/01/11/278798_Britax_Allegiance_Convertible_Car_Seat__79__Wal/20%Monthly2019-01-11 22:50
http://www.hotnewdeal.com/2019/01/11/278797_HP_22b013w_AllinOne_PC_215_Full_HD_IPS_Touch_/20%Monthly2019-01-11 22:50
http://www.hotnewdeal.com/2019/01/11/278796_Peerless_AutoTrac_Chains_0155510_3931_Free_S/20%Monthly2019-01-11 22:49
http://www.hotnewdeal.com/2019/01/11/278795_Gillette_Limited_Edition_Fusion5_ProShield_Razor_/20%Monthly2019-01-11 22:49
http://www.hotnewdeal.com/2019/01/11/278794_ASRock_Phantom_Gaming_X_Radeon_RX_570_DirectX_12_R/20%Monthly2019-01-11 21:52
http://www.hotnewdeal.com/2019/01/11/278793_Smart_WiFi_Plug4Pack_Smart_Outlet_Mini_Socket/20%Monthly2019-01-11 21:52
http://www.hotnewdeal.com/2019/01/11/278792_Toshiba__43_2160p__Smart__4K_UHD_TV_with_HDR_/20%Monthly2019-01-11 21:36
http://www.hotnewdeal.com/2019/01/11/278790_AUTOVOX_M6PRO_Backup_Camera_Kit__Touch_Screen_Mi/20%Monthly2019-01-11 21:36
http://www.hotnewdeal.com/2019/01/11/278787_Plantron_BackBeatGO3_BLK_wCharging_Case_Wireless_/20%Monthly2019-01-11 20:31
http://www.hotnewdeal.com/2019/01/11/278786_i99900K_for_49999__Free_Shipping__Neweggcom/20%Monthly2019-01-11 20:23
http://www.hotnewdeal.com/2019/01/11/278785_Mini_Bluetooth_EarbudHeadphone_with_6_Hour_Call_T/20%Monthly2019-01-11 20:01
http://www.hotnewdeal.com/2019/01/11/278784_Craftsman_Magnetic_Tool_Organization_PanelReg_24/20%Monthly2019-01-11 19:29
http://www.hotnewdeal.com/2019/01/11/278783_LEGO_Walmart_Clearance_List_YMMV__More/20%Monthly2019-01-11 19:29
http://www.hotnewdeal.com/2019/01/11/278782_Nespresso_Capsules_Buy_8_Get_2_Free_Sleeves_10_sl/20%Monthly2019-01-11 19:29
http://www.hotnewdeal.com/2019/01/11/278781_YMMV_50_DJI_Tello_Quadcopter_Beginner_Drone_VR_HD/20%Monthly2019-01-11 19:29
http://www.hotnewdeal.com/2019/01/11/278780_Weighted_Blanket_60_x_8020_lbs_Cotton_Heavy_G/20%Monthly2019-01-11 19:12
http://www.hotnewdeal.com/2019/01/11/278779_TPLink_AC1200_DOCSIS_30_16x4_Wireless_WiFi_Ca/20%Monthly2019-01-11 19:12
http://www.hotnewdeal.com/2019/01/11/278778_David_Copperfield_Audible_Audiobook__Unabridged_/20%Monthly2019-01-11 18:54
http://www.hotnewdeal.com/2019/01/11/278777_TMobile_LG_V40_or_G7_ThinQ__BOGO_New_line_NOT_r/20%Monthly2019-01-11 18:37
http://www.hotnewdeal.com/2019/01/11/278776_Lenovo_Yoga_730_2in1_133_FHD_IPS_Touch_i58/20%Monthly2019-01-11 18:37
http://www.hotnewdeal.com/2019/01/11/278775_New_York_to_Johannesburg_South_Africa_525543_RT/20%Monthly2019-01-11 18:37
http://www.hotnewdeal.com/2019/01/11/278774_Maglite_LED_Flashlight_3xC_Cell_for_6_Bushnell/20%Monthly2019-01-11 18:14
http://www.hotnewdeal.com/2019/01/11/278773_Jetcom_30_Off_Select_Pet_Products__FS_on_35/20%Monthly2019-01-11 18:13
http://www.hotnewdeal.com/2019/01/11/278772_Hanes_Mens_FreshIQ_XTemp_Brief_4Pk_799_Wom/20%Monthly2019-01-11 18:01
http://www.hotnewdeal.com/2019/01/11/278771_WD_Blue_4TB_Desktop_Hard_Disk_Drive__WD40EZRZ_84/20%Monthly2019-01-11 18:01
http://www.hotnewdeal.com/2019/01/11/278770_Troy_Bilt_TB130_XP_160cc_21_in_Push_Gas_Lawn_Mower/20%Monthly2019-01-11 17:44
http://www.hotnewdeal.com/2019/01/11/278769_RYOBI_ONE_18_Volt_Lithium_Ion_Stick_Vacuum_Cleane/20%Monthly2019-01-11 17:32
http://www.hotnewdeal.com/2019/01/11/278768_ASUS_Turbo_GeForce_GTX_1070_Ti_with_fortnite_bund/20%Monthly2019-01-11 17:32
http://www.hotnewdeal.com/2019/01/11/278767_Shoprite_BM_Sylvania_60_Watt_LED_Bulb__Free_aft/20%Monthly2019-01-11 17:15
http://www.hotnewdeal.com/2019/01/11/278766_Beats_by_Dr_Dre__Beats_Solo3_Wireless_Headphones/20%Monthly2019-01-11 17:15
http://www.hotnewdeal.com/2019/01/11/278765_Asus_GX501GIXS74_156_Gsync_Laptop_Intel_i7875/20%Monthly2019-01-11 16:55
http://www.hotnewdeal.com/2019/01/11/278764_Frosted_Fragrance_Mist__Victorias_Secret_399_/20%Monthly2019-01-11 16:54
http://www.hotnewdeal.com/2019/01/11/278763_AC_Delco_Wiper_Rebate__5_per_blade_Rock_Auto_ha/20%Monthly2019-01-11 16:47
http://www.hotnewdeal.com/2019/01/11/278762_Microsoft_Surface_Pro_6_i5_256GB_Bundles_in_Black/20%Monthly2019-01-11 16:47
http://www.hotnewdeal.com/2019/01/11/278761_Converse_Chuck_Taylor_Toddler_All_Star_Seasonal_Co/20%Monthly2019-01-11 16:46
http://www.hotnewdeal.com/2019/01/11/278760_Asus_RTAC1200_Routers_3999/20%Monthly2019-01-11 16:37
http://www.hotnewdeal.com/2019/01/11/278759_Alienware_Advanced_Mechanical_Programmable_Gaming_/20%Monthly2019-01-11 16:14
http://www.hotnewdeal.com/2019/01/11/278758_Diamondback_Mens_2018_Yellow_Atroz_34999/20%Monthly2019-01-11 16:14
http://www.hotnewdeal.com/2019/01/11/278757_TPLink_TLSG1005D_5Port_Gigabit_Desktop_Switch_/20%Monthly2019-01-11 16:02
http://www.hotnewdeal.com/2019/01/11/278756_120GB_ADATA_SU655_25_SATA_III_3D_Solid_State_Dri/20%Monthly2019-01-11 16:02
http://www.hotnewdeal.com/2019/01/11/278755_Minecraft_Wither_Vs_Alex__Battle_In_A_Box_382_A/20%Monthly2019-01-11 15:44
http://www.hotnewdeal.com/2019/01/11/278754_Westcott_8_Titanium_NonStick_Straight_Scissors_/20%Monthly2019-01-11 15:44
http://www.hotnewdeal.com/2019/01/11/278753_Nerf_Modulus_Recon_MK_11_Blaster_or_Nerf_Nitro_Bum/20%Monthly2019-01-11 15:29
http://www.hotnewdeal.com/2019/01/11/278752_Outlast_Bundle_of_Terror_Nintendo_Switch_Digital/20%Monthly2019-01-11 15:14
http://www.hotnewdeal.com/2019/01/11/278751_The_Frame_by_Samsung__55_Class_4K_2160p_UHD_TV/20%Monthly2019-01-11 15:14
http://www.hotnewdeal.com/2019/01/11/278750_Dorco_Womans_Shai_4_w_2_cartridges_199__Free_/20%Monthly2019-01-11 15:14
http://www.hotnewdeal.com/2019/01/11/278749_Google_Wall_Charger_for_Pixel_XL_Pixel_2_XL__A/20%Monthly2019-01-11 15:14
http://www.hotnewdeal.com/2019/01/11/278748_Unisex_Shoe_Converse_Chuck_Taylor_All_Star_Seasona/20%Monthly2019-01-11 15:01
http://www.hotnewdeal.com/2019/01/11/278747_Jumping_Joe__Friends_Nintendo_Switch_049/20%Monthly2019-01-11 14:42
http://www.hotnewdeal.com/2019/01/11/278746_Earn_40_cash_back_when_you_make_two_transactions_/20%Monthly2019-01-11 14:30
http://www.hotnewdeal.com/2019/01/11/278745_4Pack_Musicians_Gear_Braided_Instrument_Cables_/20%Monthly2019-01-11 14:24
http://www.hotnewdeal.com/2019/01/11/278744_Hatrigo_Steamer_Basket_for_Instant_Pot_Accessories/20%Monthly2019-01-11 14:24
http://www.hotnewdeal.com/2019/01/11/278743_55_TCL_55S405_4K_UHD_HDR_Roku_Smart_LED_HDTV__3/20%Monthly2019-01-11 14:04
http://www.hotnewdeal.com/2019/01/11/278742_Acer_Aspire_5_A51551G89LS_156_FHD_i78550U/20%Monthly2019-01-11 14:04
http://www.hotnewdeal.com/2019/01/11/278741_Huawei_MateBookD_14_Ryzen_2500u_8GB_256GB_SSD_52/20%Monthly2019-01-11 13:44
http://www.hotnewdeal.com/2019/01/11/278740_Twelve_South_HiRise_Duet_Dual_Charging_Stand_for_/20%Monthly2019-01-11 13:44
http://www.hotnewdeal.com/2019/01/11/278739_MSI_MPG_Z390_Gaming_Plus_motherboard_109_AR/20%Monthly2019-01-11 13:44
http://www.hotnewdeal.com/2019/01/11/278738_San_Francisco_to_Hong_Kong_546_RT_Nonstop_on_Sing/20%Monthly2019-01-11 13:29
http://www.hotnewdeal.com/2019/01/11/278737_Orgain_Grass_Fed_Pasture_Raised_Hydrolyzed_Collage/20%Monthly2019-01-11 13:21
http://www.hotnewdeal.com/2019/01/11/278736_MSI_GeForce_GTX_1060_Gaming_6G_GDRR5_GTX_1060_GAM/20%Monthly2019-01-11 13:13
http://www.hotnewdeal.com/2019/01/11/278735_GAP_Coupon_for_Extra_Savings_40_Off__20_Off_Wo/20%Monthly2019-01-11 13:12
http://www.hotnewdeal.com/2019/01/11/278734_Peak_Design_Everyday_Messenger_15_Version_1_Ash/20%Monthly2019-01-11 13:12
http://www.hotnewdeal.com/2019/01/11/278733_DeLonghi_Nespresso_VertuoLine_Evoluo__Milk_ENV13/20%Monthly2019-01-11 12:59
http://www.hotnewdeal.com/2019/01/11/278732_Sunset_Overdrive_Xbox_One_for_775_at_Walmart_a/20%Monthly2019-01-11 12:58
http://www.hotnewdeal.com/2019/01/11/278730_Frys_InStrore__Online_Polk_Audio_65_2Way_Coa/20%Monthly2019-01-11 12:53
http://www.hotnewdeal.com/2019/01/11/278729_Dragon_Alliance_NFXs_Ski_Goggles_with_Bonus_Lens_/20%Monthly2019-01-11 12:52
http://www.hotnewdeal.com/2019/01/11/278727_Gas_Fuel_Leak_Detector_Propane_Combustible_Gas_Fue/20%Monthly2019-01-11 12:38
http://www.hotnewdeal.com/2019/01/11/278726_Sony_ICDTX800_Digital_Voice_Recorder_Black_or_Wh/20%Monthly2019-01-11 12:31
http://www.hotnewdeal.com/2019/01/11/278725_Dell_XPS_13_9360_Laptop_178550U_256GB_SSD__8GB_/20%Monthly2019-01-11 12:31
http://www.hotnewdeal.com/2019/01/11/278724_Nutro_Limited_Ingredient_Diet_Adult_Large_Breed_Dr/20%Monthly2019-01-11 12:23
http://www.hotnewdeal.com/2019/01/11/278723_Skagen_Hybrid_Smartwatch_40mm42mm_via_Facebook_Ma/20%Monthly2019-01-11 12:23
http://www.hotnewdeal.com/2019/01/11/278722_Lg_65b8_oled_tv_oled65b8pua/20%Monthly2019-01-11 12:13
http://www.hotnewdeal.com/2019/01/11/278721_LG_32MP58HQW_White_315_FHD_IPS_Widescreen_LED_B/20%Monthly2019-01-11 12:05
http://www.hotnewdeal.com/2019/01/11/278720_Old_Navy_Extra_40_Off_Clearance_FloralPrint_34/20%Monthly2019-01-11 12:00
http://www.hotnewdeal.com/2019/01/11/278719_Sprint_Kickstart_flash_sale_unlimited_talk_text_d/20%Monthly2019-01-11 11:59
http://www.hotnewdeal.com/2019/01/11/278718_SanDisk_Ultra_128GB_microSDXC_UHSI_card_with_Adap/20%Monthly2019-01-11 11:59
http://www.hotnewdeal.com/2019/01/11/278717_Amazon_Brand__100_Ct_Solimo_Dark_Roast_Coffee_K/20%Monthly2019-01-11 11:43
http://www.hotnewdeal.com/2019/01/11/278716_2Pack_Musicians_Gear_Tripod_Microphone_Stand_w_/20%Monthly2019-01-11 11:43
http://www.hotnewdeal.com/2019/01/11/278715_ViewSonic_4K_Projector_3500_Lumens_HDR_Support_PX/20%Monthly2019-01-11 11:43
http://www.hotnewdeal.com/2019/01/11/278714_2019_Stick_ThisTM_Wall_Calendar_12_Unique_Scen/20%Monthly2019-01-11 11:28
http://www.hotnewdeal.com/2019/01/11/278713_Acer_27_XZ271U_Curved_WQHD_144Hz_USB30_Gaming_Mo/20%Monthly2019-01-11 11:28
http://www.hotnewdeal.com/2019/01/11/278712_Will_It_Fly_How_to_Test_Your_Next_Business_Idea_S/20%Monthly2019-01-11 11:28
http://www.hotnewdeal.com/2019/01/11/278711_Angled_Spotting_Scope_20x60x_with_23mm_eyepiece_/20%Monthly2019-01-11 11:11
http://www.hotnewdeal.com/2019/01/11/278710_Micro_Center__AMD_Ryzen_7_1700X__150__In_store/20%Monthly2019-01-11 11:11
http://www.hotnewdeal.com/2019/01/11/278709_Apple_iPad_Pro_11_64GB_699_at_Best_Buy/20%Monthly2019-01-11 11:11
http://www.hotnewdeal.com/2019/01/11/278708_hover_board_129/20%Monthly2019-01-11 11:11
http://www.hotnewdeal.com/2019/01/11/278707_Lenovo_Laptop_IdeaPad_330_81D2005CUS_AMD_Ryzen_5_2/20%Monthly2019-01-11 11:11
http://www.hotnewdeal.com/2019/01/11/278706_NERF_Rival_Prometheus_MXVIII_20K_Blaster__5998_/20%Monthly2019-01-11 10:58
http://www.hotnewdeal.com/2019/01/11/278705_Micro_Center_SuperSpeed_128GB_USB_30_Flash_Drive_/20%Monthly2019-01-11 10:49
http://www.hotnewdeal.com/2019/01/11/278704_Dell_Alienware_34_Curved_2K_NVIDIA_GSync_Gaming_/20%Monthly2019-01-11 10:49
http://www.hotnewdeal.com/2019/01/11/278703_Asustor_AS3204T_4Bay_NAS_Diskless_Intel_Celer/20%Monthly2019-01-11 10:38
http://www.hotnewdeal.com/2019/01/11/278702_15_off_75_in_store_coupon_for_STAPLES_multi_use/20%Monthly2019-01-11 10:26
http://www.hotnewdeal.com/2019/01/11/278701_40_off_Wireless_Earbuds_ANBES_D41_Bluetooth_50_/20%Monthly2019-01-11 10:26
http://www.hotnewdeal.com/2019/01/11/278700_PSA_Kroger_Shrimp_recalled_in_3_states_over_poten/20%Monthly2019-01-11 10:26
http://www.hotnewdeal.com/2019/01/11/278699_UnitedS_Explorer_Business_Card_75000_bonus_milesa/20%Monthly2019-01-11 10:03
http://www.hotnewdeal.com/2019/01/11/278698_Gorilla_Tough_Pack__3_different_variety_packs_a/20%Monthly2019-01-11 09:44
http://www.hotnewdeal.com/2019/01/11/278697_ASUS_ROG_Strix_Radeon_RX_570_O4G_Gaming_OC_Edition/20%Monthly2019-01-11 09:44
http://www.hotnewdeal.com/2019/01/11/278696_Christmas_merchandise_90_OFF_at_B__M_Walmart/20%Monthly2019-01-11 09:44
http://www.hotnewdeal.com/2019/01/11/278694_Guardzilla_Outdoor_Waterproof_Camera_25_in_store_/20%Monthly2019-01-11 09:44
http://www.hotnewdeal.com/2019/01/11/278693_Addon_Item_IRIS_Large_Undershelf_Hanging_Basket_/20%Monthly2019-01-11 09:27
http://www.hotnewdeal.com/2019/01/11/278692_43_Insignia_4K_UHD_HDR_Fire_TV_Edition_Smart_HDTV/20%Monthly2019-01-11 09:12
http://www.hotnewdeal.com/2019/01/11/278691_Xbox_Gift_Card_5010_US_Email_Delivery_50_Ne/20%Monthly2019-01-11 09:12
http://www.hotnewdeal.com/2019/01/11/278690_MSI_Z370A_Pro_Intel_Z370_Chipset_Motherboard_89_/20%Monthly2019-01-11 09:12
http://www.hotnewdeal.com/2019/01/11/278689_Wireless_Bluetooth_Earphones_with_Mic_IPX7_Waterp/20%Monthly2019-01-11 09:01
http://www.hotnewdeal.com/2019/01/11/278688_Seasonic_Focus_Plus_Series_850W_80_Gold_Full_Modu/20%Monthly2019-01-11 08:51
http://www.hotnewdeal.com/2019/01/11/278687_16GB_2x8GB_Corsair_Vengeance_RGB_DDR4_3000_PC4_/20%Monthly2019-01-11 08:35
http://www.hotnewdeal.com/2019/01/11/278686_Lowes__50_off_Clearance_items_Xtreme_YMMV/20%Monthly2019-01-11 08:16
http://www.hotnewdeal.com/2019/01/11/278685_LEGO_Star_Wars_UCS_Snowspeeder_160/20%Monthly2019-01-11 08:16
http://www.hotnewdeal.com/2019/01/11/278684_Yuneec_Breeze_Drone_With_4K_Camera__Bluetooth_Con/20%Monthly2019-01-11 08:16
http://www.hotnewdeal.com/2019/01/11/278683_HydroFlask_Sale_Color_Retirement_25_off_2246/20%Monthly2019-01-11 08:15
http://www.hotnewdeal.com/2019/01/11/278682_1500W_Indoor_Electric_Mini_Desk_Personal_Heater_1/20%Monthly2019-01-11 08:02
http://www.hotnewdeal.com/2019/01/11/278681_36Count_212oz_Quest_Nutrition_Protein_Bar_Oatm/20%Monthly2019-01-11 07:29
http://www.hotnewdeal.com/2019/01/11/278680_Melissa__Doug_Folding_Medieval_Castle_Back_in_s/20%Monthly2019-01-11 07:02
http://www.hotnewdeal.com/2019/01/11/278679_Acer_X34P_34quot_Class_Curved_UltraWide_IPS_QHD_/20%Monthly2019-01-11 07:02
http://www.hotnewdeal.com/2019/01/11/278678_Keurig_K50_Classic_Single_Server_Brewer_2002_BM/20%Monthly2019-01-11 04:45
http://www.hotnewdeal.com/2019/01/11/278677_LaView_1080p_HD_Wireless_Smart_WiFi_Camera_Night_V/20%Monthly2019-01-11 04:04
http://www.hotnewdeal.com/2019/01/11/278676_Acer_Chromebook_Spin_13__699/20%Monthly2019-01-11 03:14
http://www.hotnewdeal.com/2019/01/11/278675_BrexLink_USB_Certified_Type_C_Cable_USB_C_to_USB_/20%Monthly2019-01-11 03:13
http://www.hotnewdeal.com/2019/01/11/278674_Conversecom_30_OFF_SITEWIDE__free_shipping/20%Monthly2019-01-11 02:31
http://www.hotnewdeal.com/2019/01/11/278673_NETGEAR_AC750_WiFi_Range_Extender_EX3700100NAS_/20%Monthly2019-01-11 02:12
http://www.hotnewdeal.com/2019/01/11/278672_27_HP_27w_1920x1080p_75Hz_IPS_LED_Monitor_10999/20%Monthly2019-01-11 02:01
http://www.hotnewdeal.com/2019/01/11/278671_Martial_Arts_Digital_HD_Movies_Kung_Fu_Hustle_Ir/20%Monthly2019-01-11 01:43
http://www.hotnewdeal.com/2019/01/11/278670_Robert_Redford_Movies_Digital_HD_A_Bridge_Too_F/20%Monthly2019-01-11 01:13
http://www.hotnewdeal.com/2019/01/11/278669_16Count_Cheryls_Cookies_Merry_Christmas_Gift_Tin/20%Monthly2019-01-11 01:13
http://www.hotnewdeal.com/2019/01/10/278668_Kirkland_Signature_Handcrafted_Luxury_Chocolates_/20%Monthly2019-01-10 23:47
http://www.hotnewdeal.com/2019/01/10/278667_Sodastream_1L_Classic_White_Carbonating_Bottle_Twi/20%Monthly2019-01-10 23:47
http://www.hotnewdeal.com/2019/01/10/278665_Off_3Wick_Metal_Tabletop_Citronella_Candle__15/20%Monthly2019-01-10 23:31
http://www.hotnewdeal.com/2019/01/10/278664_LYCAON_Bike_Handlebar_Grips_369/20%Monthly2019-01-10 23:31
http://www.hotnewdeal.com/2019/01/10/278663_500GB_Crucial_MX500_25_SSD_6459_AC_NF/20%Monthly2019-01-10 23:16
http://www.hotnewdeal.com/2019/01/10/278662_Prime_Members_20Pack_of_4oz_Dove_Men_Body__Face/20%Monthly2019-01-10 23:01
http://www.hotnewdeal.com/2019/01/10/278661_Buck_SOG_and_Gerber_Knives__Some_models_clearanc/20%Monthly2019-01-10 22:46
http://www.hotnewdeal.com/2019/01/10/278660_Stila_Cosmetics_BOGO_on_Lipsticks_and_40__20_/20%Monthly2019-01-10 22:46
http://www.hotnewdeal.com/2019/01/10/278659_Costco_Closeout_Y520__69997/20%Monthly2019-01-10 22:15
http://www.hotnewdeal.com/2019/01/10/278658_Addon_Item_Whitmor_Over_The_Door_Closet_Rod_Meta/20%Monthly2019-01-10 22:06
http://www.hotnewdeal.com/2019/01/10/278657_Earn_500_when_opened_new_Checking__Saving_accoun/20%Monthly2019-01-10 22:02
http://www.hotnewdeal.com/2019/01/10/278656_Amazonuk_Pirates_of_the_Caribbean_15_Bluray_/20%Monthly2019-01-10 21:45
http://www.hotnewdeal.com/2019/01/10/278655_Hisense_Infinity_F24_16GB_Unlocked_GSM_4G_LTE_Andr/20%Monthly2019-01-10 21:13
http://www.hotnewdeal.com/2019/01/10/278654_Electric_Oscillating_Mini_Space_Heater_Fan_450W95/20%Monthly2019-01-10 20:48
http://www.hotnewdeal.com/2019/01/10/278653_Lamy_LX_Ballpoint_Pen_Rose_Gold_25__Free_Shipp/20%Monthly2019-01-10 20:47
http://www.hotnewdeal.com/2019/01/10/278652_Planet_of_the_Apes_9Movie_Collection_Bluray__/20%Monthly2019-01-10 20:39
http://www.hotnewdeal.com/2019/01/10/278651_Xbox_One__598_Burnout_Paradise_Remastered_59/20%Monthly2019-01-10 20:39
http://www.hotnewdeal.com/2019/01/10/278650_The_Old_Spaghetti_Factory_50th_Anniversary_5_6_/20%Monthly2019-01-10 20:39
http://www.hotnewdeal.com/2019/01/10/278649_SGL_12Pack_6_Inch_Dimmable_LED_Recessed_Lighting/20%Monthly2019-01-10 20:39
http://www.hotnewdeal.com/2019/01/10/278648_Vacmaster_Professional_Beast_Series_WetDry_Vac_6/20%Monthly2019-01-10 20:24
http://www.hotnewdeal.com/2019/01/10/278647_SINGER_Heavy_Duty_4452_Sewing_Maching_17399/20%Monthly2019-01-10 20:17
http://www.hotnewdeal.com/2019/01/10/278646_AMEX_offers_ADT_new_service_Spend_250_or_more_/20%Monthly2019-01-10 20:07
http://www.hotnewdeal.com/2019/01/10/278645_SanDisk_Extreme_Pro_64GB_SDXC_UHSI_Memory_Card_S/20%Monthly2019-01-10 20:04
http://www.hotnewdeal.com/2019/01/10/278644_24Pack_of_08oz_Annies_Organic_Bunny_Fruit_Snack/20%Monthly2019-01-10 20:04
http://www.hotnewdeal.com/2019/01/10/278643_New_SlingTV_Customers_Chinese_New_Year_Offers_for/20%Monthly2019-01-10 20:04
http://www.hotnewdeal.com/2019/01/10/278642_NEW__Citi_Rewards_Card__15K_TYP_SignUpBonus_A/20%Monthly2019-01-10 19:45
http://www.hotnewdeal.com/2019/01/10/278640_Milwaukee_M18_Fuel_18V_LiIon_Brushless_String_Tri/20%Monthly2019-01-10 19:15
http://www.hotnewdeal.com/2019/01/10/278639_NEW_Rockwell_RK5151K_42_A_Sonicrafter_F80_Oscilla/20%Monthly2019-01-10 18:59
http://www.hotnewdeal.com/2019/01/10/278638_Adata_SU800_SSD__Lightning_Deal_128GB_23_256GB_/20%Monthly2019-01-10 18:53
http://www.hotnewdeal.com/2019/01/10/278637_Sony_WH1000XM3_Bluetooth_Wireless_Noise_Canceling_/20%Monthly2019-01-10 18:38
http://www.hotnewdeal.com/2019/01/10/278636_LL_Bean_Coupon_Extra_25_Off_SaleClearance_Items/20%Monthly2019-01-10 18:38
http://www.hotnewdeal.com/2019/01/10/278635_Atom_deal_on_Aquaman_movie_tickets_Buy_2_tickets/20%Monthly2019-01-10 18:14
http://www.hotnewdeal.com/2019/01/10/278634_35_inch_TFT_LCD_Touch_Screen__Protective_Case_Su/20%Monthly2019-01-10 18:05
http://www.hotnewdeal.com/2019/01/10/278633_Massdrop_Lavatools_Javelin_PRO_Duo_Instant_Read_D/20%Monthly2019-01-10 17:47
http://www.hotnewdeal.com/2019/01/10/278632_Aqua_Joe_Hose_Nozzles__Smart_Throttle_Control__Q/20%Monthly2019-01-10 17:47
http://www.hotnewdeal.com/2019/01/10/278631_Tens_Unit_Plus_24_Lifetime_Warranty_Rechargeable/20%Monthly2019-01-10 17:46
http://www.hotnewdeal.com/2019/01/10/278629_LEGO_City_Great_Vehicles_Ambulance_Helicopter_6017/20%Monthly2019-01-10 17:16
http://www.hotnewdeal.com/2019/01/10/278628_JCREW_CREWCUTS_Girls_metallic_moccasins_originall/20%Monthly2019-01-10 17:16
http://www.hotnewdeal.com/2019/01/10/278626_Bronze_Times_TM_Premium_Shockproof_Canvas_Laptop/20%Monthly2019-01-10 17:07
http://www.hotnewdeal.com/2019/01/10/278625_12Count_Gatorade_Recover_Protein_Shake_Chocolate/20%Monthly2019-01-10 16:56
http://www.hotnewdeal.com/2019/01/10/278624_12Pack_120_Count_Propel_Powder_Packets_Grape_Wi/20%Monthly2019-01-10 16:39
http://www.hotnewdeal.com/2019/01/10/278623_Croscill_comforters_king_size__5999/20%Monthly2019-01-10 16:32
http://www.hotnewdeal.com/2019/01/10/278622_Oster_18Qt_Roaster_with_High_Dome_SelfBasting_/20%Monthly2019-01-10 16:31
http://www.hotnewdeal.com/2019/01/10/278621_A_Quiet_Place__iTunes_4K__395/20%Monthly2019-01-10 16:16
http://www.hotnewdeal.com/2019/01/10/278620_Proform_CardioHIIT_Trainer_usually_around_1000_s/20%Monthly2019-01-10 16:07
http://www.hotnewdeal.com/2019/01/10/278619_Eric_Metaxas_Book_Martin_Luther_The_Man_Who_Redis/20%Monthly2019-01-10 16:04
http://www.hotnewdeal.com/2019/01/10/278618_Converse_Chuck_Taylor_All_Star_Seasonal_2997/20%Monthly2019-01-10 16:04
http://www.hotnewdeal.com/2019/01/10/278617_Fuji_FinePix_XP120_Waterproof_Digital_Camera_Refu/20%Monthly2019-01-10 15:45
http://www.hotnewdeal.com/2019/01/10/278616_Starbucks_Stores_50_off_Grande_or_Larger_Happy_/20%Monthly2019-01-10 15:22
http://www.hotnewdeal.com/2019/01/10/278615_Polk_Audio_MagniFi_One_Soundbar_with_Subwoofer_16/20%Monthly2019-01-10 15:01
http://www.hotnewdeal.com/2019/01/10/278614_Fitbit_Aria_2_WiFi_Smart_Scale_9495/20%Monthly2019-01-10 14:42
http://www.hotnewdeal.com/2019/01/10/278613_52L_Capacity_Emerald_1800Watt_Digital_Air_Fryer_/20%Monthly2019-01-10 14:42
http://www.hotnewdeal.com/2019/01/10/278612_ANEWISH_AC1200_USB_30_wireless_adapter_8_AC_Ama/20%Monthly2019-01-10 14:32
http://www.hotnewdeal.com/2019/01/10/278611_Allnew_Sonos_One__Amazon_Warehouse_Deal_so_use/20%Monthly2019-01-10 14:24
http://www.hotnewdeal.com/2019/01/10/278610_Finish_Line_Womens_Nike_Benasssi_Sliver_Metallic_/20%Monthly2019-01-10 14:24
http://www.hotnewdeal.com/2019/01/10/278609_Austin_TX_to_Frankfurt_Germany_468_RT_Airfares_on/20%Monthly2019-01-10 14:16
http://www.hotnewdeal.com/2019/01/10/278608_Orgain_Organic_Superfoods_Powder_Berry_Vegan_Gl/20%Monthly2019-01-10 14:15
http://www.hotnewdeal.com/2019/01/10/278607_Samsung_Galaxy_Note_8_64GB_Smartphone_for_Sprint_/20%Monthly2019-01-10 14:03
http://www.hotnewdeal.com/2019/01/10/278606_Silk_Almond_Milk_Unsweetened_Vanilla_32_Fluid_Ou/20%Monthly2019-01-10 14:03
http://www.hotnewdeal.com/2019/01/10/278605_Chalkboard_Labels__90_Premium_Reusable_Chalkboard/20%Monthly2019-01-10 13:46
http://www.hotnewdeal.com/2019/01/10/278604_Game_of_Thrones_The_Complete_Seasons_17_Region_/20%Monthly2019-01-10 13:31
http://www.hotnewdeal.com/2019/01/10/278603_Oz_The_Complete_Collection_94_on_Audible_094/20%Monthly2019-01-10 13:31
http://www.hotnewdeal.com/2019/01/10/278602_Cangshan_S_Series_17_piece_German_Steel_Knife_Set_/20%Monthly2019-01-10 13:31
http://www.hotnewdeal.com/2019/01/10/278601_Hover1_Liberty_UL_Certified_Electric_Hoverboard_w/20%Monthly2019-01-10 13:23
http://www.hotnewdeal.com/2019/01/10/278600_168Piece_Orbit_Wintermint_Sugarfree_Gum_678_or_/20%Monthly2019-01-10 13:15
http://www.hotnewdeal.com/2019/01/10/278599_Add_on_item_299_Burts_Bees_100_Natural_Moistur/20%Monthly2019-01-10 13:07
http://www.hotnewdeal.com/2019/01/10/278598_Weber_Charcoal_Briquettes_20_lb_390__Home_Dep/20%Monthly2019-01-10 13:03
http://www.hotnewdeal.com/2019/01/10/278597_Amazon_LIFX_Smart_LED_Bulb_or_Wemo_Mini_WiFi_Smart/20%Monthly2019-01-10 13:02
http://www.hotnewdeal.com/2019/01/10/278596_Ring_doorbell_2_and_pro__lowes_139__179_YMMV/20%Monthly2019-01-10 13:02
http://www.hotnewdeal.com/2019/01/10/278595_REI_flash_45_mens_and_womens_45_backpacking_pack/20%Monthly2019-01-10 12:55
http://www.hotnewdeal.com/2019/01/10/278593_TPLink_Deco_M5_AC1300_MUMIMO_DualBand_Whole_Hom/20%Monthly2019-01-10 12:52
http://www.hotnewdeal.com/2019/01/10/278592_imPRESS_ManicurePedicure_Presson_Sets_BOGO__20/20%Monthly2019-01-10 12:46
http://www.hotnewdeal.com/2019/01/10/278590_PSA__FDA_Recalled_candies_could_be_contaminated_/20%Monthly2019-01-10 12:36
http://www.hotnewdeal.com/2019/01/10/278589_YMMV_SKIL_120Volt_6Amp_Belt_Sander_2398_lowes/20%Monthly2019-01-10 12:36
http://www.hotnewdeal.com/2019/01/10/278588_AutoVox_M1W_Wireless_43_TFT_Rear_View_Backup_Ca/20%Monthly2019-01-10 12:36
http://www.hotnewdeal.com/2019/01/10/278586_Hilton_Honors_Members_Stays_Completed_through_May/20%Monthly2019-01-10 12:16
http://www.hotnewdeal.com/2019/01/10/278585_MSI_GV62_8RE015_Gaming_156_FHD_IPS_i78750H/20%Monthly2019-01-10 12:16
http://www.hotnewdeal.com/2019/01/10/278583_Fractal_Design_Node_804_Black_Window_AluminumStee/20%Monthly2019-01-10 12:16
http://www.hotnewdeal.com/2019/01/10/278582_Kingston_A400_SSD_480GB_SATA_3_25_Solid_State_Dr/20%Monthly2019-01-10 12:16
http://www.hotnewdeal.com/2019/01/10/278581_WilliamsSonoma_The_Original_Peppermint_Bark_1lb_/20%Monthly2019-01-10 12:03
http://www.hotnewdeal.com/2019/01/10/278580_New_Super_Mario_Bros_U_Deluxe__Nintendo_Switch__/20%Monthly2019-01-10 12:03
http://www.hotnewdeal.com/2019/01/10/278579_2x_Corsair_Vengeance_LPX_4GB_1_x_4GB_DDR4_DRAM_/20%Monthly2019-01-10 12:02
http://www.hotnewdeal.com/2019/01/10/278578_Girls_Boys_Pajamas_Sets_Cotton_Striped_Long_Sleeve/20%Monthly2019-01-10 12:02
http://www.hotnewdeal.com/2019/01/10/278576_Cellucor_C4_Ultimate_Pre_Workout_Powder_Subscribe/20%Monthly2019-01-10 11:43
http://www.hotnewdeal.com/2019/01/10/278575_Southwest_Airlines_Chase_Visa_2019_Companion_Pass/20%Monthly2019-01-10 11:01
http://www.hotnewdeal.com/2019/01/10/278574_Hills_Science_Diet_Adult_Dog_Treat_Bag_Chicken_J/20%Monthly2019-01-10 11:00
http://www.hotnewdeal.com/2019/01/10/278573_Craftsman_Mens_Duck_Canvas_Jacket_3999_with_30/20%Monthly2019-01-10 10:45
http://www.hotnewdeal.com/2019/01/10/278572_HP_EX920_M2_1TB_PCIe_30_x4_NVMe_3D_NAND_SSD_152/20%Monthly2019-01-10 10:32
http://www.hotnewdeal.com/2019/01/10/278571_3_Dash_Cam_1080P_HD_w_Wide_Angle__Night_Vision/20%Monthly2019-01-10 10:15
http://www.hotnewdeal.com/2019/01/10/278570_LG_65UK6090PUA_65_Class_645_Diag_4K_Ultra_HD/20%Monthly2019-01-10 10:07
http://www.hotnewdeal.com/2019/01/10/278569_JACKSON_575cu_ft_Thermoform_Wheelbarrow_Lowes_YM/20%Monthly2019-01-10 10:07
http://www.hotnewdeal.com/2019/01/10/278568_Used_Like_New_Unlocked_Ocean_Blue_Samsung_Note_9_f/20%Monthly2019-01-10 10:06
http://www.hotnewdeal.com/2019/01/10/278567_Chicago_Cutlery_2Pack_14in_L_X_10in_W_Cutting_B/20%Monthly2019-01-10 10:06
http://www.hotnewdeal.com/2019/01/10/278566_OutdoorMaster_2_Pairs_Winter_Gloves_for__2189_/20%Monthly2019-01-10 10:06
http://www.hotnewdeal.com/2019/01/10/278565_Just_Dance_2018_15/20%Monthly2019-01-10 10:06
http://www.hotnewdeal.com/2019/01/10/278564_HR_Block_2018_Tax_Software_50_off_plus_more__al/20%Monthly2019-01-10 09:31
http://www.hotnewdeal.com/2019/01/10/278563_Dell_Inspiron_15_5575_156_FHD_Ryzen_2500U_4G/20%Monthly2019-01-10 09:31
http://www.hotnewdeal.com/2019/01/10/278562_Benro_FIF19CIB0_Carbon_Fiber_Transfunctional_iFoto/20%Monthly2019-01-10 09:14
http://www.hotnewdeal.com/2019/01/10/278561_YMMV_Groupon_2_months_of_Audible_for_190/20%Monthly2019-01-10 09:07
http://www.hotnewdeal.com/2019/01/10/278560_Truper_6_Cubic_Foot_Steel_Wheelbarrow_18_Lowes_YM/20%Monthly2019-01-10 08:44
http://www.hotnewdeal.com/2019/01/10/278559_Warehouse_Deals__Select_Items__Categories_Additi/20%Monthly2019-01-10 08:38
http://www.hotnewdeal.com/2019/01/10/278558_1999_Laptop_Notebook_Stand_Laptop_Riser_Desktop_/20%Monthly2019-01-10 08:38
http://www.hotnewdeal.com/2019/01/10/278557_GSKILL_Aegis_16GB_2x_8_DDR4_3000_Desktop_RAM_Ki/20%Monthly2019-01-10 08:31
http://www.hotnewdeal.com/2019/01/10/278556_Home_Depot_Schlage_z_wave_hand_sets_ex_Schlage_C/20%Monthly2019-01-10 08:14
http://www.hotnewdeal.com/2019/01/10/278555_Valkyria_Chronicles_4_Memoirs_From_Battle_Edition/20%Monthly2019-01-10 08:04
http://www.hotnewdeal.com/2019/01/10/278554_Bestek_Cordless_Handheld_Vacuum_Cleaner_from__15/20%Monthly2019-01-10 07:05
http://www.hotnewdeal.com/2019/01/10/278552_Nintendo_Switch_LEGO_Harry_Potter_Collection_249/20%Monthly2019-01-10 06:07
http://www.hotnewdeal.com/2019/01/10/278551_Schooled_Season_1_Digital_HD_Season_Pass_for_2/20%Monthly2019-01-10 05:04
http://www.hotnewdeal.com/2019/01/10/278550_Xbox_One_Controller_Black_or_White_at_Costco_for/20%Monthly2019-01-10 04:06
http://www.hotnewdeal.com/2019/01/10/278549_Bounce_Fabric_Softener_and_Dryer_Sheets_Outdoor_F/20%Monthly2019-01-10 03:46
http://www.hotnewdeal.com/2019/01/10/278548_Icewind_Dale__Planescape_Torment_Enhanced_Editi/20%Monthly2019-01-10 03:30
http://www.hotnewdeal.com/2019/01/10/278547_Universal_Travel_Adapter_UPPEL_International_Powe/20%Monthly2019-01-10 02:45
http://www.hotnewdeal.com/2019/01/10/278546_Stila_Cosmetics_B1G1_Free_Lipstick_works_on_sale/20%Monthly2019-01-10 02:33
http://www.hotnewdeal.com/2019/01/10/278545_Walmart__Roku_Streaming_Stick_4KWITH_1_MONTH_FR/20%Monthly2019-01-10 02:33
http://www.hotnewdeal.com/2019/01/10/278544_HyperX_Cloud_Flight_Wireless_Stereo_Gaming_Headset/20%Monthly2019-01-10 01:47
http://www.hotnewdeal.com/2019/01/10/278543_Teac_AI503S_USBDACPremain_Amplifier_Silver__54/20%Monthly2019-01-10 01:34
http://www.hotnewdeal.com/2019/01/10/278542_Samsung_Fast_Charge_10000_mAh_Portable_Battery_1/20%Monthly2019-01-10 01:24
http://www.hotnewdeal.com/2019/01/10/278541_Mainstays_Back_and_Side_Sleeper_Extra_Firm_Pillow_/20%Monthly2019-01-10 01:13
http://www.hotnewdeal.com/2019/01/10/278540_Childrens_Snow_Sports_Thinsulate_Lined_Waterproof/20%Monthly2019-01-10 01:13
http://www.hotnewdeal.com/2019/01/10/278539_PowerColor_RED_DRAGON_Radeon_RX_Vega_56_Video_Card/20%Monthly2019-01-10 01:11
http://www.hotnewdeal.com/2019/01/10/278538_Ann_Taylor_Extra_60__10_Off_Final_Sale_Items_W/20%Monthly2019-01-10 01:08
http://www.hotnewdeal.com/2019/01/10/278537_Wireless_Vertical_Mouse_Cordless_Optical_Ergonomi/20%Monthly2019-01-10 01:08
http://www.hotnewdeal.com/2019/01/09/278536_Klutz_Maker_Lab_Circuit_Kit_910__Amazon/20%Monthly2019-01-09 23:55
http://www.hotnewdeal.com/2019/01/09/278535_LED_Shop_Light_Tube_48W_Equivalent_4ft__Amazon_4/20%Monthly2019-01-09 23:46
http://www.hotnewdeal.com/2019/01/09/278534_CSTBerger_Diagonal_Eyepiece_for_DGT2_and_DGT10_Th/20%Monthly2019-01-09 23:46
http://www.hotnewdeal.com/2019/01/09/278533_San_Francisco_to_Manila_Philippines_394417_RT_A/20%Monthly2019-01-09 23:30
http://www.hotnewdeal.com/2019/01/09/278532_PSN_Store_Credit_Codes_7_Off__Green_Man_Gaming/20%Monthly2019-01-09 23:15
http://www.hotnewdeal.com/2019/01/09/278531_120W_VS6682_Vacuum_Sealer_for_Food_Preservation_wi/20%Monthly2019-01-09 23:15
http://www.hotnewdeal.com/2019/01/09/278530_Onkyo_TX8140_Network_Stereo_Receiver__Lowest_pri/20%Monthly2019-01-09 23:15
http://www.hotnewdeal.com/2019/01/09/278529_4_TimerNonStop_Mode_USB_Output_Sleep_Sound_Thera/20%Monthly2019-01-09 23:15
http://www.hotnewdeal.com/2019/01/09/278528_12_Ct_14oz_Kind_Bars_Dark_Chocolate_Cherry_Cashe/20%Monthly2019-01-09 22:56
http://www.hotnewdeal.com/2019/01/09/278527_Linksys_CM3008_on_clearance__13/20%Monthly2019-01-09 22:56
http://www.hotnewdeal.com/2019/01/09/278526_Save_up_50_OFF_for_Electric_Heated_Foot_Warmer_on/20%Monthly2019-01-09 22:56
http://www.hotnewdeal.com/2019/01/09/278525_Death_Squared_Android_App_099/20%Monthly2019-01-09 22:30
http://www.hotnewdeal.com/2019/01/09/278524_4_off_IZZE_Sparkling_Juice_Clementine_12_oz_Gla/20%Monthly2019-01-09 22:30
http://www.hotnewdeal.com/2019/01/09/278523_8Piece_Bread_Twists_for_Only_1/20%Monthly2019-01-09 22:30
http://www.hotnewdeal.com/2019/01/09/278522_Digital_Multimeter_with_Backlit_LCD_Display_for_6/20%Monthly2019-01-09 22:30
http://www.hotnewdeal.com/2019/01/09/278521_JBL_Studio_220_4_Bookshelf_Speakers_Refurbished_/20%Monthly2019-01-09 22:30
http://www.hotnewdeal.com/2019/01/09/278520_Dragons_Dogma_Dark_Arisen_28__Nintendo_Switch_A/20%Monthly2019-01-09 22:05
http://www.hotnewdeal.com/2019/01/09/278519_Sun_Joe_SPXPCA10_10Inch_Surface_Deck_and_Patio_/20%Monthly2019-01-09 22:04
http://www.hotnewdeal.com/2019/01/09/278518_Harry_Potter_Complete_8Film_Collection_Region_F/20%Monthly2019-01-09 21:29
http://www.hotnewdeal.com/2019/01/09/278516_Spiderman_PS4_PrimeFS_3999/20%Monthly2019-01-09 21:13
http://www.hotnewdeal.com/2019/01/09/278515_GE_Pro_6_Outlet_Wall_Tap_Surge_Protector_1200Joule/20%Monthly2019-01-09 21:13
http://www.hotnewdeal.com/2019/01/09/278514_Monster_Hunter_World_digital_PC_code_1860_Gam/20%Monthly2019-01-09 21:00
http://www.hotnewdeal.com/2019/01/09/278513_Seventh_Generation_Concentrated_Laundry_Detergent/20%Monthly2019-01-09 20:53
http://www.hotnewdeal.com/2019/01/09/278512_Shopkins__Mini_Packs_Blind_Box_149__Best_Buy/20%Monthly2019-01-09 20:50
http://www.hotnewdeal.com/2019/01/09/278510_1200W_Corsair_HXi_Series_HX1200i_80_Platinum_Full/20%Monthly2019-01-09 20:23
http://www.hotnewdeal.com/2019/01/09/278509_Starbucks_Cold_Brew_Coffee_Cocoa__Honey_with_Cre/20%Monthly2019-01-09 20:21
http://www.hotnewdeal.com/2019/01/09/278508_690Piece_KNEX_Thrill_Rides__Panther_Attack_Roll/20%Monthly2019-01-09 20:12
http://www.hotnewdeal.com/2019/01/09/278507_Samsung_SmartThings_Devices_on_sale_Military_Only/20%Monthly2019-01-09 20:12
http://www.hotnewdeal.com/2019/01/09/278506_80oz_Quaker_Oats_Quick_1Minute_Oatmeal_598_or_L/20%Monthly2019-01-09 19:45
http://www.hotnewdeal.com/2019/01/09/278505_August_Smart_Lock_Pro__Connect_3rd_Gen__17599/20%Monthly2019-01-09 19:45
http://www.hotnewdeal.com/2019/01/09/278504_Nutri_Ninja_BL450_900W_21000RPM_Professional_Blend/20%Monthly2019-01-09 19:45
http://www.hotnewdeal.com/2019/01/09/278503_Free_8x8_hardcover_photo_book_from_Shutterfly/20%Monthly2019-01-09 19:28
http://www.hotnewdeal.com/2019/01/09/278501_Wireless_Earbuds_True_Wireless_Headphones_Bluetoo/20%Monthly2019-01-09 19:27
http://www.hotnewdeal.com/2019/01/09/278500_AOC_Gaming_G2590FX_245_gaming_monitor_Full_HD_1/20%Monthly2019-01-09 19:27
http://www.hotnewdeal.com/2019/01/09/278498_Mens_Nike_Free_RN_Commuter_2018_Running_Shoes_30/20%Monthly2019-01-09 18:44
http://www.hotnewdeal.com/2019/01/09/278497_2PCs_Fashion_Antistatic_Keychain_Car_Static_Elimi/20%Monthly2019-01-09 18:44
http://www.hotnewdeal.com/2019/01/09/278496_Hornday_RAPiD_Safe_AR15_Wall_Lock_w_2_free_boxes/20%Monthly2019-01-09 18:38
http://www.hotnewdeal.com/2019/01/09/278495_Costway_3_pcs_Steel_Stacking_Nesting_Coffee_End_Ta/20%Monthly2019-01-09 18:37
http://www.hotnewdeal.com/2019/01/09/278494_30_off_60__Amazon_with_Amex_MR_YMMV/20%Monthly2019-01-09 18:22
http://www.hotnewdeal.com/2019/01/09/278493_6Pack_Velveeta_Cheesy_Bowls_Buffalo_Style_Chicke/20%Monthly2019-01-09 18:22
http://www.hotnewdeal.com/2019/01/09/278492_New_Microsoft_Surface_Laptop_135_Touch_Intel_i7/20%Monthly2019-01-09 18:21
http://www.hotnewdeal.com/2019/01/09/278491_PDP_Nintendo_Switch_Elite_Player_Backpack__2499/20%Monthly2019-01-09 18:21
http://www.hotnewdeal.com/2019/01/09/278490_999_Taken_HD_3_Movie_Bundle_Google_Play/20%Monthly2019-01-09 18:21
http://www.hotnewdeal.com/2019/01/09/278489_YMMV_Crayola_Creative_Fun_Double_Easel_19/20%Monthly2019-01-09 17:53
http://www.hotnewdeal.com/2019/01/09/278488_145Piece_48_oz_Brachs_Kiddie_Mix_Trolli_Now__/20%Monthly2019-01-09 17:43
http://www.hotnewdeal.com/2019/01/09/278487_lenovo_class_action/20%Monthly2019-01-09 17:27
http://www.hotnewdeal.com/2019/01/09/278486_12Pack_21oz_Quest_Nutrition_Protein_Bar_Chocola/20%Monthly2019-01-09 17:11
http://www.hotnewdeal.com/2019/01/09/278484_Soundcore_Flare_Limited_Edition_with_Travel_Case_P/20%Monthly2019-01-09 16:58
http://www.hotnewdeal.com/2019/01/09/278483_LHR_Delta_Skymiles_Flash_Sales_as_low_as_32k_RT/20%Monthly2019-01-09 16:58
http://www.hotnewdeal.com/2019/01/09/278482_Keurig__K200_SingleServe_KCup_Pod_Coffee_Maker_/20%Monthly2019-01-09 16:48
http://www.hotnewdeal.com/2019/01/09/278481_Lynk_Over_Door_Accessory_Holder_926__fs/20%Monthly2019-01-09 16:48
http://www.hotnewdeal.com/2019/01/09/278480_Titanfall_2__Xbox_One_for_399__Free_Shipping/20%Monthly2019-01-09 16:43
http://www.hotnewdeal.com/2019/01/09/278479_Home_Depot_Select_Hand_Tools_on_Clearance__Milwa/20%Monthly2019-01-09 16:37
http://www.hotnewdeal.com/2019/01/09/278478_106Piece_Box_PacKit_by_First_Aid_Only_Refill_Ki/20%Monthly2019-01-09 16:22
http://www.hotnewdeal.com/2019/01/09/278476_APC_UPS_BN450M_35__FS__Quill/20%Monthly2019-01-09 15:42
http://www.hotnewdeal.com/2019/01/09/278475_Perfect_Keto_products_75_off_at_Amazon/20%Monthly2019-01-09 15:42
http://www.hotnewdeal.com/2019/01/09/278474_Costco_Bissel_Proheat_2x_Revolution_Pet_Pro_164/20%Monthly2019-01-09 15:27
http://www.hotnewdeal.com/2019/01/09/278473_Walmart_BM__Clearance__LEGO_Star_Wars_Imperial_/20%Monthly2019-01-09 15:20
http://www.hotnewdeal.com/2019/01/09/278472_Marantz_SR7012_92Ch_4K_Surround_Receiver__869_F/20%Monthly2019-01-09 15:11
http://www.hotnewdeal.com/2019/01/09/278471_50_Off_Select_Holiday_Childrens_Books__Amazon/20%Monthly2019-01-09 15:00
http://www.hotnewdeal.com/2019/01/09/278470_Lenovo_ThinkPad_L440_i5_Dual_Core_2600_MHz_128GB_S/20%Monthly2019-01-09 14:53
http://www.hotnewdeal.com/2019/01/09/278469_Roundtrip_Flight_New_York_City_to_Rome_Italy_on_/20%Monthly2019-01-09 14:43
http://www.hotnewdeal.com/2019/01/09/278468_Nintendo_JoyCon_LR__Neon_RedNeon_Blue_6677/20%Monthly2019-01-09 14:43
http://www.hotnewdeal.com/2019/01/09/278467_Apple_Watch_Series_3_Nike_GPS__Cellular_279_and/20%Monthly2019-01-09 14:43
http://www.hotnewdeal.com/2019/01/09/278466_6Pack_Limited_Edition_Quaker_Seasonal_Set_Pumpki/20%Monthly2019-01-09 14:43
http://www.hotnewdeal.com/2019/01/09/278465_HP_PageWide_Pro_477dw_Color_Inkjet_MFP_Printer__/20%Monthly2019-01-09 14:43
http://www.hotnewdeal.com/2019/01/09/278464_The_Grand_Tour_Game_PS4_15_preorder/20%Monthly2019-01-09 14:29
http://www.hotnewdeal.com/2019/01/09/278463_40_off_coupon_for_smarty_pants_vitamin_line_on_Am/20%Monthly2019-01-09 14:29
http://www.hotnewdeal.com/2019/01/09/278462_Angel_Complete_Series_Seasons_1__5_Digital_Downl/20%Monthly2019-01-09 14:28
http://www.hotnewdeal.com/2019/01/09/278461_YMMV_Chase_App_Offer_40_back_when_you_make_TWO_1/20%Monthly2019-01-09 14:09
http://www.hotnewdeal.com/2019/01/09/278460_Anker_Fast_Wireless_Charger_10W_Wireless_Charging/20%Monthly2019-01-09 14:09
http://www.hotnewdeal.com/2019/01/09/278459_12Ct_21oz_Quest_Nutrition_Protein_Bar_Smores_/20%Monthly2019-01-09 14:09
http://www.hotnewdeal.com/2019/01/09/278458_South_Park_The_Fractured_But_Whole_Steelbook_Gold/20%Monthly2019-01-09 13:58
http://www.hotnewdeal.com/2019/01/09/278457_PEI_WEI_BOGO__0109_Ony/20%Monthly2019-01-09 13:58
http://www.hotnewdeal.com/2019/01/09/278456_Reebok_Classics_Rapide_2499_Various_Colors__Fre/20%Monthly2019-01-09 13:58
http://www.hotnewdeal.com/2019/01/09/278455_Reebok_Running_Shoes_2999__Jet_Dashride_60_Wo/20%Monthly2019-01-09 13:57
http://www.hotnewdeal.com/2019/01/09/278454_PAW_Patrol_Season_1_for_199_on_Google_Play/20%Monthly2019-01-09 13:41
http://www.hotnewdeal.com/2019/01/09/278453_Targeted_Email_Sony_Pictures_Store_Closure_Free_M/20%Monthly2019-01-09 13:41
http://www.hotnewdeal.com/2019/01/09/278451_Corsair_Crystal_Series_280X_RGB_mATX_Tempered_Gla/20%Monthly2019-01-09 13:26
http://www.hotnewdeal.com/2019/01/09/278450_Boston_to_Los_Angeles_or_Vice_Versa_177_RT_Nonsto/20%Monthly2019-01-09 13:09
http://www.hotnewdeal.com/2019/01/09/278449_McCafe_KCups_24__5_ss/20%Monthly2019-01-09 12:57
http://www.hotnewdeal.com/2019/01/09/278448_3D_Bluray_Movies_Gnomeo_and_Juliet_895_Jurass/20%Monthly2019-01-09 12:56
http://www.hotnewdeal.com/2019/01/09/278447_Remington_PG6027_Allin1_Rechargeable_TrimmerGro/20%Monthly2019-01-09 12:48
http://www.hotnewdeal.com/2019/01/09/278446_Chase_Pay_App_Order_Ahead_or_InStore_w_QR_Code/20%Monthly2019-01-09 12:48
http://www.hotnewdeal.com/2019/01/09/278445_Buy_One_Get_One_50_Off_Sitewide_Corelle/20%Monthly2019-01-09 12:48
http://www.hotnewdeal.com/2019/01/09/278444_South_Park_The_Fractured_But_Whole_1499_Nintend/20%Monthly2019-01-09 12:44
http://www.hotnewdeal.com/2019/01/09/278443_Acer_TC865NESelecti5_Desktop_PC_Intel_Core_i58/20%Monthly2019-01-09 12:37
http://www.hotnewdeal.com/2019/01/09/278442_ASUS_AC3100_WiFi_Dualband_Gigabit_Wireless_Route/20%Monthly2019-01-09 12:37
http://www.hotnewdeal.com/2019/01/09/278441_Raid_World_War_II_for_Xbox_One__Best_Buy__159/20%Monthly2019-01-09 12:36
http://www.hotnewdeal.com/2019/01/09/278440_Adjustable_Dual_Monitor_Mount_with_C_ClampGrommet/20%Monthly2019-01-09 12:28
http://www.hotnewdeal.com/2019/01/09/278439_Addon_Item_Educational_Insights_GeoSafari_Rockin/20%Monthly2019-01-09 12:19
http://www.hotnewdeal.com/2019/01/09/278438_The_Honeymooners_Classic_39_Episodes_Bluray_1/20%Monthly2019-01-09 12:09
http://www.hotnewdeal.com/2019/01/09/278437_5Pack_of_thinkThin_Plant_Protein__Probiotics_Sin/20%Monthly2019-01-09 12:09
http://www.hotnewdeal.com/2019/01/09/278436_Garden_of_Life_Multivitamin_for_Men__Vitamin_Code/20%Monthly2019-01-09 12:09
http://www.hotnewdeal.com/2019/01/09/278435_Teac_AI503S_USBDACPremain_Amplifier_DTV_Converte/20%Monthly2019-01-09 11:59
http://www.hotnewdeal.com/2019/01/09/278434_Niagara_Conservation_Hand_Shower_Head_Chrome_12/20%Monthly2019-01-09 11:59
http://www.hotnewdeal.com/2019/01/09/278433_Divinity_Original_Sin_2__PlayStation_4_Definitiv/20%Monthly2019-01-09 11:58
http://www.hotnewdeal.com/2019/01/09/278432_6_PACK_Screen_Protector_Apple_Watch_44mm_Series_4_/20%Monthly2019-01-09 11:58
http://www.hotnewdeal.com/2019/01/09/278431_Minky_Multi_Dryer_Drying_Rack_78_White_2024/20%Monthly2019-01-09 11:58
http://www.hotnewdeal.com/2019/01/09/278430_Bath__Body_Works_Select_3_Wick_Candles_4_for_35/20%Monthly2019-01-09 11:41
http://www.hotnewdeal.com/2019/01/09/278429_Under_Armour_Mens_Rival_Fleece_Pullover_Hoodie_or/20%Monthly2019-01-09 11:26
http://www.hotnewdeal.com/2019/01/09/278428_90Count_Optimum_Nutrition_OptiMen_Multivitamin_S/20%Monthly2019-01-09 11:26
http://www.hotnewdeal.com/2019/01/09/278427_Mirrors_Edge_Catalyst_PC_Online_Game_Code_for_/20%Monthly2019-01-09 11:26
http://www.hotnewdeal.com/2019/01/09/278426_Laptop_Backpack_USB_Charging_Port_Anti_Theft_Wa/20%Monthly2019-01-09 11:10
http://www.hotnewdeal.com/2019/01/09/278425_IKEA_25_off_150_printable_coupon_instore_purcha/20%Monthly2019-01-09 10:57
http://www.hotnewdeal.com/2019/01/09/278424_4X_fuel_points_on_Vacation_and_Dining_Gift_cards_a/20%Monthly2019-01-09 10:57
http://www.hotnewdeal.com/2019/01/09/278423_Western_Digital_WD_My_Book_6TB_USB_30_Desktop_Har/20%Monthly2019-01-09 10:56
http://www.hotnewdeal.com/2019/01/09/278422_Buy_2_Pack_Renu_Contact_solution_Advanced_Triple_/20%Monthly2019-01-09 10:47
http://www.hotnewdeal.com/2019/01/09/278421_Vudu_SciFiAction_Favorites_Sale_from_499/20%Monthly2019-01-09 10:33
http://www.hotnewdeal.com/2019/01/09/278420_Rubbermaid_7x7_Roughneck_Storage_Shed_45430__CL/20%Monthly2019-01-09 10:11
http://www.hotnewdeal.com/2019/01/09/278419_DJI_Mavic_Pro_Standard_Bundle_w_Free_Folding_Pr/20%Monthly2019-01-09 09:59
http://www.hotnewdeal.com/2019/01/09/278417_DJI_Mavic_Pro_Standard_Bundle__649_New_from_B/20%Monthly2019-01-09 09:26
http://www.hotnewdeal.com/2019/01/09/278416_24Count_Brown_Gold_Single_Origin_100_Colombian_C/20%Monthly2019-01-09 07:59
http://www.hotnewdeal.com/2019/01/09/278415_Fitness_Tracker_Heart_Rate_Monitor_Bluetooth_Acti/20%Monthly2019-01-09 07:58
http://www.hotnewdeal.com/2019/01/09/278414_14_or_18_Ring_Light__Adjustable_Color_Temperatu/20%Monthly2019-01-09 07:58
http://www.hotnewdeal.com/2019/01/09/278413_LEGO_Speed_Champions_McLaren_Senna_75892_Building_/20%Monthly2019-01-09 07:42
http://www.hotnewdeal.com/2019/01/09/278412_Nerf_NStrike_Elite_AccuStrike_Series_FalconFire_/20%Monthly2019-01-09 07:27
http://www.hotnewdeal.com/2019/01/09/278411_JCrew_48Hour_Flash_Clothing_Sale_Extra_60_Off_/20%Monthly2019-01-09 07:00
http://www.hotnewdeal.com/2019/01/09/278410_Ubiquiti_Networks_UniFi_nanoHD_4x4_MUMIMO_80211a/20%Monthly2019-01-09 05:14
http://www.hotnewdeal.com/2019/01/09/278409_144Count_all_Mighty_Pacs_Laundry_Detergent_1322/20%Monthly2019-01-09 04:30
http://www.hotnewdeal.com/2019/01/09/278408_Amazon_Add_On_Item_Royal_Dansk_Danish_Butter_Cook/20%Monthly2019-01-09 04:01
http://www.hotnewdeal.com/2019/01/09/278407_AUKEY_Wifi_Smart_Plug_2_pack_for_2015_AC/20%Monthly2019-01-09 04:00
http://www.hotnewdeal.com/2019/01/09/278406_Canon_EF_40mm_f28_STM_Lens_New_129/20%Monthly2019-01-09 01:30
http://www.hotnewdeal.com/2019/01/09/278405_Exercise_Ball_for_Fitness_Stability_Balance__Yo/20%Monthly2019-01-09 01:30
http://www.hotnewdeal.com/2019/01/09/278404_Add_on_item_3Pack_125oz_of_Mrs_Meyers_Hand_So/20%Monthly2019-01-09 01:21
http://www.hotnewdeal.com/2019/01/09/278403_Targeted_Email_American_Airlines_Free_Gold_statu/20%Monthly2019-01-09 01:21
http://www.hotnewdeal.com/2019/01/09/278402_Leelbox_Air_Compressor_Portable_Auto_Tire_PumpPre/20%Monthly2019-01-09 01:06
http://www.hotnewdeal.com/2019/01/09/278401_Duluth_Trading_Company_Mens_Pants_52_Off_Sale/20%Monthly2019-01-09 00:24
http://www.hotnewdeal.com/2019/01/08/278400_4Pack_Solar_Waterproof_Motion_Sensor_Lights_169/20%Monthly2019-01-08 23:50
http://www.hotnewdeal.com/2019/01/08/278399_Finether_Telescopic_Pole_Saw_Long_Reach_Pole_Prune/20%Monthly2019-01-08 23:50
http://www.hotnewdeal.com/2019/01/08/278398_Miele_C1_Pure_Suction_Canister_Vacuum_22425_fre/20%Monthly2019-01-08 23:41
http://www.hotnewdeal.com/2019/01/08/278397_Disney_Movie_Rewards_Members_January_Sale__Up_To/20%Monthly2019-01-08 23:00
http://www.hotnewdeal.com/2019/01/08/278395_Pokmon_TCG_Sun__Moon__Forbidden_Light_Theme_De/20%Monthly2019-01-08 23:00
http://www.hotnewdeal.com/2019/01/08/278394_Venture_Pal_Large_Hiking_Backpack__Packable_Durab/20%Monthly2019-01-08 23:00
http://www.hotnewdeal.com/2019/01/08/278393_2x_240GB_ADATA_Ultimate_SU650_25_SSD_60_Newegg/20%Monthly2019-01-08 22:38
http://www.hotnewdeal.com/2019/01/08/278392_Plantar_Fasciitis_Socks_Ankle_Brace_Compression_S/20%Monthly2019-01-08 22:30
http://www.hotnewdeal.com/2019/01/08/278391_Motorola_8x4_343_Mbps_Cable_Modem_MB7220__Walmart/20%Monthly2019-01-08 21:29
http://www.hotnewdeal.com/2019/01/08/278390_8Count_Gillette_Sensor3_Mens_Disposable_Razors_/20%Monthly2019-01-08 21:12
http://www.hotnewdeal.com/2019/01/08/278389_ESET_NOD32_Antivirus_2019__3_Devices__1_Year_19/20%Monthly2019-01-08 21:00
http://www.hotnewdeal.com/2019/01/08/278388_34_Acer_Predator_X34_3440x1440_GSync_120Hz_Curve/20%Monthly2019-01-08 20:55
http://www.hotnewdeal.com/2019/01/08/278387_Minecraft__1K_Minecoins__Starter__Creators_Pack/20%Monthly2019-01-08 20:38
http://www.hotnewdeal.com/2019/01/08/278386_Jackson_Guitar_Sale_X_Series_Soloist_380_or_Pro_/20%Monthly2019-01-08 20:31
http://www.hotnewdeal.com/2019/01/08/278385_Elder_Scrolls_V_Skyrim_Legendary_Edition_PC_789/20%Monthly2019-01-08 20:23
http://www.hotnewdeal.com/2019/01/08/278384_12Pk_18oz_Core_Organic_Beverage_Pomegranate_Blue/20%Monthly2019-01-08 20:23
http://www.hotnewdeal.com/2019/01/08/278383_LEVOIT_Cool_Mist_WhisperQuiet_45L_Ultrasonic_Hum/20%Monthly2019-01-08 20:23
http://www.hotnewdeal.com/2019/01/08/278382_Merkury_Innovations_Color_Smart_A21_Light_Bulb_75/20%Monthly2019-01-08 20:13
http://www.hotnewdeal.com/2019/01/08/278381_New_Jersey_to_Paris_France_265_RT_Nonstop_on_Unit/20%Monthly2019-01-08 20:12
http://www.hotnewdeal.com/2019/01/08/278380_Targus_Folio_Wrap__Stand_for_Microsoft_Surface_Pr/20%Monthly2019-01-08 20:00
http://www.hotnewdeal.com/2019/01/08/278379_SANSI_RGB_LED_Landscape_Spotlights_Floodlights__/20%Monthly2019-01-08 20:00
http://www.hotnewdeal.com/2019/01/08/278377_Disney_World_4Park_Magic_Tickets_from_JUST_80_P/20%Monthly2019-01-08 19:54
http://www.hotnewdeal.com/2019/01/08/278376_TCL_65S517_65Inch_4K_Ultra_HD_Roku_Smart_LED_TV_/20%Monthly2019-01-08 19:43
http://www.hotnewdeal.com/2019/01/08/278375_10pk_Dove_Womens_Deodorant_2379_Free_Shipping/20%Monthly2019-01-08 19:43
http://www.hotnewdeal.com/2019/01/08/278374_Cuisinart_Stainless_Steel_Double_Round_Belgian_Waf/20%Monthly2019-01-08 19:43
http://www.hotnewdeal.com/2019/01/08/278373_Whirlpool_Everydrop_Refrigerator_Water_Filter_1_E/20%Monthly2019-01-08 19:43
http://www.hotnewdeal.com/2019/01/08/278372_NETGEAR_Certified_Refurbished_EX6100100NAR_AC750_/20%Monthly2019-01-08 19:43
http://www.hotnewdeal.com/2019/01/08/278370_Miele_Compact_C2_Electro_Vacuum_in_Marine_Blue__/20%Monthly2019-01-08 18:47
http://www.hotnewdeal.com/2019/01/08/278369_ASICS_GT1000_7_Running_Shoe_for_4827_at_Shoesc/20%Monthly2019-01-08 18:46
http://www.hotnewdeal.com/2019/01/08/278368_YMMV_HD_clearance_12_MOEN_Propel_5Spray_Handheld/20%Monthly2019-01-08 18:46
http://www.hotnewdeal.com/2019/01/08/278367_God_of_War_Collectors_Edition_PS4_5999/20%Monthly2019-01-08 18:46
http://www.hotnewdeal.com/2019/01/08/278366_Tacklife_DM08_2000_Counts_Digital_Multimeter_DCA/20%Monthly2019-01-08 18:27
http://www.hotnewdeal.com/2019/01/08/278365_BESTOPE_Makeup_Brushes_16_Pieces_Makeup_Brush_Set_/20%Monthly2019-01-08 18:13
http://www.hotnewdeal.com/2019/01/08/278364_GoPro_Hero_7_Black_Trade_Up_Program_299tax_Sh/20%Monthly2019-01-08 18:00
http://www.hotnewdeal.com/2019/01/08/278363_Wired_Magazine_2_yrs_for_799/20%Monthly2019-01-08 18:00
http://www.hotnewdeal.com/2019/01/08/278362_Anker_Powerwave_75_Fast_Wireless_Charging_Stand_w/20%Monthly2019-01-08 18:00
http://www.hotnewdeal.com/2019/01/08/278361_LEGO_Star_Wars_TM_Lukes_Landspeeder_75173_1166_/20%Monthly2019-01-08 17:29
http://www.hotnewdeal.com/2019/01/08/278360_Genova_Yellowfin_Tuna_in_Pure_Olive_Oil_5_Ounce_/20%Monthly2019-01-08 17:29
http://www.hotnewdeal.com/2019/01/08/278359_Open_Box_Samsung_Galaxy_Tab_A_16GB_WiFi_8_with_1/20%Monthly2019-01-08 17:29
http://www.hotnewdeal.com/2019/01/08/278358_Polk_Audio_HTS10_10_200_Watts_Home_Theater_Subwoo/20%Monthly2019-01-08 17:29
http://www.hotnewdeal.com/2019/01/08/278357_Waterproof_Bluetooth_Wireless_Headphones_with_Mic_/20%Monthly2019-01-08 17:29
http://www.hotnewdeal.com/2019/01/08/278356_CORSAIR__Vengeance_LPX_32GB_2PK_x_16GB_2600_DDR/20%Monthly2019-01-08 17:13
http://www.hotnewdeal.com/2019/01/08/278355_Credit_Karma_Tax_2018_Federal_and_State_Tax_PrepF/20%Monthly2019-01-08 16:46
http://www.hotnewdeal.com/2019/01/08/278354_Macys_Cold_Weather_Flash_Sale_Boys_and_Girls_Wi/20%Monthly2019-01-08 16:45
http://www.hotnewdeal.com/2019/01/08/278353_VicTsing_Wireless_Keyboard_and_Mouse_Combo_1499_/20%Monthly2019-01-08 16:31
http://www.hotnewdeal.com/2019/01/08/278352_UP_UPKJ_Gun_Holster_Belly_Band_Holster_for_Conceal/20%Monthly2019-01-08 16:23
http://www.hotnewdeal.com/2019/01/08/278351_Samsung_UN75MU6300_75Inch_4K_Ultra_HD_Smart_TV_w/20%Monthly2019-01-08 16:16
http://www.hotnewdeal.com/2019/01/08/278350_Premier_Protein_30g_Protein_Shakes_Vanilla_11_Fl/20%Monthly2019-01-08 16:03
http://www.hotnewdeal.com/2019/01/08/278349_Nintendo_Switch_Digital_Games_Ben_10_599_Viole/20%Monthly2019-01-08 16:03
http://www.hotnewdeal.com/2019/01/08/278348_Disney_Movie_Rewards_Marvel_Studios_10th_Anniversa/20%Monthly2019-01-08 16:03
http://www.hotnewdeal.com/2019/01/08/278347_Barnes__Noble_15_off_40_Orders_AC_Online_and/20%Monthly2019-01-08 16:03
http://www.hotnewdeal.com/2019/01/08/278346_JBL_Studio_2_SUB_260P_12_Powered_Subwoofer_Refurb/20%Monthly2019-01-08 16:03
http://www.hotnewdeal.com/2019/01/08/278345_58Count_Box_Quaker_Chewy_Granola_Bars_Variety_Pa/20%Monthly2019-01-08 16:03
http://www.hotnewdeal.com/2019/01/08/278344_128GB_Patriot_EP_Series_MicroSDXC_U3_A1_V30_Flas/20%Monthly2019-01-08 16:02
http://www.hotnewdeal.com/2019/01/08/278343_32_Acer_ET322QU_WQHD_FreeSync_75Hz_IPS_LED_Monito/20%Monthly2019-01-08 16:02
http://www.hotnewdeal.com/2019/01/08/278342_Ship_on_011119_New_Super_Mario_Bros_U_Deluxe_/20%Monthly2019-01-08 15:44
http://www.hotnewdeal.com/2019/01/08/278341_Kansas_City_to_San_Francisco_or_San_Diego_and_Vice/20%Monthly2019-01-08 15:44
http://www.hotnewdeal.com/2019/01/08/278340_Home_Depot__11_Rebate_YYMV_Menards_Match/20%Monthly2019-01-08 15:44
http://www.hotnewdeal.com/2019/01/08/278339_6_Paris_Duluth_Buck_Naked_Patterned_Boxer_Briefs_f/20%Monthly2019-01-08 15:28
http://www.hotnewdeal.com/2019/01/08/278338_Ulta_Beauty_50_Off_Select_Skin_Care_Skyn_Iceland/20%Monthly2019-01-08 15:28
http://www.hotnewdeal.com/2019/01/08/278337_Digital_UHD_4K_Movie_Sale__Microsoft_Movies__T/20%Monthly2019-01-08 15:28
http://www.hotnewdeal.com/2019/01/08/278336_PlugIn_Led_Night_Light_with_Auto_Dusk_to_Dawn_Sen/20%Monthly2019-01-08 15:12
http://www.hotnewdeal.com/2019/01/08/278335_ASRock_Phantom_Gaming_X_Radeon_RX_580_DirectX_12_R/20%Monthly2019-01-08 15:01
http://www.hotnewdeal.com/2019/01/08/278334_24_Muscletech_Protein_Cookies_for_699/20%Monthly2019-01-08 14:40
http://www.hotnewdeal.com/2019/01/08/278333_HP_27w_27_IPS_LED_FHD_Monitor_12999/20%Monthly2019-01-08 14:40
http://www.hotnewdeal.com/2019/01/08/278332_Headspace_1_month_membership_for_1_at_Amazon/20%Monthly2019-01-08 14:40
http://www.hotnewdeal.com/2019/01/08/278331_48Count_Box__Quaker_Instant_Oatmeal_Variety_Pac/20%Monthly2019-01-08 14:29
http://www.hotnewdeal.com/2019/01/08/278330_Sharp__32_Class__LED__720p__HDTV_99Free_Shi/20%Monthly2019-01-08 14:29
http://www.hotnewdeal.com/2019/01/08/278329_32Count_Quaker_Organic_Instant_Oatmeal_Variety_P/20%Monthly2019-01-08 14:14
http://www.hotnewdeal.com/2019/01/08/278328_CAP_Strength_Standard_Combo_Bench_w_100lb_Weight_/20%Monthly2019-01-08 14:14
http://www.hotnewdeal.com/2019/01/08/278327_Samsung_PRO_Endurance_64GB_Micro_SDXC_Card_with_Ad/20%Monthly2019-01-08 14:01
http://www.hotnewdeal.com/2019/01/08/278326_PlayDoh_Disney_Princess_Undersea_Wedding_with_Ari/20%Monthly2019-01-08 14:00
http://www.hotnewdeal.com/2019/01/08/278325_JBL_Control_X_Wireless_Battery_Powered_Portable_Sp/20%Monthly2019-01-08 14:00
http://www.hotnewdeal.com/2019/01/08/278324_Penn_Pursuit_II_4000_fishing_reel_20__499_ship/20%Monthly2019-01-08 13:44
http://www.hotnewdeal.com/2019/01/08/278323_Asics_GELNimbus_20_Running_Shoe_7498__Free_SH/20%Monthly2019-01-08 13:44
http://www.hotnewdeal.com/2019/01/08/278321_Amazon__Kind_Bars_Blueberry_Vanilla_30pack_for_/20%Monthly2019-01-08 13:28
http://www.hotnewdeal.com/2019/01/08/278320_Omega_J8006_Slow_Speed_Masticating_Juicer_18999/20%Monthly2019-01-08 13:28
http://www.hotnewdeal.com/2019/01/08/278319_Kensington_Microsoft_Surface_Pro_6_Surface_Pro_5_/20%Monthly2019-01-08 13:12
http://www.hotnewdeal.com/2019/01/08/278318_British_Airways__Airfare__5_Days_In_London_With_/20%Monthly2019-01-08 13:12
http://www.hotnewdeal.com/2019/01/08/278317_Star_Wars_XWing_Miniatures_Game_Quad_Jumper_Expan/20%Monthly2019-01-08 13:12
http://www.hotnewdeal.com/2019/01/08/278316_ClosetMaid_Adjustable_8Tier_Wall__Door_Rack_20/20%Monthly2019-01-08 13:12
http://www.hotnewdeal.com/2019/01/08/278315_Cooler_Master_MFYP4DC153PCR1_MasterFan_Pro_140_/20%Monthly2019-01-08 12:53
http://www.hotnewdeal.com/2019/01/08/278314_Ninja_AutoiQ_Total_Boost_Kitchen_1500_Watt_Nutri_/20%Monthly2019-01-08 12:53
http://www.hotnewdeal.com/2019/01/08/278313_NESTLE_COFFEEMATE_Coffee_Creamer_Sugar_Free_Fren/20%Monthly2019-01-08 12:53
http://www.hotnewdeal.com/2019/01/08/278312_WEN_Variable_Speed_Rotary_Tool_Kit_with_100Piece_/20%Monthly2019-01-08 12:53
http://www.hotnewdeal.com/2019/01/08/278311_3TB_WD_Purple_Surveillance_Grade_Hard_Drive_7219/20%Monthly2019-01-08 12:52
http://www.hotnewdeal.com/2019/01/08/278310_Aukey_USB_Battery_Packs_10000_12_10k_w_USBC_/20%Monthly2019-01-08 12:44
http://www.hotnewdeal.com/2019/01/08/278309_TPLink_OnHub_AC1900_WiFi_Router_70_AC_Newegg/20%Monthly2019-01-08 12:44
http://www.hotnewdeal.com/2019/01/08/278308_Lenovo_Thunderbolt_3_Graphics_Dock_for_720s_13_2/20%Monthly2019-01-08 12:37
http://www.hotnewdeal.com/2019/01/08/278307_Frys_InStrore__Online_Polk_MC60_InCeiling_Loud/20%Monthly2019-01-08 12:30
http://www.hotnewdeal.com/2019/01/08/278306_Minions_2Wheel_Folding_Scooter_9/20%Monthly2019-01-08 12:23
http://www.hotnewdeal.com/2019/01/08/278305_Cottonelle_GentlePlus_Flushable_Wipes_with_Aloe__/20%Monthly2019-01-08 12:22
http://www.hotnewdeal.com/2019/01/08/278304_136Ct_Mauds_Gourmet_Coffee_12_Flavor_KCups_Var/20%Monthly2019-01-08 12:12
http://www.hotnewdeal.com/2019/01/08/278303_Elbow_Strap__Patella_Tendon_Strap_Set_Brace_with/20%Monthly2019-01-08 12:12
http://www.hotnewdeal.com/2019/01/08/278302_TPLINK_TLSG1016_16port_Rackmountable_Gigabit_Sw/20%Monthly2019-01-08 12:12
http://www.hotnewdeal.com/2019/01/08/278301_Indianapolis_IN_to_Prague_Czechia_492_RT_Airfares/20%Monthly2019-01-08 12:00
http://www.hotnewdeal.com/2019/01/08/278300_12Count_Box_KIND_Bars_Cranberry_Almond_Macadami/20%Monthly2019-01-08 11:42
http://www.hotnewdeal.com/2019/01/08/278299_Orzly_Carring_Nintendo_Switch_Carrying_Case__BLAC/20%Monthly2019-01-08 11:42
http://www.hotnewdeal.com/2019/01/08/278298_Waterdrop_Advanced_NSF_5342_Refrigerator_Water_Fi/20%Monthly2019-01-08 11:42
http://www.hotnewdeal.com/2019/01/08/278297_California_Air_Tools_8010_Ultra_Quiet__OilFree_1/20%Monthly2019-01-08 11:42
http://www.hotnewdeal.com/2019/01/08/278296_Jos_Bank_Executive_Collection_Cotton_Wool_Tropical/20%Monthly2019-01-08 11:27
http://www.hotnewdeal.com/2019/01/08/278295_Nordstrom_Rack_Ella_Jayne_Home_Waterproof_Hypoalle/20%Monthly2019-01-08 11:27
http://www.hotnewdeal.com/2019/01/08/278293_Samsung__SmartThings_ADT_Smart_Carbon_Monoxide_Al/20%Monthly2019-01-08 11:11
http://www.hotnewdeal.com/2019/01/08/278292_Hanes_Mens_White_Tagless_Extreme_Value_Bonus_12_P/20%Monthly2019-01-08 11:11
http://www.hotnewdeal.com/2019/01/08/278291_Amazing_Grass_Green_Superfood_Antioxidant_Organic_/20%Monthly2019-01-08 10:45
http://www.hotnewdeal.com/2019/01/08/278290_NFL_Bears_or_Vikings_CrockPot_6Quart_Cook__Car/20%Monthly2019-01-08 10:38
http://www.hotnewdeal.com/2019/01/08/278289_XPG_SX8200_Pro_512GB_3D_NAND_NVMe_Gen3x4_PCIe_M2_/20%Monthly2019-01-08 10:38
http://www.hotnewdeal.com/2019/01/08/278288_22_ft_Reach_MPX_Aluminum_MultiPosition_Ladder_wi/20%Monthly2019-01-08 10:29
http://www.hotnewdeal.com/2019/01/08/278287_Kindle_SciFi_eBook_Dont_Panic_Douglas_Adams__/20%Monthly2019-01-08 10:29
http://www.hotnewdeal.com/2019/01/08/278286_ZOTAC_GAMING_GeForce_RTX_2070_AMP_8GB__Anthem_or_/20%Monthly2019-01-08 10:28
http://www.hotnewdeal.com/2019/01/08/278285_Aromatherapy_Essential_Oil_Diffuser_and_Cool_Mist_/20%Monthly2019-01-08 10:09
http://www.hotnewdeal.com/2019/01/08/278284_PSA_Sears_to_ask_bankruptcy_judge_to_liquidate/20%Monthly2019-01-08 10:09
http://www.hotnewdeal.com/2019/01/08/278283_Tplink_LB110_Dimmable_wifi_bulb_1299_shipped/20%Monthly2019-01-08 09:58
http://www.hotnewdeal.com/2019/01/08/278282_Clank_Board_Game_2997_Amazon_Prime/20%Monthly2019-01-08 09:46
http://www.hotnewdeal.com/2019/01/08/278281_Lavazza_Caffe_Espresso_Whole_Bean_Coffee_Blend_Me/20%Monthly2019-01-08 09:46
http://www.hotnewdeal.com/2019/01/08/278280_Bamboo_Shredded_Memory_Foam_Pillow_with_Zip_Cover_/20%Monthly2019-01-08 09:46
http://www.hotnewdeal.com/2019/01/08/278279_Sport_II_Portable_Wireless_Bluetooth_Speakers_40_/20%Monthly2019-01-08 09:46
http://www.hotnewdeal.com/2019/01/08/278278_Lowes_Bounty_8Count_Huge_Roll_Paper_Towels_107/20%Monthly2019-01-08 09:10
http://www.hotnewdeal.com/2019/01/08/278277_2_Pack_Camping_Lantern_with_6_AA_Batteries_813F/20%Monthly2019-01-08 09:10
http://www.hotnewdeal.com/2019/01/08/278276_24_The_Complete_Series_w_24_Live_Another_Day_D/20%Monthly2019-01-08 08:58
http://www.hotnewdeal.com/2019/01/08/278275_PSA__Check_email__5_off_Nintendo_purchase_on_Hu/20%Monthly2019-01-08 08:35
http://www.hotnewdeal.com/2019/01/08/278274_Glacier_Bay_PullDown_Sprayer_Faucet__Home_Depot_/20%Monthly2019-01-08 08:04
http://www.hotnewdeal.com/2019/01/08/278273_Awning__13x82_Manual_Retractable_Sun_Shade_Awn/20%Monthly2019-01-08 08:04
http://www.hotnewdeal.com/2019/01/08/278272_Intuit_TurboTax_2018_Federal__State__eFile_Mac/20%Monthly2019-01-08 07:45
http://www.hotnewdeal.com/2019/01/08/278271_Optimum_Nutrition_Gold_Standard_100_Whey_Protein/20%Monthly2019-01-08 07:45
http://www.hotnewdeal.com/2019/01/08/278270_Wakeman_Fishing_Rod__Spinning_Reel_Combo_Black_/20%Monthly2019-01-08 07:45
http://www.hotnewdeal.com/2019/01/08/278269_6Month_Microsoft_Xbox_Live_Gold_Membership_Digit/20%Monthly2019-01-08 07:06
http://www.hotnewdeal.com/2019/01/08/278268_YMMV_BM_Kobalt_40V_Leaf_Blower_wBattery__Charge/20%Monthly2019-01-08 06:37
http://www.hotnewdeal.com/2019/01/08/278267_Amazon_Addon_Item_Plano_Tight_Sealing_waterproof/20%Monthly2019-01-08 06:37
http://www.hotnewdeal.com/2019/01/08/278266_NETGEAR_R6700_Nighthawk_AC1750_Dual_Band_Smart_WiF/20%Monthly2019-01-08 06:12
http://www.hotnewdeal.com/2019/01/08/278264_NEW_BALANCE_247_V2_CASUAL_SHOES_40__7_shipping/20%Monthly2019-01-08 05:46
http://www.hotnewdeal.com/2019/01/08/278263_Orgain_Kids_Protein_Pack_of_12__BOGO_50_off_28/20%Monthly2019-01-08 05:46
http://www.hotnewdeal.com/2019/01/08/278261_Fallout_4_VR_PC_Steam_code__1579_at_cdkeys/20%Monthly2019-01-08 05:46
http://www.hotnewdeal.com/2019/01/08/278260_Generic_61XL_ink_cartridge_Set__1_Black__1_TriC/20%Monthly2019-01-08 05:46
http://www.hotnewdeal.com/2019/01/08/278258_Disneyland__SoCal_Resident_Ticket__180_for_3_da/20%Monthly2019-01-08 04:11
http://www.hotnewdeal.com/2019/01/08/278257_Charvel_Pro_Mod_San_Dimas_Style_1_Electric_Guitars/20%Monthly2019-01-08 03:43
http://www.hotnewdeal.com/2019/01/08/278256_Anker_7in1_USB_C_Hub_with_4K_USB_C_to_HDMI_60W/20%Monthly2019-01-08 03:43
http://www.hotnewdeal.com/2019/01/08/278255_10_Tfal_Ultimate_Hard_Anodized_Titanium_Nonstick/20%Monthly2019-01-08 02:30
http://www.hotnewdeal.com/2019/01/08/278254_Google_Daydream_V2_Fog__4400__BH/20%Monthly2019-01-08 02:11
http://www.hotnewdeal.com/2019/01/08/278253_Refurbished_Sony_WH1000XM2_Headphones_Black__14/20%Monthly2019-01-08 02:00
http://www.hotnewdeal.com/2019/01/08/278252_Waterproof_Winter_SnowRain_boots_for_Outdoor_Acti/20%Monthly2019-01-08 02:00
http://www.hotnewdeal.com/2019/01/08/278251_GSKILL_Ripjaws_Series_32GB_2_x_16G_260Pin_DDR4/20%Monthly2019-01-08 01:14
http://www.hotnewdeal.com/2019/01/08/278250_Jos_A_Bank_Genuine_Leather_Black_Backpack_with_lug/20%Monthly2019-01-08 00:21
http://www.hotnewdeal.com/2019/01/08/278249_Levis_Mens_514_Midnight_Medium_Wash_Classic_Fit/20%Monthly2019-01-08 00:03
http://www.hotnewdeal.com/2019/01/08/278248_Microsoft_Xbox_One_Wireless_Controller_3998__Fr/20%Monthly2019-01-08 00:03
http://www.hotnewdeal.com/2019/01/07/278247_FisherPrice_Roller_Elephant_Amazoncom_168/20%Monthly2019-01-07 23:46
http://www.hotnewdeal.com/2019/01/07/278246_BH_PhotoVideo_TPLink_RE360_AC1200_DualBand_Wir/20%Monthly2019-01-07 23:39
http://www.hotnewdeal.com/2019/01/07/278245_Lowes_Pots__Planters_Clearance_Save_80_From_1/20%Monthly2019-01-07 23:31
http://www.hotnewdeal.com/2019/01/07/278244_JBL_Studio_270_65_Floorstanding_Speaker_Refurbis/20%Monthly2019-01-07 23:14
http://www.hotnewdeal.com/2019/01/07/278243_2_Pack_Syncwire_6ft_Nylon_Braided_USB_30_Type_C_C/20%Monthly2019-01-07 23:08
http://www.hotnewdeal.com/2019/01/07/278242_Add_on_item_12Pack_of_14Count_Orbit_Sugarfree_Gu/20%Monthly2019-01-07 22:41
http://www.hotnewdeal.com/2019/01/07/278241_Blood_Sweat_and_PixelsThe_Triumphant_Turbulent/20%Monthly2019-01-07 22:41
http://www.hotnewdeal.com/2019/01/07/278240_Zinus_12_Inch_GelInfused_Green_Tea_Memory_Foam_Ma/20%Monthly2019-01-07 22:07
http://www.hotnewdeal.com/2019/01/07/278239_MSI_GeForce_RTX_2080_Ventus_8G_Video_Card__Anthem/20%Monthly2019-01-07 22:07
http://www.hotnewdeal.com/2019/01/07/278238_Canon_ImageClass_MF634Cdw_Wireless_Multifunction_C/20%Monthly2019-01-07 21:57
http://www.hotnewdeal.com/2019/01/07/278237_RTIC_Stainless_Steel_Double_Wall_VacuumInsulated_/20%Monthly2019-01-07 21:47
http://www.hotnewdeal.com/2019/01/07/278236_Arm__Hammer_laundry_detergent_199/20%Monthly2019-01-07 21:02
http://www.hotnewdeal.com/2019/01/07/278235_Addon_Item_2Pack_of_15oz_Johnsons_Medicated_Ba/20%Monthly2019-01-07 20:46
http://www.hotnewdeal.com/2019/01/07/278234_Xbox_One_Digital_Downloads_Hollow_Knight_Voidhea/20%Monthly2019-01-07 20:31
http://www.hotnewdeal.com/2019/01/07/278233_PreOrder_New_Super_Mario_Bros_U_Deluxe__Ninte/20%Monthly2019-01-07 20:31
http://www.hotnewdeal.com/2019/01/07/278232_Amazing_Grass_Green_Superfood_Alkalize__Detox_En/20%Monthly2019-01-07 20:30
http://www.hotnewdeal.com/2019/01/07/278231_Suitsupply_Outlet_Semiannual_sale/20%Monthly2019-01-07 20:04
http://www.hotnewdeal.com/2019/01/07/278230_Asics_GT1000_7_Running_Shoe_4998_Shipped/20%Monthly2019-01-07 19:45
http://www.hotnewdeal.com/2019/01/07/278229_Ebay_100_Lowes_Gift_CardPhysical_90__More_/20%Monthly2019-01-07 19:45
http://www.hotnewdeal.com/2019/01/07/278227_Surface_Headphones_266__Possibly_no_TAX/20%Monthly2019-01-07 19:31
http://www.hotnewdeal.com/2019/01/07/278226_Lidscom_5_Select_Knit_Caps_Golden_State_Warrio/20%Monthly2019-01-07 19:31
http://www.hotnewdeal.com/2019/01/07/278225_ILIFE_A4s_Robot_Vacuum_110__free_sh/20%Monthly2019-01-07 19:14
http://www.hotnewdeal.com/2019/01/07/278224_You_dont_know_Jack_Classic_Pack_PCDD_399_for_9_/20%Monthly2019-01-07 18:59
http://www.hotnewdeal.com/2019/01/07/278223_Tzumi_wireless_charging_pad_for_Qi_devices_iPhone/20%Monthly2019-01-07 18:53
http://www.hotnewdeal.com/2019/01/07/278222_Rayman_Legends_Definitive_Edition_Nintendo_Switch/20%Monthly2019-01-07 18:39
http://www.hotnewdeal.com/2019/01/07/278221_11lb_Myprotein_Impact_Whey_Protein_Multiple_Flavo/20%Monthly2019-01-07 18:38
http://www.hotnewdeal.com/2019/01/07/278220_55_TCL_55S405_4K_UHD_HDR_Roku_Smart_LED_HDTV__3/20%Monthly2019-01-07 18:22
http://www.hotnewdeal.com/2019/01/07/278219_Costco_Superbowl_2019_TV_Sales_Ad_Scans_Samsung_/20%Monthly2019-01-07 18:15
http://www.hotnewdeal.com/2019/01/07/278218_Waterman_Graduate_Chrome_Fountain_Pen_1499_Amazo/20%Monthly2019-01-07 18:03
http://www.hotnewdeal.com/2019/01/07/278217_Perfect_Keto_products_75_off_at_Amazon/20%Monthly2019-01-07 17:29
http://www.hotnewdeal.com/2019/01/07/278216_Super_Smash_Bros_Ultimate__Nintendo_Pro_Controll/20%Monthly2019-01-07 17:29
http://www.hotnewdeal.com/2019/01/07/278215_RTIC_Outdoor_Canopy_Tent_80/20%Monthly2019-01-07 17:29
http://www.hotnewdeal.com/2019/01/07/278214_Plantronics_BackBeat_Fit_Wireless_headphones_38_/20%Monthly2019-01-07 17:28
http://www.hotnewdeal.com/2019/01/07/278213_Addon_Item_Johnsons_Tiny_Traveler_5Item_Baby_B/20%Monthly2019-01-07 17:28
http://www.hotnewdeal.com/2019/01/07/278212_ProForm_505_CST_Treadmill__Amazon_49999/20%Monthly2019-01-07 17:22
http://www.hotnewdeal.com/2019/01/07/278211_Zico_Coconut_water_169_oz_12_Pack_for_114_aft/20%Monthly2019-01-07 17:12
http://www.hotnewdeal.com/2019/01/07/278210_Lg_oled77c8pua_2018_4799/20%Monthly2019-01-07 17:00
http://www.hotnewdeal.com/2019/01/07/278209_Monoprice_Maker_Ultimate_3D_Printer_w_MK11_Direct/20%Monthly2019-01-07 17:00
http://www.hotnewdeal.com/2019/01/07/278208_Costcocom__First_Alert_Smoke_and_Carbon_Monoxide/20%Monthly2019-01-07 16:28
http://www.hotnewdeal.com/2019/01/07/278207_ClosetMaid_Adjustable_8Tier_Wall__Door_Rack_20/20%Monthly2019-01-07 16:21
http://www.hotnewdeal.com/2019/01/07/278206_ARRIS_SB8200_SURFboard_DOCSIS_31_Cable_Modem__Fa/20%Monthly2019-01-07 16:14
http://www.hotnewdeal.com/2019/01/07/278205_Skechers_15_25_and_30_Off__Free_Shipping/20%Monthly2019-01-07 16:10
http://www.hotnewdeal.com/2019/01/07/278204_Amazon__35_Off_First_Order_Coupon_on_Enfamil_Neu/20%Monthly2019-01-07 15:58
http://www.hotnewdeal.com/2019/01/07/278203_WD_Purple_Surveillance_Storage_3TB_Internal_Hard_D/20%Monthly2019-01-07 15:27
http://www.hotnewdeal.com/2019/01/07/278202_WWE_Championship_Belts_Kids_Cruiserweight_636/20%Monthly2019-01-07 15:27
http://www.hotnewdeal.com/2019/01/07/278201_Applebees_All_You_Can_Eat_Riblets_Chicken_Tender/20%Monthly2019-01-07 15:27
http://www.hotnewdeal.com/2019/01/07/278199_Amazon_AWD_has_iPhone_charging_Lightning_cable_3pk/20%Monthly2019-01-07 14:50
http://www.hotnewdeal.com/2019/01/07/278198_Gilberto_Oliva_Reserva_Blanc_3499/20%Monthly2019-01-07 14:41
http://www.hotnewdeal.com/2019/01/07/278197_CAP_50lb_dumbbell_35_with_free_shipping_from_Amaz/20%Monthly2019-01-07 14:36
http://www.hotnewdeal.com/2019/01/07/278196_PECHAM_3mm_XXL_Extended_Gaming_Mouse_Pad_851/20%Monthly2019-01-07 14:23
http://www.hotnewdeal.com/2019/01/07/278195_Ubiquiti_Networks_16Port_UniFi_Gigabit_Switch_wS/20%Monthly2019-01-07 14:12
http://www.hotnewdeal.com/2019/01/07/278194_Nintendo_Switch_Console_with_Neon_BlueRed_Joycon_/20%Monthly2019-01-07 13:44
http://www.hotnewdeal.com/2019/01/07/278193_POLAR_Hot_Air_Popcorn_Popper_Electric_Machine_10/20%Monthly2019-01-07 13:44
http://www.hotnewdeal.com/2019/01/07/278191_Epson__Home_Cinema_4010_4K_UHD_Projector_with_HDR/20%Monthly2019-01-07 13:44
http://www.hotnewdeal.com/2019/01/07/278190_6Packs_Nice_n_CLEAN_AntiBacterial_Hand_Wipes_2/20%Monthly2019-01-07 13:28
http://www.hotnewdeal.com/2019/01/07/278189_Los_Angeles_to_New_Delhi_India_513_or_Less_RT_Air/20%Monthly2019-01-07 13:28
http://www.hotnewdeal.com/2019/01/07/278188_Up_to_65_off_at_RTIC/20%Monthly2019-01-07 13:28
http://www.hotnewdeal.com/2019/01/07/278187_Guacamelee_2_for_Xbox_One__Windows_PC_PreOrder_/20%Monthly2019-01-07 13:11
http://www.hotnewdeal.com/2019/01/07/278186_CORSAIR_M65_Pro_RGB__FPS_Gaming_Mouse__12000_DP/20%Monthly2019-01-07 13:05
http://www.hotnewdeal.com/2019/01/07/278185_24_Mega_Rolls__Cottonelle_Ultra_GentleCare_Toilet/20%Monthly2019-01-07 12:44
http://www.hotnewdeal.com/2019/01/07/278184_Leisure_Suit_Larry_Bundle_PC_Digital_Download_1/20%Monthly2019-01-07 12:44
http://www.hotnewdeal.com/2019/01/07/278183_Condition_1_22_inch_Tan_Hard_Case_with_Foam_on_Ama/20%Monthly2019-01-07 12:44
http://www.hotnewdeal.com/2019/01/07/278182_J_Crew_American_Pima_Cotton_Oxford_Shirt_w_Mecha/20%Monthly2019-01-07 12:36
http://www.hotnewdeal.com/2019/01/07/278181_Garnier_Whole_Blends_Illuminating_Shampoo_with_Mor/20%Monthly2019-01-07 12:29
http://www.hotnewdeal.com/2019/01/07/278180_Audible_2_month_subscription_for_095_centsfree_/20%Monthly2019-01-07 12:20
http://www.hotnewdeal.com/2019/01/07/278179_Downy__2_51ozBottles_Ultra_Cool_Cotton_Liquid/20%Monthly2019-01-07 12:19
http://www.hotnewdeal.com/2019/01/07/278178_Southern_Patio_4_in_Clay_Standard_Pot_Homedepot_/20%Monthly2019-01-07 12:19
http://www.hotnewdeal.com/2019/01/07/278177_3Pack_172Lb_Optimum_Nutrition_Protein_Energy_Po/20%Monthly2019-01-07 12:09
http://www.hotnewdeal.com/2019/01/07/278176_Lenovo_Yoga_720_15_2in1_4K_IPS_Touch_i77700HQ/20%Monthly2019-01-07 11:58
http://www.hotnewdeal.com/2019/01/07/278175_Kindle_SciFi_eBooks_The_Girl_With_All_the_Gifts_/20%Monthly2019-01-07 11:58
http://www.hotnewdeal.com/2019/01/07/278174_High_Sierra_Jaxton_or_Brees_Daypack_Laptop_Backpac/20%Monthly2019-01-07 11:58
http://www.hotnewdeal.com/2019/01/07/278172_Amazon_Winter_Clearance_Columbia_Mens_Barlow_Pass_/20%Monthly2019-01-07 11:42
http://www.hotnewdeal.com/2019/01/07/278171_Fender_Standard_Stratocaster_HSS_Electric_Guitar_/20%Monthly2019-01-07 11:42
http://www.hotnewdeal.com/2019/01/07/278170_GreenFiber_Low_Dust_Cellulose_BlownIn_Insulation_/20%Monthly2019-01-07 11:42
http://www.hotnewdeal.com/2019/01/07/278169_Brother_HLL2300D_Monochrome_Laser_Printer_with_Du/20%Monthly2019-01-07 11:41
http://www.hotnewdeal.com/2019/01/07/278168_7Piece_Target_January_Beauty_or_Skincare_Beauty_B/20%Monthly2019-01-07 11:41
http://www.hotnewdeal.com/2019/01/07/278167_Rotolight_RL48_Interview_Kit_V2_9995__BH_Photo/20%Monthly2019-01-07 11:41
http://www.hotnewdeal.com/2019/01/07/278166_Sunpak_6630LX_MediumDuty_Aluminum_Tripod_1695_/20%Monthly2019-01-07 11:41
http://www.hotnewdeal.com/2019/01/07/278164_ARRIS_SURFboard_SBRAC1900P_AC1900_WiFi_Router_4/20%Monthly2019-01-07 11:26
http://www.hotnewdeal.com/2019/01/07/278163_Old_Navy_Extra_40_Off_Select_Clearance_Womens_Wa/20%Monthly2019-01-07 11:09
http://www.hotnewdeal.com/2019/01/07/278162_30Servings_Optimum_Nutrition_Amino_Energy_w_Gree/20%Monthly2019-01-07 10:56
http://www.hotnewdeal.com/2019/01/07/278161_Lego_Speed_Champions_Ferrari_F40_Competizione_11/20%Monthly2019-01-07 10:48
http://www.hotnewdeal.com/2019/01/07/278160_91_Network_Tool_Repair_Kit_Ethernet_LAN_Cable_Te/20%Monthly2019-01-07 10:34
http://www.hotnewdeal.com/2019/01/07/278159_Insignia__16_Cu_Ft_OvertheRange_Microwave_/20%Monthly2019-01-07 10:27
http://www.hotnewdeal.com/2019/01/07/278158_18oz_Tree_Hut_Shea_Sugar_Scrub_Pomegranate_Acai/20%Monthly2019-01-07 10:19
http://www.hotnewdeal.com/2019/01/07/278157_3_PACK_Google_Pixel_3__Pixel_3_XL_Screen_Protecto/20%Monthly2019-01-07 10:00
http://www.hotnewdeal.com/2019/01/07/278156_Red_Dead_Redemption_2_PS4_or_Xbox_One_4199_AC_/20%Monthly2019-01-07 09:41
http://www.hotnewdeal.com/2019/01/07/278155_Greenworks_GPW1702_1700_PSI_13_Amp_12_GPM_Pressur/20%Monthly2019-01-07 09:41
http://www.hotnewdeal.com/2019/01/07/278154_1588__13Rivet_Gun_Heavy_Duty_Hand_Riveter_Ama/20%Monthly2019-01-07 09:25
http://www.hotnewdeal.com/2019/01/07/278153_Microsoft_xbox_one_s_1tb_console_4k_battlefield/20%Monthly2019-01-07 09:25
http://www.hotnewdeal.com/2019/01/07/278152_Ubiquiti_8Port_Managed_PoE_Gigabit_Switch_150W/20%Monthly2019-01-07 08:25
http://www.hotnewdeal.com/2019/01/07/278151_Reconditioned_Ego_hedge_trimmer_w_battery_and_cha/20%Monthly2019-01-07 08:18
http://www.hotnewdeal.com/2019/01/07/278150_XH1_Mirrorless_Digital_Camera_with_Vertical_Grip_/20%Monthly2019-01-07 07:58
http://www.hotnewdeal.com/2019/01/07/278149_Sylvania_LIGHTIFY_Contact_and_Temperature_Smart_Se/20%Monthly2019-01-07 06:57
http://www.hotnewdeal.com/2019/01/07/278147_20_Back_On_Your_PG_Purchase_of_35/20%Monthly2019-01-07 05:57
http://www.hotnewdeal.com/2019/01/07/278146_12Pack_14oz_Soylent_Meal_Replacement_Shake_vari/20%Monthly2019-01-07 03:45
http://www.hotnewdeal.com/2019/01/07/278145_Walmart_Ferrero_Rocher_Collection_87Cent_for_46o/20%Monthly2019-01-07 03:31
http://www.hotnewdeal.com/2019/01/07/278144_rOtring_500_Mechanical_Pencil_8_Amazon/20%Monthly2019-01-07 02:46
http://www.hotnewdeal.com/2019/01/07/278143_BH_PhotoVideo_2Pack_TPLink_HS200_Smart_WiFi_L/20%Monthly2019-01-07 01:32
http://www.hotnewdeal.com/2019/01/07/278142_Swagbucks_Receive_2000_SBs_by_Depositing_5_into_/20%Monthly2019-01-07 01:17
http://www.hotnewdeal.com/2019/01/07/278141_Similac_Go__Grow_3_pack_35_off_plus_add_15_off_/20%Monthly2019-01-07 01:17
http://www.hotnewdeal.com/2019/01/07/278140_Garnier_Whole_Blends_Smoothing_Shampoo_with_Coconu/20%Monthly2019-01-07 01:10
http://www.hotnewdeal.com/2019/01/07/278139_Kids_crewcuts_X_Nickelodeon_longsleeve_critter_/20%Monthly2019-01-07 00:02
http://www.hotnewdeal.com/2019/01/06/278138_Target_Quest_Nutrition_Products__Buy_1_get_1_50/20%Monthly2019-01-06 23:45
http://www.hotnewdeal.com/2019/01/06/278137_22lbs_MuscleTech_Premium_Gold_100_Whey_Protein_P/20%Monthly2019-01-06 23:31
http://www.hotnewdeal.com/2019/01/06/278135_Cetaphil_Normal_to_Oily_Skin_Daily_Facial_Cleanser/20%Monthly2019-01-06 23:16
http://www.hotnewdeal.com/2019/01/06/278134_Amazon_has_Similac_ProAdvance_NonGMO_Infant_Form/20%Monthly2019-01-06 22:59
http://www.hotnewdeal.com/2019/01/06/278133_Duduma_Aviator_Sunglasses_for_Mens_Womens_Mirrored/20%Monthly2019-01-06 22:29
http://www.hotnewdeal.com/2019/01/06/278132_Champion_AGM_Batteries__25_off__40_MIR_at_PepB/20%Monthly2019-01-06 22:29
http://www.hotnewdeal.com/2019/01/06/278131_Amazon_has_addon_item_Whitmor_2_Tier_Wood_House/20%Monthly2019-01-06 21:45
http://www.hotnewdeal.com/2019/01/06/278130_Olay_Face_Moisturizer_Complete_All_Day_UV_Moisture/20%Monthly2019-01-06 21:45
http://www.hotnewdeal.com/2019/01/06/278129_GAP_Coupon_for_Extra_Savings_40_Off__20_Off__F/20%Monthly2019-01-06 21:08
http://www.hotnewdeal.com/2019/01/06/278128_Arm__Hammer_2IN1_Laundry_Detergent_Power_Paks_/20%Monthly2019-01-06 20:57
http://www.hotnewdeal.com/2019/01/06/278127_Baldurs_Gate_II_Enhanced_Edition_iOS_2/20%Monthly2019-01-06 20:46
http://www.hotnewdeal.com/2019/01/06/278126_POWERBLOCK_EXP_Stage_1_Set_with_Free_Shipping__/20%Monthly2019-01-06 20:31
http://www.hotnewdeal.com/2019/01/06/278125_MRE_Meals_Ready_To_Eat_7Pack_for_2799/20%Monthly2019-01-06 20:31
http://www.hotnewdeal.com/2019/01/06/278124_AMAZON__CeraVe_Face_Moisturizer_with_SPF_30__17/20%Monthly2019-01-06 20:19
http://www.hotnewdeal.com/2019/01/06/278123_Bosch_SDSPlus_8Amp_Keyless_Rotary_Hammer_PLUS_Dr/20%Monthly2019-01-06 20:01
http://www.hotnewdeal.com/2019/01/06/278122_Quaker_Simple__Wholesome_Organic_Multigrain_Hot_C/20%Monthly2019-01-06 20:01
http://www.hotnewdeal.com/2019/01/06/278121_Cover_Girl_Eyelash_Curler_99__3_Eye_Shadow_Ap/20%Monthly2019-01-06 19:14
http://www.hotnewdeal.com/2019/01/06/278120_Linksys_Velop_Mesh_3Pack_DualBand_AC3600_170/20%Monthly2019-01-06 19:14
http://www.hotnewdeal.com/2019/01/06/278119_26_Piece_PLAYMOBIL_Ghostbuster_Raymond_Stantz_Buil/20%Monthly2019-01-06 19:14
http://www.hotnewdeal.com/2019/01/06/278118_Lowes_Bounty_SelectASize_Paper_Towels_White_8_/20%Monthly2019-01-06 19:03
http://www.hotnewdeal.com/2019/01/06/278117_Buy_a_Motorola_X4_64GB_Android_One_Unlocked__/20%Monthly2019-01-06 19:03
http://www.hotnewdeal.com/2019/01/06/278116_Buy_one_Moto_X4_64GB_unlocked_phone_get_one_Moto_/20%Monthly2019-01-06 18:39
http://www.hotnewdeal.com/2019/01/06/278115_PRISM_27_165Hz_1440p_Gaming_Monitor__29999_Aft/20%Monthly2019-01-06 18:39
http://www.hotnewdeal.com/2019/01/06/278113_Lowes_Hopkins_Oil_Change_System_824_Save_75/20%Monthly2019-01-06 18:21
http://www.hotnewdeal.com/2019/01/06/278112_CORSAIR_Strafe_RGB_MK2_Mechanical_Gaming_Keyboard/20%Monthly2019-01-06 18:21
http://www.hotnewdeal.com/2019/01/06/278111_Target_Spend_15_on_Select_Skin_Care_Items_Get_/20%Monthly2019-01-06 18:01
http://www.hotnewdeal.com/2019/01/06/278110_NECA_God_of_War_2018_Kratos_18_14_Scale_Figure_/20%Monthly2019-01-06 17:55
http://www.hotnewdeal.com/2019/01/06/278109_6Pack_of_187oz_Heinz_Carolina_Mustard_Style_BBQ_/20%Monthly2019-01-06 17:44
http://www.hotnewdeal.com/2019/01/06/278108_ADT_Smartthings_Door__Window_Sensors_or_Keychain_/20%Monthly2019-01-06 17:29
http://www.hotnewdeal.com/2019/01/06/278106_All_Lego_Overwatch_sets_on_sale_at_Target_20_off_/20%Monthly2019-01-06 17:23
http://www.hotnewdeal.com/2019/01/06/278105_Hyperkin_Duke_Wired_Controller_for_Xbox_One_Windo/20%Monthly2019-01-06 17:23
http://www.hotnewdeal.com/2019/01/06/278104_Samsonite_Advance_Xlt_Lightweight_2_Piece_Softside/20%Monthly2019-01-06 17:01
http://www.hotnewdeal.com/2019/01/06/278103_Philadelphia_to_Barcelona_Spain_221237_RT_Airfa/20%Monthly2019-01-06 17:00
http://www.hotnewdeal.com/2019/01/06/278102_Sharp__58_Class__LED__2160p__Smart__4K_UHD_T/20%Monthly2019-01-06 17:00
http://www.hotnewdeal.com/2019/01/06/278101_Box_of_20_King_Size_Bars_Hersheys_Cookie_Layer_/20%Monthly2019-01-06 16:54
http://www.hotnewdeal.com/2019/01/06/278100_30_Oz_PBfit_AllNatural_Organic_Peanut_Butter_Powd/20%Monthly2019-01-06 16:45
http://www.hotnewdeal.com/2019/01/06/278099_Costco__Planters_Dry_Roasted_Peanuts__Buy_One_Ge/20%Monthly2019-01-06 16:20
http://www.hotnewdeal.com/2019/01/06/278098_Swing_by_and_get_any_Blaze__for_5__Blaze_Pizza/20%Monthly2019-01-06 16:20
http://www.hotnewdeal.com/2019/01/06/278097_Amazoncom_Lightning_Deal_RockDove_Womens_Birdsey/20%Monthly2019-01-06 16:20
http://www.hotnewdeal.com/2019/01/06/278096_YMMV__Costco_Prime_25_FT_Extension_Cords_4_Pack_/20%Monthly2019-01-06 16:20
http://www.hotnewdeal.com/2019/01/06/278095_Champion_Boys_Performance_Pants_3_for_1698_w_F/20%Monthly2019-01-06 16:20
http://www.hotnewdeal.com/2019/01/06/278094_DEWALT_10Compartment_Deep_Pro_Small_Parts_Organiz/20%Monthly2019-01-06 16:20
http://www.hotnewdeal.com/2019/01/06/278093_ADT_Samsung_SmartThings_Safety_Expansion_Kit399/20%Monthly2019-01-06 15:56
http://www.hotnewdeal.com/2019/01/06/278091_Brother_PTD600_PCconnectable_label_maker_5999/20%Monthly2019-01-06 15:01
http://www.hotnewdeal.com/2019/01/06/278090_Neweggcom_50pack_Titan_47GB_16X_DVDR_discs_3/20%Monthly2019-01-06 14:56
http://www.hotnewdeal.com/2019/01/06/278089_Battlefield_V_5_Deluxe_Edition_Xbox_One_Digital_Do/20%Monthly2019-01-06 14:52
http://www.hotnewdeal.com/2019/01/06/278088_XT3_Mirrorless_Digital_Camera_Body_Only_Black_/20%Monthly2019-01-06 14:45
http://www.hotnewdeal.com/2019/01/06/278087_Eighth_Grade_4K_UHD_Digital_Rental_089__Fanda/20%Monthly2019-01-06 14:36
http://www.hotnewdeal.com/2019/01/06/278086_Dr_Bronners_Pure_Castile_Soap_32_oz_1599__/20%Monthly2019-01-06 14:10
http://www.hotnewdeal.com/2019/01/06/278085_Minneapolis_MN_to_Amsterdam_Netherlands_330337_/20%Monthly2019-01-06 13:29
http://www.hotnewdeal.com/2019/01/06/278084_Amazon_Add_On_Item_WowWee_Magnaflex__Vehicles_Se/20%Monthly2019-01-06 13:23
http://www.hotnewdeal.com/2019/01/06/278083_Nintendo_Switch_Console_Neon_26999/20%Monthly2019-01-06 13:23
http://www.hotnewdeal.com/2019/01/06/278082_Epson_Home_Cinema_4010_4K_PROUHD_3Chip_Projector/20%Monthly2019-01-06 13:13
http://www.hotnewdeal.com/2019/01/06/278081_Good_Smile_Company_Overwatch_Nendoroid_Classic_Ski/20%Monthly2019-01-06 13:13
http://www.hotnewdeal.com/2019/01/06/278080_3Count_Colgate_Total_Whitening_Toothpaste__78_o/20%Monthly2019-01-06 12:58
http://www.hotnewdeal.com/2019/01/06/278079_Kindle_eBooks_Ghost_Boy_2_The_EMyth_Revisited_/20%Monthly2019-01-06 12:45
http://www.hotnewdeal.com/2019/01/06/278078_3_Loreal_Paris_Elvive_Shampoo_or_Conditioner__5/20%Monthly2019-01-06 12:38
http://www.hotnewdeal.com/2019/01/06/278077_Quest_Nutrition_Vanilla_Caramel_Hero_Protein_Bar_1/20%Monthly2019-01-06 12:29
http://www.hotnewdeal.com/2019/01/06/278076_Garnier_Whole_Blends_Care_Cream_Hair_Mask__Amazon/20%Monthly2019-01-06 12:19
http://www.hotnewdeal.com/2019/01/06/278075_Franklin_Sports_MLS_Tournament_Steel_Soccer_Goal_/20%Monthly2019-01-06 12:14
http://www.hotnewdeal.com/2019/01/06/278074_240GB_AData_XPG_SX8200_PCIe_NVMe_SSD_50_Newegg/20%Monthly2019-01-06 12:14
http://www.hotnewdeal.com/2019/01/06/278073_Philips_Sonicare_ProtectiveClean_4100__Amazon_17/20%Monthly2019-01-06 11:42
http://www.hotnewdeal.com/2019/01/06/278072_Moto_X4_XT19001_64GB_Smartphone_Unlocked_Androi/20%Monthly2019-01-06 11:42
http://www.hotnewdeal.com/2019/01/06/278071_Amazon_SS_Burts_Bees_Eye_Makeup_Remover_Pads_3/20%Monthly2019-01-06 11:42
http://www.hotnewdeal.com/2019/01/06/278070_MuscleTech_NitroTech_Protein_Powder_Plus_Muscle_Bu/20%Monthly2019-01-06 11:42
http://www.hotnewdeal.com/2019/01/06/278069_Lutron_Dimmer_Switches_and_Motion_Sensors_up_to_25/20%Monthly2019-01-06 11:27
http://www.hotnewdeal.com/2019/01/06/278068_UE_Boom_2_LE_7999_Amazon/20%Monthly2019-01-06 11:22
http://www.hotnewdeal.com/2019/01/06/278067_Fiskars_Extendable_Handle_Lopper_w_Single_Pivot_/20%Monthly2019-01-06 11:11
http://www.hotnewdeal.com/2019/01/06/278066_GSKILL_AEGIS_16GB_2_x_8GB_240Pin_DDR3_SDRAM_DD/20%Monthly2019-01-06 11:11
http://www.hotnewdeal.com/2019/01/06/278065_EastPoint_Table_Tennis__Model_33832__Clearance_a/20%Monthly2019-01-06 11:11
http://www.hotnewdeal.com/2019/01/06/278064_240Count_Bounce_Fabric_Softener_Dryer_Sheets_Out/20%Monthly2019-01-06 10:51
http://www.hotnewdeal.com/2019/01/06/278063_Canine_carry_outs_dog_treats_Amazon_Add_on/20%Monthly2019-01-06 10:43
http://www.hotnewdeal.com/2019/01/06/278062_Add_On_Item_Dr_Seuss_20_Cat_in_The_Hat_20_Re/20%Monthly2019-01-06 10:43
http://www.hotnewdeal.com/2019/01/06/278061_50_Off_Target_Cartwheel_Offer_Shadow_of_the_Colo/20%Monthly2019-01-06 10:35
http://www.hotnewdeal.com/2019/01/06/278060_canon_MF733Cdw_all_in_one_color_later_printer_for_/20%Monthly2019-01-06 10:35
http://www.hotnewdeal.com/2019/01/06/278058_Enermax_LiqMax_II_120mm_Liquid_Cooler_ELCLMR120S/20%Monthly2019-01-06 10:19
http://www.hotnewdeal.com/2019/01/06/278057_V1_Gaming_Headset_Over_Ear_Headphones_Bass_Noise_/20%Monthly2019-01-06 10:19
http://www.hotnewdeal.com/2019/01/06/278056_Denon_AVR4500H_92Channel_4K_AV_Receiver_with_3D/20%Monthly2019-01-06 09:40
http://www.hotnewdeal.com/2019/01/06/278055_LEGO_Duplo_Town_Shooting_Gallery_1043/20%Monthly2019-01-06 09:25
http://www.hotnewdeal.com/2019/01/06/278054_Motorola_Moto_G6_64GB_Smartphone_Unlocked_Black/20%Monthly2019-01-06 08:27
http://www.hotnewdeal.com/2019/01/06/278053_Tseoa_Manicure_Pedicure_Kit_Nail_Clippers_Profe/20%Monthly2019-01-06 07:58
http://www.hotnewdeal.com/2019/01/06/278052_RTIC_22_Rolling_Travel_Case_82_50_off_and_mo/20%Monthly2019-01-06 07:25
http://www.hotnewdeal.com/2019/01/06/278051_Super_Mario_3D_Land__others__Nintendo_3DS_49/20%Monthly2019-01-06 06:41
http://www.hotnewdeal.com/2019/01/06/278050_Amazon_Add_On_Item_Real_Workin_Buddies_Mr_Hosey/20%Monthly2019-01-06 06:40
http://www.hotnewdeal.com/2019/01/06/278049_Chasepay_Earn_10_cash_back10X_Chase_Ultimate_Rew/20%Monthly2019-01-06 05:40
http://www.hotnewdeal.com/2019/01/06/278048_6_Pack_6_Oz_Colgate_Max_Fresh_Shockwave_Toothpaste/20%Monthly2019-01-06 04:41
http://www.hotnewdeal.com/2019/01/06/278047_Best_Buy_50_gift_card_for_43_at_Randalls/20%Monthly2019-01-06 03:53
http://www.hotnewdeal.com/2019/01/06/278046_Amazon_Add_On_Items_Disney_Princess_Toys__Singin/20%Monthly2019-01-06 02:57
http://www.hotnewdeal.com/2019/01/06/278045_Harmony_Khaki_Nester_Dog_Bed_20_L_x_17_W_7/20%Monthly2019-01-06 02:27
http://www.hotnewdeal.com/2019/01/06/278044_Razer__BlackWidow_Ultimate_Edition_Wired_Gaming_M/20%Monthly2019-01-06 02:27
http://www.hotnewdeal.com/2019/01/06/278043_4K_Movies_Rise_of_the_Planet_of_the_Apes_699_B/20%Monthly2019-01-06 01:57
http://www.hotnewdeal.com/2019/01/06/278042_Nintendo_Switch_Digital_Download_Games_Octopath_T/20%Monthly2019-01-06 01:57
http://www.hotnewdeal.com/2019/01/06/278041_Dell_U2718Q_27_Class_4K_Monitor_36999/20%Monthly2019-01-06 01:09
http://www.hotnewdeal.com/2019/01/05/278040_Thrustmaster_T150_Rs_Force_Feedback_Racing_Wheel_/20%Monthly2019-01-05 23:58
http://www.hotnewdeal.com/2019/01/05/278038_Fargo_Digital_HDX_Season_1_5_Season_2_6_Seas/20%Monthly2019-01-05 23:41
http://www.hotnewdeal.com/2019/01/05/278037_Anime_In_This_Corner_of_the_World_Digital_HD_4/20%Monthly2019-01-05 23:10
http://www.hotnewdeal.com/2019/01/05/278036_Ubiquiti_UAPACLITE_UniFi_Access_Point__BH_Photo/20%Monthly2019-01-05 23:10
http://www.hotnewdeal.com/2019/01/05/278035_AMD_Radeon_RX_460_2GB_GDDR5_5995/20%Monthly2019-01-05 22:35
http://www.hotnewdeal.com/2019/01/05/278034_Barilla_Whole_Grain_Pasta_16_Ounce_pack_12_for_12/20%Monthly2019-01-05 22:11
http://www.hotnewdeal.com/2019/01/05/278033_Prime_Members_13Ounce_Infusium_Repair__Renew_Le/20%Monthly2019-01-05 22:10
http://www.hotnewdeal.com/2019/01/05/278032_BeautyBlender__Beauty_Blusher__3_FS/20%Monthly2019-01-05 21:28
http://www.hotnewdeal.com/2019/01/05/278031_The_Incredibles_2_Stretching__Speeding_Elasticycl/20%Monthly2019-01-05 21:28
http://www.hotnewdeal.com/2019/01/05/278030_Music_Composition_Samples__Samples_from_Mars_Al/20%Monthly2019-01-05 21:12
http://www.hotnewdeal.com/2019/01/05/278029_Lenovo_Yoga_720_15_2in1_4K_IPS_Touch_i77700HQ/20%Monthly2019-01-05 21:00
http://www.hotnewdeal.com/2019/01/05/278028_201oz_Downy_Unstoppables_InWash_Scent_Booster_Be/20%Monthly2019-01-05 20:55
http://www.hotnewdeal.com/2019/01/05/278027_179__Plackers_TwinLine_Dental_Floss_Picks_75_/20%Monthly2019-01-05 20:52
http://www.hotnewdeal.com/2019/01/05/278026_OPTIMUM_NUTRITION_Platinum_Hydrowhey_Protein_Powde/20%Monthly2019-01-05 20:28
http://www.hotnewdeal.com/2019/01/05/278025_Lowes_Tide_Liquid_Detergent_LQ2X_HE_Ult_Oxi_115_/20%Monthly2019-01-05 20:19
http://www.hotnewdeal.com/2019/01/05/278024_4_pack_of_150_plackers_twin_line_flossers_1295_s/20%Monthly2019-01-05 20:19
http://www.hotnewdeal.com/2019/01/05/278023_CIOR_Men_and_Women_Snow_Boots_Fur_Lined_Winter_Out/20%Monthly2019-01-05 20:09
http://www.hotnewdeal.com/2019/01/05/278022_Amazon_prime_addon_Under_Armour_Unisex_SC30_Sa/20%Monthly2019-01-05 19:26
http://www.hotnewdeal.com/2019/01/05/278021_Nintendo_Switch_Games_Mario_Tennis_Aces_Mario_Od/20%Monthly2019-01-05 19:21
http://www.hotnewdeal.com/2019/01/05/278020_Quaker_Chewy_Granola_Bars_Chocolate_Chip_58_Coun/20%Monthly2019-01-05 19:21
http://www.hotnewdeal.com/2019/01/05/278019_Abu_Garcia_STX_Round_Baitcasting_Reel_70/20%Monthly2019-01-05 19:10
http://www.hotnewdeal.com/2019/01/05/278018_Google_Home_Hub_2_Pack_17999/20%Monthly2019-01-05 18:58
http://www.hotnewdeal.com/2019/01/05/278017_Nylabone_FlexiChew_Chicken_Bone_Giant_or_Wolf_size/20%Monthly2019-01-05 18:58
http://www.hotnewdeal.com/2019/01/05/278016_Logitech_HD_Pro_Webcam_C920_for_50/20%Monthly2019-01-05 18:48
http://www.hotnewdeal.com/2019/01/05/278015_RTIC_food_containers_75_off_free_shipping_over_3/20%Monthly2019-01-05 18:27
http://www.hotnewdeal.com/2019/01/05/278014_Lenovo_Air_TWS_Bluetooth_Earphones_for_3768_wSh/20%Monthly2019-01-05 16:51
http://www.hotnewdeal.com/2019/01/05/278013_12Pk_18oz_Core_Organic_Beverage_Pomegranate_Blu/20%Monthly2019-01-05 16:36
http://www.hotnewdeal.com/2019/01/05/278012_40Count_FritoLay_Fiery_Mix_Variety_Pack_1123_o/20%Monthly2019-01-05 16:01
http://www.hotnewdeal.com/2019/01/05/278011_Speed_2_movie_collection_on_Microsoft_video_store/20%Monthly2019-01-05 16:01
http://www.hotnewdeal.com/2019/01/05/278010_Aerogarden_Harvest_360_on_clearance_at_Target_44/20%Monthly2019-01-05 15:31
http://www.hotnewdeal.com/2019/01/05/278009_Shopkins_Pop_N_Race_Game_372__Amazon_Add_On/20%Monthly2019-01-05 15:31
http://www.hotnewdeal.com/2019/01/05/278008_Cabelas_Deluxe_Campers_Kitchen_Sale_Price_9379/20%Monthly2019-01-05 15:31
http://www.hotnewdeal.com/2019/01/05/278007_Seattle_to_Berlin_Germany_373380_RT_Airfares_on/20%Monthly2019-01-05 15:31
http://www.hotnewdeal.com/2019/01/05/278006_Set_of_21_Sharpies_Fine_Point_Markers_Aaron_Rodge/20%Monthly2019-01-05 15:15
http://www.hotnewdeal.com/2019/01/05/278004_COSTCO__New_or_Existing_TMobile_Customers__200/20%Monthly2019-01-05 14:48
http://www.hotnewdeal.com/2019/01/05/278003_Liquid_Neutrogena_FragranceFree_Facial_Cleanser_8/20%Monthly2019-01-05 14:48
http://www.hotnewdeal.com/2019/01/05/278002_Slime_tire_pump_at_Lowes_1798_YMMV/20%Monthly2019-01-05 14:27
http://www.hotnewdeal.com/2019/01/05/278001_AMAZON_Original_GrassFed_Ghee_Butter_by_4th__Hea/20%Monthly2019-01-05 14:19
http://www.hotnewdeal.com/2019/01/05/278000_Nest_Cam_at_Ace_for_99__YMMV/20%Monthly2019-01-05 14:19
http://www.hotnewdeal.com/2019/01/05/277999_402_pc_Mega_Construx_Inventions_Wild_Pack_371_/20%Monthly2019-01-05 14:08
http://www.hotnewdeal.com/2019/01/05/277997_Up_to_90_off_50_Games__Get_10_Razer_Hardware_V/20%Monthly2019-01-05 13:57
http://www.hotnewdeal.com/2019/01/05/277996_Costco_InStore_Offer_ATT_IPHONE_BOGO_Bill_Cred/20%Monthly2019-01-05 13:57
http://www.hotnewdeal.com/2019/01/05/277995_Saint_Honore_Trocadeo_Automatic_Watch_ETA_2824_/20%Monthly2019-01-05 13:34
http://www.hotnewdeal.com/2019/01/05/277994_Dragon_Age_Inquisition_Digital_Download_PC_499/20%Monthly2019-01-05 13:26
http://www.hotnewdeal.com/2019/01/05/277993_Addon_Item_Flush_Force_8Pack_Bizarre_Bathtub_wi/20%Monthly2019-01-05 13:25
http://www.hotnewdeal.com/2019/01/05/277992_240GB_ADATA_SU655_25_SATA_III_3D_Solid_State_Dri/20%Monthly2019-01-05 13:10
http://www.hotnewdeal.com/2019/01/05/277991_Prime_Members_30_oz_PBFit_Organic_Peanut_Butter_P/20%Monthly2019-01-05 13:10
http://www.hotnewdeal.com/2019/01/05/277990_Hillman_24in_x_19in_Plastic_Parking_LotDriving_/20%Monthly2019-01-05 13:10
http://www.hotnewdeal.com/2019/01/05/277989_Philips_Hue_White__Color_Ambiance_LED_Starter_Kit/20%Monthly2019-01-05 12:58
http://www.hotnewdeal.com/2019/01/05/277988_50Count_NESTLE_COFFEEMATE_Coffee_Creamer_Sugar_/20%Monthly2019-01-05 12:51
http://www.hotnewdeal.com/2019/01/05/277987_Reebok_Mens_Play_Dry_14_Zip_Jacket_for_1799__/20%Monthly2019-01-05 12:37
http://www.hotnewdeal.com/2019/01/05/277986_MARS_Chocolate_Halloween_Candy_Variety_Mix_342_/20%Monthly2019-01-05 12:29
http://www.hotnewdeal.com/2019/01/05/277985_Hardwood_Lump_Charcoal20lb_Cowboy900/20%Monthly2019-01-05 12:29
http://www.hotnewdeal.com/2019/01/05/277984_Lego_Ninjago_Destinys_Bounty_11499__Walmart_a/20%Monthly2019-01-05 11:59
http://www.hotnewdeal.com/2019/01/05/277983_Gears_of_War_4_Xbox_One__PC_Digital_Download_5/20%Monthly2019-01-05 11:59
http://www.hotnewdeal.com/2019/01/05/277982_Rakuten_Garmin_Vivoactive_3_GPS_Fitness_Smartwatc/20%Monthly2019-01-05 11:59
http://www.hotnewdeal.com/2019/01/05/277981_IHOP_All_You_Can_Eat_Pancakes_499/20%Monthly2019-01-05 11:42
http://www.hotnewdeal.com/2019/01/05/277980_Harry_Potter_The_Artifact_Vault_1925_at_Amazon/20%Monthly2019-01-05 11:42
http://www.hotnewdeal.com/2019/01/05/277979_LIFX__Mini_800Lumen_BestBuy_30_2999/20%Monthly2019-01-05 11:42
http://www.hotnewdeal.com/2019/01/05/277978_Mens_Adidas_UltraBOOST_All_Terrain_Mid_Shoes_80_/20%Monthly2019-01-05 11:42
http://www.hotnewdeal.com/2019/01/05/277977_Monster_Hunter_Generations_Ultimate__Nintendo_Swi/20%Monthly2019-01-05 11:05
http://www.hotnewdeal.com/2019/01/05/277976_12inch_Thick_Bully_Sticks_10_Pack_All_Natural_D/20%Monthly2019-01-05 10:58
http://www.hotnewdeal.com/2019/01/05/277975_Nintedo_Switch_Pokemon_Lets_Go_Bundle_Eevee_in_s/20%Monthly2019-01-05 10:58
http://www.hotnewdeal.com/2019/01/05/277974_Insteon_Outdoor_Lighting_Kit_with_Insteon_Hub_699/20%Monthly2019-01-05 10:42
http://www.hotnewdeal.com/2019/01/05/277973_MSI_GL63_8RE629_156_IPS_FHD_GTX_1060_6_GB_VRAM_/20%Monthly2019-01-05 10:11
http://www.hotnewdeal.com/2019/01/05/277972_12Count_Optimum_Nutrition_Cake_Bites_Protein_Bars/20%Monthly2019-01-05 09:59
http://www.hotnewdeal.com/2019/01/05/277971_Amazon_addon_PupPeroni_Dog_Snacks_25_oz_bags_5/20%Monthly2019-01-05 09:31
http://www.hotnewdeal.com/2019/01/05/277970_AUKEY_Power_Strip_8_Outlets__6Port_USB_Charger_/20%Monthly2019-01-05 09:14
http://www.hotnewdeal.com/2019/01/05/277969_Lubriderm_Daily_Moisture_Hydrating_Body_and_Hand_L/20%Monthly2019-01-05 09:14
http://www.hotnewdeal.com/2019/01/05/277968_Sonos_Play1_Compact_Wireless_Speaker_Refurbished/20%Monthly2019-01-05 09:14
http://www.hotnewdeal.com/2019/01/05/277967_Destiny_2_Collectors_Edition_Xbox_One_or_PlaySta/20%Monthly2019-01-05 09:14
http://www.hotnewdeal.com/2019/01/05/277966_5Lbs_Optimum_Nutrition_Gold_Standard_100_Whey_Pr/20%Monthly2019-01-05 09:14
http://www.hotnewdeal.com/2019/01/05/277965_Los_Angeles_to_Kilimanjaro_Tanzania_fly_in_MARCH_/20%Monthly2019-01-05 09:14
http://www.hotnewdeal.com/2019/01/05/277964_TheraBreath_Bad_Breath_Kit_5_Worth_at_least_30/20%Monthly2019-01-05 08:54
http://www.hotnewdeal.com/2019/01/05/277961_Adjustable_Working_Canvas_Apron_with_Pockets_for_M/20%Monthly2019-01-05 08:10
http://www.hotnewdeal.com/2019/01/05/277960_Ultralight_Self_Inflating_Sleeping_Pad_AirSupport/20%Monthly2019-01-05 08:06
http://www.hotnewdeal.com/2019/01/05/277959_Ubiquiti_Networks_16Port_UniFi_Gigabit_Switch_wS/20%Monthly2019-01-05 08:06
http://www.hotnewdeal.com/2019/01/05/277958_Kohls_Cardholders_30_off_Coupon_for_Additional_/20%Monthly2019-01-05 08:05
http://www.hotnewdeal.com/2019/01/05/277957_40Count_08oz_Black_Forest_Medley_Juicy_Center_Fr/20%Monthly2019-01-05 08:05
http://www.hotnewdeal.com/2019/01/05/277956_WD__Easystore_4TB_External_USB_30_Portable_Hard_/20%Monthly2019-01-05 08:05
http://www.hotnewdeal.com/2019/01/05/277955_Makita_string_trimmer_XRU09Z_bare_tool_209/20%Monthly2019-01-05 07:39
http://www.hotnewdeal.com/2019/01/05/277954_Crash_Bandicoot_N_Sane_Trilogy__Nintendo_Switch_/20%Monthly2019-01-05 06:08
http://www.hotnewdeal.com/2019/01/05/277953_ADATA_SU800_2TB_SSD_for_204_AC__Free_Shipping/20%Monthly2019-01-05 06:08
http://www.hotnewdeal.com/2019/01/05/277952_US_Polo_Skip_Mens_Shoe_various_Colors_21_AC/20%Monthly2019-01-05 05:47
http://www.hotnewdeal.com/2019/01/05/277951_Death_Note_Live_Action_Trilogy_subtitled_Bluray/20%Monthly2019-01-05 02:55
http://www.hotnewdeal.com/2019/01/05/277950_HP_156Inch_HD_Touchscreen_Laptop_Intel_Pentium_S/20%Monthly2019-01-05 02:47
http://www.hotnewdeal.com/2019/01/05/277949_CRENOVA_Spray_Nozzle_HN04_Garden_Hose_Nozzle_Spra/20%Monthly2019-01-05 02:35
http://www.hotnewdeal.com/2019/01/05/277948_Call_of_Duty_Infinite_Warfare_Legacy_Edition_Xbo/20%Monthly2019-01-05 02:35
http://www.hotnewdeal.com/2019/01/05/277947_HP_Pavilion_24b223w_238ampquot_AllinOne_PC/20%Monthly2019-01-05 01:32
http://www.hotnewdeal.com/2019/01/05/277946_Target_Dog_Toy_Clearance_1__Rawhide_349/20%Monthly2019-01-05 01:16
http://www.hotnewdeal.com/2019/01/05/277945_3Pack_Nautica_Mens_of_Cotton_TShirts_or_Boxer_B/20%Monthly2019-01-05 01:16
http://www.hotnewdeal.com/2019/01/05/277944_Fantastical_2_iOS_App__iPhone_199_reg_499_/20%Monthly2019-01-05 01:16
http://www.hotnewdeal.com/2019/01/05/277943_Samsung_7_Series_4K_50_UHD_Smart_TV__2018_UN50NU/20%Monthly2019-01-05 01:16
http://www.hotnewdeal.com/2019/01/05/277942_Kindle_Paperwhite_1st_Gen_6_EReaders_3999__/20%Monthly2019-01-05 00:05
http://www.hotnewdeal.com/2019/01/04/277941_Acer_TC865NESelecti5_Desktop_i58400_8GB_DDR4/20%Monthly2019-01-04 23:44
http://www.hotnewdeal.com/2019/01/04/277940_Melissa__Doug_57_Plush_Giraffe_30_Plush_Unico/20%Monthly2019-01-04 23:14
http://www.hotnewdeal.com/2019/01/04/277939_LifX_A19_Wifi_LED_Color_Smart_Bulb_38__Amazon_af/20%Monthly2019-01-04 23:14
http://www.hotnewdeal.com/2019/01/04/277938_Nintendo_Switch__Super_Smash_Bros_Ultimate__Don/20%Monthly2019-01-04 23:14
http://www.hotnewdeal.com/2019/01/04/277937_Sony_WH1000XM3_Wireless_Noise_Canceling_Headphones/20%Monthly2019-01-04 22:54
http://www.hotnewdeal.com/2019/01/04/277936_Xbox_One_Red_Dead_Redemption_2_45_AC__Free_Ship/20%Monthly2019-01-04 22:32
http://www.hotnewdeal.com/2019/01/04/277935_Poke_Ball_Plus__Target_YMMV_1498/20%Monthly2019-01-04 22:24
http://www.hotnewdeal.com/2019/01/04/277934_DLink_Whole_Home_WiFi_Mesh_System_COVRC1203US_/20%Monthly2019-01-04 22:24
http://www.hotnewdeal.com/2019/01/04/277933_49_LG_49SK8000PUA_4K_HDR_Smart_TV_399__free_sh/20%Monthly2019-01-04 22:07
http://www.hotnewdeal.com/2019/01/04/277932_16Pieces_430_Stainless_Steel_Flatware_Set_799/20%Monthly2019-01-04 21:33
http://www.hotnewdeal.com/2019/01/04/277930_Vitafusion_Melatonin_Gummy_Vitamins_15mg_140ct_/20%Monthly2019-01-04 21:04
http://www.hotnewdeal.com/2019/01/04/277929_Houston_to_Athens_Greece_496506_RT_Airfares_on_/20%Monthly2019-01-04 20:48
http://www.hotnewdeal.com/2019/01/04/277928_32GB_Apple_iPad_97_WiFi_Tablet_Latest_Model_fo/20%Monthly2019-01-04 20:47
http://www.hotnewdeal.com/2019/01/04/277927_CYZ_Mens_Long_Sleeve_Thermal_Shirt_or_Long_John_S/20%Monthly2019-01-04 20:24
http://www.hotnewdeal.com/2019/01/04/277926_Fitness_Tracker_with_Heart_Rate_IP67_Waterproof_Bl/20%Monthly2019-01-04 20:16
http://www.hotnewdeal.com/2019/01/04/277925_Philips_Sonicare_ProtectiveClean_4100_Plaque_Contr/20%Monthly2019-01-04 20:14
http://www.hotnewdeal.com/2019/01/04/277924_auth_dealer_75_Sony_XBR75X900F_4K_Smart_TV_224/20%Monthly2019-01-04 20:14
http://www.hotnewdeal.com/2019/01/04/277923_auth_dealer_55_LG_OLED55E8PUA_4K_UHD_HDR_AI_Sma/20%Monthly2019-01-04 20:07
http://www.hotnewdeal.com/2019/01/04/277922_Aveeno_Sheer_Hydration_Daily_Moisturizing_Lotion_f/20%Monthly2019-01-04 20:07
http://www.hotnewdeal.com/2019/01/04/277921_Sauconycom_additional_25_off_sale_items_and_Free/20%Monthly2019-01-04 20:07
http://www.hotnewdeal.com/2019/01/04/277920_Google_Home_Hub_w_GA__w_Nest_Learning_Thermosta/20%Monthly2019-01-04 19:57
http://www.hotnewdeal.com/2019/01/04/277919_Pier1_Moscow_Mule_Mug__Gunmetal_YMMV_168/20%Monthly2019-01-04 19:42
http://www.hotnewdeal.com/2019/01/04/277918_Apple_watch_series_3_and_series_4_discount_38499/20%Monthly2019-01-04 19:42
http://www.hotnewdeal.com/2019/01/04/277917_Igloos_Mens_Thinsulate_Wool_Mittens_w_Sueded_Pal/20%Monthly2019-01-04 19:27
http://www.hotnewdeal.com/2019/01/04/277916_Microsoft__Buy_an_Ebook_get_5_gift_card__2_gif/20%Monthly2019-01-04 19:26
http://www.hotnewdeal.com/2019/01/04/277915_MAC_Shiny_Pretty_Things_All_Star_Ruby_Woo_Kit__Fr/20%Monthly2019-01-04 19:08
http://www.hotnewdeal.com/2019/01/04/277914_THE_M_NIGHT_SHYAMALANATHON_ThreePictureMarathon/20%Monthly2019-01-04 19:08
http://www.hotnewdeal.com/2019/01/04/277913_60_OFF__FREE_SHIPPING__EcoSmart_60Watt_Equival/20%Monthly2019-01-04 19:08
http://www.hotnewdeal.com/2019/01/04/277912_EVGA_X299_Dark_LGA_2066_Intel_X299_SATA_6Gbs_/20%Monthly2019-01-04 19:08
http://www.hotnewdeal.com/2019/01/04/277909_bareMinerals_Northern_Lights_Rose_Golds_Gen_Nude_E/20%Monthly2019-01-04 18:16
http://www.hotnewdeal.com/2019/01/04/277908_eBay__DuroMax_Dual_Fuel_Generator_XP4850EH_Hybrid/20%Monthly2019-01-04 18:06
http://www.hotnewdeal.com/2019/01/04/277907_99_For_Random_Game_via_Green_Man_Gaming_List_of_/20%Monthly2019-01-04 17:39
http://www.hotnewdeal.com/2019/01/04/277906_44Count_Crystal_Light_On_The_Go_Packets_Variety_/20%Monthly2019-01-04 17:32
http://www.hotnewdeal.com/2019/01/04/277905_Sony_Playstation_4_Pro_1TB_Gaming_Console__359_/20%Monthly2019-01-04 17:32
http://www.hotnewdeal.com/2019/01/04/277904_Amcrest_ProHD_1080P_WiFi_Camera_2MP_1920TVL_Indo/20%Monthly2019-01-04 17:32
http://www.hotnewdeal.com/2019/01/04/277903_Lenovo_C330_Chromebook__239/20%Monthly2019-01-04 17:31
http://www.hotnewdeal.com/2019/01/04/277902_Addon_Baby_Banana_Bendable_Training_Toothbrush_/20%Monthly2019-01-04 17:10
http://www.hotnewdeal.com/2019/01/04/277901_Sony_PlayStation_Gold_71_Surround_Sound_Wireless_/20%Monthly2019-01-04 17:01
http://www.hotnewdeal.com/2019/01/04/277900_Yamaha_Receivers_RXA2080_92Ch_1100_RXA3080_/20%Monthly2019-01-04 16:48
http://www.hotnewdeal.com/2019/01/04/277899_LEGO_Marvel_Super_Heroes_AntMan__The_Wasp_Quantu/20%Monthly2019-01-04 16:43
http://www.hotnewdeal.com/2019/01/04/277898_25_off_on_all_coffee_makers_direct_from_Keurig_in/20%Monthly2019-01-04 16:42
http://www.hotnewdeal.com/2019/01/04/277897_Lowepro_Ridgeline_BP_250_AW_Backpack_25__free_s/20%Monthly2019-01-04 16:35
http://www.hotnewdeal.com/2019/01/04/277896_Hotstar_USA_Annual_Subscription_for_10_starting_6/20%Monthly2019-01-04 16:26
http://www.hotnewdeal.com/2019/01/04/277895_Swagbucks_3x2_Meals_from_Gobble__5000_SB_for_36/20%Monthly2019-01-04 16:17
http://www.hotnewdeal.com/2019/01/04/277894_Snipperclips__Cut_it_out_together_Nintendo_Swit/20%Monthly2019-01-04 16:17
http://www.hotnewdeal.com/2019/01/04/277893_GSKILL_Ripjaws_V_Series_32GB_2_x_16GB_288Pin_D/20%Monthly2019-01-04 16:08
http://www.hotnewdeal.com/2019/01/04/277891_The_Lost_World_Jurassic_Park_2_by_Michael_Cricht/20%Monthly2019-01-04 15:58
http://www.hotnewdeal.com/2019/01/04/277890_Marvel_Comics_The_Untold_Story_Kindle_Edition_/20%Monthly2019-01-04 15:58
http://www.hotnewdeal.com/2019/01/04/277889_February_Humble_Bumble_Early_Unlock__Yakuza_0_and/20%Monthly2019-01-04 15:26
http://www.hotnewdeal.com/2019/01/04/277888_Bobs_Stores_Mens_Skechers_Hexgo_Control_Turf_Soc/20%Monthly2019-01-04 15:26
http://www.hotnewdeal.com/2019/01/04/277887_Assassins_Creed_Unity_Xbox_One_Digital_Download_/20%Monthly2019-01-04 15:15
http://www.hotnewdeal.com/2019/01/04/277886_All_Apple_Watch_Nike_Series_4_on_Sale_at_AAFES_fo/20%Monthly2019-01-04 15:15
http://www.hotnewdeal.com/2019/01/04/277885_Klutz_Bath_and_Body_Activity_Kit_844__Amazon/20%Monthly2019-01-04 15:01
http://www.hotnewdeal.com/2019/01/04/277883_2Pk_8_Westcott_Titanium_Bonded_Scissors_4_AC__/20%Monthly2019-01-04 14:47
http://www.hotnewdeal.com/2019/01/04/277882_Focal_Clear_Professional_Open_Headphones_999__fr/20%Monthly2019-01-04 14:47
http://www.hotnewdeal.com/2019/01/04/277880_66_lbs_tub_of_Nutella_at_Costco_22/20%Monthly2019-01-04 14:47
http://www.hotnewdeal.com/2019/01/04/277879_KiiPix_Smartphone_Picture_Printer_via_Facebook_Mar/20%Monthly2019-01-04 14:39
http://www.hotnewdeal.com/2019/01/04/277878_Bang__Olufsen_Beoplay_H9i_Wireless_Bluetooth_Head/20%Monthly2019-01-04 14:24
http://www.hotnewdeal.com/2019/01/04/277877_Costco_2019_January_Apple_On_Us__Starts_from_010/20%Monthly2019-01-04 14:24
http://www.hotnewdeal.com/2019/01/04/277876_Apple_AirPods_at_Micro_Center_13999/20%Monthly2019-01-04 14:17
http://www.hotnewdeal.com/2019/01/04/277875_LL_Bean_Womens_Snow_Sneakers_3_Hook_and_Loop_52/20%Monthly2019-01-04 14:16
http://www.hotnewdeal.com/2019/01/04/277874_Korg_B1_88_Key_Digital_Piano_325__free_sh/20%Monthly2019-01-04 14:16
http://www.hotnewdeal.com/2019/01/04/277873_1_buy_5_Jolly_time_popcorn_free_redbox_code_Ymmv/20%Monthly2019-01-04 13:58
http://www.hotnewdeal.com/2019/01/04/277872_Laundry_Detergent_Amazon_SS_Sale/20%Monthly2019-01-04 13:57
http://www.hotnewdeal.com/2019/01/04/277871_201_Ounce_Gain_Fireworks_inWash_Scent_Booster_O/20%Monthly2019-01-04 13:40
http://www.hotnewdeal.com/2019/01/04/277870_Panasonic_Mens_WetDry_Cordless_Electric_Beard__/20%Monthly2019-01-04 13:40
http://www.hotnewdeal.com/2019/01/04/277869_SWAGTRON_EB5_PRO_CITY__CAMPUS_FOLDING_EBIKE_289_/20%Monthly2019-01-04 13:25
http://www.hotnewdeal.com/2019/01/04/277868_Banana_Republic_Extra_60_Off_Clearance_Free_SH_/20%Monthly2019-01-04 13:25
http://www.hotnewdeal.com/2019/01/04/277867_Rosewill_1500W_17_L_Electric_Kettle_w_Double_Wal/20%Monthly2019-01-04 13:09
http://www.hotnewdeal.com/2019/01/04/277866_Mens_Saucony_Triumph_ISO_4_Running_shoes_3997_/20%Monthly2019-01-04 13:08
http://www.hotnewdeal.com/2019/01/04/277865_TPLink_KB100_Dimmable_Smart_LED_Bulbs_2700k_50W/20%Monthly2019-01-04 12:45
http://www.hotnewdeal.com/2019/01/04/277864_Fire_Emblem_Warriors_Nintendo_Switch_2799__Fr/20%Monthly2019-01-04 12:45
http://www.hotnewdeal.com/2019/01/04/277863_Sigma_MC11_with_32GB_Sandisk_Ultra_SD_card_and_ot/20%Monthly2019-01-04 12:45
http://www.hotnewdeal.com/2019/01/04/277862_GSkill_128GB_microSDXC_micro_sd_UHSIU1_Class_10/20%Monthly2019-01-04 12:45
http://www.hotnewdeal.com/2019/01/04/277861_J_Crew_Factory_Extra_60_OFF_Clearance_Items_Onl/20%Monthly2019-01-04 12:23
http://www.hotnewdeal.com/2019/01/04/277860_Motorola_MB7420_16x4_686_Mbps_DOCSIS_30_Cable_Mod/20%Monthly2019-01-04 12:07
http://www.hotnewdeal.com/2019/01/04/277859_Coway_AP1512HH_Mighty_Air_Purifier_White_18406/20%Monthly2019-01-04 12:07
http://www.hotnewdeal.com/2019/01/04/277857_eBay__20_off_Hanes_Champion_Maidenform_Bali_e/20%Monthly2019-01-04 11:41
http://www.hotnewdeal.com/2019/01/04/277856_Mini_Aluminum_Alloy_Bicycle_Bell_at_45_off_362/20%Monthly2019-01-04 11:27
http://www.hotnewdeal.com/2019/01/04/277855_Nintendo_Switch_Games_Mario_Kart_8_Deluxe_ARMS_/20%Monthly2019-01-04 11:12
http://www.hotnewdeal.com/2019/01/04/277854_EMS_THE_NORTH_FACE_Mens_Campshire_FullZip_Fleece/20%Monthly2019-01-04 11:12
http://www.hotnewdeal.com/2019/01/04/277853_1TB_Crucial_P1_NVMe_M2_Internal_SSD_15809_ACFS/20%Monthly2019-01-04 11:12
http://www.hotnewdeal.com/2019/01/04/277852_64_off_2019_Academic_Weekly__Monthly_Planner_3/20%Monthly2019-01-04 11:12
http://www.hotnewdeal.com/2019/01/04/277851_4Pack_Musicians_Gear_Braided_Instrument_Cable_1/20%Monthly2019-01-04 10:57
http://www.hotnewdeal.com/2019/01/04/277850_The_Grand_Tour_Game_Xbox_One_Digital_Code_PreOr/20%Monthly2019-01-04 10:30
http://www.hotnewdeal.com/2019/01/04/277849_Premium_Collagen_Peptides_LOWEST_PRICE_EVER_ON_AM/20%Monthly2019-01-04 10:29
http://www.hotnewdeal.com/2019/01/04/277848_Ridgid_Brushless_Hammer_Drill_and_Impact_Driver__/20%Monthly2019-01-04 10:29
http://www.hotnewdeal.com/2019/01/04/277847_Holiday_Living_9ft_163_13Amp_General_Extension_/20%Monthly2019-01-04 10:18
http://www.hotnewdeal.com/2019/01/04/277846_Olay_Face_Moisturizer_Complete_All_Day_UV_Moisture/20%Monthly2019-01-04 10:02
http://www.hotnewdeal.com/2019/01/04/277845_Gooseneck_Phone_Holder_Flexible_Long_Arm_Mount_St/20%Monthly2019-01-04 10:02
http://www.hotnewdeal.com/2019/01/04/277844_1999_USB_C_Hub_USB_C_Adapter_with_Type_C_Chargin/20%Monthly2019-01-04 10:01
http://www.hotnewdeal.com/2019/01/04/277843_Old_Navy_Extra_40_Off_Select_Clearance_Womens_St/20%Monthly2019-01-04 09:45
http://www.hotnewdeal.com/2019/01/04/277842_SAMSUNG_970_EVO_M2_2280_500GB_nVME_SSD_113_AC_N/20%Monthly2019-01-04 09:44
http://www.hotnewdeal.com/2019/01/04/277841_Gone_Girl_Digital_4K_UHD_499/20%Monthly2019-01-04 09:44
http://www.hotnewdeal.com/2019/01/04/277840_245_Savings_Builder_Account/20%Monthly2019-01-04 09:28
http://www.hotnewdeal.com/2019/01/04/277839_Iconic_films_of_a_decade_10_films_for_25/20%Monthly2019-01-04 09:28
http://www.hotnewdeal.com/2019/01/04/277838_Microsoft_Xbox_Gift_Card_Email_Delivery_100_GC/20%Monthly2019-01-04 09:13
http://www.hotnewdeal.com/2019/01/04/277836_Lego_Adventure_Time_2499__Lego_Store_Online/20%Monthly2019-01-04 09:12
http://www.hotnewdeal.com/2019/01/04/277835_Extra_70OFF_Sale_Products_Improvementscatalog_0/20%Monthly2019-01-04 08:45
http://www.hotnewdeal.com/2019/01/04/277833_Rakuten_15_off_sitewide_coupon__Max_60_off/20%Monthly2019-01-04 08:31
http://www.hotnewdeal.com/2019/01/04/277832_KICKER__DXA2501_250W_Class_D_Mono_Amplifier_with/20%Monthly2019-01-04 08:13
http://www.hotnewdeal.com/2019/01/04/277831_Google_Play_offers_downloads_of_Manual_Camera_DSL/20%Monthly2019-01-04 08:00
http://www.hotnewdeal.com/2019/01/04/277830_Macks_Ultra_Soft_Foam_Earplugs_50_Pair_535_SS/20%Monthly2019-01-04 08:00
http://www.hotnewdeal.com/2019/01/04/277829_Cellucor_C4_pre_workout_30_servings_watermelon_ss/20%Monthly2019-01-04 08:00
http://www.hotnewdeal.com/2019/01/04/277828_Abu_Garcia_Ike_signature_series_rod_6498__74/20%Monthly2019-01-04 07:30
http://www.hotnewdeal.com/2019/01/04/277827_Amazon_has_select_PurolatorONE_and_PurolatorBOSS_o/20%Monthly2019-01-04 07:00
http://www.hotnewdeal.com/2019/01/04/277826_65_TCL_6_Series_Smart_LED_HDTV_65R617_with_4K_UHD/20%Monthly2019-01-04 07:00
http://www.hotnewdeal.com/2019/01/04/277825_Bowflex_SelectTech_552_Adjustable_Dumbbells_550_/20%Monthly2019-01-04 06:59
http://www.hotnewdeal.com/2019/01/04/277823_Aluminum_Tablet_Desk_Mount_Stand_for_Phones_and_Ta/20%Monthly2019-01-04 04:11
http://www.hotnewdeal.com/2019/01/04/277822_V8_Hydrate_PlantBased_Hydrating_Beverage_Strawb/20%Monthly2019-01-04 04:11
http://www.hotnewdeal.com/2019/01/04/277821_240Count_Bounce_Fabric_Softener_Dryer_Sheets_Out/20%Monthly2019-01-04 03:59
http://www.hotnewdeal.com/2019/01/04/277820_Little_Giant_14016001_Alta_One_Type_1_Model_22fo/20%Monthly2019-01-04 02:43
http://www.hotnewdeal.com/2019/01/04/277819_Pottery_Barn_Stripe_Doormat_Red_or_Black_12__/20%Monthly2019-01-04 02:31
http://www.hotnewdeal.com/2019/01/04/277818_Unisex_Bluetooth_Beanie_w_Speaker_and_Mic_for_78/20%Monthly2019-01-04 02:23
http://www.hotnewdeal.com/2019/01/04/277817_Digital_HDX_New_Year_New_Fear_Movies_I_Saw_the_D/20%Monthly2019-01-04 02:13
http://www.hotnewdeal.com/2019/01/04/277816_30_off_Select_3DS_Digital_Codes_at_GameStop_Amaz/20%Monthly2019-01-04 02:13
http://www.hotnewdeal.com/2019/01/04/277815_PSA_eBay_started_collecting_sales_tax_for_WA_Was/20%Monthly2019-01-04 02:00
http://www.hotnewdeal.com/2019/01/04/277813_8TB_WD_Easystore_External_USB_30_Hard_Drive_130_/20%Monthly2019-01-04 01:41
http://www.hotnewdeal.com/2019/01/04/277811_Dremel_MM470_Wood_Flush_Cut_Blade_390_4Pack_Dr/20%Monthly2019-01-04 01:41
http://www.hotnewdeal.com/2019/01/04/277810_20Page_5x7_Hard_Cover_Photo_Book_4__Free_Stor/20%Monthly2019-01-04 01:29
http://www.hotnewdeal.com/2019/01/04/277809_110Count_13Gallon_Glad_OdorShield_Tall_Trash_Bag/20%Monthly2019-01-04 01:29
http://www.hotnewdeal.com/2019/01/04/277808_Intel_Core_i38100__Frys_89_until_1519_8899/20%Monthly2019-01-04 01:12
http://www.hotnewdeal.com/2019/01/04/277807_10000_mAh_Portable_Battery_with_Micro_USB_Cable_/20%Monthly2019-01-04 00:19
http://www.hotnewdeal.com/2019/01/04/277806_Valvoline_20W50_VR1_Racing_Motor_Oil_case_of_6/20%Monthly2019-01-04 00:19
http://www.hotnewdeal.com/2019/01/03/277805_50_Playstation_Store_Gift_Card__40_w_daily_pro/20%Monthly2019-01-03 23:59
http://www.hotnewdeal.com/2019/01/03/277804_Best_Buy_Discounted_Figures_and_Misc_other_Toys__/20%Monthly2019-01-03 23:26
http://www.hotnewdeal.com/2019/01/03/277803_LoL_Surprise_House_3999_at_Target_BM/20%Monthly2019-01-03 23:26
http://www.hotnewdeal.com/2019/01/03/277802_500Pcs_Bulk_Refill_Darts_for_Nerf_Guns_1499/20%Monthly2019-01-03 23:26
http://www.hotnewdeal.com/2019/01/03/277800_KastKing_SuperPower_Braided_Fishing_Line__10_LB_M/20%Monthly2019-01-03 22:45
http://www.hotnewdeal.com/2019/01/03/277799_Sams_Stove_Top_Stuffing_Mix_for_Turkey_51_Free_S/20%Monthly2019-01-03 22:36
http://www.hotnewdeal.com/2019/01/03/277798_AUTOVOX_T2_Backup_Camera_Kit_IP_68_Waterproof_wi/20%Monthly2019-01-03 22:23
http://www.hotnewdeal.com/2019/01/03/277797_Eastbay_Apparel_Mens_Evapor_Core_14_Zip_Mock_X/20%Monthly2019-01-03 22:12
http://www.hotnewdeal.com/2019/01/03/277796_Samsung_PRO_Endurance_64GB_Micro_SDXC_Card_with_Ad/20%Monthly2019-01-03 21:43
http://www.hotnewdeal.com/2019/01/03/277795_Cellucor_C4_Original_PreWorkout_Powder_Energy_Dri/20%Monthly2019-01-03 21:29
http://www.hotnewdeal.com/2019/01/03/277794_Browning_Trail_Cameras_Command_Ops_Pro_Trail_Cam/20%Monthly2019-01-03 21:29
http://www.hotnewdeal.com/2019/01/03/277791_Klipsch_R610F_Floors_pair__R41M_Book_pair_/20%Monthly2019-01-03 21:12
http://www.hotnewdeal.com/2019/01/03/277790_4_for_20_CamelBak_Eddy_75L_Water_Bottles/20%Monthly2019-01-03 21:12
http://www.hotnewdeal.com/2019/01/03/277789_3_in_1_Charging_Stand_for_Apple_Watch_Airpods__iP/20%Monthly2019-01-03 21:05
http://www.hotnewdeal.com/2019/01/03/277788_VUDU_Legion_Season_2_999_HDX_Sale/20%Monthly2019-01-03 21:00
http://www.hotnewdeal.com/2019/01/03/277787_CIOR_Girls_Boys_Winter_Snow_Boots_Fur_Outdoor_Sli/20%Monthly2019-01-03 20:41
http://www.hotnewdeal.com/2019/01/03/277786_Massdrop_x_HIFIMAN_HE4XX_Planar_Magnetic_Headphone/20%Monthly2019-01-03 20:22
http://www.hotnewdeal.com/2019/01/03/277785_PLUMB_20_oz_FiberglassHandle_Claw_Hammer_999_F/20%Monthly2019-01-03 20:22
http://www.hotnewdeal.com/2019/01/03/277784_24_Pack_Fineliner_Color_Pens__499/20%Monthly2019-01-03 20:22
http://www.hotnewdeal.com/2019/01/03/277783_Forza_Horizon_4_Car_Pass_DLC_for_XBOX_ONE_And_PC_/20%Monthly2019-01-03 20:12
http://www.hotnewdeal.com/2019/01/03/277782_Universal_Socket_Tacklife_3Pcs_Multifunctional_1/20%Monthly2019-01-03 20:05
http://www.hotnewdeal.com/2019/01/03/277781_Check_your_Email_for__Get_a_FREE_20_Costco_Cash_/20%Monthly2019-01-03 19:59
http://www.hotnewdeal.com/2019/01/03/277780_G_Skills_Ripjaws_DDR43000_CL15_for_10499_Free_/20%Monthly2019-01-03 19:59
http://www.hotnewdeal.com/2019/01/03/277779_JBL_Studio_2_Series_Speaker_Sale_Studio_220_150/20%Monthly2019-01-03 19:43
http://www.hotnewdeal.com/2019/01/03/277778_Kindle_Business_Finance_eBook_Big_Debt_Crises_by_/20%Monthly2019-01-03 19:43
http://www.hotnewdeal.com/2019/01/03/277777_Dyson_V8_Absolute_249_or_225_at_Lowes_in_store_/20%Monthly2019-01-03 19:36
http://www.hotnewdeal.com/2019/01/03/277776_Amazon_Avalon_water_cooler_Lowest_Price_Ever_79/20%Monthly2019-01-03 19:28
http://www.hotnewdeal.com/2019/01/03/277775_Dusichin_Foam_Cannon__Nozzles_1377_Amazon_Light/20%Monthly2019-01-03 19:28
http://www.hotnewdeal.com/2019/01/03/277774_Refurbished_Samsung_QN65Q65FNFXZA_65_QLED_at_Micr/20%Monthly2019-01-03 19:27
http://www.hotnewdeal.com/2019/01/03/277773_Gator_Lightweight_and_Hard_Guitar_Cases_from_65_/20%Monthly2019-01-03 19:11
http://www.hotnewdeal.com/2019/01/03/277772_24Pack_8oz_V8_VFusion_Juice_Pomegranate_Blueber/20%Monthly2019-01-03 18:59
http://www.hotnewdeal.com/2019/01/03/277771_Addon_Item_AmazonBasics_Campfire_Roasting_Sticks/20%Monthly2019-01-03 18:51
http://www.hotnewdeal.com/2019/01/03/277770_Speed_1994__Amazon_SD_or_HD_499Tax/20%Monthly2019-01-03 18:51
http://www.hotnewdeal.com/2019/01/03/277769_Buttons__Pleats_Premium_Merino_Wool_Hiking_Socks_/20%Monthly2019-01-03 18:36
http://www.hotnewdeal.com/2019/01/03/277768_Easy_Spirit_Womens_Suede__Leather_Booties_Sever/20%Monthly2019-01-03 18:12
http://www.hotnewdeal.com/2019/01/03/277767_Replacement_Drum_Unit_for_Brother_DR630_Laser_Prin/20%Monthly2019-01-03 18:00
http://www.hotnewdeal.com/2019/01/03/277766_56_lb_Optimum_Nutrition_Gold_Standard_Protein_for/20%Monthly2019-01-03 17:43
http://www.hotnewdeal.com/2019/01/03/277765_San_Francisco_to_Rome_Italy_375400_RT_Airfares_/20%Monthly2019-01-03 17:43
http://www.hotnewdeal.com/2019/01/03/277764_Energy_Gel__Double_Expresso_Flavor__12_Ounce_Pa/20%Monthly2019-01-03 17:43
http://www.hotnewdeal.com/2019/01/03/277763_Addon2_Tubes_Burts_Bees_100_Natural_Moisturizi/20%Monthly2019-01-03 17:21
http://www.hotnewdeal.com/2019/01/03/277762_Mark_Twain_The_Complete_Novels_Unabridged_082/20%Monthly2019-01-03 17:11
http://www.hotnewdeal.com/2019/01/03/277761_Costco_Oral_B_Smart_Series_2_pack_electronic_tooth/20%Monthly2019-01-03 17:11
http://www.hotnewdeal.com/2019/01/03/277760_Aukey_Dashcams_DR02_1080_w_w_Sony_Sensor__Nigh/20%Monthly2019-01-03 17:00
http://www.hotnewdeal.com/2019/01/03/277759_Atlanta_to_Aruba_282_RT_Airfares_on_JetBlue_Airwa/20%Monthly2019-01-03 16:51
http://www.hotnewdeal.com/2019/01/03/277758_SW_XWing_Miniatures_Game_Upsilonclass_Shuttle14/20%Monthly2019-01-03 16:51
http://www.hotnewdeal.com/2019/01/03/277757_Good_Eats_Season_1_Prime_Video_5_499/20%Monthly2019-01-03 16:51
http://www.hotnewdeal.com/2019/01/03/277756_SAPPHIRE_Radeon_RX_Vega_64_HBM2_Video_Card_3_AMD/20%Monthly2019-01-03 16:51
http://www.hotnewdeal.com/2019/01/03/277755_YMMV_amazon_15_off_60_Soldshipped_by_amaozn/20%Monthly2019-01-03 16:23
http://www.hotnewdeal.com/2019/01/03/277754_Ferrero_Rocher_Fine_Hazelnut_Chocolates_Chocolate/20%Monthly2019-01-03 16:13
http://www.hotnewdeal.com/2019/01/03/277753_Aukey_USB_C_Wall_Charger_Power_Delivery_30_11_/20%Monthly2019-01-03 16:00
http://www.hotnewdeal.com/2019/01/03/277752_Huami_Amazfit_Bip_Smartwatch__Black_Only_4999_A/20%Monthly2019-01-03 16:00
http://www.hotnewdeal.com/2019/01/03/277751_93_OFF_SITEWIDE_no_minimum_Screen_Protectors_/20%Monthly2019-01-03 15:44
http://www.hotnewdeal.com/2019/01/03/277750_Microfiber_Cleaning_Cloths_12x16in_023026_each/20%Monthly2019-01-03 15:44
http://www.hotnewdeal.com/2019/01/03/277749_EVGA_SuperNOVA_750G2__other_60_after_rebate_Po/20%Monthly2019-01-03 15:44
http://www.hotnewdeal.com/2019/01/03/277748_Southwest_Airlines__Two_Days_Only_Airfare_Sale_fo/20%Monthly2019-01-03 15:44
http://www.hotnewdeal.com/2019/01/03/277747_21_off_Quaker_Simply_Granola_Oats_Honey__Almond/20%Monthly2019-01-03 15:22
http://www.hotnewdeal.com/2019/01/03/277746_Habor_Wireless_Remote_Digital_Meat_Thermometer_Wit/20%Monthly2019-01-03 15:13
http://www.hotnewdeal.com/2019/01/03/277745_Kindle_Unlimited_Prepaid_Subscription__Upto_40_o/20%Monthly2019-01-03 15:13
http://www.hotnewdeal.com/2019/01/03/277744_Huggies_Snug_and_Dry_Diapers_Economy_Plus_Pack_at_/20%Monthly2019-01-03 15:13
http://www.hotnewdeal.com/2019/01/03/277743_Otronics_4pack_Led_Recessed_Lights_fixtures_Dimma/20%Monthly2019-01-03 15:13
http://www.hotnewdeal.com/2019/01/03/277741_FPV_Quadcopter_Drone_with_720P_HD_WiFi_Camera_and_/20%Monthly2019-01-03 14:52
http://www.hotnewdeal.com/2019/01/03/277740_Dominos_Pizza_St_Judes_Meal_Deal_1999/20%Monthly2019-01-03 14:38
http://www.hotnewdeal.com/2019/01/03/277739_Mario_Party_The_Top_100_Nintendo_3DS_2799__F/20%Monthly2019-01-03 14:38
http://www.hotnewdeal.com/2019/01/03/277738_FYI_Mintsim_existing_and_new_customers__2GB_pla/20%Monthly2019-01-03 14:38
http://www.hotnewdeal.com/2019/01/03/277737_2Pack_Red_Copper_Mug__16_oz_CeramicLined_Dou/20%Monthly2019-01-03 14:28
http://www.hotnewdeal.com/2019/01/03/277736_Kohls_Offer__5_off_25__onlineinstore/20%Monthly2019-01-03 13:45
http://www.hotnewdeal.com/2019/01/03/277735_Arcteryx_Kyanite_Hoodie_for_Men_9995/20%Monthly2019-01-03 13:45
http://www.hotnewdeal.com/2019/01/03/277734_Asus_Vivobook_F505ZADH51_156_FHD_Ryzen_2500U/20%Monthly2019-01-03 13:30
http://www.hotnewdeal.com/2019/01/03/277733_Quaker_Chewy_Granola_Bars_and_Dipps_Variety_Pack_/20%Monthly2019-01-03 13:15
http://www.hotnewdeal.com/2019/01/03/277732_Hoover_Vacuum_Cleaner_Air_Lift_Deluxe_Bagless_Cord/20%Monthly2019-01-03 13:02
http://www.hotnewdeal.com/2019/01/03/277731_Gillette_Venus_Womens_3_Blade_Disposable_Razor_T/20%Monthly2019-01-03 13:01
http://www.hotnewdeal.com/2019/01/03/277730_960GB_ADATA_SU650_25_SSD_103_Newegg/20%Monthly2019-01-03 13:01
http://www.hotnewdeal.com/2019/01/03/277729_Kindle_PostApocalyptic_eBook_The_Fireman_by_Joe_/20%Monthly2019-01-03 12:35
http://www.hotnewdeal.com/2019/01/03/277728_NZXT_Kraken_X62_Liquid_CPU_Cooler_w_Coupon_1286/20%Monthly2019-01-03 12:35
http://www.hotnewdeal.com/2019/01/03/277725_RAD_Cycle_Products_Pro_Stand_Plus_Bicycle_Adjustab/20%Monthly2019-01-03 12:14
http://www.hotnewdeal.com/2019/01/03/277724_LL_Bean_Daily_Deal_Mens_Snow_Sneakers_3_Mid_Lace/20%Monthly2019-01-03 12:14
http://www.hotnewdeal.com/2019/01/03/277723_Essential_Yoga_An_Illustrated_Guide_to_over_100_Y/20%Monthly2019-01-03 12:14
http://www.hotnewdeal.com/2019/01/03/277722_OnHub_AC1900_WiFi_Router__ARRIS_SURFboard_N300_D/20%Monthly2019-01-03 12:01
http://www.hotnewdeal.com/2019/01/03/277721_Anker_PowerPort_Mini_Dual_Port_Wall_Charger_Super/20%Monthly2019-01-03 11:44
http://www.hotnewdeal.com/2019/01/03/277720_Remote_Control_RC_Programmable_Robot_For_Kids_18/20%Monthly2019-01-03 11:44
http://www.hotnewdeal.com/2019/01/03/277719_AmazonBasics_4Shelf_Shelving_Unit_on_3_Casters/20%Monthly2019-01-03 11:29
http://www.hotnewdeal.com/2019/01/03/277718_BestBuy_MagnavoxMBP6700P_4K_Ultra_HD_BluRay_Pl/20%Monthly2019-01-03 11:29
http://www.hotnewdeal.com/2019/01/03/277717_Speedo_Mens_Surf_Runner_Volley_Swim_Trunk_2_Spe/20%Monthly2019-01-03 11:12
http://www.hotnewdeal.com/2019/01/03/277716_RayBan_59MM_Rectangle_Sunglasses_black_or_havana/20%Monthly2019-01-03 10:59
http://www.hotnewdeal.com/2019/01/03/277715_8_Pack_Baby_Bibs_Soft_and_Absorbent_for_Boys__Gi/20%Monthly2019-01-03 10:49
http://www.hotnewdeal.com/2019/01/03/277714_Ubiquiti_UAPACMUS_Unifi_Mesh_Access_Point_75_A/20%Monthly2019-01-03 10:49
http://www.hotnewdeal.com/2019/01/03/277713_3M_Command_4Key_HooksHangers_Black_Silver__6/20%Monthly2019-01-03 10:48
http://www.hotnewdeal.com/2019/01/03/277712_Holiday_Time_6_Flocked_Pine_Artificial_Christmas_/20%Monthly2019-01-03 10:37
http://www.hotnewdeal.com/2019/01/03/277711_Target_BM__Toy_Doll_Farmhouse__Hearth__Hand_wi/20%Monthly2019-01-03 10:24
http://www.hotnewdeal.com/2019/01/03/277710_Childrens_Ski_Mittens_Water_Resistant__Windproof/20%Monthly2019-01-03 10:24
http://www.hotnewdeal.com/2019/01/03/277709_2019_Academic_Weekly_Monthly_and_Yearly_Planner_w/20%Monthly2019-01-03 10:13
http://www.hotnewdeal.com/2019/01/03/277708_Target__Super_Mario_3D_Land_3DS_1399__Free_Shi/20%Monthly2019-01-03 10:00
http://www.hotnewdeal.com/2019/01/03/277707_Pflueger_Patriarch_for_80_60_off/20%Monthly2019-01-03 09:44
http://www.hotnewdeal.com/2019/01/03/277706_Automatic_Windproof_Travel_Umbrella_w_Double_Cano/20%Monthly2019-01-03 09:44
http://www.hotnewdeal.com/2019/01/03/277705_ProtechDNA_Property_DNA_Protection_Kit_FREE/20%Monthly2019-01-03 09:28
http://www.hotnewdeal.com/2019/01/03/277704_Ubiquiti_Networks_UniFi_24_port_managed_gigabit_sw/20%Monthly2019-01-03 08:30
http://www.hotnewdeal.com/2019/01/03/277703_Code_of_Princess_Ex_Nintendo_Switch_2650/20%Monthly2019-01-03 08:00
http://www.hotnewdeal.com/2019/01/03/277702_Yamaha__200W_2Ch_Stereo_Receiver__Black_4499/20%Monthly2019-01-03 08:00
http://www.hotnewdeal.com/2019/01/03/277701_Memory_Foam_Bamboo_Charcoal_Infused_Ventilated_Ort/20%Monthly2019-01-03 07:52
http://www.hotnewdeal.com/2019/01/03/277700_Amazon_SS_Burts_Bees_Flavor_Crystals_100_Natur/20%Monthly2019-01-03 07:43
http://www.hotnewdeal.com/2019/01/03/277699_Pure_Lye_Drain_Opener_580_w_free_prime_shipping/20%Monthly2019-01-03 07:27
http://www.hotnewdeal.com/2019/01/03/277698_Octopath_Traveler_Nintendo_Switch_Physical_Game/20%Monthly2019-01-03 07:27
http://www.hotnewdeal.com/2019/01/03/277697_Turkey_Perky_Jerky_14_oz_Bag__Original_Flavor_Lo/20%Monthly2019-01-03 06:59
http://www.hotnewdeal.com/2019/01/03/277696_2Pack_TPLink_HS220_Smart_WiFi_Light_Switch_Dimme/20%Monthly2019-01-03 06:59
http://www.hotnewdeal.com/2019/01/03/277695_Lonesome_Dove_Bluray_560__Free_Shipping__Am/20%Monthly2019-01-03 06:59
http://www.hotnewdeal.com/2019/01/03/277694_Auto_Drive_Edgeless_Microfiber_Cleaning_Cloths_12/20%Monthly2019-01-03 06:42
http://www.hotnewdeal.com/2019/01/03/277693_M18_18Volt_LithiumIon_Compact_Brushless_Cordless/20%Monthly2019-01-03 06:28
http://www.hotnewdeal.com/2019/01/03/277692_Dunkin_Donuts_Perk_Members_Reload_10_using_Maste/20%Monthly2019-01-03 05:42
http://www.hotnewdeal.com/2019/01/03/277691_Buy_Shibari_8oz_Premium_Water_Based_Lube_Get_Free/20%Monthly2019-01-03 04:00
http://www.hotnewdeal.com/2019/01/03/277690_Flashpoint_XPLOR_600_HSS_TTL_Monolight_w_R2_24GH/20%Monthly2019-01-03 03:26
http://www.hotnewdeal.com/2019/01/03/277689_AMAZON_50off_5_Exercise_Resistance_Bands_with/20%Monthly2019-01-03 03:12
http://www.hotnewdeal.com/2019/01/03/277688_Nintendo_Switch_Digital_Download_Games_Mario_Kart/20%Monthly2019-01-03 02:31
http://www.hotnewdeal.com/2019/01/03/277687_REFUN_Ultra_Bright_Flashlight_2Pack_5_Light_Mode/20%Monthly2019-01-03 02:31
http://www.hotnewdeal.com/2019/01/03/277686_Bouncy_Bob_Nintendo_Switch_Digital_Download_00/20%Monthly2019-01-03 01:47
http://www.hotnewdeal.com/2019/01/03/277685_The_Body_Shop__Extra_20_Off_on_Select_Skincare_p/20%Monthly2019-01-03 01:25
http://www.hotnewdeal.com/2019/01/03/277684_34X75_GILMOUR_INDUSTRIAL_HOSE_for_1203_at_Hom/20%Monthly2019-01-03 01:17
http://www.hotnewdeal.com/2019/01/03/277683_Fast_charge_Samsung_power_bank_10000mah_dual_ports/20%Monthly2019-01-03 01:17
http://www.hotnewdeal.com/2019/01/03/277682_TCL_65S513_65_4K_UHD_Roku_LED_LCD_59999_is_back/20%Monthly2019-01-03 01:17
http://www.hotnewdeal.com/2019/01/03/277681_24Count_26_oz_Sheba_Perfect_Portions_Wet_Cat_Fo/20%Monthly2019-01-03 00:16
http://www.hotnewdeal.com/2019/01/03/277680_CenturyLink_Gigabit_Fiber_65_per_month_for_life_/20%Monthly2019-01-03 00:06
http://www.hotnewdeal.com/2019/01/03/277679_Lowes_Tide_115fl_oz_Original_HE_Laundry_Deterge/20%Monthly2019-01-03 00:06
http://www.hotnewdeal.com/2019/01/02/277678_Woogwin_Women_Winter_Warm_Gloves_Touch_Screen_Phon/20%Monthly2019-01-02 23:59
http://www.hotnewdeal.com/2019/01/02/277677_Sony_PlayStation_Gold_Wireless_Headset_71_Surroun/20%Monthly2019-01-02 23:56
http://www.hotnewdeal.com/2019/01/02/277676_Prime_Members_12Pack_of_11oz_Orgain_Grass_Fed_Pr/20%Monthly2019-01-02 23:47
http://www.hotnewdeal.com/2019/01/02/277675_YMMV_320_599_HP_Pavilion_X360_Convertible_Lapt/20%Monthly2019-01-02 23:47
http://www.hotnewdeal.com/2019/01/02/277674_Zojirushi_BBPAC20BA_Home_Bakery_Virtuoso_Breadmak/20%Monthly2019-01-02 23:47
http://www.hotnewdeal.com/2019/01/02/277672_Sony_Xperia_L2_Factory_Unlocked_Phone__55_Scree/20%Monthly2019-01-02 23:04
http://www.hotnewdeal.com/2019/01/02/277671_Costco_via_Google_express__Cetaphil_Moisturizing_/20%Monthly2019-01-02 23:04
http://www.hotnewdeal.com/2019/01/02/277670_Sandalwood_Advanced_Hydroponic_Plant_Growth_LED_Li/20%Monthly2019-01-02 23:03
http://www.hotnewdeal.com/2019/01/02/277669_SanDisk_High_Endurance_Video_Monitoring_Card_with_/20%Monthly2019-01-02 22:48
http://www.hotnewdeal.com/2019/01/02/277668_Tide_Pods_51ct_LowesYMMV_778/20%Monthly2019-01-02 22:34
http://www.hotnewdeal.com/2019/01/02/277667_Charmin_Ultra_Strong_36_Mega_Plus__6_Super_Mega_/20%Monthly2019-01-02 22:17
http://www.hotnewdeal.com/2019/01/02/277666_PEIWEI__Two_regular_rice_bowls_10/20%Monthly2019-01-02 22:03
http://www.hotnewdeal.com/2019/01/02/277665_Etrian_Odyssey_V_Beyond_The_Myth_for_Nintendo_3DS/20%Monthly2019-01-02 22:03
http://www.hotnewdeal.com/2019/01/02/277664_Hunter_Avia_54_LED_Indoor_Ceiling_Fan_99_30_of/20%Monthly2019-01-02 22:03
http://www.hotnewdeal.com/2019/01/02/277663_7_Minutes_to_Fit_50_Anytime_Anywhere_Interval_Wo/20%Monthly2019-01-02 21:45
http://www.hotnewdeal.com/2019/01/02/277662_Dorco_Pace_4_Razor_with_2_cartridges__199_plus_/20%Monthly2019-01-02 21:45
http://www.hotnewdeal.com/2019/01/02/277661_Tacklife_CM02A_600_Amp_TRMS_6000_Counts_NCV_Digita/20%Monthly2019-01-02 21:45
http://www.hotnewdeal.com/2019/01/02/277660_Pixio_PX329_32_165Hz_WQHD_VA_LED_Monitor_330_AC_/20%Monthly2019-01-02 21:39
http://www.hotnewdeal.com/2019/01/02/277659_Quest_Nutrition_Tortilla_Style_Protein_Chips_Ranc/20%Monthly2019-01-02 21:31
http://www.hotnewdeal.com/2019/01/02/277658_Hallmark_Ornaments_and_Decor_75_off/20%Monthly2019-01-02 21:18
http://www.hotnewdeal.com/2019/01/02/277656_Lucky_Brand_Up_to_75_Off_Sale_Styles_Mens_221_/20%Monthly2019-01-02 21:09
http://www.hotnewdeal.com/2019/01/02/277655_Lowes_YMMV_WorkPro_3Piece_Tin_Snips_748_w_Fr/20%Monthly2019-01-02 20:56
http://www.hotnewdeal.com/2019/01/02/277654_Amazon_addon_Bloopies_IMC_Baby_COBI_308/20%Monthly2019-01-02 20:54
http://www.hotnewdeal.com/2019/01/02/277653_YI_Compact_Dash_Cam_1080p_Full_HD_Black_for_2499/20%Monthly2019-01-02 20:48
http://www.hotnewdeal.com/2019/01/02/277652_Pampers_Easy_Ups_Training_Pants_Pull_On_Disposable/20%Monthly2019-01-02 20:43
http://www.hotnewdeal.com/2019/01/02/277650_Community_Coffee_Full_Pallet_of_Ground_Coffee_Bags/20%Monthly2019-01-02 20:04
http://www.hotnewdeal.com/2019/01/02/277649_Ibanez_GIO_GSR200_Electric_Bass_Guitar_150_GIO_/20%Monthly2019-01-02 20:03
http://www.hotnewdeal.com/2019/01/02/277648_Battlefield_1_PS4_digital_download_399/20%Monthly2019-01-02 20:03
http://www.hotnewdeal.com/2019/01/02/277647_TORCHSTAR_Plant_Grow_LED_Light_Kit_Indoor_Herb_Ga/20%Monthly2019-01-02 19:55
http://www.hotnewdeal.com/2019/01/02/277646_Age_of_Empires_II_HD_on_Steam_PC_Digital_Download/20%Monthly2019-01-02 19:45
http://www.hotnewdeal.com/2019/01/02/277643_Sun_Joe_SPX9009PRO_241_HP_1800_PSI_16_GPM_Comme/20%Monthly2019-01-02 19:13
http://www.hotnewdeal.com/2019/01/02/277642_The_Economist_Print_or_Digital_for_4999_or_Pri/20%Monthly2019-01-02 18:59
http://www.hotnewdeal.com/2019/01/02/277641_SAMSUNG_128GB_BAR_Plus_Metal_USB_31_Flash_Drive/20%Monthly2019-01-02 18:59
http://www.hotnewdeal.com/2019/01/02/277640_Crucial_MX500_500GB_SSD_6459/20%Monthly2019-01-02 18:45
http://www.hotnewdeal.com/2019/01/02/277639_Truper_6cu_ft_Steel_Wheelbarrow32_YMMV_Lowes/20%Monthly2019-01-02 18:31
http://www.hotnewdeal.com/2019/01/02/277638_Dell_Alienware_17_R5_173_Full_HD_Gaming_Notebook/20%Monthly2019-01-02 18:18
http://www.hotnewdeal.com/2019/01/02/277637_2Pack_28oz_Quaker_Simply_Granola_Oats_Cereal_Ho/20%Monthly2019-01-02 18:18
http://www.hotnewdeal.com/2019/01/02/277636_CRC_03084_11oz_Dry_Moly_Lubricant_Aerosol_Spray_A/20%Monthly2019-01-02 17:45
http://www.hotnewdeal.com/2019/01/02/277635_Viewtek_VTS108CN_6080_Miles_Range_Amplified_HDTV_/20%Monthly2019-01-02 17:45
http://www.hotnewdeal.com/2019/01/02/277634_Addon_Item_Swiffer_Sweeper_Dry_and_Wet_Floor_Mop/20%Monthly2019-01-02 17:22
http://www.hotnewdeal.com/2019/01/02/277633_BLACKDECKER_MarkIT_Picture_Hanging_Kit_w_8_oz_Ha/20%Monthly2019-01-02 17:13
http://www.hotnewdeal.com/2019/01/02/277632_2Pack_LeonLite_12W_LED_Square_Wall_Light_White__/20%Monthly2019-01-02 17:13
http://www.hotnewdeal.com/2019/01/02/277631_2_Ring_Spotlight_Cam_Battery_Digital_Wireless_Outd/20%Monthly2019-01-02 17:01
http://www.hotnewdeal.com/2019/01/02/277630_Graco_4ever_carseat_in_Nova__Target_14999_tax_Y/20%Monthly2019-01-02 17:01
http://www.hotnewdeal.com/2019/01/02/277629_Nature_Valley_Soft_Baked_Filled_Squares_Cocoa_Pean/20%Monthly2019-01-02 16:51
http://www.hotnewdeal.com/2019/01/02/277628_Todoist_is_offering_their_premium_app_free_for_3_m/20%Monthly2019-01-02 16:38
http://www.hotnewdeal.com/2019/01/02/277626_Sylvania_Led_60w_A19_12_Pack_Soft_White_for_450/20%Monthly2019-01-02 16:15
http://www.hotnewdeal.com/2019/01/02/277625_PowerA_Enhanced_Wireless_Controller_for_Nintendo_S/20%Monthly2019-01-02 16:15
http://www.hotnewdeal.com/2019/01/02/277624_Pizza_Hut_50_Off_MenuPriced_Pizzas_Online_Order/20%Monthly2019-01-02 16:00
http://www.hotnewdeal.com/2019/01/02/277622_Safeway__Albertsons__Vons_Just4U_App_Save_7_WY/20%Monthly2019-01-02 15:28
http://www.hotnewdeal.com/2019/01/02/277621_2x_SafeRacks_Overhead_Garage_Storage_Combo_Kit_4_/20%Monthly2019-01-02 15:28
http://www.hotnewdeal.com/2019/01/02/277620_4Pack_Paper_Mate_InkJoy_Mini_Retractable_Ballpoin/20%Monthly2019-01-02 15:28
http://www.hotnewdeal.com/2019/01/02/277619_PowerA_JoyCon__Pro_Controller_Charging_Dock_14/20%Monthly2019-01-02 15:12
http://www.hotnewdeal.com/2019/01/02/277618_Costco_850_off_on_Huggies_Little_Snugglers_Plus/20%Monthly2019-01-02 15:12
http://www.hotnewdeal.com/2019/01/02/277617_CAP_Hex_trap_bar_for_weightlifting_8499/20%Monthly2019-01-02 15:12
http://www.hotnewdeal.com/2019/01/02/277616_70Ct_1_Bottle_Vitafusion_B_Complex_Gummy_Vitam/20%Monthly2019-01-02 14:57
http://www.hotnewdeal.com/2019/01/02/277615_Oxiclean_Versatile_Stain_Remover722_Lbs_898/20%Monthly2019-01-02 14:52
http://www.hotnewdeal.com/2019/01/02/277614_144Ct_all_Mighty_Pacs_Laundry_Detergent_1305_or/20%Monthly2019-01-02 14:43
http://www.hotnewdeal.com/2019/01/02/277613_Google_18W_USBC_Power_Adapter_w_Cable_1454/20%Monthly2019-01-02 14:43
http://www.hotnewdeal.com/2019/01/02/277612_Samsung_860_EVO_500GB_25_Inch_SATA_III_Internal_S/20%Monthly2019-01-02 14:37
http://www.hotnewdeal.com/2019/01/02/277611_Bayonetta_2_Physical_Game_Card__Bayonetta_Digi/20%Monthly2019-01-02 14:37
http://www.hotnewdeal.com/2019/01/02/277610_GE_6_Outlet_Wall_Plug_Adapter_531/20%Monthly2019-01-02 14:37
http://www.hotnewdeal.com/2019/01/02/277609_12x6_Franklin_Sports_Competition_Soccer_Goal__50/20%Monthly2019-01-02 14:27
http://www.hotnewdeal.com/2019/01/02/277608_Ugg_Closet_Sale_Mens_Bueller_Hyperweave_Sneaker_/20%Monthly2019-01-02 14:21
http://www.hotnewdeal.com/2019/01/02/277607_Yuneec_Typhoon_Q500_4K__Video_Quadcopter__399_w/20%Monthly2019-01-02 14:10
http://www.hotnewdeal.com/2019/01/02/277606_FIFA_19_or_Madden_NFL_19_Xbox_One_Digital_Downloa/20%Monthly2019-01-02 14:10
http://www.hotnewdeal.com/2019/01/02/277605_CLEARANCE_50_OFF__12Pack_LED_Light_Bulbs__A19_/20%Monthly2019-01-02 13:59
http://www.hotnewdeal.com/2019/01/02/277604_Kidde_21026043_BatteryOperated_Combination_Smoke/20%Monthly2019-01-02 13:59
http://www.hotnewdeal.com/2019/01/02/277603_Bic_Hybrid_4_Advance_For_Men_Disposable_4Blade_S/20%Monthly2019-01-02 13:42
http://www.hotnewdeal.com/2019/01/02/277602_Costco_Michelin_Tire_70_off_plus_1c_installation_/20%Monthly2019-01-02 13:42
http://www.hotnewdeal.com/2019/01/02/277601_Kobalt_80V_Hedge_Trimmer_battery_not_included__/20%Monthly2019-01-02 13:27
http://www.hotnewdeal.com/2019/01/02/277600_Greenies_Feline_Dental_Treats_25oz_187_or_Les/20%Monthly2019-01-02 13:26
http://www.hotnewdeal.com/2019/01/02/277598_Savage_Macro_Art_Extension_Tube_for_Canon_EFEFS_/20%Monthly2019-01-02 13:10
http://www.hotnewdeal.com/2019/01/02/277597_Mortal_Kombat_X_Digital_Download_PC_259/20%Monthly2019-01-02 13:04
http://www.hotnewdeal.com/2019/01/02/277596_Poulan_Pro_PPB40T_14_in_40Volt_Cordless_Straigh/20%Monthly2019-01-02 12:57
http://www.hotnewdeal.com/2019/01/02/277595_8Pack_of_160Count_Kleenex_Everyday_2Ply_Facial_/20%Monthly2019-01-02 12:44
http://www.hotnewdeal.com/2019/01/02/277594_Amazon__Fantom_Drives_500GB_External_SSD_USB_31_/20%Monthly2019-01-02 12:35
http://www.hotnewdeal.com/2019/01/02/277593_Harrys_Holiday_Mens_Shave_Set_Bundle_75_off__/20%Monthly2019-01-02 12:34
http://www.hotnewdeal.com/2019/01/02/277592_Target_BM_Sensodyne_Toothpaste_3x_4oz_tubes_for_/20%Monthly2019-01-02 12:34
http://www.hotnewdeal.com/2019/01/02/277591_OxiClean_Washing_Machine_Cleaner_with_Odor_Blaster/20%Monthly2019-01-02 12:28
http://www.hotnewdeal.com/2019/01/02/277590_Fujifilm_Instax_Mini_Twin_Film_Pack_1260__Wal/20%Monthly2019-01-02 12:28
http://www.hotnewdeal.com/2019/01/02/277589_TMobile_Customers_0108_Pizza_Deals_10_free_4/20%Monthly2019-01-02 11:58
http://www.hotnewdeal.com/2019/01/02/277588_2019_Weekly_Monthly_Planner_with_Monthly_Tabs_5_/20%Monthly2019-01-02 11:42
http://www.hotnewdeal.com/2019/01/02/277587_Musicians_Gear_Deluxe_Conductor_Music_Stand_129/20%Monthly2019-01-02 11:42
http://www.hotnewdeal.com/2019/01/02/277586_Kindle_Classic_SciFi_eBook_Galactic_Empire_Trilo/20%Monthly2019-01-02 11:27
http://www.hotnewdeal.com/2019/01/02/277585_Logitech_G600_MMO_Gaming_Mouse__Best_Buy_for_24/20%Monthly2019-01-02 11:27
http://www.hotnewdeal.com/2019/01/02/277584_Flirty_Home_5_Sale__50_off_and_free_shipping_co/20%Monthly2019-01-02 11:27
http://www.hotnewdeal.com/2019/01/02/277583_The_Legend_of_Zelda_Breath_of_the_Wild__Wii_U_N/20%Monthly2019-01-02 11:27
http://www.hotnewdeal.com/2019/01/02/277582_Free_Coffee_or_Bagel_Every_Day_in_January/20%Monthly2019-01-02 11:11
http://www.hotnewdeal.com/2019/01/02/277581_Nintendo_JoyCon_AA_Battery_Pack_with_63_OFF_12/20%Monthly2019-01-02 10:58
http://www.hotnewdeal.com/2019/01/02/277580_Price_Drop_Swanson_Big_12_Speed_Square_w_8_Spe/20%Monthly2019-01-02 10:58
http://www.hotnewdeal.com/2019/01/02/277579_8Port_Ubiquiti_Networks_Gigabit_Ethernet_Switch_w/20%Monthly2019-01-02 10:58
http://www.hotnewdeal.com/2019/01/02/277578_12oz_Thayers_Witch_Hazel_AlcoholFree_Skin_Toner_/20%Monthly2019-01-02 10:48
http://www.hotnewdeal.com/2019/01/02/277577_36Count_Scott_ComfortPlus_Toilet_Paper_Large_Rol/20%Monthly2019-01-02 10:43
http://www.hotnewdeal.com/2019/01/02/277576_Magnetic_Drawing_Board_Toy_13X17_Magna_Doodles_S/20%Monthly2019-01-02 10:43
http://www.hotnewdeal.com/2019/01/02/277575_Samsung_Galaxy_Smartwatch_46mm__Silver__279_Co/20%Monthly2019-01-02 10:37
http://www.hotnewdeal.com/2019/01/02/277573_4K_UHD_Digital_Movies_My_Best_Friends_Wedding_Ju/20%Monthly2019-01-02 09:42
http://www.hotnewdeal.com/2019/01/02/277572_ChefsChoice_15_Trizor_XV_EdgeSelect_Electric_Knif/20%Monthly2019-01-02 09:42
http://www.hotnewdeal.com/2019/01/02/277571_Zint_Organic_Turmeric_Powder_Raw_Turmeric_Curcumi/20%Monthly2019-01-02 09:11
http://www.hotnewdeal.com/2019/01/02/277570_Sheba_Wet_Cat_Food_24_count_662/20%Monthly2019-01-02 08:50
http://www.hotnewdeal.com/2019/01/02/277569_Granberg_778_36_Alaskan_mill_18864/20%Monthly2019-01-02 08:36
http://www.hotnewdeal.com/2019/01/02/277567_LG_32GK850FB_32_inch_VA_QHD_HDR_FreeSync_2_Monito/20%Monthly2019-01-02 06:31
http://www.hotnewdeal.com/2019/01/02/277566_Amex_Offers__Get_10_back_at_Lowes_up_to_100_/20%Monthly2019-01-02 05:45
http://www.hotnewdeal.com/2019/01/02/277565_Watch_a_Free_New_This_Month_title_on_1219_to_g/20%Monthly2019-01-02 05:45
http://www.hotnewdeal.com/2019/01/02/277564_12pack_Sour_Patch_Kids_Green__Red_Christmas_Holi/20%Monthly2019-01-02 04:44
http://www.hotnewdeal.com/2019/01/02/277563_Letscom_True_Wireless_Earbuds_Bluetooth_50_Sports/20%Monthly2019-01-02 03:06
http://www.hotnewdeal.com/2019/01/02/277562_Lodge_1025_PreSeasoned_Cast_Iron_Skillet_999_/20%Monthly2019-01-02 02:34
http://www.hotnewdeal.com/2019/01/02/277561_6Quart_Instant_Pot_DUO60_7in1_MultiUse_Program/20%Monthly2019-01-02 02:12
http://www.hotnewdeal.com/2019/01/02/277560_Mens_Mad_Engine_Star_Wars_Zip_Up_Fleece_Jacket_8/20%Monthly2019-01-02 02:12
http://www.hotnewdeal.com/2019/01/02/277559_EVGA_GeForce_RTX_2070_XC_BLACK_EDITION_GAMING_Grap/20%Monthly2019-01-02 01:40
http://www.hotnewdeal.com/2019/01/02/277558_Amazon_Stainless_Steel_Toilet_Brush_and_Holder__/20%Monthly2019-01-02 01:33
http://www.hotnewdeal.com/2019/01/02/277557_Overpowered_Gaming_Laptop_17_i78750H_32GB_RAM/20%Monthly2019-01-02 01:13
http://www.hotnewdeal.com/2019/01/02/277556_Target_Cartwheel_3_x_Bounty_8_Huge_Rolls_or_3_x/20%Monthly2019-01-02 01:13
http://www.hotnewdeal.com/2019/01/02/277555_Nitecore_NU32_550_Lumen_Headlamp_RedWhite_High_CR/20%Monthly2019-01-02 01:08
http://www.hotnewdeal.com/2019/01/02/277554_72Count_Fresh_Roasted_Coffee_Anniversary_Blend_K/20%Monthly2019-01-02 00:04
http://www.hotnewdeal.com/2019/01/02/277553_81Count_Gain_Flings_Laundry_Detergent_Pacs_Origi/20%Monthly2019-01-02 00:04
http://www.hotnewdeal.com/2019/01/01/277552_Norton_Security_Deluxe__5_Devices__1_Year_Subscr/20%Monthly2019-01-01 23:48
http://www.hotnewdeal.com/2019/01/01/277551_Bowflex_Selecttech_560_bundle_with_stand_and_bench/20%Monthly2019-01-01 23:48
http://www.hotnewdeal.com/2019/01/01/277550_AMD_RYZEN_7_2700X_8Core_37_GHz_Socket_AM4_105W_Y/20%Monthly2019-01-01 23:31
http://www.hotnewdeal.com/2019/01/01/277549_Mash_The_Complete_Collection_MASH_34_DVDs_/20%Monthly2019-01-01 23:24
http://www.hotnewdeal.com/2019/01/01/277548_79_off_add_on_item_Elmers_Glue_Stick_E579_Dis/20%Monthly2019-01-01 23:17
http://www.hotnewdeal.com/2019/01/01/277547_Canon__PIXMA_TS9120_Wireless_AllInOne_Printer_/20%Monthly2019-01-01 23:17
http://www.hotnewdeal.com/2019/01/01/277546_White_Cloud_Strong__Soft_2_Ply_Toilet_Paper_48_M/20%Monthly2019-01-01 23:04
http://www.hotnewdeal.com/2019/01/01/277545_My_Little_Pony_Pinkie_Pie_Beats__Treats_Magical_C/20%Monthly2019-01-01 23:04
http://www.hotnewdeal.com/2019/01/01/277544_Microsoft_Surface_Book_2_15_2in1_Laptop_with_16/20%Monthly2019-01-01 22:56
http://www.hotnewdeal.com/2019/01/01/277543_3Boxes_6_Traps_Terro_T25033_Fruit_Fly_Trap_5/20%Monthly2019-01-01 22:56
http://www.hotnewdeal.com/2019/01/01/277542_Amazon__Band_of_Brothers_BluRay_and_Digital_HD_/20%Monthly2019-01-01 22:56
http://www.hotnewdeal.com/2019/01/01/277541_100Count_Don_Franciscos_100_Organic_Mayan_Blend/20%Monthly2019-01-01 22:39
http://www.hotnewdeal.com/2019/01/01/277540_Fury_Amazon_Digital_4K_699/20%Monthly2019-01-01 22:39
http://www.hotnewdeal.com/2019/01/01/277539_Geek_Squad_Certified_Refurbished_Pixelbook_123_T/20%Monthly2019-01-01 22:39
http://www.hotnewdeal.com/2019/01/01/277538_YMMV_Lowes_Kobalt_4Tool_24volt_Max_Brushless_/20%Monthly2019-01-01 22:24
http://www.hotnewdeal.com/2019/01/01/277537_Heinz_Tomato_Ketchup_Jug_114_Ounce_582_Free_sh/20%Monthly2019-01-01 22:17
http://www.hotnewdeal.com/2019/01/01/277536_MARGE_PLUS_USB_Type_C_Cable_3_Pack_6ft_Nylon_Bra/20%Monthly2019-01-01 22:04
http://www.hotnewdeal.com/2019/01/01/277535_TODAY_ONLY_Quickjack_BL5000SLX_5000lb_portable_c/20%Monthly2019-01-01 22:03
http://www.hotnewdeal.com/2019/01/01/277534_SanDisk_SD_Card_64GB_Extreme_PRO_170MBs_Read_90M/20%Monthly2019-01-01 21:54
http://www.hotnewdeal.com/2019/01/01/277533_Merry_Christmas_Little_Pookie_Boardbook_299_/20%Monthly2019-01-01 21:30
http://www.hotnewdeal.com/2019/01/01/277532_Walmart_YMMV_99_Dell__Inspiron_2in1_116_Tou/20%Monthly2019-01-01 21:14
http://www.hotnewdeal.com/2019/01/01/277531_22lb_Creatine_Monohydrate_unflavored__1199_/20%Monthly2019-01-01 20:54
http://www.hotnewdeal.com/2019/01/01/277530_Hasbro_Star_Wars_Bop_It_Game_1025__More_Walmart/20%Monthly2019-01-01 20:35
http://www.hotnewdeal.com/2019/01/01/277529_Ryobi18Volt_ONE_LiIon_Brushless_4Tool_Combo_Ki/20%Monthly2019-01-01 20:20
http://www.hotnewdeal.com/2019/01/01/277528_Fitbit_Charge_3_at_QVC_for_10996_after_QVC_coupo/20%Monthly2019-01-01 20:20
http://www.hotnewdeal.com/2019/01/01/277527_open_box_Fender_American_Professional_Jazz_Bass/20%Monthly2019-01-01 20:20
http://www.hotnewdeal.com/2019/01/01/277526_Humble_Stardock_Bundle_2019__1/20%Monthly2019-01-01 20:05
http://www.hotnewdeal.com/2019/01/01/277525_CondomUSAcom_special_new_year_clearance_with_free/20%Monthly2019-01-01 19:45
http://www.hotnewdeal.com/2019/01/01/277524_Cisco_Online_Training_40_for_multiple_courses/20%Monthly2019-01-01 19:45
http://www.hotnewdeal.com/2019/01/01/277523_Babylon_5_Complete_Series_5_Seasons_30_at_iTun/20%Monthly2019-01-01 19:45
http://www.hotnewdeal.com/2019/01/01/277522_Disney_Store_Sale_Tsum_Tsum_Plush_Set_699_Kid/20%Monthly2019-01-01 19:44
http://www.hotnewdeal.com/2019/01/01/277521_YMMV_PRIME_White_Remote_Control_Lamp_Module_3_Pack/20%Monthly2019-01-01 19:29
http://www.hotnewdeal.com/2019/01/01/277520_Klipsch_Wireless_pair_RP440WF_Floors__pair_/20%Monthly2019-01-01 19:29
http://www.hotnewdeal.com/2019/01/01/277519_20_OFF_TracFone_Prepaid_Phone_Cards_Email_Delive/20%Monthly2019-01-01 19:29
http://www.hotnewdeal.com/2019/01/01/277518_Target_InStore_Cartwheel_Offer_52Oz_Simply_Ligh/20%Monthly2019-01-01 19:13
http://www.hotnewdeal.com/2019/01/01/277517_Fender_Mini_Electric_or_Acoustic_Guitar_Stand_5_/20%Monthly2019-01-01 19:13
http://www.hotnewdeal.com/2019/01/01/277516_Digital_Games_Star_Trek_Bridge_Crew_PSVR_999/20%Monthly2019-01-01 19:13
http://www.hotnewdeal.com/2019/01/01/277514_WD_4TB_Black_USB_30_My_Passport_Portable_External/20%Monthly2019-01-01 19:13
http://www.hotnewdeal.com/2019/01/01/277513_24Pack_of_8oz_V8_Energy_Drinks_Pomegranate_Blue/20%Monthly2019-01-01 18:50
http://www.hotnewdeal.com/2019/01/01/277512_Dell_Inspiron_13_5000_2in1_Laptop_Intel_Core_i7/20%Monthly2019-01-01 18:44
http://www.hotnewdeal.com/2019/01/01/277511_Panasonic_ER430K_Advanced_WetDry_BatteryOperated/20%Monthly2019-01-01 18:30
http://www.hotnewdeal.com/2019/01/01/277510_PRIME_6Outlet_Power_Strip_with_Builtin_Circuit_B/20%Monthly2019-01-01 18:00
http://www.hotnewdeal.com/2019/01/01/277509_144Ct_Duracel_AA_Batteries_6__24pk_3788__F/20%Monthly2019-01-01 17:43
http://www.hotnewdeal.com/2019/01/01/277508_Anker_C2_1080p_Dash_Cam_w_GSensor_WDR_Loop_Rec/20%Monthly2019-01-01 17:43
http://www.hotnewdeal.com/2019/01/01/277506_6Pack_TorchStar_3_Recessed_Light_and_Satin_Nicke/20%Monthly2019-01-01 17:28
http://www.hotnewdeal.com/2019/01/01/277505_8Bitdo_Retro_Receiver_for_NESSNESSFC_Classic_Edi/20%Monthly2019-01-01 17:13
http://www.hotnewdeal.com/2019/01/01/277504_Joby_GorillaPod_3K_Lightweight_Professional_Tripod/20%Monthly2019-01-01 17:12
http://www.hotnewdeal.com/2019/01/01/277503_Star_Wars_Jedi_Knight_Jedi_Academy_Mac_Digital_D/20%Monthly2019-01-01 17:12
http://www.hotnewdeal.com/2019/01/01/277501_My_Little_Pony_Plush_Applejack_SeaPony_155__F/20%Monthly2019-01-01 16:27
http://www.hotnewdeal.com/2019/01/01/277500_Peets_Nespresso_Pods_028_each_with_code_HALFSUB/20%Monthly2019-01-01 16:14
http://www.hotnewdeal.com/2019/01/01/277499_Westone_UM_1_Earphones_w_Replaceable_Cable_45__/20%Monthly2019-01-01 16:14
http://www.hotnewdeal.com/2019/01/01/277498_Minneapolis_MN_to_Seattle_or_Vice_Versa_177_RT_No/20%Monthly2019-01-01 16:02
http://www.hotnewdeal.com/2019/01/01/277497_Poweramp_Full_Version_Unlocker_199_normally_3/20%Monthly2019-01-01 16:01
http://www.hotnewdeal.com/2019/01/01/277496_Fila_Girls_Fondato_2_Training_Shoes_1123_Skech/20%Monthly2019-01-01 15:44
http://www.hotnewdeal.com/2019/01/01/277495_Blue_Yeti_USB_Microphone__Blackout_Edition_Black/20%Monthly2019-01-01 15:22
http://www.hotnewdeal.com/2019/01/01/277494_LG_Stylo_4__32_GB__Unlocked_ATTSprintTMobil/20%Monthly2019-01-01 15:13
http://www.hotnewdeal.com/2019/01/01/277493_Mens_Basketball_Shoes_adidas_Cloudfoam_Ilation_2/20%Monthly2019-01-01 15:13
http://www.hotnewdeal.com/2019/01/01/277492_RustOleum_Ultra_Cover_2x_Clear_Spray_Paint__Prim/20%Monthly2019-01-01 15:01
http://www.hotnewdeal.com/2019/01/01/277491_Chicco_KeyFit_30_Zip_Infant_Car_Seat_clearance_11/20%Monthly2019-01-01 15:01
http://www.hotnewdeal.com/2019/01/01/277489_Brandon_SandersonThe_Reckoners_Series_Books_13_/20%Monthly2019-01-01 15:01
http://www.hotnewdeal.com/2019/01/01/277488_Denon_HEOS_5_HS2_Black_Wireless_MultiRoom_Sound_S/20%Monthly2019-01-01 14:51
http://www.hotnewdeal.com/2019/01/01/277487_Wyze_Cam_Mount_Weather_Proof_360_Mount_Cover_Case_/20%Monthly2019-01-01 14:37
http://www.hotnewdeal.com/2019/01/01/277486_JBL_GO_FullFeatured_Portable_Speaker_Refurb__Bla/20%Monthly2019-01-01 14:21
http://www.hotnewdeal.com/2019/01/01/277485_New_Balance_Snap_Down_Jacket_39/20%Monthly2019-01-01 14:15
http://www.hotnewdeal.com/2019/01/01/277484_Amex_Gold_Card_50000_Points_Signup_Bonus_250/20%Monthly2019-01-01 14:15
http://www.hotnewdeal.com/2019/01/01/277483_Breville__12Cup_Coffee_Grinder__Stainless_Steel/20%Monthly2019-01-01 14:02
http://www.hotnewdeal.com/2019/01/01/277482_Duluth_Trading_Buck_Naked_Underwear__6720_for_6/20%Monthly2019-01-01 14:02
http://www.hotnewdeal.com/2019/01/01/277481_Optimum_Nutrition_Essential_Amino_Energy_65_servin/20%Monthly2019-01-01 13:44
http://www.hotnewdeal.com/2019/01/01/277480_Staub_4quart_Round_Dutch_Oven_in_Basil_and_Grenad/20%Monthly2019-01-01 13:44
http://www.hotnewdeal.com/2019/01/01/277479_Sapphire_Video_Card_112661420G_NITRO_RX_570_4GB/20%Monthly2019-01-01 13:30
http://www.hotnewdeal.com/2019/01/01/277478_Shun_7Piece_Essential_Block_Set_37096/20%Monthly2019-01-01 13:23
http://www.hotnewdeal.com/2019/01/01/277477_Linksys_AC3200_Wireless_TriBand_WiFi_Router_EA9/20%Monthly2019-01-01 13:23
http://www.hotnewdeal.com/2019/01/01/277476_Amazon_Video_digital_movie_deals__A_Bronx_Tale__/20%Monthly2019-01-01 13:14
http://www.hotnewdeal.com/2019/01/01/277475_12Ct_212oz_Quest_Nutrition_Protein_Bar_Blueberr/20%Monthly2019-01-01 13:14
http://www.hotnewdeal.com/2019/01/01/277474_Navy_Exchange_10_Off_Orders_Of_10_Military_Onl/20%Monthly2019-01-01 13:01
http://www.hotnewdeal.com/2019/01/01/277473_VRTek_Windows_VR_Glasses_FHD_Resolution__2560x1/20%Monthly2019-01-01 12:47
http://www.hotnewdeal.com/2019/01/01/277472_Vudu_Mix_and_Match_TV__Choose_3_Seasons_HDX_for_/20%Monthly2019-01-01 12:47
http://www.hotnewdeal.com/2019/01/01/277471_Gander_Outdoors_25_off_Order__No_Minimum_1120/20%Monthly2019-01-01 12:47
http://www.hotnewdeal.com/2019/01/01/277470_Bonavita_BV382510V_10L_Digital_Variable_Temperatu/20%Monthly2019-01-01 12:47
http://www.hotnewdeal.com/2019/01/01/277469_New_20192020_18Month_Monthly_Planner__2019_Pl/20%Monthly2019-01-01 12:35
http://www.hotnewdeal.com/2019/01/01/277468_Addon_Item_White_Plastic_Knives_1000Pack_35/20%Monthly2019-01-01 12:29
http://www.hotnewdeal.com/2019/01/01/277467_BIC_Hybrid_4_Flex_Mens_Disposable_Razor_w_4_Cart/20%Monthly2019-01-01 12:29
http://www.hotnewdeal.com/2019/01/01/277466_HALO_Wars_2_Ultimate_Edition_10_wfree_pickup__w/20%Monthly2019-01-01 12:29
http://www.hotnewdeal.com/2019/01/01/277465_Amazon_SS_Quaker_Breakfast_Squares_Soft_Baked_B/20%Monthly2019-01-01 12:29
http://www.hotnewdeal.com/2019/01/01/277464_SanDisk_128GB_Extreme_microSD_UHSI_Card_with_Adap/20%Monthly2019-01-01 12:16
http://www.hotnewdeal.com/2019/01/01/277463_Dark_Days_PCCD_Oculus_Store_FREE/20%Monthly2019-01-01 12:03
http://www.hotnewdeal.com/2019/01/01/277461_Plano_4Tier_HeavyDuty_Plastic_Shelves_for_1497/20%Monthly2019-01-01 12:03
http://www.hotnewdeal.com/2019/01/01/277460_32_Degrees_Ladies_Tech_Fleece_Jogger_Pant_BOGO_at_/20%Monthly2019-01-01 12:03
http://www.hotnewdeal.com/2019/01/01/277458_LL_Bean_Daily_Deal_Mens_Snow_Challenger_Waterpro/20%Monthly2019-01-01 11:44
http://www.hotnewdeal.com/2019/01/01/277457_Disney_Fleece_Throws__Select_Patterns_799__Fre/20%Monthly2019-01-01 11:44
http://www.hotnewdeal.com/2019/01/01/277456_Acer_Aspire_5_Laptop_Intel_Core_i78550U_156_1/20%Monthly2019-01-01 11:44
http://www.hotnewdeal.com/2019/01/01/277455_Intelligent_Blends_16ct_Coffee_KCups_for_only_2/20%Monthly2019-01-01 11:29
http://www.hotnewdeal.com/2019/01/01/277454_Bluray_movies_1_each_w_free_shipping_over_25_/20%Monthly2019-01-01 11:13
http://www.hotnewdeal.com/2019/01/01/277453_Lids__25_OFF_ORDERS_OF_24__ONE_DAY_ONLY_No_C/20%Monthly2019-01-01 11:13
http://www.hotnewdeal.com/2019/01/01/277452_Home_Depot_Select_Power_Tools_Combo_Kits__Acces/20%Monthly2019-01-01 10:58
http://www.hotnewdeal.com/2019/01/01/277451_WORX_12_amp_600_cfm_110mph_corded_leaf_blower__Lo/20%Monthly2019-01-01 10:02
http://www.hotnewdeal.com/2019/01/01/277450_The_Bastard_Executioner_Season_1_HD_Digital_2/20%Monthly2019-01-01 10:01
http://www.hotnewdeal.com/2019/01/01/277448_Moto_E4_Smart_Phone_with_16GB_Memory_Unlocked__/20%Monthly2019-01-01 09:00
http://www.hotnewdeal.com/2019/01/01/277447_Amazon_First_Reads_Kindle_eBooks_for_January19/20%Monthly2019-01-01 08:35
http://www.hotnewdeal.com/2019/01/01/277446_764_ProForm_Pro_2000_Treadmill_2016_Model_Ama/20%Monthly2019-01-01 08:35
http://www.hotnewdeal.com/2019/01/01/277445_Michelin_Tires__Costco_25_back_PLUS_70_off_STA/20%Monthly2019-01-01 08:29
http://www.hotnewdeal.com/2019/01/01/277444_One_A_Day_Mens_Health_Formula_Multivitamin_60_Co/20%Monthly2019-01-01 08:16
http://www.hotnewdeal.com/2019/01/01/277443_12Count_of_14oz_Kind_Bars_Various_Flavors_from/20%Monthly2019-01-01 08:03
http://www.hotnewdeal.com/2019/01/01/277442_OVERPOWERED_15_Laptop_i78750H_144Hz_16GB_RAM/20%Monthly2019-01-01 07:13
http://www.hotnewdeal.com/2019/01/01/277441_HR_BLOCK_Tax_Software_Deluxe__State_2018_Mac_or_/20%Monthly2019-01-01 07:13
http://www.hotnewdeal.com/2019/01/01/277440_Premier_Protein_30_g_Protein_Bar_253_Oz_5_Count_/20%Monthly2019-01-01 06:05
http://www.hotnewdeal.com/2019/01/01/277439_Scivation_Xtend_BCAA_Powder_Blue_Raspberry_30_Se/20%Monthly2019-01-01 06:04
http://www.hotnewdeal.com/2019/01/01/277438_Anker_Portable_Chargers_5000_20000_26800mAh_13/20%Monthly2019-01-01 05:14
http://www.hotnewdeal.com/2019/01/01/277437_AMAZON_Charmin_Ultra_Strong_Clean_Touch_Toilet_Pa/20%Monthly2019-01-01 04:42
http://www.hotnewdeal.com/2019/01/01/277436_10Count_thinkThin_Protein__Fiber_On_the_Go_Bars_/20%Monthly2019-01-01 04:42
http://www.hotnewdeal.com/2019/01/01/277435_Samsung_Galaxy_Note_8_Sprint_360_with_Activatio/20%Monthly2019-01-01 04:14
http://www.hotnewdeal.com/2019/01/01/277434_CORE_Organic_Pomegranate_Blue_Acai_18_Fl_Oz_Pac/20%Monthly2019-01-01 04:04
http://www.hotnewdeal.com/2019/01/01/277433_Amazing_Grass_Green_Superfood_Organic_Powder_282/20%Monthly2019-01-01 04:03
http://www.hotnewdeal.com/2019/01/01/277432_Melissa__Doug_Solid_Wood_Table__Chairs_Kids_Fur/20%Monthly2019-01-01 04:03
http://www.hotnewdeal.com/2019/01/01/277431_Ring_Spotlight_Camera_with_Chime_Pro_17918/20%Monthly2019-01-01 03:00
http://www.hotnewdeal.com/2019/01/01/277430_Under_Armour_SC30_Undeniable_Backpack_31_FS_w_P/20%Monthly2019-01-01 02:43
http://www.hotnewdeal.com/2019/01/01/277429_Insignia_Fire_TV_Stick_Remote_Cover_Various_Color/20%Monthly2019-01-01 02:30
http://www.hotnewdeal.com/2019/01/01/277428_Buffy_The_Vampire_Slayer_The_Complete_Series_SD_/20%Monthly2019-01-01 01:43
http://www.hotnewdeal.com/2019/01/01/277427_HSU_Research_Subwoofers__VTF2_MK5_519_ULS15_M/20%Monthly2019-01-01 01:31
http://www.hotnewdeal.com/2019/01/01/277426_Nintendo_Labo_Variety_Kit_3583_at_Microcenter_YM/20%Monthly2019-01-01 01:13
http://www.hotnewdeal.com/2019/01/01/277425_Dead_Cells__Nintendo_Switch_2585/20%Monthly2019-01-01 01:06
http://www.hotnewdeal.com/2019/01/01/277424_DRAGON_QUEST_XI_Echoes_of_an_Elusive_Age__Digi/20%Monthly2019-01-01 00:20
http://www.hotnewdeal.com/2019/01/01/277423_Cosco_Topside_Booster_Car_Seat__Easy_to_Move_Lig/20%Monthly2019-01-01 00:20
http://www.hotnewdeal.com/2019/01/01/277422_Crocs_Athens_Flip_Flop_Sandals_BlackSmoke_139/20%Monthly2019-01-01 00:15
http://www.hotnewdeal.com/2019/01/01/277421_Lime_Crime_happy_holiday_velvetines_bundle_75_off/20%Monthly2019-01-01 00:02